<?xml version="1.0" encoding="UTF-8" standalone="no" ?>
<gpx xmlns="http://www.topografix.com/GPX/1/1" xmlns:xsi="http://www.w3.org/2001/XMLSchema-instance" xsi:schemaLocation="http://www.topografix.com/GPX/1/1 http://www.topografix.com/GPX/1/1/gpx.xsd" version="1.1" creator="VisuGPX - https://www.visugpx.com">
  <metadata>
    <name>le 200km dans le bourbonnais</name>
    <desc><![CDATA[bon petit 200km sympatique]]></desc>
  </metadata>
  <trk>
    <name><![CDATA[le 200km]]></name>
    <trkseg>
      <trkpt lat="45.86232" lon="3.3029">
        <ele>309.31408691406</ele>
        <time>2020-09-03T20:37:27.000Z</time>
      </trkpt>
      <trkpt lat="45.86232" lon="3.3029">
        <ele>309.31610107422</ele>
        <time>2020-09-03T20:37:27.000Z</time>
      </trkpt>
      <trkpt lat="45.8623" lon="3.30301">
        <ele>308.44940185547</ele>
        <time>2020-09-03T20:37:27.001Z</time>
      </trkpt>
      <trkpt lat="45.8623" lon="3.30301">
        <ele>308.44921875</ele>
        <time>2020-09-03T20:37:27.002Z</time>
      </trkpt>
      <trkpt lat="45.86218" lon="3.30374">
        <ele>302.48443603516</ele>
        <time>2020-09-03T20:37:27.012Z</time>
      </trkpt>
      <trkpt lat="45.8622" lon="3.30398">
        <ele>300.16717529297</ele>
        <time>2020-09-03T20:37:27.024Z</time>
      </trkpt>
      <trkpt lat="45.8622" lon="3.30398">
        <ele>300.16738891602</ele>
        <time>2020-09-03T20:37:27.036Z</time>
      </trkpt>
      <trkpt lat="45.86213" lon="3.30494">
        <ele>295.45919799805</ele>
        <time>2020-09-03T20:37:27.059Z</time>
      </trkpt>
      <trkpt lat="45.86197" lon="3.30588">
        <ele>293.21939086914</ele>
        <time>2020-09-03T20:37:27.093Z</time>
      </trkpt>
      <trkpt lat="45.86197" lon="3.30588">
        <ele>293.21939086914</ele>
        <time>2020-09-03T20:37:27.127Z</time>
      </trkpt>
      <trkpt lat="45.8615" lon="3.30816">
        <ele>294.36773681641</ele>
        <time>2020-09-03T20:37:27.188Z</time>
      </trkpt>
      <trkpt lat="45.86141" lon="3.30863">
        <ele>294.75244140625</ele>
        <time>2020-09-03T20:37:27.254Z</time>
      </trkpt>
      <trkpt lat="45.86127" lon="3.30933">
        <ele>294.45327758789</ele>
        <time>2020-09-03T20:37:27.328Z</time>
      </trkpt>
      <trkpt lat="45.8588" lon="3.30955">
        <ele>294.41464233398</ele>
        <time>2020-09-03T20:37:27.442Z</time>
      </trkpt>
      <trkpt lat="45.85751" lon="3.31022">
        <ele>292.34353637695</ele>
        <time>2020-09-03T20:37:27.578Z</time>
      </trkpt>
      <trkpt lat="45.85593" lon="3.3099">
        <ele>294.68124389648</ele>
        <time>2020-09-03T20:37:27.739Z</time>
      </trkpt>
      <trkpt lat="45.85519" lon="3.30951">
        <ele>294.60858154297</ele>
        <time>2020-09-03T20:37:27.913Z</time>
      </trkpt>
      <trkpt lat="45.85499" lon="3.30947">
        <ele>294.04217529297</ele>
        <time>2020-09-03T20:37:28.090Z</time>
      </trkpt>
      <trkpt lat="45.8546" lon="3.30958">
        <ele>293.33129882812</ele>
        <time>2020-09-03T20:37:28.274Z</time>
      </trkpt>
      <trkpt lat="45.8546" lon="3.30958">
        <ele>293.33129882812</ele>
        <time>2020-09-03T20:37:28.458Z</time>
      </trkpt>
      <trkpt lat="45.85434" lon="3.30981">
        <ele>293.61450195312</ele>
        <time>2020-09-03T20:37:28.646Z</time>
      </trkpt>
      <trkpt lat="45.85369" lon="3.31068">
        <ele>294</ele>
        <time>2020-09-03T20:37:28.849Z</time>
      </trkpt>
      <trkpt lat="45.85308" lon="3.31217">
        <ele>294.55355834961</ele>
        <time>2020-09-03T20:37:29.071Z</time>
      </trkpt>
      <trkpt lat="45.85206" lon="3.31471">
        <ele>293.80435180664</ele>
        <time>2020-09-03T20:37:29.326Z</time>
      </trkpt>
      <trkpt lat="45.85104" lon="3.31625">
        <ele>293.59329223633</ele>
        <time>2020-09-03T20:37:29.604Z</time>
      </trkpt>
      <trkpt lat="45.8505" lon="3.31713">
        <ele>295.46853637695</ele>
        <time>2020-09-03T20:37:29.896Z</time>
      </trkpt>
      <trkpt lat="45.85035" lon="3.31782">
        <ele>296.65203857422</ele>
        <time>2020-09-03T20:37:30.196Z</time>
      </trkpt>
      <trkpt lat="45.85016" lon="3.31854">
        <ele>298.45083618164</ele>
        <time>2020-09-03T20:37:30.504Z</time>
      </trkpt>
      <trkpt lat="45.84996" lon="3.31889">
        <ele>300.97863769531</ele>
        <time>2020-09-03T20:37:30.817Z</time>
      </trkpt>
      <trkpt lat="45.84954" lon="3.31906">
        <ele>303.17425537109</ele>
        <time>2020-09-03T20:37:31.137Z</time>
      </trkpt>
      <trkpt lat="45.84895" lon="3.31902">
        <ele>301.41513061523</ele>
        <time>2020-09-03T20:37:31.467Z</time>
      </trkpt>
      <trkpt lat="45.84858" lon="3.31894">
        <ele>303.96450805664</ele>
        <time>2020-09-03T20:37:31.803Z</time>
      </trkpt>
      <trkpt lat="45.84807" lon="3.31862">
        <ele>305.48519897461</ele>
        <time>2020-09-03T20:37:32.148Z</time>
      </trkpt>
      <trkpt lat="45.84787" lon="3.31859">
        <ele>307.26281738281</ele>
        <time>2020-09-03T20:37:32.496Z</time>
      </trkpt>
      <trkpt lat="45.84773" lon="3.31872">
        <ele>309.06497192383</ele>
        <time>2020-09-03T20:37:32.847Z</time>
      </trkpt>
      <trkpt lat="45.84751" lon="3.31961">
        <ele>308.36703491211</ele>
        <time>2020-09-03T20:37:33.208Z</time>
      </trkpt>
      <trkpt lat="45.84746" lon="3.31962">
        <ele>308.37991333008</ele>
        <time>2020-09-03T20:37:33.570Z</time>
      </trkpt>
      <trkpt lat="45.84606" lon="3.31991">
        <ele>311.93109130859</ele>
        <time>2020-09-03T20:37:33.955Z</time>
      </trkpt>
      <trkpt lat="45.84339" lon="3.31975">
        <ele>325.39932250977</ele>
        <time>2020-09-03T20:37:34.382Z</time>
      </trkpt>
      <trkpt lat="45.84244" lon="3.31959">
        <ele>327.02389526367</ele>
        <time>2020-09-03T20:37:34.825Z</time>
      </trkpt>
      <trkpt lat="45.84065" lon="3.31948">
        <ele>328.67929077148</ele>
        <time>2020-09-03T20:37:35.296Z</time>
      </trkpt>
      <trkpt lat="45.83979" lon="3.31933">
        <ele>328.0458984375</ele>
        <time>2020-09-03T20:37:35.781Z</time>
      </trkpt>
      <trkpt lat="45.83979" lon="3.31933">
        <ele>328.04598999023</ele>
        <time>2020-09-03T20:37:36.266Z</time>
      </trkpt>
      <trkpt lat="45.8392" lon="3.31913">
        <ele>329.25946044922</ele>
        <time>2020-09-03T20:37:36.761Z</time>
      </trkpt>
      <trkpt lat="45.83906" lon="3.319">
        <ele>329.59414672852</ele>
        <time>2020-09-03T20:37:37.259Z</time>
      </trkpt>
      <trkpt lat="45.83897" lon="3.31896">
        <ele>329.79992675781</ele>
        <time>2020-09-03T20:37:37.758Z</time>
      </trkpt>
      <trkpt lat="45.83823" lon="3.31869">
        <ele>331.52825927734</ele>
        <time>2020-09-03T20:37:38.269Z</time>
      </trkpt>
      <trkpt lat="45.83748" lon="3.31867">
        <ele>332.45495605469</ele>
        <time>2020-09-03T20:37:38.792Z</time>
      </trkpt>
      <trkpt lat="45.83748" lon="3.31867">
        <ele>332.45504760742</ele>
        <time>2020-09-03T20:37:39.315Z</time>
      </trkpt>
      <trkpt lat="45.83614" lon="3.31862">
        <ele>333.63442993164</ele>
        <time>2020-09-03T20:37:39.860Z</time>
      </trkpt>
      <trkpt lat="45.83491" lon="3.31913">
        <ele>332.21221923828</ele>
        <time>2020-09-03T20:37:40.425Z</time>
      </trkpt>
      <trkpt lat="45.83436" lon="3.31941">
        <ele>331.87753295898</ele>
        <time>2020-09-03T20:37:41.000Z</time>
      </trkpt>
      <trkpt lat="45.83359" lon="3.31955">
        <ele>331.71017456055</ele>
        <time>2020-09-03T20:37:41.587Z</time>
      </trkpt>
      <trkpt lat="45.83338" lon="3.3196">
        <ele>331.64581298828</ele>
        <time>2020-09-03T20:37:42.177Z</time>
      </trkpt>
      <trkpt lat="45.83305" lon="3.31986">
        <ele>330.00509643555</ele>
        <time>2020-09-03T20:37:42.773Z</time>
      </trkpt>
      <trkpt lat="45.83261" lon="3.3202">
        <ele>328.5498046875</ele>
        <time>2020-09-03T20:37:43.378Z</time>
      </trkpt>
      <trkpt lat="45.83213" lon="3.32085">
        <ele>321.77993774414</ele>
        <time>2020-09-03T20:37:43.993Z</time>
      </trkpt>
      <trkpt lat="45.83169" lon="3.32198">
        <ele>316.85720825195</ele>
        <time>2020-09-03T20:37:44.623Z</time>
      </trkpt>
      <trkpt lat="45.83135" lon="3.32254">
        <ele>315.35632324219</ele>
        <time>2020-09-03T20:37:45.261Z</time>
      </trkpt>
      <trkpt lat="45.83135" lon="3.32254">
        <ele>315.35632324219</ele>
        <time>2020-09-03T20:37:45.899Z</time>
      </trkpt>
      <trkpt lat="45.83094" lon="3.32289">
        <ele>315.54144287109</ele>
        <time>2020-09-03T20:37:46.545Z</time>
      </trkpt>
      <trkpt lat="45.83082" lon="3.32326">
        <ele>314.82949829102</ele>
        <time>2020-09-03T20:37:47.195Z</time>
      </trkpt>
      <trkpt lat="45.83082" lon="3.32453">
        <ele>312.44900512695</ele>
        <time>2020-09-03T20:37:47.859Z</time>
      </trkpt>
      <trkpt lat="45.83014" lon="3.32655">
        <ele>313.30447387695</ele>
        <time>2020-09-03T20:37:48.548Z</time>
      </trkpt>
      <trkpt lat="45.8296" lon="3.32746">
        <ele>314.24145507812</ele>
        <time>2020-09-03T20:37:49.251Z</time>
      </trkpt>
      <trkpt lat="45.82831" lon="3.32829">
        <ele>313.69519042969</ele>
        <time>2020-09-03T20:37:49.976Z</time>
      </trkpt>
      <trkpt lat="45.82831" lon="3.32829">
        <ele>313.69528198242</ele>
        <time>2020-09-03T20:37:50.701Z</time>
      </trkpt>
      <trkpt lat="45.82816" lon="3.32849">
        <ele>314.00259399414</ele>
        <time>2020-09-03T20:37:51.430Z</time>
      </trkpt>
      <trkpt lat="45.82809" lon="3.32895">
        <ele>315.78414916992</ele>
        <time>2020-09-03T20:37:52.164Z</time>
      </trkpt>
      <trkpt lat="45.82803" lon="3.32937">
        <ele>317.01214599609</ele>
        <time>2020-09-03T20:37:52.903Z</time>
      </trkpt>
      <trkpt lat="45.82778" lon="3.32976">
        <ele>316.45861816406</ele>
        <time>2020-09-03T20:37:53.648Z</time>
      </trkpt>
      <trkpt lat="45.82769" lon="3.33016">
        <ele>317.27420043945</ele>
        <time>2020-09-03T20:37:54.397Z</time>
      </trkpt>
      <trkpt lat="45.82766" lon="3.3303">
        <ele>317.45440673828</ele>
        <time>2020-09-03T20:37:55.148Z</time>
      </trkpt>
      <trkpt lat="45.8275" lon="3.33091">
        <ele>318.20062255859</ele>
        <time>2020-09-03T20:37:55.906Z</time>
      </trkpt>
      <trkpt lat="45.82732" lon="3.33125">
        <ele>318.57574462891</ele>
        <time>2020-09-03T20:37:56.669Z</time>
      </trkpt>
      <trkpt lat="45.82703" lon="3.33155">
        <ele>319.32235717773</ele>
        <time>2020-09-03T20:37:57.438Z</time>
      </trkpt>
      <trkpt lat="45.82702" lon="3.33156">
        <ele>319.34811401367</ele>
        <time>2020-09-03T20:37:58.207Z</time>
      </trkpt>
      <trkpt lat="45.82686" lon="3.33183">
        <ele>320.10528564453</ele>
        <time>2020-09-03T20:37:58.980Z</time>
      </trkpt>
      <trkpt lat="45.827" lon="3.33241">
        <ele>319.74465942383</ele>
        <time>2020-09-03T20:37:59.760Z</time>
      </trkpt>
      <trkpt lat="45.82689" lon="3.33253">
        <ele>319.86547851562</ele>
        <time>2020-09-03T20:38:00.542Z</time>
      </trkpt>
      <trkpt lat="45.8239" lon="3.3337">
        <ele>313.05654907227</ele>
        <time>2020-09-03T20:38:01.374Z</time>
      </trkpt>
      <trkpt lat="45.82384" lon="3.33372">
        <ele>312.93688964844</ele>
        <time>2020-09-03T20:38:02.207Z</time>
      </trkpt>
      <trkpt lat="45.82384" lon="3.33372">
        <ele>312.93701171875</ele>
        <time>2020-09-03T20:38:03.040Z</time>
      </trkpt>
      <trkpt lat="45.82295" lon="3.33405">
        <ele>312.13150024414</ele>
        <time>2020-09-03T20:38:03.887Z</time>
      </trkpt>
      <trkpt lat="45.82149" lon="3.33463">
        <ele>313.34097290039</ele>
        <time>2020-09-03T20:38:04.759Z</time>
      </trkpt>
      <trkpt lat="45.81468" lon="3.33728">
        <ele>315.38870239258</ele>
        <time>2020-09-03T20:38:05.743Z</time>
      </trkpt>
      <trkpt lat="45.81453" lon="3.33741">
        <ele>315.05413818359</ele>
        <time>2020-09-03T20:38:06.730Z</time>
      </trkpt>
      <trkpt lat="45.8145" lon="3.33743">
        <ele>315</ele>
        <time>2020-09-03T20:38:07.718Z</time>
      </trkpt>
      <trkpt lat="45.81437" lon="3.33752">
        <ele>315</ele>
        <time>2020-09-03T20:38:08.708Z</time>
      </trkpt>
      <trkpt lat="45.8143" lon="3.3373">
        <ele>315</ele>
        <time>2020-09-03T20:38:09.701Z</time>
      </trkpt>
      <trkpt lat="45.81395" lon="3.33746">
        <ele>315</ele>
        <time>2020-09-03T20:38:10.700Z</time>
      </trkpt>
      <trkpt lat="45.81129" lon="3.33805">
        <ele>315.60580444336</ele>
        <time>2020-09-03T20:38:11.742Z</time>
      </trkpt>
      <trkpt lat="45.81129" lon="3.33805">
        <ele>315.60571289062</ele>
        <time>2020-09-03T20:38:12.784Z</time>
      </trkpt>
      <trkpt lat="45.80754" lon="3.33881">
        <ele>315.64126586914</ele>
        <time>2020-09-03T20:38:13.886Z</time>
      </trkpt>
      <trkpt lat="45.80694" lon="3.33893">
        <ele>316.88757324219</ele>
        <time>2020-09-03T20:38:14.998Z</time>
      </trkpt>
      <trkpt lat="45.80602" lon="3.33905">
        <ele>317.44415283203</ele>
        <time>2020-09-03T20:38:16.125Z</time>
      </trkpt>
      <trkpt lat="45.80539" lon="3.33903">
        <ele>318.38150024414</ele>
        <time>2020-09-03T20:38:17.262Z</time>
      </trkpt>
      <trkpt lat="45.80523" lon="3.33906">
        <ele>318.76766967773</ele>
        <time>2020-09-03T20:38:18.401Z</time>
      </trkpt>
      <trkpt lat="45.80485" lon="3.33905">
        <ele>319.69448852539</ele>
        <time>2020-09-03T20:38:19.547Z</time>
      </trkpt>
      <trkpt lat="45.80433" lon="3.33936">
        <ele>320</ele>
        <time>2020-09-03T20:38:20.702Z</time>
      </trkpt>
      <trkpt lat="45.80427" lon="3.33937">
        <ele>320</ele>
        <time>2020-09-03T20:38:21.858Z</time>
      </trkpt>
      <trkpt lat="45.80402" lon="3.33936">
        <ele>320</ele>
        <time>2020-09-03T20:38:23.018Z</time>
      </trkpt>
      <trkpt lat="45.80379" lon="3.33924">
        <ele>319.89126586914</ele>
        <time>2020-09-03T20:38:24.181Z</time>
      </trkpt>
      <trkpt lat="45.80339" lon="3.33898">
        <ele>319.40209960938</ele>
        <time>2020-09-03T20:38:25.352Z</time>
      </trkpt>
      <trkpt lat="45.80333" lon="3.33894">
        <ele>319.33764648438</ele>
        <time>2020-09-03T20:38:26.524Z</time>
      </trkpt>
      <trkpt lat="45.80333" lon="3.33894">
        <ele>319.33773803711</ele>
        <time>2020-09-03T20:38:27.696Z</time>
      </trkpt>
      <trkpt lat="45.80289" lon="3.33898">
        <ele>318.80987548828</ele>
        <time>2020-09-03T20:38:28.875Z</time>
      </trkpt>
      <trkpt lat="45.8023" lon="3.33881">
        <ele>318.10186767578</ele>
        <time>2020-09-03T20:38:30.063Z</time>
      </trkpt>
      <trkpt lat="45.80169" lon="3.33847">
        <ele>318.00634765625</ele>
        <time>2020-09-03T20:38:31.262Z</time>
      </trkpt>
      <trkpt lat="45.80132" lon="3.33845">
        <ele>318.02893066406</ele>
        <time>2020-09-03T20:38:32.467Z</time>
      </trkpt>
      <trkpt lat="45.80041" lon="3.33875">
        <ele>318.16366577148</ele>
        <time>2020-09-03T20:38:33.687Z</time>
      </trkpt>
      <trkpt lat="45.79979" lon="3.33925">
        <ele>318.91027832031</ele>
        <time>2020-09-03T20:38:34.918Z</time>
      </trkpt>
      <trkpt lat="45.79956" lon="3.33954">
        <ele>318.23837280273</ele>
        <time>2020-09-03T20:38:36.154Z</time>
      </trkpt>
      <trkpt lat="45.79956" lon="3.33954">
        <ele>318.23849487305</ele>
        <time>2020-09-03T20:38:37.390Z</time>
      </trkpt>
      <trkpt lat="45.79868" lon="3.34052">
        <ele>318.2490234375</ele>
        <time>2020-09-03T20:38:38.644Z</time>
      </trkpt>
      <trkpt lat="45.79787" lon="3.34178">
        <ele>316.82409667969</ele>
        <time>2020-09-03T20:38:39.917Z</time>
      </trkpt>
      <trkpt lat="45.79756" lon="3.34237">
        <ele>316.92669677734</ele>
        <time>2020-09-03T20:38:41.198Z</time>
      </trkpt>
      <trkpt lat="45.79742" lon="3.34245">
        <ele>317.30010986328</ele>
        <time>2020-09-03T20:38:42.482Z</time>
      </trkpt>
      <trkpt lat="45.79584" lon="3.34202">
        <ele>317.25759887695</ele>
        <time>2020-09-03T20:38:43.791Z</time>
      </trkpt>
      <trkpt lat="45.79547" lon="3.34205">
        <ele>317.09786987305</ele>
        <time>2020-09-03T20:38:45.106Z</time>
      </trkpt>
      <trkpt lat="45.79455" lon="3.34243">
        <ele>317.7951965332</ele>
        <time>2020-09-03T20:38:46.437Z</time>
      </trkpt>
      <trkpt lat="45.79397" lon="3.34277">
        <ele>318</ele>
        <time>2020-09-03T20:38:47.778Z</time>
      </trkpt>
      <trkpt lat="45.79311" lon="3.34288">
        <ele>318.92980957031</ele>
        <time>2020-09-03T20:38:49.132Z</time>
      </trkpt>
      <trkpt lat="45.79282" lon="3.34304">
        <ele>319</ele>
        <time>2020-09-03T20:38:50.491Z</time>
      </trkpt>
      <trkpt lat="45.79224" lon="3.34379">
        <ele>318.64605712891</ele>
        <time>2020-09-03T20:38:51.863Z</time>
      </trkpt>
      <trkpt lat="45.79194" lon="3.34418">
        <ele>318.02276611328</ele>
        <time>2020-09-03T20:38:53.241Z</time>
      </trkpt>
      <trkpt lat="45.79096" lon="3.34536">
        <ele>319.73904418945</ele>
        <time>2020-09-03T20:38:54.640Z</time>
      </trkpt>
      <trkpt lat="45.78983" lon="3.34583">
        <ele>319.34533691406</ele>
        <time>2020-09-03T20:38:56.058Z</time>
      </trkpt>
      <trkpt lat="45.78983" lon="3.34583">
        <ele>319.34533691406</ele>
        <time>2020-09-03T20:38:57.476Z</time>
      </trkpt>
      <trkpt lat="45.78903" lon="3.34613">
        <ele>319.83047485352</ele>
        <time>2020-09-03T20:38:58.907Z</time>
      </trkpt>
      <trkpt lat="45.78854" lon="3.34613">
        <ele>320.60125732422</ele>
        <time>2020-09-03T20:39:00.346Z</time>
      </trkpt>
      <trkpt lat="45.78609" lon="3.3466">
        <ele>320.1025390625</ele>
        <time>2020-09-03T20:39:01.824Z</time>
      </trkpt>
      <trkpt lat="45.78588" lon="3.34672">
        <ele>320.50158691406</ele>
        <time>2020-09-03T20:39:03.306Z</time>
      </trkpt>
      <trkpt lat="45.78574" lon="3.34693">
        <ele>320.63287353516</ele>
        <time>2020-09-03T20:39:04.791Z</time>
      </trkpt>
      <trkpt lat="45.78493" lon="3.3493">
        <ele>321</ele>
        <time>2020-09-03T20:39:06.306Z</time>
      </trkpt>
      <trkpt lat="45.78458" lon="3.34986">
        <ele>320.83657836914</ele>
        <time>2020-09-03T20:39:07.829Z</time>
      </trkpt>
      <trkpt lat="45.78435" lon="3.35004">
        <ele>321.18041992188</ele>
        <time>2020-09-03T20:39:09.356Z</time>
      </trkpt>
      <trkpt lat="45.7839" lon="3.35018">
        <ele>322.01507568359</ele>
        <time>2020-09-03T20:39:10.891Z</time>
      </trkpt>
      <trkpt lat="45.78153" lon="3.35046">
        <ele>326.22207641602</ele>
        <time>2020-09-03T20:39:12.464Z</time>
      </trkpt>
      <trkpt lat="45.78092" lon="3.35061">
        <ele>329.87844848633</ele>
        <time>2020-09-03T20:39:14.047Z</time>
      </trkpt>
      <trkpt lat="45.78014" lon="3.35098">
        <ele>333.97891235352</ele>
        <time>2020-09-03T20:39:15.643Z</time>
      </trkpt>
      <trkpt lat="45.78014" lon="3.35098">
        <ele>333.97912597656</ele>
        <time>2020-09-03T20:39:17.239Z</time>
      </trkpt>
      <trkpt lat="45.7801" lon="3.35236">
        <ele>338.18737792969</ele>
        <time>2020-09-03T20:39:18.851Z</time>
      </trkpt>
      <trkpt lat="45.77986" lon="3.35402">
        <ele>341.26123046875</ele>
        <time>2020-09-03T20:39:20.481Z</time>
      </trkpt>
      <trkpt lat="45.77986" lon="3.35402">
        <ele>341.26184082031</ele>
        <time>2020-09-03T20:39:22.111Z</time>
      </trkpt>
      <trkpt lat="45.77919" lon="3.35805">
        <ele>339.76171875</ele>
        <time>2020-09-03T20:39:23.788Z</time>
      </trkpt>
      <trkpt lat="45.77907" lon="3.35834">
        <ele>339.69735717773</ele>
        <time>2020-09-03T20:39:25.469Z</time>
      </trkpt>
      <trkpt lat="45.77903" lon="3.35838">
        <ele>339.74865722656</ele>
        <time>2020-09-03T20:39:27.150Z</time>
      </trkpt>
      <trkpt lat="45.779" lon="3.35858">
        <ele>339.59417724609</ele>
        <time>2020-09-03T20:39:28.834Z</time>
      </trkpt>
      <trkpt lat="45.77904" lon="3.35866">
        <ele>339.41683959961</ele>
        <time>2020-09-03T20:39:30.519Z</time>
      </trkpt>
      <trkpt lat="45.77901" lon="3.35907">
        <ele>339.53268432617</ele>
        <time>2020-09-03T20:39:32.208Z</time>
      </trkpt>
      <trkpt lat="45.77891" lon="3.35954">
        <ele>339.68173217773</ele>
        <time>2020-09-03T20:39:33.903Z</time>
      </trkpt>
      <trkpt lat="45.77867" lon="3.36022">
        <ele>338.91070556641</ele>
        <time>2020-09-03T20:39:35.606Z</time>
      </trkpt>
      <trkpt lat="45.77797" lon="3.36177">
        <ele>337.27389526367</ele>
        <time>2020-09-03T20:39:37.330Z</time>
      </trkpt>
      <trkpt lat="45.77761" lon="3.36263">
        <ele>335.57369995117</ele>
        <time>2020-09-03T20:39:39.065Z</time>
      </trkpt>
      <trkpt lat="45.77744" lon="3.36331">
        <ele>334.13046264648</ele>
        <time>2020-09-03T20:39:40.808Z</time>
      </trkpt>
      <trkpt lat="45.77738" lon="3.36378">
        <ele>332.14987182617</ele>
        <time>2020-09-03T20:39:42.557Z</time>
      </trkpt>
      <trkpt lat="45.77742" lon="3.36447">
        <ele>329.12490844727</ele>
        <time>2020-09-03T20:39:44.314Z</time>
      </trkpt>
      <trkpt lat="45.77757" lon="3.3655">
        <ele>328.12994384766</ele>
        <time>2020-09-03T20:39:46.082Z</time>
      </trkpt>
      <trkpt lat="45.77757" lon="3.3655">
        <ele>328.12963867188</ele>
        <time>2020-09-03T20:39:47.850Z</time>
      </trkpt>
      <trkpt lat="45.77801" lon="3.3684">
        <ele>325</ele>
        <time>2020-09-03T20:39:49.652Z</time>
      </trkpt>
      <trkpt lat="45.77808" lon="3.36929">
        <ele>326.92291259766</ele>
        <time>2020-09-03T20:39:51.464Z</time>
      </trkpt>
      <trkpt lat="45.778" lon="3.37027">
        <ele>323.79498291016</ele>
        <time>2020-09-03T20:39:53.287Z</time>
      </trkpt>
      <trkpt lat="45.77761" lon="3.37305">
        <ele>322.01528930664</ele>
        <time>2020-09-03T20:39:55.141Z</time>
      </trkpt>
      <trkpt lat="45.77759" lon="3.37398">
        <ele>323</ele>
        <time>2020-09-03T20:39:57.006Z</time>
      </trkpt>
      <trkpt lat="45.77765" lon="3.37434">
        <ele>323</ele>
        <time>2020-09-03T20:39:58.875Z</time>
      </trkpt>
      <trkpt lat="45.77765" lon="3.37434">
        <ele>323</ele>
        <time>2020-09-03T20:40:00.744Z</time>
      </trkpt>
      <trkpt lat="45.77769" lon="3.37464">
        <ele>323</ele>
        <time>2020-09-03T20:40:02.616Z</time>
      </trkpt>
      <trkpt lat="45.77788" lon="3.37598">
        <ele>323.80523681641</ele>
        <time>2020-09-03T20:40:04.504Z</time>
      </trkpt>
      <trkpt lat="45.77787" lon="3.37714">
        <ele>323.7912902832</ele>
        <time>2020-09-03T20:40:06.405Z</time>
      </trkpt>
      <trkpt lat="45.77782" lon="3.37757">
        <ele>323.90405273438</ele>
        <time>2020-09-03T20:40:08.311Z</time>
      </trkpt>
      <trkpt lat="45.77757" lon="3.3786">
        <ele>324.42932128906</ele>
        <time>2020-09-03T20:40:10.229Z</time>
      </trkpt>
      <trkpt lat="45.77721" lon="3.37948">
        <ele>324.7978515625</ele>
        <time>2020-09-03T20:40:12.158Z</time>
      </trkpt>
      <trkpt lat="45.77685" lon="3.38009">
        <ele>324.36068725586</ele>
        <time>2020-09-03T20:40:14.096Z</time>
      </trkpt>
      <trkpt lat="45.77561" lon="3.38158">
        <ele>325.21112060547</ele>
        <time>2020-09-03T20:40:16.060Z</time>
      </trkpt>
      <trkpt lat="45.77527" lon="3.38244">
        <ele>324.66339111328</ele>
        <time>2020-09-03T20:40:18.035Z</time>
      </trkpt>
      <trkpt lat="45.77524" lon="3.38345">
        <ele>324.64105224609</ele>
        <time>2020-09-03T20:40:20.021Z</time>
      </trkpt>
      <trkpt lat="45.77527" lon="3.38383">
        <ele>324.25186157227</ele>
        <time>2020-09-03T20:40:22.012Z</time>
      </trkpt>
      <trkpt lat="45.7756" lon="3.38552">
        <ele>324.38021850586</ele>
        <time>2020-09-03T20:40:24.022Z</time>
      </trkpt>
      <trkpt lat="45.7757" lon="3.38664">
        <ele>324.82171630859</ele>
        <time>2020-09-03T20:40:26.045Z</time>
      </trkpt>
      <trkpt lat="45.77462" lon="3.39705">
        <ele>331.95040893555</ele>
        <time>2020-09-03T20:40:28.186Z</time>
      </trkpt>
      <trkpt lat="45.77462" lon="3.39705">
        <ele>331.95028686523</ele>
        <time>2020-09-03T20:40:30.327Z</time>
      </trkpt>
      <trkpt lat="45.77457" lon="3.39735">
        <ele>333.09603881836</ele>
        <time>2020-09-03T20:40:32.471Z</time>
      </trkpt>
      <trkpt lat="45.77456" lon="3.39745">
        <ele>333.45648193359</ele>
        <time>2020-09-03T20:40:34.617Z</time>
      </trkpt>
      <trkpt lat="45.77486" lon="3.39743">
        <ele>333.71533203125</ele>
        <time>2020-09-03T20:40:36.767Z</time>
      </trkpt>
      <trkpt lat="45.77494" lon="3.3974">
        <ele>333.94735717773</ele>
        <time>2020-09-03T20:40:38.919Z</time>
      </trkpt>
      <trkpt lat="45.77558" lon="3.39725">
        <ele>335.83117675781</ele>
        <time>2020-09-03T20:40:41.081Z</time>
      </trkpt>
      <trkpt lat="45.77658" lon="3.39668">
        <ele>339.69442749023</ele>
        <time>2020-09-03T20:40:43.260Z</time>
      </trkpt>
      <trkpt lat="45.77558" lon="3.39725">
        <ele>335.83117675781</ele>
        <time>2020-09-03T20:40:45.457Z</time>
      </trkpt>
      <trkpt lat="45.77494" lon="3.3974">
        <ele>333.94735717773</ele>
        <time>2020-09-03T20:40:47.664Z</time>
      </trkpt>
      <trkpt lat="45.77486" lon="3.39743">
        <ele>333.71533203125</ele>
        <time>2020-09-03T20:40:49.872Z</time>
      </trkpt>
      <trkpt lat="45.77474" lon="3.39735">
        <ele>333.02053833008</ele>
        <time>2020-09-03T20:40:52.082Z</time>
      </trkpt>
      <trkpt lat="45.77457" lon="3.39735">
        <ele>333.09603881836</ele>
        <time>2020-09-03T20:40:54.295Z</time>
      </trkpt>
      <trkpt lat="45.77456" lon="3.39745">
        <ele>333.45639038086</ele>
        <time>2020-09-03T20:40:56.509Z</time>
      </trkpt>
      <trkpt lat="45.77441" lon="3.39774">
        <ele>333.00476074219</ele>
        <time>2020-09-03T20:40:58.727Z</time>
      </trkpt>
      <trkpt lat="45.77388" lon="3.39822">
        <ele>331.69177246094</ele>
        <time>2020-09-03T20:41:00.955Z</time>
      </trkpt>
      <trkpt lat="45.77358" lon="3.39864">
        <ele>333.08633422852</ele>
        <time>2020-09-03T20:41:03.190Z</time>
      </trkpt>
      <trkpt lat="45.77291" lon="3.4">
        <ele>335.49499511719</ele>
        <time>2020-09-03T20:41:05.444Z</time>
      </trkpt>
      <trkpt lat="45.77291" lon="3.4">
        <ele>335.49459838867</ele>
        <time>2020-09-03T20:41:07.698Z</time>
      </trkpt>
      <trkpt lat="45.77262" lon="3.40066">
        <ele>335.91061401367</ele>
        <time>2020-09-03T20:41:09.960Z</time>
      </trkpt>
      <trkpt lat="45.77228" lon="3.40177">
        <ele>338.66351318359</ele>
        <time>2020-09-03T20:41:12.236Z</time>
      </trkpt>
      <trkpt lat="45.77169" lon="3.405">
        <ele>345.93478393555</ele>
        <time>2020-09-03T20:41:14.549Z</time>
      </trkpt>
      <trkpt lat="45.7711" lon="3.40822">
        <ele>344.33123779297</ele>
        <time>2020-09-03T20:41:16.900Z</time>
      </trkpt>
      <trkpt lat="45.77104" lon="3.4091">
        <ele>345.44686889648</ele>
        <time>2020-09-03T20:41:19.260Z</time>
      </trkpt>
      <trkpt lat="45.77094" lon="3.40977">
        <ele>343.85699462891</ele>
        <time>2020-09-03T20:41:21.628Z</time>
      </trkpt>
      <trkpt lat="45.77082" lon="3.40994">
        <ele>343.18783569336</ele>
        <time>2020-09-03T20:41:23.999Z</time>
      </trkpt>
      <trkpt lat="45.77079" lon="3.4099">
        <ele>343.18765258789</ele>
        <time>2020-09-03T20:41:26.370Z</time>
      </trkpt>
      <trkpt lat="45.77" lon="3.40922">
        <ele>345.19198608398</ele>
        <time>2020-09-03T20:41:28.756Z</time>
      </trkpt>
      <trkpt lat="45.76974" lon="3.40885">
        <ele>345.37222290039</ele>
        <time>2020-09-03T20:41:31.148Z</time>
      </trkpt>
      <trkpt lat="45.76961" lon="3.40909">
        <ele>345.60284423828</ele>
        <time>2020-09-03T20:41:33.543Z</time>
      </trkpt>
      <trkpt lat="45.76956" lon="3.40938">
        <ele>345.55938720703</ele>
        <time>2020-09-03T20:41:35.942Z</time>
      </trkpt>
      <trkpt lat="45.76961" lon="3.41069">
        <ele>342.95547485352</ele>
        <time>2020-09-03T20:41:38.355Z</time>
      </trkpt>
      <trkpt lat="45.77004" lon="3.41073">
        <ele>341.73831176758</ele>
        <time>2020-09-03T20:41:40.775Z</time>
      </trkpt>
      <trkpt lat="45.77025" lon="3.41102">
        <ele>340.0426940918</ele>
        <time>2020-09-03T20:41:43.200Z</time>
      </trkpt>
      <trkpt lat="45.77035" lon="3.41118">
        <ele>339.46343994141</ele>
        <time>2020-09-03T20:41:45.627Z</time>
      </trkpt>
      <trkpt lat="45.76932" lon="3.41304">
        <ele>341.86456298828</ele>
        <time>2020-09-03T20:41:48.081Z</time>
      </trkpt>
      <trkpt lat="45.76665" lon="3.41578">
        <ele>346.42904663086</ele>
        <time>2020-09-03T20:41:50.588Z</time>
      </trkpt>
      <trkpt lat="45.76665" lon="3.41578">
        <ele>346.42895507812</ele>
        <time>2020-09-03T20:41:53.095Z</time>
      </trkpt>
      <trkpt lat="45.76637" lon="3.41607">
        <ele>347.19863891602</ele>
        <time>2020-09-03T20:41:55.607Z</time>
      </trkpt>
      <trkpt lat="45.76637" lon="3.41607">
        <ele>347.19876098633</ele>
        <time>2020-09-03T20:41:58.119Z</time>
      </trkpt>
      <trkpt lat="45.76451" lon="3.41798">
        <ele>346.31173706055</ele>
        <time>2020-09-03T20:42:00.668Z</time>
      </trkpt>
      <trkpt lat="45.76384" lon="3.41839">
        <ele>346.39459228516</ele>
        <time>2020-09-03T20:42:03.228Z</time>
      </trkpt>
      <trkpt lat="45.76371" lon="3.41922">
        <ele>344.25186157227</ele>
        <time>2020-09-03T20:42:05.798Z</time>
      </trkpt>
      <trkpt lat="45.76331" lon="3.42005">
        <ele>345.50366210938</ele>
        <time>2020-09-03T20:42:08.379Z</time>
      </trkpt>
      <trkpt lat="45.76304" lon="3.42065">
        <ele>347.02264404297</ele>
        <time>2020-09-03T20:42:10.968Z</time>
      </trkpt>
      <trkpt lat="45.76266" lon="3.42076">
        <ele>347.54284667969</ele>
        <time>2020-09-03T20:42:13.564Z</time>
      </trkpt>
      <trkpt lat="45.76225" lon="3.4207">
        <ele>347.69732666016</ele>
        <time>2020-09-03T20:42:16.166Z</time>
      </trkpt>
      <trkpt lat="45.76188" lon="3.42099">
        <ele>347.80508422852</ele>
        <time>2020-09-03T20:42:18.775Z</time>
      </trkpt>
      <trkpt lat="45.76147" lon="3.42133">
        <ele>347.95956420898</ele>
        <time>2020-09-03T20:42:21.391Z</time>
      </trkpt>
      <trkpt lat="45.76113" lon="3.42156">
        <ele>348.54556274414</ele>
        <time>2020-09-03T20:42:24.014Z</time>
      </trkpt>
      <trkpt lat="45.76062" lon="3.42172">
        <ele>348.41061401367</ele>
        <time>2020-09-03T20:42:26.645Z</time>
      </trkpt>
      <trkpt lat="45.75996" lon="3.42264">
        <ele>348.44869995117</ele>
        <time>2020-09-03T20:42:29.291Z</time>
      </trkpt>
      <trkpt lat="45.75987" lon="3.42291">
        <ele>349.11175537109</ele>
        <time>2020-09-03T20:42:31.940Z</time>
      </trkpt>
      <trkpt lat="45.75989" lon="3.4233">
        <ele>349.56228637695</ele>
        <time>2020-09-03T20:42:34.593Z</time>
      </trkpt>
      <trkpt lat="45.75989" lon="3.4233">
        <ele>349.56219482422</ele>
        <time>2020-09-03T20:42:37.246Z</time>
      </trkpt>
      <trkpt lat="45.75984" lon="3.42383">
        <ele>350.25732421875</ele>
        <time>2020-09-03T20:42:39.905Z</time>
      </trkpt>
      <trkpt lat="45.75991" lon="3.4247">
        <ele>351</ele>
        <time>2020-09-03T20:42:42.574Z</time>
      </trkpt>
      <trkpt lat="45.75982" lon="3.42518">
        <ele>351</ele>
        <time>2020-09-03T20:42:45.249Z</time>
      </trkpt>
      <trkpt lat="45.75934" lon="3.42591">
        <ele>352.78604125977</ele>
        <time>2020-09-03T20:42:47.935Z</time>
      </trkpt>
      <trkpt lat="45.75595" lon="3.43077">
        <ele>360.75286865234</ele>
        <time>2020-09-03T20:42:50.698Z</time>
      </trkpt>
      <trkpt lat="45.75595" lon="3.43077">
        <ele>360.7526550293</ele>
        <time>2020-09-03T20:42:53.461Z</time>
      </trkpt>
      <trkpt lat="45.75572" lon="3.4311">
        <ele>361.58047485352</ele>
        <time>2020-09-03T20:42:56.229Z</time>
      </trkpt>
      <trkpt lat="45.75531" lon="3.43148">
        <ele>362.55877685547</ele>
        <time>2020-09-03T20:42:59.005Z</time>
      </trkpt>
      <trkpt lat="45.75506" lon="3.43163">
        <ele>363.1510925293</ele>
        <time>2020-09-03T20:43:01.785Z</time>
      </trkpt>
      <trkpt lat="45.75408" lon="3.43173">
        <ele>364.23153686523</ele>
        <time>2020-09-03T20:43:04.581Z</time>
      </trkpt>
      <trkpt lat="45.75331" lon="3.43161">
        <ele>365.86227416992</ele>
        <time>2020-09-03T20:43:07.389Z</time>
      </trkpt>
      <trkpt lat="45.75271" lon="3.43139">
        <ele>367.81887817383</ele>
        <time>2020-09-03T20:43:10.207Z</time>
      </trkpt>
      <trkpt lat="45.75136" lon="3.43067">
        <ele>371.06619262695</ele>
        <time>2020-09-03T20:43:13.048Z</time>
      </trkpt>
      <trkpt lat="45.74942" lon="3.42992">
        <ele>379.41458129883</ele>
        <time>2020-09-03T20:43:15.921Z</time>
      </trkpt>
      <trkpt lat="45.74913" lon="3.42989">
        <ele>380.07089233398</ele>
        <time>2020-09-03T20:43:18.799Z</time>
      </trkpt>
      <trkpt lat="45.74862" lon="3.43">
        <ele>380.81176757812</ele>
        <time>2020-09-03T20:43:21.685Z</time>
      </trkpt>
      <trkpt lat="45.74818" lon="3.4301">
        <ele>380.92761230469</ele>
        <time>2020-09-03T20:43:24.579Z</time>
      </trkpt>
      <trkpt lat="45.74756" lon="3.43006">
        <ele>381.9248046875</ele>
        <time>2020-09-03T20:43:27.482Z</time>
      </trkpt>
      <trkpt lat="45.74575" lon="3.42966">
        <ele>381.65100097656</ele>
        <time>2020-09-03T20:43:30.415Z</time>
      </trkpt>
      <trkpt lat="45.74488" lon="3.42956">
        <ele>383.50750732422</ele>
        <time>2020-09-03T20:43:33.362Z</time>
      </trkpt>
      <trkpt lat="45.74428" lon="3.42959">
        <ele>383.16513061523</ele>
        <time>2020-09-03T20:43:36.318Z</time>
      </trkpt>
      <trkpt lat="45.7424" lon="3.42966">
        <ele>385.29516601562</ele>
        <time>2020-09-03T20:43:39.304Z</time>
      </trkpt>
      <trkpt lat="45.74033" lon="3.42937">
        <ele>393.77883911133</ele>
        <time>2020-09-03T20:43:42.324Z</time>
      </trkpt>
      <trkpt lat="45.74033" lon="3.42937">
        <ele>393.77871704102</ele>
        <time>2020-09-03T20:43:45.344Z</time>
      </trkpt>
      <trkpt lat="45.73892" lon="3.42898">
        <ele>395.82223510742</ele>
        <time>2020-09-03T20:43:48.387Z</time>
      </trkpt>
      <trkpt lat="45.7372" lon="3.42825">
        <ele>399.42709350586</ele>
        <time>2020-09-03T20:43:51.458Z</time>
      </trkpt>
      <trkpt lat="45.73616" lon="3.42799">
        <ele>399.57940673828</ele>
        <time>2020-09-03T20:43:54.546Z</time>
      </trkpt>
      <trkpt lat="45.73551" lon="3.42782">
        <ele>401.16818237305</ele>
        <time>2020-09-03T20:43:57.645Z</time>
      </trkpt>
      <trkpt lat="45.73435" lon="3.42693">
        <ele>405.83843994141</ele>
        <time>2020-09-03T20:44:00.765Z</time>
      </trkpt>
      <trkpt lat="45.73435" lon="3.42693">
        <ele>405.83721923828</ele>
        <time>2020-09-03T20:44:03.885Z</time>
      </trkpt>
      <trkpt lat="45.73368" lon="3.42623">
        <ele>413.85827636719</ele>
        <time>2020-09-03T20:44:07.018Z</time>
      </trkpt>
      <trkpt lat="45.73292" lon="3.42515">
        <ele>417.71493530273</ele>
        <time>2020-09-03T20:44:10.168Z</time>
      </trkpt>
      <trkpt lat="45.73238" lon="3.42475">
        <ele>420.45678710938</ele>
        <time>2020-09-03T20:44:13.328Z</time>
      </trkpt>
      <trkpt lat="45.73238" lon="3.42475">
        <ele>420.45626831055</ele>
        <time>2020-09-03T20:44:16.488Z</time>
      </trkpt>
      <trkpt lat="45.73199" lon="3.42485">
        <ele>421.8971862793</ele>
        <time>2020-09-03T20:44:19.655Z</time>
      </trkpt>
      <trkpt lat="45.73133" lon="3.42462">
        <ele>424.37368774414</ele>
        <time>2020-09-03T20:44:22.832Z</time>
      </trkpt>
      <trkpt lat="45.73078" lon="3.42482">
        <ele>428.99047851562</ele>
        <time>2020-09-03T20:44:26.018Z</time>
      </trkpt>
      <trkpt lat="45.73029" lon="3.42472">
        <ele>433.10675048828</ele>
        <time>2020-09-03T20:44:29.212Z</time>
      </trkpt>
      <trkpt lat="45.73029" lon="3.42472">
        <ele>433.10565185547</ele>
        <time>2020-09-03T20:44:32.406Z</time>
      </trkpt>
      <trkpt lat="45.7301" lon="3.42453">
        <ele>433.80187988281</ele>
        <time>2020-09-03T20:44:35.604Z</time>
      </trkpt>
      <trkpt lat="45.73001" lon="3.42431">
        <ele>432.92825317383</ele>
        <time>2020-09-03T20:44:38.805Z</time>
      </trkpt>
      <trkpt lat="45.72993" lon="3.42369">
        <ele>431.82119750977</ele>
        <time>2020-09-03T20:44:42.013Z</time>
      </trkpt>
      <trkpt lat="45.72978" lon="3.42354">
        <ele>433.26181030273</ele>
        <time>2020-09-03T20:44:45.224Z</time>
      </trkpt>
      <trkpt lat="45.72958" lon="3.42357">
        <ele>435.33697509766</ele>
        <time>2020-09-03T20:44:48.438Z</time>
      </trkpt>
      <trkpt lat="45.72902" lon="3.42436">
        <ele>442.96417236328</ele>
        <time>2020-09-03T20:44:51.665Z</time>
      </trkpt>
      <trkpt lat="45.72938" lon="3.42414">
        <ele>439.05609130859</ele>
        <time>2020-09-03T20:44:54.898Z</time>
      </trkpt>
      <trkpt lat="45.72902" lon="3.42436">
        <ele>442.96347045898</ele>
        <time>2020-09-03T20:44:58.137Z</time>
      </trkpt>
      <trkpt lat="45.72862" lon="3.42521">
        <ele>447.28442382812</ele>
        <time>2020-09-03T20:45:01.388Z</time>
      </trkpt>
      <trkpt lat="45.72871" lon="3.4255">
        <ele>447.16857910156</ele>
        <time>2020-09-03T20:45:04.642Z</time>
      </trkpt>
      <trkpt lat="45.72943" lon="3.4277">
        <ele>440.19729614258</ele>
        <time>2020-09-03T20:45:07.923Z</time>
      </trkpt>
      <trkpt lat="45.72939" lon="3.42802">
        <ele>439.63092041016</ele>
        <time>2020-09-03T20:45:11.208Z</time>
      </trkpt>
      <trkpt lat="45.72913" lon="3.42819">
        <ele>439.50668334961</ele>
        <time>2020-09-03T20:45:14.498Z</time>
      </trkpt>
      <trkpt lat="45.72862" lon="3.42822">
        <ele>440.23742675781</ele>
        <time>2020-09-03T20:45:17.796Z</time>
      </trkpt>
      <trkpt lat="45.72856" lon="3.42824">
        <ele>440.16632080078</ele>
        <time>2020-09-03T20:45:21.095Z</time>
      </trkpt>
      <trkpt lat="45.72788" lon="3.42846">
        <ele>438.51254272461</ele>
        <time>2020-09-03T20:45:24.405Z</time>
      </trkpt>
      <trkpt lat="45.72736" lon="3.42881">
        <ele>432.70965576172</ele>
        <time>2020-09-03T20:45:27.724Z</time>
      </trkpt>
      <trkpt lat="45.72736" lon="3.42881">
        <ele>432.70986938477</ele>
        <time>2020-09-03T20:45:31.043Z</time>
      </trkpt>
      <trkpt lat="45.72732" lon="3.42949">
        <ele>429.525390625</ele>
        <time>2020-09-03T20:45:34.370Z</time>
      </trkpt>
      <trkpt lat="45.72734" lon="3.43055">
        <ele>431.25186157227</ele>
        <time>2020-09-03T20:45:37.709Z</time>
      </trkpt>
      <trkpt lat="45.72734" lon="3.43055">
        <ele>431.25286865234</ele>
        <time>2020-09-03T20:45:41.048Z</time>
      </trkpt>
      <trkpt lat="45.72735" lon="3.43076">
        <ele>432.15393066406</ele>
        <time>2020-09-03T20:45:44.389Z</time>
      </trkpt>
      <trkpt lat="45.72746" lon="3.43104">
        <ele>432.26583862305</ele>
        <time>2020-09-03T20:45:47.734Z</time>
      </trkpt>
      <trkpt lat="45.7281" lon="3.43173">
        <ele>428.66152954102</ele>
        <time>2020-09-03T20:45:51.091Z</time>
      </trkpt>
      <trkpt lat="45.72857" lon="3.43265">
        <ele>428.88171386719</ele>
        <time>2020-09-03T20:45:54.461Z</time>
      </trkpt>
      <trkpt lat="45.7286" lon="3.43295">
        <ele>429.35433959961</ele>
        <time>2020-09-03T20:45:57.835Z</time>
      </trkpt>
      <trkpt lat="45.72833" lon="3.43359">
        <ele>433.41314697266</ele>
        <time>2020-09-03T20:46:01.217Z</time>
      </trkpt>
      <trkpt lat="45.72845" lon="3.43413">
        <ele>431.91311645508</ele>
        <time>2020-09-03T20:46:04.605Z</time>
      </trkpt>
      <trkpt lat="45.72872" lon="3.43462">
        <ele>430.64779663086</ele>
        <time>2020-09-03T20:46:08.000Z</time>
      </trkpt>
      <trkpt lat="45.72911" lon="3.43502">
        <ele>430.13668823242</ele>
        <time>2020-09-03T20:46:11.403Z</time>
      </trkpt>
      <trkpt lat="45.72978" lon="3.43538">
        <ele>427.78024291992</ele>
        <time>2020-09-03T20:46:14.817Z</time>
      </trkpt>
      <trkpt lat="45.72993" lon="3.43566">
        <ele>428.19216918945</ele>
        <time>2020-09-03T20:46:18.235Z</time>
      </trkpt>
      <trkpt lat="45.73005" lon="3.43641">
        <ele>433.23547363281</ele>
        <time>2020-09-03T20:46:21.662Z</time>
      </trkpt>
      <trkpt lat="45.73025" lon="3.43664">
        <ele>433.81390380859</ele>
        <time>2020-09-03T20:46:25.093Z</time>
      </trkpt>
      <trkpt lat="45.73047" lon="3.43676">
        <ele>432.92651367188</ele>
        <time>2020-09-03T20:46:28.528Z</time>
      </trkpt>
      <trkpt lat="45.73091" lon="3.43738">
        <ele>436.11080932617</ele>
        <time>2020-09-03T20:46:31.973Z</time>
      </trkpt>
      <trkpt lat="45.73091" lon="3.43738">
        <ele>436.11099243164</ele>
        <time>2020-09-03T20:46:35.418Z</time>
      </trkpt>
      <trkpt lat="45.73097" lon="3.43765">
        <ele>437.91293334961</ele>
        <time>2020-09-03T20:46:38.866Z</time>
      </trkpt>
      <trkpt lat="45.73097" lon="3.43765">
        <ele>437.91314697266</ele>
        <time>2020-09-03T20:46:42.314Z</time>
      </trkpt>
      <trkpt lat="45.73101" lon="3.43783">
        <ele>436.61926269531</ele>
        <time>2020-09-03T20:46:45.764Z</time>
      </trkpt>
      <trkpt lat="45.73091" lon="3.43807">
        <ele>435.19509887695</ele>
        <time>2020-09-03T20:46:49.217Z</time>
      </trkpt>
      <trkpt lat="45.72987" lon="3.43858">
        <ele>437.23229980469</ele>
        <time>2020-09-03T20:46:52.688Z</time>
      </trkpt>
      <trkpt lat="45.72941" lon="3.43918">
        <ele>429.92401123047</ele>
        <time>2020-09-03T20:46:56.169Z</time>
      </trkpt>
      <trkpt lat="45.72869" lon="3.4403">
        <ele>422.92413330078</ele>
        <time>2020-09-03T20:46:59.667Z</time>
      </trkpt>
      <trkpt lat="45.72862" lon="3.44063">
        <ele>421.90719604492</ele>
        <time>2020-09-03T20:47:03.169Z</time>
      </trkpt>
      <trkpt lat="45.72875" lon="3.44142">
        <ele>421.64822387695</ele>
        <time>2020-09-03T20:47:06.680Z</time>
      </trkpt>
      <trkpt lat="45.72878" lon="3.44171">
        <ele>422.18887329102</ele>
        <time>2020-09-03T20:47:10.194Z</time>
      </trkpt>
      <trkpt lat="45.72881" lon="3.44192">
        <ele>423.08929443359</ele>
        <time>2020-09-03T20:47:13.710Z</time>
      </trkpt>
      <trkpt lat="45.729" lon="3.44219">
        <ele>425.98760986328</ele>
        <time>2020-09-03T20:47:17.231Z</time>
      </trkpt>
      <trkpt lat="45.72989" lon="3.44194">
        <ele>427.04803466797</ele>
        <time>2020-09-03T20:47:20.766Z</time>
      </trkpt>
      <trkpt lat="45.73043" lon="3.44208">
        <ele>431.74645996094</ele>
        <time>2020-09-03T20:47:24.310Z</time>
      </trkpt>
      <trkpt lat="45.73057" lon="3.44222">
        <ele>433.58782958984</ele>
        <time>2020-09-03T20:47:27.857Z</time>
      </trkpt>
      <trkpt lat="45.73081" lon="3.44247">
        <ele>436.76672363281</ele>
        <time>2020-09-03T20:47:31.408Z</time>
      </trkpt>
      <trkpt lat="45.73097" lon="3.44284">
        <ele>440.17791748047</ele>
        <time>2020-09-03T20:47:34.964Z</time>
      </trkpt>
      <trkpt lat="45.73172" lon="3.4428">
        <ele>444.3303527832</ele>
        <time>2020-09-03T20:47:38.532Z</time>
      </trkpt>
      <trkpt lat="45.73211" lon="3.44265">
        <ele>445.52621459961</ele>
        <time>2020-09-03T20:47:42.107Z</time>
      </trkpt>
      <trkpt lat="45.73278" lon="3.44292">
        <ele>444.10925292969</ele>
        <time>2020-09-03T20:47:45.693Z</time>
      </trkpt>
      <trkpt lat="45.73289" lon="3.44323">
        <ele>445.33215332031</ele>
        <time>2020-09-03T20:47:49.283Z</time>
      </trkpt>
      <trkpt lat="45.73262" lon="3.44396">
        <ele>450.55883789062</ele>
        <time>2020-09-03T20:47:52.882Z</time>
      </trkpt>
      <trkpt lat="45.73228" lon="3.44524">
        <ele>452.91418457031</ele>
        <time>2020-09-03T20:47:56.497Z</time>
      </trkpt>
      <trkpt lat="45.73209" lon="3.44675">
        <ele>459.57107543945</ele>
        <time>2020-09-03T20:48:00.129Z</time>
      </trkpt>
      <trkpt lat="45.73164" lon="3.44777">
        <ele>468.99502563477</ele>
        <time>2020-09-03T20:48:03.774Z</time>
      </trkpt>
      <trkpt lat="45.73141" lon="3.4487">
        <ele>470.61926269531</ele>
        <time>2020-09-03T20:48:07.430Z</time>
      </trkpt>
      <trkpt lat="45.73142" lon="3.44889">
        <ele>471.12127685547</ele>
        <time>2020-09-03T20:48:11.088Z</time>
      </trkpt>
      <trkpt lat="45.73156" lon="3.44917">
        <ele>472.29266357422</ele>
        <time>2020-09-03T20:48:14.750Z</time>
      </trkpt>
      <trkpt lat="45.73219" lon="3.4501">
        <ele>475.87585449219</ele>
        <time>2020-09-03T20:48:18.427Z</time>
      </trkpt>
      <trkpt lat="45.73246" lon="3.45065">
        <ele>476.31527709961</ele>
        <time>2020-09-03T20:48:22.111Z</time>
      </trkpt>
      <trkpt lat="45.73214" lon="3.45426">
        <ele>475.50396728516</ele>
        <time>2020-09-03T20:48:25.836Z</time>
      </trkpt>
      <trkpt lat="45.73218" lon="3.45564">
        <ele>477.80377197266</ele>
        <time>2020-09-03T20:48:29.577Z</time>
      </trkpt>
      <trkpt lat="45.73218" lon="3.45564">
        <ele>477.80447387695</ele>
        <time>2020-09-03T20:48:33.318Z</time>
      </trkpt>
      <trkpt lat="45.73206" lon="3.45619">
        <ele>479.33688354492</ele>
        <time>2020-09-03T20:48:37.065Z</time>
      </trkpt>
      <trkpt lat="45.73204" lon="3.45625">
        <ele>479.62005615234</ele>
        <time>2020-09-03T20:48:40.813Z</time>
      </trkpt>
      <trkpt lat="45.73188" lon="3.45654">
        <ele>480.87185668945</ele>
        <time>2020-09-03T20:48:44.565Z</time>
      </trkpt>
      <trkpt lat="45.73155" lon="3.45665">
        <ele>478.90237426758</ele>
        <time>2020-09-03T20:48:48.322Z</time>
      </trkpt>
      <trkpt lat="45.73036" lon="3.45633">
        <ele>473.72076416016</ele>
        <time>2020-09-03T20:48:52.099Z</time>
      </trkpt>
      <trkpt lat="45.73004" lon="3.45605">
        <ele>472.54937744141</ele>
        <time>2020-09-03T20:48:55.882Z</time>
      </trkpt>
      <trkpt lat="45.72983" lon="3.45557">
        <ele>474.03491210938</ele>
        <time>2020-09-03T20:48:59.671Z</time>
      </trkpt>
      <trkpt lat="45.72949" lon="3.45511">
        <ele>475.16683959961</ele>
        <time>2020-09-03T20:49:03.468Z</time>
      </trkpt>
      <trkpt lat="45.72924" lon="3.45506">
        <ele>474.26577758789</ele>
        <time>2020-09-03T20:49:07.269Z</time>
      </trkpt>
      <trkpt lat="45.72905" lon="3.4553">
        <ele>470.72402954102</ele>
        <time>2020-09-03T20:49:11.074Z</time>
      </trkpt>
      <trkpt lat="45.72905" lon="3.4553">
        <ele>470.72354125977</ele>
        <time>2020-09-03T20:49:14.879Z</time>
      </trkpt>
      <trkpt lat="45.729" lon="3.45536">
        <ele>470.27322387695</ele>
        <time>2020-09-03T20:49:18.685Z</time>
      </trkpt>
      <trkpt lat="45.729" lon="3.45536">
        <ele>470.27322387695</ele>
        <time>2020-09-03T20:49:22.491Z</time>
      </trkpt>
      <trkpt lat="45.72879" lon="3.45584">
        <ele>469.13604736328</ele>
        <time>2020-09-03T20:49:26.303Z</time>
      </trkpt>
      <trkpt lat="45.72885" lon="3.45628">
        <ele>469.60293579102</ele>
        <time>2020-09-03T20:49:30.120Z</time>
      </trkpt>
      <trkpt lat="45.72913" lon="3.45662">
        <ele>468.18786621094</ele>
        <time>2020-09-03T20:49:33.943Z</time>
      </trkpt>
      <trkpt lat="45.72943" lon="3.45764">
        <ele>470.73275756836</ele>
        <time>2020-09-03T20:49:37.778Z</time>
      </trkpt>
      <trkpt lat="45.72993" lon="3.45822">
        <ele>473.42153930664</ele>
        <time>2020-09-03T20:49:41.624Z</time>
      </trkpt>
      <trkpt lat="45.73067" lon="3.45875">
        <ele>470.8073425293</ele>
        <time>2020-09-03T20:49:45.483Z</time>
      </trkpt>
      <trkpt lat="45.73068" lon="3.45897">
        <ele>472.95703125</ele>
        <time>2020-09-03T20:49:49.344Z</time>
      </trkpt>
      <trkpt lat="45.73059" lon="3.45911">
        <ele>475.80184936523</ele>
        <time>2020-09-03T20:49:53.207Z</time>
      </trkpt>
      <trkpt lat="45.73046" lon="3.45915">
        <ele>478.08917236328</ele>
        <time>2020-09-03T20:49:57.072Z</time>
      </trkpt>
      <trkpt lat="45.73031" lon="3.4591">
        <ele>479.49227905273</ele>
        <time>2020-09-03T20:50:00.940Z</time>
      </trkpt>
      <trkpt lat="45.72977" lon="3.45863">
        <ele>482.02355957031</ele>
        <time>2020-09-03T20:50:04.818Z</time>
      </trkpt>
      <trkpt lat="45.72902" lon="3.45842">
        <ele>488.82885742188</ele>
        <time>2020-09-03T20:50:08.708Z</time>
      </trkpt>
      <trkpt lat="45.72852" lon="3.45808">
        <ele>488.86294555664</ele>
        <time>2020-09-03T20:50:12.607Z</time>
      </trkpt>
      <trkpt lat="45.72639" lon="3.45858">
        <ele>511.39181518555</ele>
        <time>2020-09-03T20:50:16.541Z</time>
      </trkpt>
      <trkpt lat="45.72536" lon="3.45903">
        <ele>517.96258544922</ele>
        <time>2020-09-03T20:50:20.492Z</time>
      </trkpt>
      <trkpt lat="45.72467" lon="3.4602">
        <ele>527.93792724609</ele>
        <time>2020-09-03T20:50:24.460Z</time>
      </trkpt>
      <trkpt lat="45.72448" lon="3.4612">
        <ele>536.34155273438</ele>
        <time>2020-09-03T20:50:28.440Z</time>
      </trkpt>
      <trkpt lat="45.72464" lon="3.46243">
        <ele>540.78082275391</ele>
        <time>2020-09-03T20:50:32.434Z</time>
      </trkpt>
      <trkpt lat="45.72464" lon="3.46243">
        <ele>540.7783203125</ele>
        <time>2020-09-03T20:50:36.428Z</time>
      </trkpt>
      <trkpt lat="45.72448" lon="3.46348">
        <ele>536.45916748047</ele>
        <time>2020-09-03T20:50:40.434Z</time>
      </trkpt>
      <trkpt lat="45.72477" lon="3.46506">
        <ele>537.080078125</ele>
        <time>2020-09-03T20:50:44.458Z</time>
      </trkpt>
      <trkpt lat="45.72469" lon="3.46541">
        <ele>537.46240234375</ele>
        <time>2020-09-03T20:50:48.486Z</time>
      </trkpt>
      <trkpt lat="45.72393" lon="3.46602">
        <ele>544.18597412109</ele>
        <time>2020-09-03T20:50:52.528Z</time>
      </trkpt>
      <trkpt lat="45.72336" lon="3.46672">
        <ele>548.14556884766</ele>
        <time>2020-09-03T20:50:56.582Z</time>
      </trkpt>
      <trkpt lat="45.72303" lon="3.46775">
        <ele>550.56469726562</ele>
        <time>2020-09-03T20:51:00.649Z</time>
      </trkpt>
      <trkpt lat="45.72177" lon="3.46924">
        <ele>561.25109863281</ele>
        <time>2020-09-03T20:51:04.742Z</time>
      </trkpt>
      <trkpt lat="45.72304" lon="3.47073">
        <ele>554.35070800781</ele>
        <time>2020-09-03T20:51:08.861Z</time>
      </trkpt>
      <trkpt lat="45.72332" lon="3.47074">
        <ele>553.70727539062</ele>
        <time>2020-09-03T20:51:12.985Z</time>
      </trkpt>
      <trkpt lat="45.72373" lon="3.47092">
        <ele>553.14813232422</ele>
        <time>2020-09-03T20:51:17.116Z</time>
      </trkpt>
      <trkpt lat="45.72373" lon="3.47092">
        <ele>553.14831542969</ele>
        <time>2020-09-03T20:51:21.247Z</time>
      </trkpt>
      <trkpt lat="45.72454" lon="3.47127">
        <ele>550.26098632812</ele>
        <time>2020-09-03T20:51:25.391Z</time>
      </trkpt>
      <trkpt lat="45.7258" lon="3.47159">
        <ele>547.43658447266</ele>
        <time>2020-09-03T20:51:29.556Z</time>
      </trkpt>
      <trkpt lat="45.72606" lon="3.47174">
        <ele>547.79699707031</ele>
        <time>2020-09-03T20:51:33.725Z</time>
      </trkpt>
      <trkpt lat="45.72625" lon="3.47189">
        <ele>547.92126464844</ele>
        <time>2020-09-03T20:51:37.898Z</time>
      </trkpt>
      <trkpt lat="45.72678" lon="3.47259">
        <ele>547.57720947266</ele>
        <time>2020-09-03T20:51:42.082Z</time>
      </trkpt>
      <trkpt lat="45.72733" lon="3.47353">
        <ele>547.96466064453</ele>
        <time>2020-09-03T20:51:46.280Z</time>
      </trkpt>
      <trkpt lat="45.72883" lon="3.47569">
        <ele>544.73669433594</ele>
        <time>2020-09-03T20:51:50.512Z</time>
      </trkpt>
      <trkpt lat="45.72913" lon="3.47607">
        <ele>544.10894775391</ele>
        <time>2020-09-03T20:51:54.750Z</time>
      </trkpt>
      <trkpt lat="45.72956" lon="3.47686">
        <ele>545.6748046875</ele>
        <time>2020-09-03T20:51:59.000Z</time>
      </trkpt>
      <trkpt lat="45.73011" lon="3.47738">
        <ele>547.14294433594</ele>
        <time>2020-09-03T20:52:03.260Z</time>
      </trkpt>
      <trkpt lat="45.73227" lon="3.47832">
        <ele>552.00146484375</ele>
        <time>2020-09-03T20:52:07.556Z</time>
      </trkpt>
      <trkpt lat="45.73232" lon="3.47836">
        <ele>552.4912109375</ele>
        <time>2020-09-03T20:52:11.853Z</time>
      </trkpt>
      <trkpt lat="45.73314" lon="3.47927">
        <ele>556.07586669922</ele>
        <time>2020-09-03T20:52:16.167Z</time>
      </trkpt>
      <trkpt lat="45.73331" lon="3.47957">
        <ele>555.92474365234</ele>
        <time>2020-09-03T20:52:20.485Z</time>
      </trkpt>
      <trkpt lat="45.73361" lon="3.48046">
        <ele>551.96551513672</ele>
        <time>2020-09-03T20:52:24.814Z</time>
      </trkpt>
      <trkpt lat="45.73397" lon="3.48095">
        <ele>548.74896240234</ele>
        <time>2020-09-03T20:52:29.151Z</time>
      </trkpt>
      <trkpt lat="45.73422" lon="3.48111">
        <ele>544.20031738281</ele>
        <time>2020-09-03T20:52:33.493Z</time>
      </trkpt>
      <trkpt lat="45.73439" lon="3.48109">
        <ele>543.11975097656</ele>
        <time>2020-09-03T20:52:37.837Z</time>
      </trkpt>
      <trkpt lat="45.73511" lon="3.48077">
        <ele>540.15045166016</ele>
        <time>2020-09-03T20:52:42.193Z</time>
      </trkpt>
      <trkpt lat="45.73535" lon="3.48033">
        <ele>544.74591064453</ele>
        <time>2020-09-03T20:52:46.556Z</time>
      </trkpt>
      <trkpt lat="45.73552" lon="3.48023">
        <ele>544.08941650391</ele>
        <time>2020-09-03T20:52:50.922Z</time>
      </trkpt>
      <trkpt lat="45.73568" lon="3.48022">
        <ele>543.73468017578</ele>
        <time>2020-09-03T20:52:55.290Z</time>
      </trkpt>
      <trkpt lat="45.73592" lon="3.48035">
        <ele>541.16015625</ele>
        <time>2020-09-03T20:52:59.662Z</time>
      </trkpt>
      <trkpt lat="45.73616" lon="3.48087">
        <ele>533.58215332031</ele>
        <time>2020-09-03T20:53:04.041Z</time>
      </trkpt>
      <trkpt lat="45.73669" lon="3.48322">
        <ele>519.31188964844</ele>
        <time>2020-09-03T20:53:08.448Z</time>
      </trkpt>
      <trkpt lat="45.73679" lon="3.48344">
        <ele>518.28210449219</ele>
        <time>2020-09-03T20:53:12.858Z</time>
      </trkpt>
      <trkpt lat="45.73699" lon="3.48358">
        <ele>517.12860107422</ele>
        <time>2020-09-03T20:53:17.271Z</time>
      </trkpt>
      <trkpt lat="45.73804" lon="3.48386">
        <ele>510.99606323242</ele>
        <time>2020-09-03T20:53:21.702Z</time>
      </trkpt>
      <trkpt lat="45.73824" lon="3.48395">
        <ele>511.8515625</ele>
        <time>2020-09-03T20:53:26.136Z</time>
      </trkpt>
      <trkpt lat="45.73844" lon="3.4842">
        <ele>511.49111938477</ele>
        <time>2020-09-03T20:53:30.574Z</time>
      </trkpt>
      <trkpt lat="45.73851" lon="3.48452">
        <ele>510.01733398438</ele>
        <time>2020-09-03T20:53:35.016Z</time>
      </trkpt>
      <trkpt lat="45.73847" lon="3.4857">
        <ele>505.5107421875</ele>
        <time>2020-09-03T20:53:39.471Z</time>
      </trkpt>
      <trkpt lat="45.73828" lon="3.48642">
        <ele>504.12393188477</ele>
        <time>2020-09-03T20:53:43.935Z</time>
      </trkpt>
      <trkpt lat="45.73828" lon="3.48642">
        <ele>504.12423706055</ele>
        <time>2020-09-03T20:53:48.399Z</time>
      </trkpt>
      <trkpt lat="45.73819" lon="3.48699">
        <ele>503.60470581055</ele>
        <time>2020-09-03T20:53:52.869Z</time>
      </trkpt>
      <trkpt lat="45.73868" lon="3.49006">
        <ele>501.26254272461</ele>
        <time>2020-09-03T20:53:57.375Z</time>
      </trkpt>
      <trkpt lat="45.73935" lon="3.49208">
        <ele>500.18713378906</ele>
        <time>2020-09-03T20:54:01.906Z</time>
      </trkpt>
      <trkpt lat="45.73956" lon="3.49342">
        <ele>499.53118896484</ele>
        <time>2020-09-03T20:54:06.452Z</time>
      </trkpt>
      <trkpt lat="45.73973" lon="3.49374">
        <ele>498.83139038086</ele>
        <time>2020-09-03T20:54:11.003Z</time>
      </trkpt>
      <trkpt lat="45.74016" lon="3.49424">
        <ele>500.13140869141</ele>
        <time>2020-09-03T20:54:15.562Z</time>
      </trkpt>
      <trkpt lat="45.7402" lon="3.49429">
        <ele>500.23440551758</ele>
        <time>2020-09-03T20:54:20.122Z</time>
      </trkpt>
      <trkpt lat="45.7409" lon="3.49512">
        <ele>498.02285766602</ele>
        <time>2020-09-03T20:54:24.697Z</time>
      </trkpt>
      <trkpt lat="45.74104" lon="3.49538">
        <ele>498.45681762695</ele>
        <time>2020-09-03T20:54:29.276Z</time>
      </trkpt>
      <trkpt lat="45.74112" lon="3.49568">
        <ele>498.99746704102</ele>
        <time>2020-09-03T20:54:33.858Z</time>
      </trkpt>
      <trkpt lat="45.74111" lon="3.49614">
        <ele>497.55349731445</ele>
        <time>2020-09-03T20:54:38.445Z</time>
      </trkpt>
      <trkpt lat="45.7409" lon="3.49725">
        <ele>493.39889526367</ele>
        <time>2020-09-03T20:54:43.045Z</time>
      </trkpt>
      <trkpt lat="45.74079" lon="3.49756">
        <ele>491.86706542969</ele>
        <time>2020-09-03T20:54:47.649Z</time>
      </trkpt>
      <trkpt lat="45.74037" lon="3.49805">
        <ele>486.51028442383</ele>
        <time>2020-09-03T20:54:52.262Z</time>
      </trkpt>
      <trkpt lat="45.7402" lon="3.49863">
        <ele>484.52560424805</ele>
        <time>2020-09-03T20:54:56.882Z</time>
      </trkpt>
      <trkpt lat="45.74011" lon="3.49878">
        <ele>482.41452026367</ele>
        <time>2020-09-03T20:55:01.504Z</time>
      </trkpt>
      <trkpt lat="45.73877" lon="3.49968">
        <ele>468.35592651367</ele>
        <time>2020-09-03T20:55:06.150Z</time>
      </trkpt>
      <trkpt lat="45.7387" lon="3.49995">
        <ele>467.96975708008</ele>
        <time>2020-09-03T20:55:10.799Z</time>
      </trkpt>
      <trkpt lat="45.73876" lon="3.50018">
        <ele>467.82446289062</ele>
        <time>2020-09-03T20:55:15.451Z</time>
      </trkpt>
      <trkpt lat="45.73913" lon="3.50109">
        <ele>466.22061157227</ele>
        <time>2020-09-03T20:55:20.115Z</time>
      </trkpt>
      <trkpt lat="45.73951" lon="3.50206">
        <ele>460.89782714844</ele>
        <time>2020-09-03T20:55:24.791Z</time>
      </trkpt>
      <trkpt lat="45.73952" lon="3.50257">
        <ele>457.8030090332</ele>
        <time>2020-09-03T20:55:29.473Z</time>
      </trkpt>
      <trkpt lat="45.73952" lon="3.50257">
        <ele>457.80261230469</ele>
        <time>2020-09-03T20:55:34.155Z</time>
      </trkpt>
      <trkpt lat="45.73934" lon="3.50395">
        <ele>452.11865234375</ele>
        <time>2020-09-03T20:55:38.852Z</time>
      </trkpt>
      <trkpt lat="45.73942" lon="3.50493">
        <ele>452.74380493164</ele>
        <time>2020-09-03T20:55:43.560Z</time>
      </trkpt>
      <trkpt lat="45.73912" lon="3.50809">
        <ele>462.44958496094</ele>
        <time>2020-09-03T20:55:48.304Z</time>
      </trkpt>
      <trkpt lat="45.73915" lon="3.50836">
        <ele>463.65939331055</ele>
        <time>2020-09-03T20:55:53.051Z</time>
      </trkpt>
      <trkpt lat="45.73915" lon="3.50836">
        <ele>463.65960693359</ele>
        <time>2020-09-03T20:55:57.798Z</time>
      </trkpt>
      <trkpt lat="45.73927" lon="3.50862">
        <ele>464.75329589844</ele>
        <time>2020-09-03T20:56:02.549Z</time>
      </trkpt>
      <trkpt lat="45.74008" lon="3.50971">
        <ele>468.47912597656</ele>
        <time>2020-09-03T20:56:07.318Z</time>
      </trkpt>
      <trkpt lat="45.74092" lon="3.51057">
        <ele>470.98645019531</ele>
        <time>2020-09-03T20:56:12.103Z</time>
      </trkpt>
      <trkpt lat="45.74191" lon="3.51234">
        <ele>481.14450073242</ele>
        <time>2020-09-03T20:56:16.914Z</time>
      </trkpt>
      <trkpt lat="45.74191" lon="3.51234">
        <ele>481.14419555664</ele>
        <time>2020-09-03T20:56:21.725Z</time>
      </trkpt>
      <trkpt lat="45.74288" lon="3.51324">
        <ele>483.80133056641</ele>
        <time>2020-09-03T20:56:26.554Z</time>
      </trkpt>
      <trkpt lat="45.7435" lon="3.51402">
        <ele>482.3561706543</ele>
        <time>2020-09-03T20:56:31.396Z</time>
      </trkpt>
      <trkpt lat="45.74413" lon="3.51454">
        <ele>479.70916748047</ele>
        <time>2020-09-03T20:56:36.250Z</time>
      </trkpt>
      <trkpt lat="45.74445" lon="3.51478">
        <ele>478.06149291992</ele>
        <time>2020-09-03T20:56:41.110Z</time>
      </trkpt>
      <trkpt lat="45.74481" lon="3.51502">
        <ele>475.75967407227</ele>
        <time>2020-09-03T20:56:45.976Z</time>
      </trkpt>
      <trkpt lat="45.74489" lon="3.51509">
        <ele>474.91009521484</ele>
        <time>2020-09-03T20:56:50.844Z</time>
      </trkpt>
      <trkpt lat="45.74517" lon="3.51527">
        <ele>472.23974609375</ele>
        <time>2020-09-03T20:56:55.716Z</time>
      </trkpt>
      <trkpt lat="45.74544" lon="3.5156">
        <ele>470.14154052734</ele>
        <time>2020-09-03T20:57:00.594Z</time>
      </trkpt>
      <trkpt lat="45.74571" lon="3.51614">
        <ele>469.33114624023</ele>
        <time>2020-09-03T20:57:05.480Z</time>
      </trkpt>
      <trkpt lat="45.74592" lon="3.51819">
        <ele>462.93539428711</ele>
        <time>2020-09-03T20:57:10.389Z</time>
      </trkpt>
      <trkpt lat="45.74602" lon="3.5188">
        <ele>459.91323852539</ele>
        <time>2020-09-03T20:57:15.305Z</time>
      </trkpt>
      <trkpt lat="45.74613" lon="3.5191">
        <ele>458.21734619141</ele>
        <time>2020-09-03T20:57:20.225Z</time>
      </trkpt>
      <trkpt lat="45.74742" lon="3.52159">
        <ele>440.74075317383</ele>
        <time>2020-09-03T20:57:25.179Z</time>
      </trkpt>
      <trkpt lat="45.74756" lon="3.52232">
        <ele>436.70199584961</ele>
        <time>2020-09-03T20:57:30.142Z</time>
      </trkpt>
      <trkpt lat="45.74756" lon="3.52232">
        <ele>436.70260620117</ele>
        <time>2020-09-03T20:57:35.105Z</time>
      </trkpt>
      <trkpt lat="45.7476" lon="3.52323">
        <ele>430.28652954102</ele>
        <time>2020-09-03T20:57:40.078Z</time>
      </trkpt>
      <trkpt lat="45.74727" lon="3.52418">
        <ele>422.26992797852</ele>
        <time>2020-09-03T20:57:45.063Z</time>
      </trkpt>
      <trkpt lat="45.74716" lon="3.52453">
        <ele>418.60830688477</ele>
        <time>2020-09-03T20:57:50.052Z</time>
      </trkpt>
      <trkpt lat="45.747" lon="3.52634">
        <ele>398.74850463867</ele>
        <time>2020-09-03T20:57:55.062Z</time>
      </trkpt>
      <trkpt lat="45.74704" lon="3.52704">
        <ele>390.31372070312</ele>
        <time>2020-09-03T20:58:00.080Z</time>
      </trkpt>
      <trkpt lat="45.74712" lon="3.52726">
        <ele>386.09164428711</ele>
        <time>2020-09-03T20:58:05.100Z</time>
      </trkpt>
      <trkpt lat="45.74733" lon="3.52749">
        <ele>382.31979370117</ele>
        <time>2020-09-03T20:58:10.124Z</time>
      </trkpt>
      <trkpt lat="45.74848" lon="3.5282">
        <ele>378.00411987305</ele>
        <time>2020-09-03T20:58:15.169Z</time>
      </trkpt>
      <trkpt lat="45.74868" lon="3.52822">
        <ele>376.24041748047</ele>
        <time>2020-09-03T20:58:20.217Z</time>
      </trkpt>
      <trkpt lat="45.74885" lon="3.52763">
        <ele>373.53140258789</ele>
        <time>2020-09-03T20:58:25.272Z</time>
      </trkpt>
      <trkpt lat="45.74903" lon="3.52766">
        <ele>373.81176757812</ele>
        <time>2020-09-03T20:58:30.330Z</time>
      </trkpt>
      <trkpt lat="45.74956" lon="3.52847">
        <ele>368.20904541016</ele>
        <time>2020-09-03T20:58:35.400Z</time>
      </trkpt>
      <trkpt lat="45.7497" lon="3.52925">
        <ele>357.23886108398</ele>
        <time>2020-09-03T20:58:40.479Z</time>
      </trkpt>
      <trkpt lat="45.7498" lon="3.52948">
        <ele>353.97473144531</ele>
        <time>2020-09-03T20:58:45.561Z</time>
      </trkpt>
      <trkpt lat="45.74991" lon="3.52962">
        <ele>351.85076904297</ele>
        <time>2020-09-03T20:58:50.646Z</time>
      </trkpt>
      <trkpt lat="45.75059" lon="3.52989">
        <ele>348.49438476562</ele>
        <time>2020-09-03T20:58:55.742Z</time>
      </trkpt>
      <trkpt lat="45.7511" lon="3.53113">
        <ele>337.61126708984</ele>
        <time>2020-09-03T20:59:00.854Z</time>
      </trkpt>
      <trkpt lat="45.75146" lon="3.53138">
        <ele>337.37832641602</ele>
        <time>2020-09-03T20:59:05.972Z</time>
      </trkpt>
      <trkpt lat="45.75146" lon="3.53138">
        <ele>337.37771606445</ele>
        <time>2020-09-03T20:59:11.090Z</time>
      </trkpt>
      <trkpt lat="45.75197" lon="3.53184">
        <ele>338.31741333008</ele>
        <time>2020-09-03T20:59:16.218Z</time>
      </trkpt>
      <trkpt lat="45.75229" lon="3.53229">
        <ele>336.32604980469</ele>
        <time>2020-09-03T20:59:21.353Z</time>
      </trkpt>
      <trkpt lat="45.75352" lon="3.53454">
        <ele>332</ele>
        <time>2020-09-03T20:59:26.520Z</time>
      </trkpt>
      <trkpt lat="45.75362" lon="3.53472">
        <ele>332</ele>
        <time>2020-09-03T20:59:31.690Z</time>
      </trkpt>
      <trkpt lat="45.75366" lon="3.5348">
        <ele>332</ele>
        <time>2020-09-03T20:59:36.861Z</time>
      </trkpt>
      <trkpt lat="45.75372" lon="3.53492">
        <ele>332</ele>
        <time>2020-09-03T20:59:42.034Z</time>
      </trkpt>
      <trkpt lat="45.75385" lon="3.53516">
        <ele>331.98236083984</ele>
        <time>2020-09-03T20:59:47.210Z</time>
      </trkpt>
      <trkpt lat="45.75419" lon="3.53654">
        <ele>333.76354980469</ele>
        <time>2020-09-03T20:59:52.402Z</time>
      </trkpt>
      <trkpt lat="45.7548" lon="3.53638">
        <ele>334.23690795898</ele>
        <time>2020-09-03T20:59:57.604Z</time>
      </trkpt>
      <trkpt lat="45.75511" lon="3.5365">
        <ele>333.64477539062</ele>
        <time>2020-09-03T21:00:02.811Z</time>
      </trkpt>
      <trkpt lat="45.75545" lon="3.53675">
        <ele>333.11682128906</ele>
        <time>2020-09-03T21:00:08.024Z</time>
      </trkpt>
      <trkpt lat="45.75553" lon="3.53693">
        <ele>332.82077026367</ele>
        <time>2020-09-03T21:00:13.240Z</time>
      </trkpt>
      <trkpt lat="45.7556" lon="3.53788">
        <ele>331</ele>
        <time>2020-09-03T21:00:18.466Z</time>
      </trkpt>
      <trkpt lat="45.75561" lon="3.53808">
        <ele>331</ele>
        <time>2020-09-03T21:00:23.695Z</time>
      </trkpt>
      <trkpt lat="45.75561" lon="3.53812">
        <ele>331</ele>
        <time>2020-09-03T21:00:28.924Z</time>
      </trkpt>
      <trkpt lat="45.75565" lon="3.53876">
        <ele>330.83255004883</ele>
        <time>2020-09-03T21:00:34.160Z</time>
      </trkpt>
      <trkpt lat="45.75563" lon="3.53907">
        <ele>330.43350219727</ele>
        <time>2020-09-03T21:00:39.400Z</time>
      </trkpt>
      <trkpt lat="45.75564" lon="3.53925">
        <ele>330.22756958008</ele>
        <time>2020-09-03T21:00:44.642Z</time>
      </trkpt>
      <trkpt lat="45.75591" lon="3.53988">
        <ele>326.53259277344</ele>
        <time>2020-09-03T21:00:49.892Z</time>
      </trkpt>
      <trkpt lat="45.75591" lon="3.53988">
        <ele>326.5325012207</ele>
        <time>2020-09-03T21:00:55.142Z</time>
      </trkpt>
      <trkpt lat="45.75601" lon="3.54013">
        <ele>324.8720703125</ele>
        <time>2020-09-03T21:01:00.395Z</time>
      </trkpt>
      <trkpt lat="45.75674" lon="3.54191">
        <ele>318.48297119141</ele>
        <time>2020-09-03T21:01:05.671Z</time>
      </trkpt>
      <trkpt lat="45.75674" lon="3.54191">
        <ele>318.48306274414</ele>
        <time>2020-09-03T21:01:10.947Z</time>
      </trkpt>
      <trkpt lat="45.75684" lon="3.54216">
        <ele>318.05828857422</ele>
        <time>2020-09-03T21:01:16.227Z</time>
      </trkpt>
      <trkpt lat="45.75649" lon="3.54227">
        <ele>317.98165893555</ele>
        <time>2020-09-03T21:01:21.513Z</time>
      </trkpt>
      <trkpt lat="45.75417" lon="3.54322">
        <ele>316.35604858398</ele>
        <time>2020-09-03T21:01:26.837Z</time>
      </trkpt>
      <trkpt lat="45.75425" lon="3.54354">
        <ele>316.3642578125</ele>
        <time>2020-09-03T21:01:32.165Z</time>
      </trkpt>
      <trkpt lat="45.75429" lon="3.54371">
        <ele>316.00384521484</ele>
        <time>2020-09-03T21:01:37.495Z</time>
      </trkpt>
      <trkpt lat="45.75444" lon="3.54435">
        <ele>315</ele>
        <time>2020-09-03T21:01:42.832Z</time>
      </trkpt>
      <trkpt lat="45.75453" lon="3.54467">
        <ele>315</ele>
        <time>2020-09-03T21:01:48.173Z</time>
      </trkpt>
      <trkpt lat="45.75483" lon="3.54517">
        <ele>314.85864257812</ele>
        <time>2020-09-03T21:01:53.522Z</time>
      </trkpt>
      <trkpt lat="45.75483" lon="3.54517">
        <ele>314.85873413086</ele>
        <time>2020-09-03T21:01:58.871Z</time>
      </trkpt>
      <trkpt lat="45.75506" lon="3.546">
        <ele>315</ele>
        <time>2020-09-03T21:02:04.230Z</time>
      </trkpt>
      <trkpt lat="45.75506" lon="3.546">
        <ele>315</ele>
        <time>2020-09-03T21:02:09.589Z</time>
      </trkpt>
      <trkpt lat="45.75513" lon="3.54616">
        <ele>315</ele>
        <time>2020-09-03T21:02:14.950Z</time>
      </trkpt>
      <trkpt lat="45.75513" lon="3.54616">
        <ele>315</ele>
        <time>2020-09-03T21:02:20.311Z</time>
      </trkpt>
      <trkpt lat="45.75516" lon="3.54629">
        <ele>315</ele>
        <time>2020-09-03T21:02:25.673Z</time>
      </trkpt>
      <trkpt lat="45.75524" lon="3.5465">
        <ele>315</ele>
        <time>2020-09-03T21:02:31.038Z</time>
      </trkpt>
      <trkpt lat="45.7553" lon="3.5467">
        <ele>315</ele>
        <time>2020-09-03T21:02:36.405Z</time>
      </trkpt>
      <trkpt lat="45.75516" lon="3.54675">
        <ele>315</ele>
        <time>2020-09-03T21:02:41.775Z</time>
      </trkpt>
      <trkpt lat="45.75488" lon="3.54718">
        <ele>314.58877563477</ele>
        <time>2020-09-03T21:02:47.151Z</time>
      </trkpt>
      <trkpt lat="45.75465" lon="3.54802">
        <ele>315.15515136719</ele>
        <time>2020-09-03T21:02:52.537Z</time>
      </trkpt>
      <trkpt lat="45.75428" lon="3.54829">
        <ele>315.77166748047</ele>
        <time>2020-09-03T21:02:57.930Z</time>
      </trkpt>
      <trkpt lat="45.7541" lon="3.5485">
        <ele>315.74600219727</ele>
        <time>2020-09-03T21:03:03.327Z</time>
      </trkpt>
      <trkpt lat="45.75374" lon="3.5492">
        <ele>316</ele>
        <time>2020-09-03T21:03:08.733Z</time>
      </trkpt>
      <trkpt lat="45.75356" lon="3.54956">
        <ele>316.90246582031</ele>
        <time>2020-09-03T21:03:14.144Z</time>
      </trkpt>
      <trkpt lat="45.75356" lon="3.54956">
        <ele>316.90255737305</ele>
        <time>2020-09-03T21:03:19.555Z</time>
      </trkpt>
      <trkpt lat="45.75238" lon="3.55173">
        <ele>329.76336669922</ele>
        <time>2020-09-03T21:03:24.997Z</time>
      </trkpt>
      <trkpt lat="45.75208" lon="3.55203">
        <ele>331.9453125</ele>
        <time>2020-09-03T21:03:30.445Z</time>
      </trkpt>
      <trkpt lat="45.75168" lon="3.55231">
        <ele>332.38299560547</ele>
        <time>2020-09-03T21:03:35.900Z</time>
      </trkpt>
      <trkpt lat="45.75083" lon="3.55225">
        <ele>330.10098266602</ele>
        <time>2020-09-03T21:03:41.369Z</time>
      </trkpt>
      <trkpt lat="45.75033" lon="3.55249">
        <ele>332.17529296875</ele>
        <time>2020-09-03T21:03:46.846Z</time>
      </trkpt>
      <trkpt lat="45.75033" lon="3.55249">
        <ele>332.17477416992</ele>
        <time>2020-09-03T21:03:52.323Z</time>
      </trkpt>
      <trkpt lat="45.74994" lon="3.55268">
        <ele>331.44076538086</ele>
        <time>2020-09-03T21:03:57.807Z</time>
      </trkpt>
      <trkpt lat="45.74994" lon="3.55268">
        <ele>331.44027709961</ele>
        <time>2020-09-03T21:04:03.291Z</time>
      </trkpt>
      <trkpt lat="45.74925" lon="3.55253">
        <ele>325.61734008789</ele>
        <time>2020-09-03T21:04:08.786Z</time>
      </trkpt>
      <trkpt lat="45.74868" lon="3.55251">
        <ele>322.33303833008</ele>
        <time>2020-09-03T21:04:14.290Z</time>
      </trkpt>
      <trkpt lat="45.74731" lon="3.55204">
        <ele>318.35299682617</ele>
        <time>2020-09-03T21:04:19.817Z</time>
      </trkpt>
      <trkpt lat="45.74532" lon="3.55135">
        <ele>321.66976928711</ele>
        <time>2020-09-03T21:04:25.376Z</time>
      </trkpt>
      <trkpt lat="45.74526" lon="3.55215">
        <ele>323.79849243164</ele>
        <time>2020-09-03T21:04:30.944Z</time>
      </trkpt>
      <trkpt lat="45.74526" lon="3.55215">
        <ele>323.79898071289</ele>
        <time>2020-09-03T21:04:36.512Z</time>
      </trkpt>
      <trkpt lat="45.74513" lon="3.55359">
        <ele>328.57061767578</ele>
        <time>2020-09-03T21:04:42.097Z</time>
      </trkpt>
      <trkpt lat="45.74489" lon="3.55414">
        <ele>329.59661865234</ele>
        <time>2020-09-03T21:04:47.689Z</time>
      </trkpt>
      <trkpt lat="45.7448" lon="3.55515">
        <ele>326.88201904297</ele>
        <time>2020-09-03T21:04:53.292Z</time>
      </trkpt>
      <trkpt lat="45.74468" lon="3.55567">
        <ele>327.93838500977</ele>
        <time>2020-09-03T21:04:58.901Z</time>
      </trkpt>
      <trkpt lat="45.74462" lon="3.5573">
        <ele>325.67547607422</ele>
        <time>2020-09-03T21:05:04.529Z</time>
      </trkpt>
      <trkpt lat="45.74449" lon="3.55769">
        <ele>325.73724365234</ele>
        <time>2020-09-03T21:05:10.162Z</time>
      </trkpt>
      <trkpt lat="45.74407" lon="3.55848">
        <ele>328.4716796875</ele>
        <time>2020-09-03T21:05:15.806Z</time>
      </trkpt>
      <trkpt lat="45.74359" lon="3.56006">
        <ele>333.69720458984</ele>
        <time>2020-09-03T21:05:21.469Z</time>
      </trkpt>
      <trkpt lat="45.7441" lon="3.56247">
        <ele>332.67242431641</ele>
        <time>2020-09-03T21:05:27.160Z</time>
      </trkpt>
      <trkpt lat="45.74461" lon="3.56473">
        <ele>330.25738525391</ele>
        <time>2020-09-03T21:05:32.878Z</time>
      </trkpt>
      <trkpt lat="45.74512" lon="3.56612">
        <ele>332.49853515625</ele>
        <time>2020-09-03T21:05:38.613Z</time>
      </trkpt>
      <trkpt lat="45.74531" lon="3.56674">
        <ele>335.33721923828</ele>
        <time>2020-09-03T21:05:44.356Z</time>
      </trkpt>
      <trkpt lat="45.74525" lon="3.56725">
        <ele>340.04821777344</ele>
        <time>2020-09-03T21:05:50.105Z</time>
      </trkpt>
      <trkpt lat="45.74506" lon="3.56778">
        <ele>342.576171875</ele>
        <time>2020-09-03T21:05:55.860Z</time>
      </trkpt>
      <trkpt lat="45.74422" lon="3.56856">
        <ele>344.71200561523</ele>
        <time>2020-09-03T21:06:01.632Z</time>
      </trkpt>
      <trkpt lat="45.74397" lon="3.569">
        <ele>350.64978027344</ele>
        <time>2020-09-03T21:06:07.410Z</time>
      </trkpt>
      <trkpt lat="45.74397" lon="3.569">
        <ele>350.65148925781</ele>
        <time>2020-09-03T21:06:13.188Z</time>
      </trkpt>
      <trkpt lat="45.74305" lon="3.5706">
        <ele>352.26931762695</ele>
        <time>2020-09-03T21:06:18.989Z</time>
      </trkpt>
      <trkpt lat="45.7429" lon="3.57112">
        <ele>351.90054321289</ele>
        <time>2020-09-03T21:06:24.796Z</time>
      </trkpt>
      <trkpt lat="45.74291" lon="3.57182">
        <ele>355.09194946289</ele>
        <time>2020-09-03T21:06:30.611Z</time>
      </trkpt>
      <trkpt lat="45.74284" lon="3.5721">
        <ele>356.80361938477</ele>
        <time>2020-09-03T21:06:36.430Z</time>
      </trkpt>
      <trkpt lat="45.74273" lon="3.5723">
        <ele>356.57192993164</ele>
        <time>2020-09-03T21:06:42.251Z</time>
      </trkpt>
      <trkpt lat="45.74226" lon="3.57263">
        <ele>349.72848510742</ele>
        <time>2020-09-03T21:06:48.081Z</time>
      </trkpt>
      <trkpt lat="45.74201" lon="3.57294">
        <ele>353.57183837891</ele>
        <time>2020-09-03T21:06:53.916Z</time>
      </trkpt>
      <trkpt lat="45.74178" lon="3.57379">
        <ele>360.76953125</ele>
        <time>2020-09-03T21:06:59.761Z</time>
      </trkpt>
      <trkpt lat="45.74177" lon="3.574">
        <ele>362.43893432617</ele>
        <time>2020-09-03T21:07:05.609Z</time>
      </trkpt>
      <trkpt lat="45.74188" lon="3.57464">
        <ele>364.93450927734</ele>
        <time>2020-09-03T21:07:11.464Z</time>
      </trkpt>
      <trkpt lat="45.74192" lon="3.57602">
        <ele>359.62600708008</ele>
        <time>2020-09-03T21:07:17.335Z</time>
      </trkpt>
      <trkpt lat="45.74208" lon="3.57685">
        <ele>365.84295654297</ele>
        <time>2020-09-03T21:07:23.215Z</time>
      </trkpt>
      <trkpt lat="45.74258" lon="3.57817">
        <ele>371.32684326172</ele>
        <time>2020-09-03T21:07:29.112Z</time>
      </trkpt>
      <trkpt lat="45.74264" lon="3.57926">
        <ele>370.13278198242</ele>
        <time>2020-09-03T21:07:35.021Z</time>
      </trkpt>
      <trkpt lat="45.7424" lon="3.57985">
        <ele>363.19857788086</ele>
        <time>2020-09-03T21:07:40.938Z</time>
      </trkpt>
      <trkpt lat="45.7424" lon="3.57985">
        <ele>363.19686889648</ele>
        <time>2020-09-03T21:07:46.855Z</time>
      </trkpt>
      <trkpt lat="45.74188" lon="3.58109">
        <ele>371.15603637695</ele>
        <time>2020-09-03T21:07:52.788Z</time>
      </trkpt>
      <trkpt lat="45.74127" lon="3.58339">
        <ele>390.90521240234</ele>
        <time>2020-09-03T21:07:58.749Z</time>
      </trkpt>
      <trkpt lat="45.74107" lon="3.58367">
        <ele>388.78247070312</ele>
        <time>2020-09-03T21:08:04.714Z</time>
      </trkpt>
      <trkpt lat="45.74034" lon="3.58409">
        <ele>385.42791748047</ele>
        <time>2020-09-03T21:08:10.692Z</time>
      </trkpt>
      <trkpt lat="45.74013" lon="3.58438">
        <ele>381.66418457031</ele>
        <time>2020-09-03T21:08:16.674Z</time>
      </trkpt>
      <trkpt lat="45.74009" lon="3.58473">
        <ele>383.08660888672</ele>
        <time>2020-09-03T21:08:22.660Z</time>
      </trkpt>
      <trkpt lat="45.74012" lon="3.58494">
        <ele>383.21533203125</ele>
        <time>2020-09-03T21:08:28.649Z</time>
      </trkpt>
      <trkpt lat="45.74038" lon="3.58518">
        <ele>386.02255249023</ele>
        <time>2020-09-03T21:08:34.643Z</time>
      </trkpt>
      <trkpt lat="45.74038" lon="3.58518">
        <ele>386.02154541016</ele>
        <time>2020-09-03T21:08:40.637Z</time>
      </trkpt>
      <trkpt lat="45.74086" lon="3.58535">
        <ele>390.52621459961</ele>
        <time>2020-09-03T21:08:46.639Z</time>
      </trkpt>
      <trkpt lat="45.74107" lon="3.58585">
        <ele>387.69427490234</ele>
        <time>2020-09-03T21:08:52.647Z</time>
      </trkpt>
      <trkpt lat="45.74106" lon="3.58612">
        <ele>385.51068115234</ele>
        <time>2020-09-03T21:08:58.658Z</time>
      </trkpt>
      <trkpt lat="45.74083" lon="3.58666">
        <ele>385.14123535156</ele>
        <time>2020-09-03T21:09:04.676Z</time>
      </trkpt>
      <trkpt lat="45.74077" lon="3.58696">
        <ele>387.74990844727</ele>
        <time>2020-09-03T21:09:10.698Z</time>
      </trkpt>
      <trkpt lat="45.74089" lon="3.58822">
        <ele>394.74291992188</ele>
        <time>2020-09-03T21:09:16.734Z</time>
      </trkpt>
      <trkpt lat="45.74073" lon="3.58861">
        <ele>393.18533325195</ele>
        <time>2020-09-03T21:09:22.775Z</time>
      </trkpt>
      <trkpt lat="45.7402" lon="3.58924">
        <ele>394.02474975586</ele>
        <time>2020-09-03T21:09:28.827Z</time>
      </trkpt>
      <trkpt lat="45.73986" lon="3.58975">
        <ele>394.80728149414</ele>
        <time>2020-09-03T21:09:34.887Z</time>
      </trkpt>
      <trkpt lat="45.73986" lon="3.58975">
        <ele>394.80654907227</ele>
        <time>2020-09-03T21:09:40.947Z</time>
      </trkpt>
      <trkpt lat="45.73965" lon="3.59017">
        <ele>394.46548461914</ele>
        <time>2020-09-03T21:09:47.013Z</time>
      </trkpt>
      <trkpt lat="45.73967" lon="3.59048">
        <ele>394.30856323242</ele>
        <time>2020-09-03T21:09:53.082Z</time>
      </trkpt>
      <trkpt lat="45.74012" lon="3.59139">
        <ele>397.69760131836</ele>
        <time>2020-09-03T21:09:59.164Z</time>
      </trkpt>
      <trkpt lat="45.74034" lon="3.59166">
        <ele>399.29144287109</ele>
        <time>2020-09-03T21:10:05.251Z</time>
      </trkpt>
      <trkpt lat="45.74068" lon="3.5919">
        <ele>404.18350219727</ele>
        <time>2020-09-03T21:10:11.344Z</time>
      </trkpt>
      <trkpt lat="45.74082" lon="3.59251">
        <ele>402.91851806641</ele>
        <time>2020-09-03T21:10:17.444Z</time>
      </trkpt>
      <trkpt lat="45.74111" lon="3.59309">
        <ele>404.1025390625</ele>
        <time>2020-09-03T21:10:23.552Z</time>
      </trkpt>
      <trkpt lat="45.74121" lon="3.5937">
        <ele>401.87652587891</ele>
        <time>2020-09-03T21:10:29.667Z</time>
      </trkpt>
      <trkpt lat="45.74118" lon="3.59435">
        <ele>400.32925415039</ele>
        <time>2020-09-03T21:10:35.789Z</time>
      </trkpt>
      <trkpt lat="45.74107" lon="3.59465">
        <ele>401.87396240234</ele>
        <time>2020-09-03T21:10:41.915Z</time>
      </trkpt>
      <trkpt lat="45.74074" lon="3.59516">
        <ele>400.07794189453</ele>
        <time>2020-09-03T21:10:48.049Z</time>
      </trkpt>
      <trkpt lat="45.74006" lon="3.59592">
        <ele>399.5934753418</ele>
        <time>2020-09-03T21:10:54.197Z</time>
      </trkpt>
      <trkpt lat="45.73976" lon="3.59608">
        <ele>397.64852905273</ele>
        <time>2020-09-03T21:11:00.350Z</time>
      </trkpt>
      <trkpt lat="45.73875" lon="3.59611">
        <ele>395.27633666992</ele>
        <time>2020-09-03T21:11:06.519Z</time>
      </trkpt>
      <trkpt lat="45.73792" lon="3.59654">
        <ele>399.19500732422</ele>
        <time>2020-09-03T21:11:12.702Z</time>
      </trkpt>
      <trkpt lat="45.73772" lon="3.59691">
        <ele>398.8840637207</ele>
        <time>2020-09-03T21:11:18.890Z</time>
      </trkpt>
      <trkpt lat="45.73765" lon="3.59718">
        <ele>400.09405517578</ele>
        <time>2020-09-03T21:11:25.081Z</time>
      </trkpt>
      <trkpt lat="45.73769" lon="3.59743">
        <ele>400.80429077148</ele>
        <time>2020-09-03T21:11:31.275Z</time>
      </trkpt>
      <trkpt lat="45.73785" lon="3.5976">
        <ele>401.75744628906</ele>
        <time>2020-09-03T21:11:37.473Z</time>
      </trkpt>
      <trkpt lat="45.73785" lon="3.5976">
        <ele>401.75686645508</ele>
        <time>2020-09-03T21:11:43.671Z</time>
      </trkpt>
      <trkpt lat="45.73831" lon="3.59789">
        <ele>405.16525268555</ele>
        <time>2020-09-03T21:11:49.877Z</time>
      </trkpt>
      <trkpt lat="45.73901" lon="3.59857">
        <ele>410.76712036133</ele>
        <time>2020-09-03T21:11:56.096Z</time>
      </trkpt>
      <trkpt lat="45.73916" lon="3.59875">
        <ele>411.32061767578</ele>
        <time>2020-09-03T21:12:02.318Z</time>
      </trkpt>
      <trkpt lat="45.73972" lon="3.59999">
        <ele>407.57077026367</ele>
        <time>2020-09-03T21:12:08.557Z</time>
      </trkpt>
      <trkpt lat="45.73921" lon="3.60067">
        <ele>405.2395324707</ele>
        <time>2020-09-03T21:12:14.807Z</time>
      </trkpt>
      <trkpt lat="45.73893" lon="3.60083">
        <ele>404.66027832031</ele>
        <time>2020-09-03T21:12:21.062Z</time>
      </trkpt>
      <trkpt lat="45.73871" lon="3.60094">
        <ele>408.99127197266</ele>
        <time>2020-09-03T21:12:27.321Z</time>
      </trkpt>
      <trkpt lat="45.73817" lon="3.6016">
        <ele>417.56365966797</ele>
        <time>2020-09-03T21:12:33.591Z</time>
      </trkpt>
      <trkpt lat="45.7368" lon="3.60192">
        <ele>432.25350952148</ele>
        <time>2020-09-03T21:12:39.883Z</time>
      </trkpt>
      <trkpt lat="45.73559" lon="3.60244">
        <ele>436.15411376953</ele>
        <time>2020-09-03T21:12:46.195Z</time>
      </trkpt>
      <trkpt lat="45.73559" lon="3.60244">
        <ele>436.15350341797</ele>
        <time>2020-09-03T21:12:52.507Z</time>
      </trkpt>
      <trkpt lat="45.73498" lon="3.60242">
        <ele>444.67553710938</ele>
        <time>2020-09-03T21:12:58.829Z</time>
      </trkpt>
      <trkpt lat="45.73467" lon="3.60269">
        <ele>442.63848876953</ele>
        <time>2020-09-03T21:13:05.157Z</time>
      </trkpt>
      <trkpt lat="45.73329" lon="3.60292">
        <ele>452.53793334961</ele>
        <time>2020-09-03T21:13:11.507Z</time>
      </trkpt>
      <trkpt lat="45.73264" lon="3.60318">
        <ele>452.45227050781</ele>
        <time>2020-09-03T21:13:17.868Z</time>
      </trkpt>
      <trkpt lat="45.7321" lon="3.6033">
        <ele>453.73052978516</ele>
        <time>2020-09-03T21:13:24.238Z</time>
      </trkpt>
      <trkpt lat="45.7321" lon="3.6033">
        <ele>453.72903442383</ele>
        <time>2020-09-03T21:13:30.608Z</time>
      </trkpt>
      <trkpt lat="45.73167" lon="3.60353">
        <ele>455.00170898438</ele>
        <time>2020-09-03T21:13:36.985Z</time>
      </trkpt>
      <trkpt lat="45.73115" lon="3.60412">
        <ele>454.76202392578</ele>
        <time>2020-09-03T21:13:43.373Z</time>
      </trkpt>
      <trkpt lat="45.73092" lon="3.60404">
        <ele>458.80401611328</ele>
        <time>2020-09-03T21:13:49.764Z</time>
      </trkpt>
      <trkpt lat="45.73062" lon="3.60375">
        <ele>466.25717163086</ele>
        <time>2020-09-03T21:13:56.161Z</time>
      </trkpt>
      <trkpt lat="45.73046" lon="3.60378">
        <ele>467.76614379883</ele>
        <time>2020-09-03T21:14:02.561Z</time>
      </trkpt>
      <trkpt lat="45.73036" lon="3.60389">
        <ele>467.50869750977</ele>
        <time>2020-09-03T21:14:08.963Z</time>
      </trkpt>
      <trkpt lat="45.73036" lon="3.60422">
        <ele>464.12258911133</ele>
        <time>2020-09-03T21:14:15.369Z</time>
      </trkpt>
      <trkpt lat="45.73057" lon="3.60452">
        <ele>460.46231079102</ele>
        <time>2020-09-03T21:14:21.779Z</time>
      </trkpt>
      <trkpt lat="45.73064" lon="3.60493">
        <ele>459.16220092773</ele>
        <time>2020-09-03T21:14:28.194Z</time>
      </trkpt>
      <trkpt lat="45.73062" lon="3.6051">
        <ele>459.18795776367</ele>
        <time>2020-09-03T21:14:34.611Z</time>
      </trkpt>
      <trkpt lat="45.72959" lon="3.60682">
        <ele>474.75601196289</ele>
        <time>2020-09-03T21:14:41.053Z</time>
      </trkpt>
      <trkpt lat="45.72923" lon="3.60698">
        <ele>484.27084350586</ele>
        <time>2020-09-03T21:14:47.502Z</time>
      </trkpt>
      <trkpt lat="45.72913" lon="3.60758">
        <ele>482.06387329102</ele>
        <time>2020-09-03T21:14:53.957Z</time>
      </trkpt>
      <trkpt lat="45.72885" lon="3.60805">
        <ele>482.56253051758</ele>
        <time>2020-09-03T21:15:00.419Z</time>
      </trkpt>
      <trkpt lat="45.72871" lon="3.60816">
        <ele>484.32608032227</ele>
        <time>2020-09-03T21:15:06.884Z</time>
      </trkpt>
      <trkpt lat="45.72839" lon="3.60827">
        <ele>489.41638183594</ele>
        <time>2020-09-03T21:15:13.354Z</time>
      </trkpt>
      <trkpt lat="45.72778" lon="3.6082">
        <ele>503.78842163086</ele>
        <time>2020-09-03T21:15:19.834Z</time>
      </trkpt>
      <trkpt lat="45.72693" lon="3.60876">
        <ele>505.68780517578</ele>
        <time>2020-09-03T21:15:26.329Z</time>
      </trkpt>
      <trkpt lat="45.72588" lon="3.60927">
        <ele>508.28967285156</ele>
        <time>2020-09-03T21:15:32.842Z</time>
      </trkpt>
      <trkpt lat="45.72527" lon="3.60928">
        <ele>516.38671875</ele>
        <time>2020-09-03T21:15:39.365Z</time>
      </trkpt>
      <trkpt lat="45.72453" lon="3.60965">
        <ele>520.52465820312</ele>
        <time>2020-09-03T21:15:45.900Z</time>
      </trkpt>
      <trkpt lat="45.72385" lon="3.60967">
        <ele>529.45880126953</ele>
        <time>2020-09-03T21:15:52.446Z</time>
      </trkpt>
      <trkpt lat="45.72374" lon="3.60997">
        <ele>521.29766845703</ele>
        <time>2020-09-03T21:15:58.996Z</time>
      </trkpt>
      <trkpt lat="45.72397" lon="3.61051">
        <ele>512.95007324219</ele>
        <time>2020-09-03T21:16:05.553Z</time>
      </trkpt>
      <trkpt lat="45.72397" lon="3.61069">
        <ele>513.1689453125</ele>
        <time>2020-09-03T21:16:12.112Z</time>
      </trkpt>
      <trkpt lat="45.72344" lon="3.61158">
        <ele>534.92602539062</ele>
        <time>2020-09-03T21:16:18.684Z</time>
      </trkpt>
      <trkpt lat="45.72308" lon="3.61246">
        <ele>537.76110839844</ele>
        <time>2020-09-03T21:16:25.267Z</time>
      </trkpt>
      <trkpt lat="45.72298" lon="3.61301">
        <ele>537.34820556641</ele>
        <time>2020-09-03T21:16:31.857Z</time>
      </trkpt>
      <trkpt lat="45.72252" lon="3.61371">
        <ele>544.93774414062</ele>
        <time>2020-09-03T21:16:38.458Z</time>
      </trkpt>
      <trkpt lat="45.72245" lon="3.61391">
        <ele>544.93634033203</ele>
        <time>2020-09-03T21:16:45.061Z</time>
      </trkpt>
      <trkpt lat="45.72242" lon="3.61566">
        <ele>544.72320556641</ele>
        <time>2020-09-03T21:16:51.684Z</time>
      </trkpt>
      <trkpt lat="45.72244" lon="3.6165">
        <ele>548.13299560547</ele>
        <time>2020-09-03T21:16:58.316Z</time>
      </trkpt>
      <trkpt lat="45.72249" lon="3.61682">
        <ele>549.87078857422</ele>
        <time>2020-09-03T21:17:04.952Z</time>
      </trkpt>
      <trkpt lat="45.72262" lon="3.61733">
        <ele>550.41479492188</ele>
        <time>2020-09-03T21:17:11.594Z</time>
      </trkpt>
      <trkpt lat="45.72277" lon="3.61766">
        <ele>550.74987792969</ele>
        <time>2020-09-03T21:17:18.240Z</time>
      </trkpt>
      <trkpt lat="45.72287" lon="3.61783">
        <ele>550.66754150391</ele>
        <time>2020-09-03T21:17:24.889Z</time>
      </trkpt>
      <trkpt lat="45.72294" lon="3.61802">
        <ele>550.33245849609</ele>
        <time>2020-09-03T21:17:31.540Z</time>
      </trkpt>
      <trkpt lat="45.72301" lon="3.61817">
        <ele>550.10076904297</ele>
        <time>2020-09-03T21:17:38.193Z</time>
      </trkpt>
      <trkpt lat="45.72301" lon="3.61817">
        <ele>550.10119628906</ele>
        <time>2020-09-03T21:17:44.846Z</time>
      </trkpt>
      <trkpt lat="45.72317" lon="3.61868">
        <ele>548.65844726562</ele>
        <time>2020-09-03T21:17:51.505Z</time>
      </trkpt>
      <trkpt lat="45.72318" lon="3.61875">
        <ele>548.55548095703</ele>
        <time>2020-09-03T21:17:58.165Z</time>
      </trkpt>
      <trkpt lat="45.72341" lon="3.61949">
        <ele>547.87951660156</ele>
        <time>2020-09-03T21:18:04.834Z</time>
      </trkpt>
      <trkpt lat="45.72398" lon="3.62019">
        <ele>549.13293457031</ele>
        <time>2020-09-03T21:18:11.515Z</time>
      </trkpt>
      <trkpt lat="45.72414" lon="3.62044">
        <ele>549.32611083984</ele>
        <time>2020-09-03T21:18:18.200Z</time>
      </trkpt>
      <trkpt lat="45.72449" lon="3.62184">
        <ele>549.03161621094</ele>
        <time>2020-09-03T21:18:24.902Z</time>
      </trkpt>
      <trkpt lat="45.72454" lon="3.62228">
        <ele>550.53588867188</ele>
        <time>2020-09-03T21:18:31.609Z</time>
      </trkpt>
      <trkpt lat="45.7247" lon="3.62385">
        <ele>563.34802246094</ele>
        <time>2020-09-03T21:18:38.334Z</time>
      </trkpt>
      <trkpt lat="45.72485" lon="3.62491">
        <ele>569.03381347656</ele>
        <time>2020-09-03T21:18:45.071Z</time>
      </trkpt>
      <trkpt lat="45.72551" lon="3.62651">
        <ele>576.05017089844</ele>
        <time>2020-09-03T21:18:51.829Z</time>
      </trkpt>
      <trkpt lat="45.72655" lon="3.62865">
        <ele>575.90087890625</ele>
        <time>2020-09-03T21:18:58.616Z</time>
      </trkpt>
      <trkpt lat="45.72655" lon="3.62865">
        <ele>575.90148925781</ele>
        <time>2020-09-03T21:19:05.403Z</time>
      </trkpt>
      <trkpt lat="45.72689" lon="3.62906">
        <ele>573.84118652344</ele>
        <time>2020-09-03T21:19:12.197Z</time>
      </trkpt>
      <trkpt lat="45.7282" lon="3.63027">
        <ele>568.44866943359</ele>
        <time>2020-09-03T21:19:19.016Z</time>
      </trkpt>
      <trkpt lat="45.72908" lon="3.63204">
        <ele>568.83758544922</ele>
        <time>2020-09-03T21:19:25.859Z</time>
      </trkpt>
      <trkpt lat="45.7291" lon="3.63212">
        <ele>568.62677001953</ele>
        <time>2020-09-03T21:19:32.703Z</time>
      </trkpt>
      <trkpt lat="45.72926" lon="3.63255">
        <ele>567.53375244141</ele>
        <time>2020-09-03T21:19:39.553Z</time>
      </trkpt>
      <trkpt lat="45.72954" lon="3.63369">
        <ele>563.57745361328</ele>
        <time>2020-09-03T21:19:46.416Z</time>
      </trkpt>
      <trkpt lat="45.73023" lon="3.63524">
        <ele>565.74829101562</ele>
        <time>2020-09-03T21:19:53.300Z</time>
      </trkpt>
      <trkpt lat="45.73023" lon="3.63524">
        <ele>565.74871826172</ele>
        <time>2020-09-03T21:20:00.184Z</time>
      </trkpt>
      <trkpt lat="45.73062" lon="3.636">
        <ele>567.9033203125</ele>
        <time>2020-09-03T21:20:07.078Z</time>
      </trkpt>
      <trkpt lat="45.73097" lon="3.63631">
        <ele>573.23693847656</ele>
        <time>2020-09-03T21:20:13.979Z</time>
      </trkpt>
      <trkpt lat="45.73193" lon="3.63676">
        <ele>581.34655761719</ele>
        <time>2020-09-03T21:20:20.896Z</time>
      </trkpt>
      <trkpt lat="45.7322" lon="3.63698">
        <ele>583.73608398438</ele>
        <time>2020-09-03T21:20:27.818Z</time>
      </trkpt>
      <trkpt lat="45.7323" lon="3.63705">
        <ele>583.64068603516</ele>
        <time>2020-09-03T21:20:34.742Z</time>
      </trkpt>
      <trkpt lat="45.73232" lon="3.63709">
        <ele>583.70501708984</ele>
        <time>2020-09-03T21:20:41.666Z</time>
      </trkpt>
      <trkpt lat="45.73244" lon="3.6372">
        <ele>583.70556640625</ele>
        <time>2020-09-03T21:20:48.593Z</time>
      </trkpt>
      <trkpt lat="45.73235" lon="3.63743">
        <ele>585.57202148438</ele>
        <time>2020-09-03T21:20:55.522Z</time>
      </trkpt>
      <trkpt lat="45.73248" lon="3.63854">
        <ele>589.39904785156</ele>
        <time>2020-09-03T21:21:02.464Z</time>
      </trkpt>
      <trkpt lat="45.73235" lon="3.64038">
        <ele>589.20678710938</ele>
        <time>2020-09-03T21:21:09.427Z</time>
      </trkpt>
      <trkpt lat="45.73238" lon="3.6415">
        <ele>591.26007080078</ele>
        <time>2020-09-03T21:21:16.402Z</time>
      </trkpt>
      <trkpt lat="45.73249" lon="3.64175">
        <ele>592.70184326172</ele>
        <time>2020-09-03T21:21:23.381Z</time>
      </trkpt>
      <trkpt lat="45.73277" lon="3.64205">
        <ele>596.39233398438</ele>
        <time>2020-09-03T21:21:30.365Z</time>
      </trkpt>
      <trkpt lat="45.73294" lon="3.64248">
        <ele>596.59826660156</ele>
        <time>2020-09-03T21:21:37.355Z</time>
      </trkpt>
      <trkpt lat="45.73314" lon="3.64327">
        <ele>590.98248291016</ele>
        <time>2020-09-03T21:21:44.354Z</time>
      </trkpt>
      <trkpt lat="45.73342" lon="3.64393">
        <ele>588.3232421875</ele>
        <time>2020-09-03T21:21:51.362Z</time>
      </trkpt>
      <trkpt lat="45.73351" lon="3.64482">
        <ele>584.95123291016</ele>
        <time>2020-09-03T21:21:58.380Z</time>
      </trkpt>
      <trkpt lat="45.7338" lon="3.64552">
        <ele>591.90472412109</ele>
        <time>2020-09-03T21:22:05.407Z</time>
      </trkpt>
      <trkpt lat="45.73394" lon="3.64656">
        <ele>587.34881591797</ele>
        <time>2020-09-03T21:22:12.446Z</time>
      </trkpt>
      <trkpt lat="45.73419" lon="3.64708">
        <ele>580.67724609375</ele>
        <time>2020-09-03T21:22:19.492Z</time>
      </trkpt>
      <trkpt lat="45.73437" lon="3.64731">
        <ele>575.83721923828</ele>
        <time>2020-09-03T21:22:26.542Z</time>
      </trkpt>
      <trkpt lat="45.73452" lon="3.64734">
        <ele>577.88397216797</ele>
        <time>2020-09-03T21:22:33.594Z</time>
      </trkpt>
      <trkpt lat="45.73501" lon="3.64713">
        <ele>591.56127929688</ele>
        <time>2020-09-03T21:22:40.655Z</time>
      </trkpt>
      <trkpt lat="45.73584" lon="3.64699">
        <ele>598.76818847656</ele>
        <time>2020-09-03T21:22:47.729Z</time>
      </trkpt>
      <trkpt lat="45.73633" lon="3.64704">
        <ele>601.83184814453</ele>
        <time>2020-09-03T21:22:54.811Z</time>
      </trkpt>
      <trkpt lat="45.73705" lon="3.6475">
        <ele>592.23370361328</ele>
        <time>2020-09-03T21:23:01.905Z</time>
      </trkpt>
      <trkpt lat="45.73721" lon="3.64776">
        <ele>587.37829589844</ele>
        <time>2020-09-03T21:23:09.003Z</time>
      </trkpt>
      <trkpt lat="45.73725" lon="3.64808">
        <ele>589.38635253906</ele>
        <time>2020-09-03T21:23:16.105Z</time>
      </trkpt>
      <trkpt lat="45.73739" lon="3.64821">
        <ele>591.51123046875</ele>
        <time>2020-09-03T21:23:23.210Z</time>
      </trkpt>
      <trkpt lat="45.73856" lon="3.64795">
        <ele>601.41961669922</ele>
        <time>2020-09-03T21:23:30.334Z</time>
      </trkpt>
      <trkpt lat="45.73894" lon="3.64752">
        <ele>592.61950683594</ele>
        <time>2020-09-03T21:23:37.465Z</time>
      </trkpt>
      <trkpt lat="45.73915" lon="3.64697">
        <ele>599.24182128906</ele>
        <time>2020-09-03T21:23:44.603Z</time>
      </trkpt>
      <trkpt lat="45.7393" lon="3.64689">
        <ele>603.29663085938</ele>
        <time>2020-09-03T21:23:51.744Z</time>
      </trkpt>
      <trkpt lat="45.73989" lon="3.64782">
        <ele>604.41741943359</ele>
        <time>2020-09-03T21:23:58.899Z</time>
      </trkpt>
      <trkpt lat="45.7403" lon="3.6482">
        <ele>610.54467773438</ele>
        <time>2020-09-03T21:24:06.062Z</time>
      </trkpt>
      <trkpt lat="45.74064" lon="3.64875">
        <ele>613.53662109375</ele>
        <time>2020-09-03T21:24:13.233Z</time>
      </trkpt>
      <trkpt lat="45.74092" lon="3.64898">
        <ele>614.10302734375</ele>
        <time>2020-09-03T21:24:20.409Z</time>
      </trkpt>
      <trkpt lat="45.74157" lon="3.6505">
        <ele>618.68237304688</ele>
        <time>2020-09-03T21:24:27.605Z</time>
      </trkpt>
      <trkpt lat="45.74211" lon="3.65117">
        <ele>622.80548095703</ele>
        <time>2020-09-03T21:24:34.813Z</time>
      </trkpt>
      <trkpt lat="45.74241" lon="3.65136">
        <ele>624.74609375</ele>
        <time>2020-09-03T21:24:42.026Z</time>
      </trkpt>
      <trkpt lat="45.74314" lon="3.65113">
        <ele>630.23999023438</ele>
        <time>2020-09-03T21:24:49.251Z</time>
      </trkpt>
      <trkpt lat="45.74329" lon="3.65113">
        <ele>633.98468017578</ele>
        <time>2020-09-03T21:24:56.478Z</time>
      </trkpt>
      <trkpt lat="45.7434" lon="3.65122">
        <ele>635.55511474609</ele>
        <time>2020-09-03T21:25:03.707Z</time>
      </trkpt>
      <trkpt lat="45.74355" lon="3.65215">
        <ele>632.44848632812</ele>
        <time>2020-09-03T21:25:10.947Z</time>
      </trkpt>
      <trkpt lat="45.74382" lon="3.65308">
        <ele>630.78997802734</ele>
        <time>2020-09-03T21:25:18.198Z</time>
      </trkpt>
      <trkpt lat="45.74386" lon="3.65365">
        <ele>632.56811523438</ele>
        <time>2020-09-03T21:25:25.456Z</time>
      </trkpt>
      <trkpt lat="45.74402" lon="3.65439">
        <ele>641.36218261719</ele>
        <time>2020-09-03T21:25:32.722Z</time>
      </trkpt>
      <trkpt lat="45.74365" lon="3.65583">
        <ele>646.46832275391</ele>
        <time>2020-09-03T21:25:40.005Z</time>
      </trkpt>
      <trkpt lat="45.74365" lon="3.65583">
        <ele>646.46545410156</ele>
        <time>2020-09-03T21:25:47.288Z</time>
      </trkpt>
      <trkpt lat="45.74357" lon="3.6561">
        <ele>650.23883056641</ele>
        <time>2020-09-03T21:25:54.575Z</time>
      </trkpt>
      <trkpt lat="45.74356" lon="3.65647">
        <ele>649.26055908203</ele>
        <time>2020-09-03T21:26:01.866Z</time>
      </trkpt>
      <trkpt lat="45.74362" lon="3.65677">
        <ele>647.14221191406</ele>
        <time>2020-09-03T21:26:09.160Z</time>
      </trkpt>
      <trkpt lat="45.74472" lon="3.65852">
        <ele>646.23095703125</ele>
        <time>2020-09-03T21:26:16.481Z</time>
      </trkpt>
      <trkpt lat="45.74495" lon="3.65974">
        <ele>658.43859863281</ele>
        <time>2020-09-03T21:26:23.816Z</time>
      </trkpt>
      <trkpt lat="45.74545" lon="3.65998">
        <ele>653.89294433594</ele>
        <time>2020-09-03T21:26:31.159Z</time>
      </trkpt>
      <trkpt lat="45.74556" lon="3.66107">
        <ele>654.18206787109</ele>
        <time>2020-09-03T21:26:38.515Z</time>
      </trkpt>
      <trkpt lat="45.74553" lon="3.66131">
        <ele>654.84033203125</ele>
        <time>2020-09-03T21:26:45.873Z</time>
      </trkpt>
      <trkpt lat="45.74519" lon="3.66183">
        <ele>662.80902099609</ele>
        <time>2020-09-03T21:26:53.239Z</time>
      </trkpt>
      <trkpt lat="45.74475" lon="3.66215">
        <ele>668.42596435547</ele>
        <time>2020-09-03T21:27:00.613Z</time>
      </trkpt>
      <trkpt lat="45.74422" lon="3.66214">
        <ele>678.35943603516</ele>
        <time>2020-09-03T21:27:07.996Z</time>
      </trkpt>
      <trkpt lat="45.74402" lon="3.66228">
        <ele>676.73773193359</ele>
        <time>2020-09-03T21:27:15.382Z</time>
      </trkpt>
      <trkpt lat="45.74379" lon="3.66259">
        <ele>671.43292236328</ele>
        <time>2020-09-03T21:27:22.773Z</time>
      </trkpt>
      <trkpt lat="45.74362" lon="3.66319">
        <ele>669.93591308594</ele>
        <time>2020-09-03T21:27:30.172Z</time>
      </trkpt>
      <trkpt lat="45.74359" lon="3.66408">
        <ele>668.05816650391</ele>
        <time>2020-09-03T21:27:37.581Z</time>
      </trkpt>
      <trkpt lat="45.74308" lon="3.66471">
        <ele>668.61981201172</ele>
        <time>2020-09-03T21:27:45.000Z</time>
      </trkpt>
      <trkpt lat="45.74285" lon="3.6653">
        <ele>670.47125244141</ele>
        <time>2020-09-03T21:27:52.427Z</time>
      </trkpt>
      <trkpt lat="45.74285" lon="3.6653">
        <ele>670.46826171875</ele>
        <time>2020-09-03T21:27:59.854Z</time>
      </trkpt>
      <trkpt lat="45.74254" lon="3.66598">
        <ele>673.03894042969</ele>
        <time>2020-09-03T21:28:07.290Z</time>
      </trkpt>
      <trkpt lat="45.74187" lon="3.66607">
        <ele>682.10015869141</ele>
        <time>2020-09-03T21:28:14.737Z</time>
      </trkpt>
      <trkpt lat="45.74176" lon="3.66615">
        <ele>681.919921875</ele>
        <time>2020-09-03T21:28:22.186Z</time>
      </trkpt>
      <trkpt lat="45.74173" lon="3.66692">
        <ele>670.75665283203</ele>
        <time>2020-09-03T21:28:29.644Z</time>
      </trkpt>
      <trkpt lat="45.74128" lon="3.66806">
        <ele>675.05523681641</ele>
        <time>2020-09-03T21:28:37.116Z</time>
      </trkpt>
      <trkpt lat="45.74118" lon="3.66818">
        <ele>678.78820800781</ele>
        <time>2020-09-03T21:28:44.590Z</time>
      </trkpt>
      <trkpt lat="45.7406" lon="3.66822">
        <ele>687.52099609375</ele>
        <time>2020-09-03T21:28:52.074Z</time>
      </trkpt>
      <trkpt lat="45.73876" lon="3.6689">
        <ele>696.57073974609</ele>
        <time>2020-09-03T21:28:59.588Z</time>
      </trkpt>
      <trkpt lat="45.73792" lon="3.66954">
        <ele>691.82733154297</ele>
        <time>2020-09-03T21:29:07.117Z</time>
      </trkpt>
      <trkpt lat="45.73762" lon="3.66978">
        <ele>693.66870117188</ele>
        <time>2020-09-03T21:29:14.652Z</time>
      </trkpt>
      <trkpt lat="45.73743" lon="3.67012">
        <ele>692.40716552734</ele>
        <time>2020-09-03T21:29:22.192Z</time>
      </trkpt>
      <trkpt lat="45.73728" lon="3.67067">
        <ele>690.59539794922</ele>
        <time>2020-09-03T21:29:29.738Z</time>
      </trkpt>
      <trkpt lat="45.73704" lon="3.67112">
        <ele>692.50152587891</ele>
        <time>2020-09-03T21:29:37.291Z</time>
      </trkpt>
      <trkpt lat="45.73635" lon="3.67219">
        <ele>694.16320800781</ele>
        <time>2020-09-03T21:29:44.860Z</time>
      </trkpt>
      <trkpt lat="45.73619" lon="3.67237">
        <ele>694.33056640625</ele>
        <time>2020-09-03T21:29:52.432Z</time>
      </trkpt>
      <trkpt lat="45.73582" lon="3.67259">
        <ele>697.69226074219</ele>
        <time>2020-09-03T21:30:00.011Z</time>
      </trkpt>
      <trkpt lat="45.73562" lon="3.67308">
        <ele>694.44793701172</ele>
        <time>2020-09-03T21:30:07.596Z</time>
      </trkpt>
      <trkpt lat="45.73514" lon="3.67341">
        <ele>697.23889160156</ele>
        <time>2020-09-03T21:30:15.190Z</time>
      </trkpt>
      <trkpt lat="45.73467" lon="3.67339">
        <ele>704.54504394531</ele>
        <time>2020-09-03T21:30:22.791Z</time>
      </trkpt>
      <trkpt lat="45.7345" lon="3.67346">
        <ele>705.83227539062</ele>
        <time>2020-09-03T21:30:30.395Z</time>
      </trkpt>
      <trkpt lat="45.73435" lon="3.67363">
        <ele>704.94598388672</ele>
        <time>2020-09-03T21:30:38.002Z</time>
      </trkpt>
      <trkpt lat="45.73424" lon="3.67384">
        <ele>703.01507568359</ele>
        <time>2020-09-03T21:30:45.612Z</time>
      </trkpt>
      <trkpt lat="45.73425" lon="3.6751">
        <ele>690.73956298828</ele>
        <time>2020-09-03T21:30:53.236Z</time>
      </trkpt>
      <trkpt lat="45.73405" lon="3.67585">
        <ele>694.66375732422</ele>
        <time>2020-09-03T21:31:00.869Z</time>
      </trkpt>
      <trkpt lat="45.73402" lon="3.67611">
        <ele>695.56878662109</ele>
        <time>2020-09-03T21:31:08.505Z</time>
      </trkpt>
      <trkpt lat="45.73405" lon="3.67627">
        <ele>696.75793457031</ele>
        <time>2020-09-03T21:31:16.143Z</time>
      </trkpt>
      <trkpt lat="45.73426" lon="3.67654">
        <ele>693.60418701172</ele>
        <time>2020-09-03T21:31:23.785Z</time>
      </trkpt>
      <trkpt lat="45.73432" lon="3.67678">
        <ele>694.85278320312</ele>
        <time>2020-09-03T21:31:31.430Z</time>
      </trkpt>
      <trkpt lat="45.73429" lon="3.67712">
        <ele>697.21545410156</ele>
        <time>2020-09-03T21:31:39.079Z</time>
      </trkpt>
      <trkpt lat="45.73402" lon="3.67808">
        <ele>703.3896484375</ele>
        <time>2020-09-03T21:31:46.740Z</time>
      </trkpt>
      <trkpt lat="45.73376" lon="3.67853">
        <ele>704.77130126953</ele>
        <time>2020-09-03T21:31:54.407Z</time>
      </trkpt>
      <trkpt lat="45.73325" lon="3.6789">
        <ele>708.82507324219</ele>
        <time>2020-09-03T21:32:02.083Z</time>
      </trkpt>
      <trkpt lat="45.73219" lon="3.67908">
        <ele>720.74731445312</ele>
        <time>2020-09-03T21:32:09.777Z</time>
      </trkpt>
      <trkpt lat="45.73202" lon="3.67921">
        <ele>719.34515380859</ele>
        <time>2020-09-03T21:32:17.474Z</time>
      </trkpt>
      <trkpt lat="45.73129" lon="3.68024">
        <ele>710.525390625</ele>
        <time>2020-09-03T21:32:25.187Z</time>
      </trkpt>
      <trkpt lat="45.73054" lon="3.68061">
        <ele>713.52227783203</ele>
        <time>2020-09-03T21:32:32.913Z</time>
      </trkpt>
      <trkpt lat="45.73023" lon="3.68136">
        <ele>708.52532958984</ele>
        <time>2020-09-03T21:32:40.649Z</time>
      </trkpt>
      <trkpt lat="45.73004" lon="3.68153">
        <ele>710.00640869141</ele>
        <time>2020-09-03T21:32:48.388Z</time>
      </trkpt>
      <trkpt lat="45.72928" lon="3.68205">
        <ele>715.60125732422</ele>
        <time>2020-09-03T21:32:56.141Z</time>
      </trkpt>
      <trkpt lat="45.72838" lon="3.68237">
        <ele>721.90289306641</ele>
        <time>2020-09-03T21:33:03.908Z</time>
      </trkpt>
      <trkpt lat="45.72739" lon="3.68291">
        <ele>733.10467529297</ele>
        <time>2020-09-03T21:33:11.692Z</time>
      </trkpt>
      <trkpt lat="45.72739" lon="3.68291">
        <ele>733.10388183594</ele>
        <time>2020-09-03T21:33:19.476Z</time>
      </trkpt>
      <trkpt lat="45.72691" lon="3.68367">
        <ele>725.69580078125</ele>
        <time>2020-09-03T21:33:27.272Z</time>
      </trkpt>
      <trkpt lat="45.72627" lon="3.68418">
        <ele>734.19219970703</ele>
        <time>2020-09-03T21:33:35.080Z</time>
      </trkpt>
      <trkpt lat="45.72615" lon="3.6844">
        <ele>737.58367919922</ele>
        <time>2020-09-03T21:33:42.891Z</time>
      </trkpt>
      <trkpt lat="45.72571" lon="3.68641">
        <ele>745.009765625</ele>
        <time>2020-09-03T21:33:50.725Z</time>
      </trkpt>
      <trkpt lat="45.72516" lon="3.68731">
        <ele>743.12786865234</ele>
        <time>2020-09-03T21:33:58.573Z</time>
      </trkpt>
      <trkpt lat="45.7248" lon="3.68745">
        <ele>744.90838623047</ele>
        <time>2020-09-03T21:34:06.427Z</time>
      </trkpt>
      <trkpt lat="45.72454" lon="3.68742">
        <ele>747.9931640625</ele>
        <time>2020-09-03T21:34:14.285Z</time>
      </trkpt>
      <trkpt lat="45.72429" lon="3.68753">
        <ele>750.59295654297</ele>
        <time>2020-09-03T21:34:22.147Z</time>
      </trkpt>
      <trkpt lat="45.72326" lon="3.68938">
        <ele>751.18939208984</ele>
        <time>2020-09-03T21:34:30.035Z</time>
      </trkpt>
      <trkpt lat="45.72303" lon="3.68968">
        <ele>750.19793701172</ele>
        <time>2020-09-03T21:34:37.929Z</time>
      </trkpt>
      <trkpt lat="45.72256" lon="3.68994">
        <ele>757.53924560547</ele>
        <time>2020-09-03T21:34:45.831Z</time>
      </trkpt>
      <trkpt lat="45.72233" lon="3.69021">
        <ele>753.18481445312</ele>
        <time>2020-09-03T21:34:53.737Z</time>
      </trkpt>
      <trkpt lat="45.72212" lon="3.69081">
        <ele>751.1943359375</ele>
        <time>2020-09-03T21:35:01.651Z</time>
      </trkpt>
      <trkpt lat="45.722" lon="3.69208">
        <ele>751.84680175781</ele>
        <time>2020-09-03T21:35:09.579Z</time>
      </trkpt>
      <trkpt lat="45.72174" lon="3.69266">
        <ele>754.07995605469</ele>
        <time>2020-09-03T21:35:17.515Z</time>
      </trkpt>
      <trkpt lat="45.7213" lon="3.69291">
        <ele>763.08459472656</ele>
        <time>2020-09-03T21:35:25.459Z</time>
      </trkpt>
      <trkpt lat="45.72091" lon="3.69328">
        <ele>762.79113769531</ele>
        <time>2020-09-03T21:35:33.410Z</time>
      </trkpt>
      <trkpt lat="45.72068" lon="3.69382">
        <ele>760.98486328125</ele>
        <time>2020-09-03T21:35:41.368Z</time>
      </trkpt>
      <trkpt lat="45.71991" lon="3.6948">
        <ele>765.86657714844</ele>
        <time>2020-09-03T21:35:49.343Z</time>
      </trkpt>
      <trkpt lat="45.71918" lon="3.69518">
        <ele>766.89044189453</ele>
        <time>2020-09-03T21:35:57.330Z</time>
      </trkpt>
      <trkpt lat="45.71827" lon="3.69591">
        <ele>763.45947265625</ele>
        <time>2020-09-03T21:36:05.334Z</time>
      </trkpt>
      <trkpt lat="45.71827" lon="3.69591">
        <ele>763.45904541016</ele>
        <time>2020-09-03T21:36:13.338Z</time>
      </trkpt>
      <trkpt lat="45.71727" lon="3.69655">
        <ele>759.07916259766</ele>
        <time>2020-09-03T21:36:21.359Z</time>
      </trkpt>
      <trkpt lat="45.7166" lon="3.69698">
        <ele>757.18640136719</ele>
        <time>2020-09-03T21:36:29.392Z</time>
      </trkpt>
      <trkpt lat="45.7166" lon="3.69698">
        <ele>757.18664550781</ele>
        <time>2020-09-03T21:36:37.425Z</time>
      </trkpt>
      <trkpt lat="45.71662" lon="3.69706">
        <ele>756.92895507812</ele>
        <time>2020-09-03T21:36:45.459Z</time>
      </trkpt>
      <trkpt lat="45.71662" lon="3.69706">
        <ele>756.92913818359</ele>
        <time>2020-09-03T21:36:53.493Z</time>
      </trkpt>
      <trkpt lat="45.71674" lon="3.69787">
        <ele>758.44775390625</ele>
        <time>2020-09-03T21:37:01.536Z</time>
      </trkpt>
      <trkpt lat="45.71645" lon="3.69975">
        <ele>770.54205322266</ele>
        <time>2020-09-03T21:37:09.601Z</time>
      </trkpt>
      <trkpt lat="45.71587" lon="3.70105">
        <ele>777.74261474609</ele>
        <time>2020-09-03T21:37:17.683Z</time>
      </trkpt>
      <trkpt lat="45.71576" lon="3.70164">
        <ele>779.81573486328</ele>
        <time>2020-09-03T21:37:25.772Z</time>
      </trkpt>
      <trkpt lat="45.71598" lon="3.7038">
        <ele>791.31164550781</ele>
        <time>2020-09-03T21:37:33.885Z</time>
      </trkpt>
      <trkpt lat="45.71665" lon="3.70559">
        <ele>802.54675292969</ele>
        <time>2020-09-03T21:37:42.021Z</time>
      </trkpt>
      <trkpt lat="45.7167" lon="3.70636">
        <ele>801.67718505859</ele>
        <time>2020-09-03T21:37:50.166Z</time>
      </trkpt>
      <trkpt lat="45.7167" lon="3.70636">
        <ele>801.67578125</ele>
        <time>2020-09-03T21:37:58.311Z</time>
      </trkpt>
      <trkpt lat="45.71669" lon="3.70659">
        <ele>802.30651855469</ele>
        <time>2020-09-03T21:38:06.458Z</time>
      </trkpt>
      <trkpt lat="45.7168" lon="3.70704">
        <ele>804.07147216797</ele>
        <time>2020-09-03T21:38:14.611Z</time>
      </trkpt>
      <trkpt lat="45.7167" lon="3.70771">
        <ele>802.91717529297</ele>
        <time>2020-09-03T21:38:22.772Z</time>
      </trkpt>
      <trkpt lat="45.7167" lon="3.70811">
        <ele>802.08233642578</ele>
        <time>2020-09-03T21:38:30.937Z</time>
      </trkpt>
      <trkpt lat="45.71679" lon="3.70849">
        <ele>803.31805419922</ele>
        <time>2020-09-03T21:38:39.107Z</time>
      </trkpt>
      <trkpt lat="45.71678" lon="3.70883">
        <ele>803.50439453125</ele>
        <time>2020-09-03T21:38:47.280Z</time>
      </trkpt>
      <trkpt lat="45.71678" lon="3.70883">
        <ele>803.50445556641</ele>
        <time>2020-09-03T21:38:55.453Z</time>
      </trkpt>
      <trkpt lat="45.71661" lon="3.7095">
        <ele>805.68957519531</ele>
        <time>2020-09-03T21:39:03.634Z</time>
      </trkpt>
      <trkpt lat="45.71662" lon="3.70996">
        <ele>806.69677734375</ele>
        <time>2020-09-03T21:39:11.821Z</time>
      </trkpt>
      <trkpt lat="45.71662" lon="3.71015">
        <ele>807.39190673828</ele>
        <time>2020-09-03T21:39:20.010Z</time>
      </trkpt>
      <trkpt lat="45.71655" lon="3.71072">
        <ele>810.16027832031</ele>
        <time>2020-09-03T21:39:28.205Z</time>
      </trkpt>
      <trkpt lat="45.7161" lon="3.71172">
        <ele>813.21496582031</ele>
        <time>2020-09-03T21:39:36.414Z</time>
      </trkpt>
      <trkpt lat="45.71594" lon="3.71196">
        <ele>815.62280273438</ele>
        <time>2020-09-03T21:39:44.626Z</time>
      </trkpt>
      <trkpt lat="45.71487" lon="3.71299">
        <ele>815.30639648438</ele>
        <time>2020-09-03T21:39:52.859Z</time>
      </trkpt>
      <trkpt lat="45.71479" lon="3.71315">
        <ele>816.48077392578</ele>
        <time>2020-09-03T21:40:01.094Z</time>
      </trkpt>
      <trkpt lat="45.71457" lon="3.71355">
        <ele>816.24578857422</ele>
        <time>2020-09-03T21:40:09.335Z</time>
      </trkpt>
      <trkpt lat="45.71444" lon="3.71455">
        <ele>813.37164306641</ele>
        <time>2020-09-03T21:40:17.587Z</time>
      </trkpt>
      <trkpt lat="45.71438" lon="3.71521">
        <ele>812.20330810547</ele>
        <time>2020-09-03T21:40:25.847Z</time>
      </trkpt>
      <trkpt lat="45.71425" lon="3.71607">
        <ele>816.38446044922</ele>
        <time>2020-09-03T21:40:34.116Z</time>
      </trkpt>
      <trkpt lat="45.71414" lon="3.7163">
        <ele>818.25091552734</ele>
        <time>2020-09-03T21:40:42.389Z</time>
      </trkpt>
      <trkpt lat="45.71341" lon="3.71765">
        <ele>828.58551025391</ele>
        <time>2020-09-03T21:40:50.681Z</time>
      </trkpt>
      <trkpt lat="45.71295" lon="3.71824">
        <ele>836.68621826172</ele>
        <time>2020-09-03T21:40:58.983Z</time>
      </trkpt>
      <trkpt lat="45.71301" lon="3.71855">
        <ele>837.29614257812</ele>
        <time>2020-09-03T21:41:07.288Z</time>
      </trkpt>
      <trkpt lat="45.71296" lon="3.71888">
        <ele>839.60028076172</ele>
        <time>2020-09-03T21:41:15.597Z</time>
      </trkpt>
      <trkpt lat="45.71276" lon="3.71938">
        <ele>844.31390380859</ele>
        <time>2020-09-03T21:41:23.912Z</time>
      </trkpt>
      <trkpt lat="45.71243" lon="3.71989">
        <ele>847.91442871094</ele>
        <time>2020-09-03T21:41:32.235Z</time>
      </trkpt>
      <trkpt lat="45.71232" lon="3.72007">
        <ele>849.98577880859</ele>
        <time>2020-09-03T21:41:40.561Z</time>
      </trkpt>
      <trkpt lat="45.71232" lon="3.72007">
        <ele>849.98687744141</ele>
        <time>2020-09-03T21:41:48.887Z</time>
      </trkpt>
      <trkpt lat="45.71196" lon="3.72024">
        <ele>850.73706054688</ele>
        <time>2020-09-03T21:41:57.219Z</time>
      </trkpt>
      <trkpt lat="45.71187" lon="3.72022">
        <ele>850.35046386719</ele>
        <time>2020-09-03T21:42:05.552Z</time>
      </trkpt>
      <trkpt lat="45.71145" lon="3.72109">
        <ele>850.26916503906</ele>
        <time>2020-09-03T21:42:13.897Z</time>
      </trkpt>
      <trkpt lat="45.71142" lon="3.72163">
        <ele>853.49530029297</ele>
        <time>2020-09-03T21:42:22.248Z</time>
      </trkpt>
      <trkpt lat="45.71125" lon="3.72214">
        <ele>856.12896728516</ele>
        <time>2020-09-03T21:42:30.606Z</time>
      </trkpt>
      <trkpt lat="45.71125" lon="3.72214">
        <ele>856.12817382812</ele>
        <time>2020-09-03T21:42:38.964Z</time>
      </trkpt>
      <trkpt lat="45.7111" lon="3.72266">
        <ele>859.55871582031</ele>
        <time>2020-09-03T21:42:47.328Z</time>
      </trkpt>
      <trkpt lat="45.71098" lon="3.72342">
        <ele>870.04803466797</ele>
        <time>2020-09-03T21:42:55.701Z</time>
      </trkpt>
      <trkpt lat="45.71074" lon="3.72416">
        <ele>879.72503662109</ele>
        <time>2020-09-03T21:43:04.083Z</time>
      </trkpt>
      <trkpt lat="45.71098" lon="3.72475">
        <ele>886.48480224609</ele>
        <time>2020-09-03T21:43:12.472Z</time>
      </trkpt>
      <trkpt lat="45.711" lon="3.72503">
        <ele>888.18646240234</ele>
        <time>2020-09-03T21:43:20.865Z</time>
      </trkpt>
      <trkpt lat="45.71088" lon="3.72624">
        <ele>888.09405517578</ele>
        <time>2020-09-03T21:43:29.271Z</time>
      </trkpt>
      <trkpt lat="45.71064" lon="3.72726">
        <ele>888.14880371094</ele>
        <time>2020-09-03T21:43:37.689Z</time>
      </trkpt>
      <trkpt lat="45.71054" lon="3.72781">
        <ele>892.68341064453</ele>
        <time>2020-09-03T21:43:46.114Z</time>
      </trkpt>
      <trkpt lat="45.71045" lon="3.72832">
        <ele>896.658203125</ele>
        <time>2020-09-03T21:43:54.545Z</time>
      </trkpt>
      <trkpt lat="45.71027" lon="3.72845">
        <ele>898.23876953125</ele>
        <time>2020-09-03T21:44:02.979Z</time>
      </trkpt>
      <trkpt lat="45.70978" lon="3.72855">
        <ele>900.798828125</ele>
        <time>2020-09-03T21:44:11.421Z</time>
      </trkpt>
      <trkpt lat="45.70903" lon="3.72916">
        <ele>909.96856689453</ele>
        <time>2020-09-03T21:44:19.877Z</time>
      </trkpt>
      <trkpt lat="45.70824" lon="3.72932">
        <ele>916.49365234375</ele>
        <time>2020-09-03T21:44:28.345Z</time>
      </trkpt>
      <trkpt lat="45.70774" lon="3.72933">
        <ele>920.83850097656</ele>
        <time>2020-09-03T21:44:36.821Z</time>
      </trkpt>
      <trkpt lat="45.7072" lon="3.72953">
        <ele>928.77484130859</ele>
        <time>2020-09-03T21:44:45.306Z</time>
      </trkpt>
      <trkpt lat="45.70659" lon="3.73004">
        <ele>938.43798828125</ele>
        <time>2020-09-03T21:44:53.803Z</time>
      </trkpt>
      <trkpt lat="45.70619" lon="3.72992">
        <ele>938.27398681641</ele>
        <time>2020-09-03T21:45:02.306Z</time>
      </trkpt>
      <trkpt lat="45.70584" lon="3.72992">
        <ele>940.19348144531</ele>
        <time>2020-09-03T21:45:10.815Z</time>
      </trkpt>
      <trkpt lat="45.70584" lon="3.72992">
        <ele>940.19378662109</ele>
        <time>2020-09-03T21:45:19.324Z</time>
      </trkpt>
      <trkpt lat="45.70524" lon="3.7302">
        <ele>943.24157714844</ele>
        <time>2020-09-03T21:45:27.843Z</time>
      </trkpt>
      <trkpt lat="45.70478" lon="3.73021">
        <ele>942.24462890625</ele>
        <time>2020-09-03T21:45:36.369Z</time>
      </trkpt>
      <trkpt lat="45.70469" lon="3.73029">
        <ele>942.62243652344</ele>
        <time>2020-09-03T21:45:44.897Z</time>
      </trkpt>
      <trkpt lat="45.70464" lon="3.73051">
        <ele>944.12854003906</ele>
        <time>2020-09-03T21:45:53.428Z</time>
      </trkpt>
      <trkpt lat="45.70473" lon="3.73072">
        <ele>946.37670898438</ele>
        <time>2020-09-03T21:46:01.961Z</time>
      </trkpt>
      <trkpt lat="45.7049" lon="3.73079">
        <ele>947.39361572266</ele>
        <time>2020-09-03T21:46:10.497Z</time>
      </trkpt>
      <trkpt lat="45.70523" lon="3.73065">
        <ele>947.02032470703</ele>
        <time>2020-09-03T21:46:19.039Z</time>
      </trkpt>
      <trkpt lat="45.70539" lon="3.73074">
        <ele>948.12738037109</ele>
        <time>2020-09-03T21:46:27.583Z</time>
      </trkpt>
      <trkpt lat="45.70559" lon="3.73111">
        <ele>953.01196289062</ele>
        <time>2020-09-03T21:46:36.133Z</time>
      </trkpt>
      <trkpt lat="45.70615" lon="3.73108">
        <ele>956.99719238281</ele>
        <time>2020-09-03T21:46:44.692Z</time>
      </trkpt>
      <trkpt lat="45.70715" lon="3.73146">
        <ele>959.20855712891</ele>
        <time>2020-09-03T21:46:53.267Z</time>
      </trkpt>
      <trkpt lat="45.70728" lon="3.73159">
        <ele>959.07568359375</ele>
        <time>2020-09-03T21:47:01.845Z</time>
      </trkpt>
      <trkpt lat="45.70756" lon="3.73215">
        <ele>959.50378417969</ele>
        <time>2020-09-03T21:47:10.430Z</time>
      </trkpt>
      <trkpt lat="45.70767" lon="3.73255">
        <ele>960.52075195312</ele>
        <time>2020-09-03T21:47:19.020Z</time>
      </trkpt>
      <trkpt lat="45.70767" lon="3.73255">
        <ele>960.52203369141</ele>
        <time>2020-09-03T21:47:27.610Z</time>
      </trkpt>
      <trkpt lat="45.70776" lon="3.73288">
        <ele>961.57757568359</ele>
        <time>2020-09-03T21:47:36.204Z</time>
      </trkpt>
      <trkpt lat="45.70758" lon="3.73344">
        <ele>970.16876220703</ele>
        <time>2020-09-03T21:47:44.805Z</time>
      </trkpt>
      <trkpt lat="45.7078" lon="3.73434">
        <ele>973.02331542969</ele>
        <time>2020-09-03T21:47:53.417Z</time>
      </trkpt>
      <trkpt lat="45.70805" lon="3.73491">
        <ele>976.39318847656</ele>
        <time>2020-09-03T21:48:02.036Z</time>
      </trkpt>
      <trkpt lat="45.70865" lon="3.73575">
        <ele>978.478515625</ele>
        <time>2020-09-03T21:48:10.669Z</time>
      </trkpt>
      <trkpt lat="45.70903" lon="3.73677">
        <ele>997.28326416016</ele>
        <time>2020-09-03T21:48:19.315Z</time>
      </trkpt>
      <trkpt lat="45.70913" lon="3.73688">
        <ele>999.46356201172</ele>
        <time>2020-09-03T21:48:27.963Z</time>
      </trkpt>
      <trkpt lat="45.7094" lon="3.73692">
        <ele>998.83282470703</ele>
        <time>2020-09-03T21:48:36.615Z</time>
      </trkpt>
      <trkpt lat="45.71034" lon="3.73685">
        <ele>999.38061523438</ele>
        <time>2020-09-03T21:48:45.282Z</time>
      </trkpt>
      <trkpt lat="45.71145" lon="3.73693">
        <ele>1005.3458251953</ele>
        <time>2020-09-03T21:48:53.967Z</time>
      </trkpt>
      <trkpt lat="45.71218" lon="3.7372">
        <ele>1005.3843994141</ele>
        <time>2020-09-03T21:49:02.664Z</time>
      </trkpt>
      <trkpt lat="45.71259" lon="3.73762">
        <ele>1007.5629272461</ele>
        <time>2020-09-03T21:49:11.369Z</time>
      </trkpt>
      <trkpt lat="45.71337" lon="3.73821">
        <ele>1015.5912475586</ele>
        <time>2020-09-03T21:49:20.088Z</time>
      </trkpt>
      <trkpt lat="45.71378" lon="3.73869">
        <ele>1025.7023925781</ele>
        <time>2020-09-03T21:49:28.816Z</time>
      </trkpt>
      <trkpt lat="45.71395" lon="3.73877">
        <ele>1028.3450927734</ele>
        <time>2020-09-03T21:49:37.547Z</time>
      </trkpt>
      <trkpt lat="45.71412" lon="3.73871">
        <ele>1029.3795166016</ele>
        <time>2020-09-03T21:49:46.280Z</time>
      </trkpt>
      <trkpt lat="45.71474" lon="3.73833">
        <ele>1028.1640625</ele>
        <time>2020-09-03T21:49:55.024Z</time>
      </trkpt>
      <trkpt lat="45.71506" lon="3.73842">
        <ele>1029.0007324219</ele>
        <time>2020-09-03T21:50:03.773Z</time>
      </trkpt>
      <trkpt lat="45.71609" lon="3.73897">
        <ele>1039.3764648438</ele>
        <time>2020-09-03T21:50:12.540Z</time>
      </trkpt>
      <trkpt lat="45.7167" lon="3.73899">
        <ele>1038.5852050781</ele>
        <time>2020-09-03T21:50:21.317Z</time>
      </trkpt>
      <trkpt lat="45.71679" lon="3.7392">
        <ele>1042.498046875</ele>
        <time>2020-09-03T21:50:30.097Z</time>
      </trkpt>
      <trkpt lat="45.71671" lon="3.73943">
        <ele>1047.3068847656</ele>
        <time>2020-09-03T21:50:38.879Z</time>
      </trkpt>
      <trkpt lat="45.71661" lon="3.73948">
        <ele>1048.6713867188</ele>
        <time>2020-09-03T21:50:47.663Z</time>
      </trkpt>
      <trkpt lat="45.71606" lon="3.73949">
        <ele>1049.6428222656</ele>
        <time>2020-09-03T21:50:56.456Z</time>
      </trkpt>
      <trkpt lat="45.71518" lon="3.73971">
        <ele>1050.9885253906</ele>
        <time>2020-09-03T21:51:05.263Z</time>
      </trkpt>
      <trkpt lat="45.71505" lon="3.7398">
        <ele>1051.8822021484</ele>
        <time>2020-09-03T21:51:14.073Z</time>
      </trkpt>
      <trkpt lat="45.71493" lon="3.74008">
        <ele>1054.4696044922</ele>
        <time>2020-09-03T21:51:22.886Z</time>
      </trkpt>
      <trkpt lat="45.71479" lon="3.74091">
        <ele>1060.1247558594</ele>
        <time>2020-09-03T21:51:31.709Z</time>
      </trkpt>
      <trkpt lat="45.71467" lon="3.74122">
        <ele>1061.6474609375</ele>
        <time>2020-09-03T21:51:40.536Z</time>
      </trkpt>
      <trkpt lat="45.71405" lon="3.74222">
        <ele>1072.3446044922</ele>
        <time>2020-09-03T21:51:49.378Z</time>
      </trkpt>
      <trkpt lat="45.7137" lon="3.74233">
        <ele>1075.2087402344</ele>
        <time>2020-09-03T21:51:58.225Z</time>
      </trkpt>
      <trkpt lat="45.71345" lon="3.74219">
        <ele>1076.3148193359</ele>
        <time>2020-09-03T21:52:07.077Z</time>
      </trkpt>
      <trkpt lat="45.71292" lon="3.74174">
        <ele>1077.1943359375</ele>
        <time>2020-09-03T21:52:15.939Z</time>
      </trkpt>
      <trkpt lat="45.71281" lon="3.74169">
        <ele>1078.3471679688</ele>
        <time>2020-09-03T21:52:24.802Z</time>
      </trkpt>
      <trkpt lat="45.71281" lon="3.74169">
        <ele>1078.3486328125</ele>
        <time>2020-09-03T21:52:33.665Z</time>
      </trkpt>
      <trkpt lat="45.71187" lon="3.74135">
        <ele>1087.6760253906</ele>
        <time>2020-09-03T21:52:42.544Z</time>
      </trkpt>
      <trkpt lat="45.7109" lon="3.74113">
        <ele>1093.8210449219</ele>
        <time>2020-09-03T21:52:51.439Z</time>
      </trkpt>
      <trkpt lat="45.70928" lon="3.74194">
        <ele>1109.3609619141</ele>
        <time>2020-09-03T21:53:00.361Z</time>
      </trkpt>
      <trkpt lat="45.70899" lon="3.7427">
        <ele>1117.3820800781</ele>
        <time>2020-09-03T21:53:09.293Z</time>
      </trkpt>
      <trkpt lat="45.70893" lon="3.74335">
        <ele>1123.1910400391</ele>
        <time>2020-09-03T21:53:18.232Z</time>
      </trkpt>
      <trkpt lat="45.70839" lon="3.74457">
        <ele>1127.4029541016</ele>
        <time>2020-09-03T21:53:27.187Z</time>
      </trkpt>
      <trkpt lat="45.70819" lon="3.74549">
        <ele>1131.2048339844</ele>
        <time>2020-09-03T21:53:36.153Z</time>
      </trkpt>
      <trkpt lat="45.70795" lon="3.74571">
        <ele>1129.7957763672</ele>
        <time>2020-09-03T21:53:45.124Z</time>
      </trkpt>
      <trkpt lat="45.70776" lon="3.74573">
        <ele>1128.5085449219</ele>
        <time>2020-09-03T21:53:54.098Z</time>
      </trkpt>
      <trkpt lat="45.70668" lon="3.74554">
        <ele>1128.3983154297</ele>
        <time>2020-09-03T21:54:03.089Z</time>
      </trkpt>
      <trkpt lat="45.70634" lon="3.74564">
        <ele>1131.6356201172</ele>
        <time>2020-09-03T21:54:12.086Z</time>
      </trkpt>
      <trkpt lat="45.70574" lon="3.746">
        <ele>1134.9689941406</ele>
        <time>2020-09-03T21:54:21.093Z</time>
      </trkpt>
      <trkpt lat="45.70553" lon="3.74621">
        <ele>1136.5983886719</ele>
        <time>2020-09-03T21:54:30.104Z</time>
      </trkpt>
      <trkpt lat="45.70506" lon="3.74782">
        <ele>1144.5715332031</ele>
        <time>2020-09-03T21:54:39.135Z</time>
      </trkpt>
      <trkpt lat="45.70489" lon="3.74833">
        <ele>1145.2513427734</ele>
        <time>2020-09-03T21:54:48.172Z</time>
      </trkpt>
      <trkpt lat="45.70455" lon="3.74891">
        <ele>1147.1575927734</ele>
        <time>2020-09-03T21:54:57.218Z</time>
      </trkpt>
      <trkpt lat="45.70427" lon="3.74925">
        <ele>1149.4533691406</ele>
        <time>2020-09-03T21:55:06.269Z</time>
      </trkpt>
      <trkpt lat="45.70382" lon="3.74972">
        <ele>1154.7381591797</ele>
        <time>2020-09-03T21:55:15.329Z</time>
      </trkpt>
      <trkpt lat="45.70366" lon="3.74975">
        <ele>1155.9353027344</ele>
        <time>2020-09-03T21:55:24.392Z</time>
      </trkpt>
      <trkpt lat="45.7035" lon="3.74968">
        <ele>1156.3594970703</ele>
        <time>2020-09-03T21:55:33.458Z</time>
      </trkpt>
      <trkpt lat="45.7025" lon="3.74865">
        <ele>1157.6428222656</ele>
        <time>2020-09-03T21:55:42.543Z</time>
      </trkpt>
      <trkpt lat="45.7021" lon="3.74859">
        <ele>1161.9071044922</ele>
        <time>2020-09-03T21:55:51.635Z</time>
      </trkpt>
      <trkpt lat="45.70157" lon="3.74865">
        <ele>1163.8765869141</ele>
        <time>2020-09-03T21:56:00.735Z</time>
      </trkpt>
      <trkpt lat="45.70043" lon="3.74939">
        <ele>1174.5098876953</ele>
        <time>2020-09-03T21:56:09.855Z</time>
      </trkpt>
      <trkpt lat="45.69982" lon="3.74959">
        <ele>1179.5335693359</ele>
        <time>2020-09-03T21:56:18.985Z</time>
      </trkpt>
      <trkpt lat="45.69926" lon="3.74946">
        <ele>1183.9000244141</ele>
        <time>2020-09-03T21:56:28.124Z</time>
      </trkpt>
      <trkpt lat="45.69876" lon="3.74915">
        <ele>1186.6114501953</ele>
        <time>2020-09-03T21:56:37.272Z</time>
      </trkpt>
      <trkpt lat="45.69801" lon="3.74884">
        <ele>1190.2230224609</ele>
        <time>2020-09-03T21:56:46.433Z</time>
      </trkpt>
      <trkpt lat="45.69748" lon="3.74888">
        <ele>1197.0278320312</ele>
        <time>2020-09-03T21:56:55.602Z</time>
      </trkpt>
      <trkpt lat="45.69688" lon="3.74918">
        <ele>1201.9096679688</ele>
        <time>2020-09-03T21:57:04.781Z</time>
      </trkpt>
      <trkpt lat="45.69667" lon="3.7494">
        <ele>1203.5876464844</ele>
        <time>2020-09-03T21:57:13.965Z</time>
      </trkpt>
      <trkpt lat="45.696" lon="3.75135">
        <ele>1215.6982421875</ele>
        <time>2020-09-03T21:57:23.173Z</time>
      </trkpt>
      <trkpt lat="45.69544" lon="3.75228">
        <ele>1220.5238037109</ele>
        <time>2020-09-03T21:57:32.395Z</time>
      </trkpt>
      <trkpt lat="45.69539" lon="3.75258">
        <ele>1221.849609375</ele>
        <time>2020-09-03T21:57:41.620Z</time>
      </trkpt>
      <trkpt lat="45.6954" lon="3.75296">
        <ele>1223.2276611328</ele>
        <time>2020-09-03T21:57:50.849Z</time>
      </trkpt>
      <trkpt lat="45.69548" lon="3.75323">
        <ele>1224.7209472656</ele>
        <time>2020-09-03T21:58:00.082Z</time>
      </trkpt>
      <trkpt lat="45.69607" lon="3.75434">
        <ele>1231.4306640625</ele>
        <time>2020-09-03T21:58:09.330Z</time>
      </trkpt>
      <trkpt lat="45.69639" lon="3.7555">
        <ele>1236.1994628906</ele>
        <time>2020-09-03T21:58:18.592Z</time>
      </trkpt>
      <trkpt lat="45.69639" lon="3.7555">
        <ele>1236.1988525391</ele>
        <time>2020-09-03T21:58:27.854Z</time>
      </trkpt>
      <trkpt lat="45.6964" lon="3.75589">
        <ele>1236.5849609375</ele>
        <time>2020-09-03T21:58:37.121Z</time>
      </trkpt>
      <trkpt lat="45.69638" lon="3.75631">
        <ele>1238.4645996094</ele>
        <time>2020-09-03T21:58:46.392Z</time>
      </trkpt>
      <trkpt lat="45.69646" lon="3.75673">
        <ele>1240.1121826172</ele>
        <time>2020-09-03T21:58:55.668Z</time>
      </trkpt>
      <trkpt lat="45.69685" lon="3.75734">
        <ele>1241.197265625</ele>
        <time>2020-09-03T21:59:04.953Z</time>
      </trkpt>
      <trkpt lat="45.69685" lon="3.75766">
        <ele>1245.0017089844</ele>
        <time>2020-09-03T21:59:14.242Z</time>
      </trkpt>
      <trkpt lat="45.69663" lon="3.75776">
        <ele>1248.9913330078</ele>
        <time>2020-09-03T21:59:23.535Z</time>
      </trkpt>
      <trkpt lat="45.69626" lon="3.75761">
        <ele>1250.8659667969</ele>
        <time>2020-09-03T21:59:32.834Z</time>
      </trkpt>
      <trkpt lat="45.69519" lon="3.75788">
        <ele>1254.8568115234</ele>
        <time>2020-09-03T21:59:42.150Z</time>
      </trkpt>
      <trkpt lat="45.69447" lon="3.75818">
        <ele>1262.6087646484</ele>
        <time>2020-09-03T21:59:51.478Z</time>
      </trkpt>
      <trkpt lat="45.69396" lon="3.7583">
        <ele>1266.4030761719</ele>
        <time>2020-09-03T22:00:00.815Z</time>
      </trkpt>
      <trkpt lat="45.69291" lon="3.75904">
        <ele>1280.7489013672</ele>
        <time>2020-09-03T22:00:10.170Z</time>
      </trkpt>
      <trkpt lat="45.69254" lon="3.75911">
        <ele>1282.1246337891</ele>
        <time>2020-09-03T22:00:19.531Z</time>
      </trkpt>
      <trkpt lat="45.69132" lon="3.75962">
        <ele>1288.5924072266</ele>
        <time>2020-09-03T22:00:28.913Z</time>
      </trkpt>
      <trkpt lat="45.69078" lon="3.75962">
        <ele>1291.8748779297</ele>
        <time>2020-09-03T22:00:38.303Z</time>
      </trkpt>
      <trkpt lat="45.69035" lon="3.75942">
        <ele>1291.5561523438</ele>
        <time>2020-09-03T22:00:47.701Z</time>
      </trkpt>
      <trkpt lat="45.69019" lon="3.75942">
        <ele>1291.7492675781</ele>
        <time>2020-09-03T22:00:57.101Z</time>
      </trkpt>
      <trkpt lat="45.69009" lon="3.75953">
        <ele>1292.8563232422</ele>
        <time>2020-09-03T22:01:06.503Z</time>
      </trkpt>
      <trkpt lat="45.69004" lon="3.75985">
        <ele>1295.6918945312</ele>
        <time>2020-09-03T22:01:15.909Z</time>
      </trkpt>
      <trkpt lat="45.69005" lon="3.76008">
        <ele>1297.9317626953</ele>
        <time>2020-09-03T22:01:25.317Z</time>
      </trkpt>
      <trkpt lat="45.69015" lon="3.76032">
        <ele>1300.0688476562</ele>
        <time>2020-09-03T22:01:34.729Z</time>
      </trkpt>
      <trkpt lat="45.69058" lon="3.76084">
        <ele>1304.8986816406</ele>
        <time>2020-09-03T22:01:44.150Z</time>
      </trkpt>
      <trkpt lat="45.69113" lon="3.761">
        <ele>1307.29296875</ele>
        <time>2020-09-03T22:01:53.580Z</time>
      </trkpt>
      <trkpt lat="45.69128" lon="3.76115">
        <ele>1309.4942626953</ele>
        <time>2020-09-03T22:02:03.013Z</time>
      </trkpt>
      <trkpt lat="45.6913" lon="3.76136">
        <ele>1312.4549560547</ele>
        <time>2020-09-03T22:02:12.448Z</time>
      </trkpt>
      <trkpt lat="45.69126" lon="3.76148">
        <ele>1314.1026611328</ele>
        <time>2020-09-03T22:02:21.884Z</time>
      </trkpt>
      <trkpt lat="45.69097" lon="3.76155">
        <ele>1314.6667480469</ele>
        <time>2020-09-03T22:02:31.325Z</time>
      </trkpt>
      <trkpt lat="45.69055" lon="3.76166">
        <ele>1314.4476318359</ele>
        <time>2020-09-03T22:02:40.773Z</time>
      </trkpt>
      <trkpt lat="45.68977" lon="3.76214">
        <ele>1318.1865234375</ele>
        <time>2020-09-03T22:02:50.235Z</time>
      </trkpt>
      <trkpt lat="45.68932" lon="3.76256">
        <ele>1320.9161376953</ele>
        <time>2020-09-03T22:02:59.705Z</time>
      </trkpt>
      <trkpt lat="45.68932" lon="3.76256">
        <ele>1320.9163818359</ele>
        <time>2020-09-03T22:03:09.175Z</time>
      </trkpt>
      <trkpt lat="45.68856" lon="3.76344">
        <ele>1327.3887939453</ele>
        <time>2020-09-03T22:03:18.661Z</time>
      </trkpt>
      <trkpt lat="45.68835" lon="3.76377">
        <ele>1330.6568603516</ele>
        <time>2020-09-03T22:03:28.152Z</time>
      </trkpt>
      <trkpt lat="45.68782" lon="3.76503">
        <ele>1337.1988525391</ele>
        <time>2020-09-03T22:03:37.659Z</time>
      </trkpt>
      <trkpt lat="45.68772" lon="3.76561">
        <ele>1340.6169433594</ele>
        <time>2020-09-03T22:03:47.173Z</time>
      </trkpt>
      <trkpt lat="45.68764" lon="3.76659">
        <ele>1346.3531494141</ele>
        <time>2020-09-03T22:03:56.698Z</time>
      </trkpt>
      <trkpt lat="45.68724" lon="3.7678">
        <ele>1352.6282958984</ele>
        <time>2020-09-03T22:04:06.238Z</time>
      </trkpt>
      <trkpt lat="45.68716" lon="3.76845">
        <ele>1355.1833496094</ele>
        <time>2020-09-03T22:04:15.786Z</time>
      </trkpt>
      <trkpt lat="45.68736" lon="3.76904">
        <ele>1358.9783935547</ele>
        <time>2020-09-03T22:04:25.341Z</time>
      </trkpt>
      <trkpt lat="45.68736" lon="3.76904">
        <ele>1358.9790039062</ele>
        <time>2020-09-03T22:04:34.896Z</time>
      </trkpt>
      <trkpt lat="45.68803" lon="3.77003">
        <ele>1364.9840087891</ele>
        <time>2020-09-03T22:04:44.466Z</time>
      </trkpt>
      <trkpt lat="45.68824" lon="3.77021">
        <ele>1366.5286865234</ele>
        <time>2020-09-03T22:04:54.040Z</time>
      </trkpt>
      <trkpt lat="45.69038" lon="3.77062">
        <ele>1378.6328125</ele>
        <time>2020-09-03T22:05:03.649Z</time>
      </trkpt>
      <trkpt lat="45.69146" lon="3.77121">
        <ele>1382.3110351562</ele>
        <time>2020-09-03T22:05:13.276Z</time>
      </trkpt>
      <trkpt lat="45.69169" lon="3.77151">
        <ele>1382.9417724609</ele>
        <time>2020-09-03T22:05:22.908Z</time>
      </trkpt>
      <trkpt lat="45.69174" lon="3.77201">
        <ele>1383.9311523438</ele>
        <time>2020-09-03T22:05:32.546Z</time>
      </trkpt>
      <trkpt lat="45.69162" lon="3.7726">
        <ele>1384.2384033203</ele>
        <time>2020-09-03T22:05:42.191Z</time>
      </trkpt>
      <trkpt lat="45.69131" lon="3.77331">
        <ele>1385.8065185547</ele>
        <time>2020-09-03T22:05:51.845Z</time>
      </trkpt>
      <trkpt lat="45.69102" lon="3.77465">
        <ele>1393.9880371094</ele>
        <time>2020-09-03T22:06:01.515Z</time>
      </trkpt>
      <trkpt lat="45.691" lon="3.77616">
        <ele>1398.6889648438</ele>
        <time>2020-09-03T22:06:11.202Z</time>
      </trkpt>
      <trkpt lat="45.69087" lon="3.77681">
        <ele>1399.2364501953</ele>
        <time>2020-09-03T22:06:20.896Z</time>
      </trkpt>
      <trkpt lat="45.69049" lon="3.77784">
        <ele>1397.6755371094</ele>
        <time>2020-09-03T22:06:30.604Z</time>
      </trkpt>
      <trkpt lat="45.69049" lon="3.77784">
        <ele>1397.6750488281</ele>
        <time>2020-09-03T22:06:40.312Z</time>
      </trkpt>
      <trkpt lat="45.68984" lon="3.77952">
        <ele>1398.4166259766</ele>
        <time>2020-09-03T22:06:50.041Z</time>
      </trkpt>
      <trkpt lat="45.68855" lon="3.78136">
        <ele>1396.9617919922</ele>
        <time>2020-09-03T22:06:59.799Z</time>
      </trkpt>
      <trkpt lat="45.68823" lon="3.78164">
        <ele>1395.7247314453</ele>
        <time>2020-09-03T22:07:09.563Z</time>
      </trkpt>
      <trkpt lat="45.68769" lon="3.78193">
        <ele>1395.6398925781</ele>
        <time>2020-09-03T22:07:19.337Z</time>
      </trkpt>
      <trkpt lat="45.68672" lon="3.78276">
        <ele>1391.7106933594</ele>
        <time>2020-09-03T22:07:29.129Z</time>
      </trkpt>
      <trkpt lat="45.68629" lon="3.78292">
        <ele>1391.3112792969</ele>
        <time>2020-09-03T22:07:38.928Z</time>
      </trkpt>
      <trkpt lat="45.68614" lon="3.7832">
        <ele>1387.6040039062</ele>
        <time>2020-09-03T22:07:48.731Z</time>
      </trkpt>
      <trkpt lat="45.6858" lon="3.7831">
        <ele>1389.0285644531</ele>
        <time>2020-09-03T22:07:58.539Z</time>
      </trkpt>
      <trkpt lat="45.68563" lon="3.78304">
        <ele>1390.2514648438</ele>
        <time>2020-09-03T22:08:08.350Z</time>
      </trkpt>
      <trkpt lat="45.68542" lon="3.78293">
        <ele>1390.8179931641</ele>
        <time>2020-09-03T22:08:18.165Z</time>
      </trkpt>
      <trkpt lat="45.68542" lon="3.78293">
        <ele>1390.8179931641</ele>
        <time>2020-09-03T22:08:27.980Z</time>
      </trkpt>
      <trkpt lat="45.68563" lon="3.78304">
        <ele>1390.2514648438</ele>
        <time>2020-09-03T22:08:37.798Z</time>
      </trkpt>
      <trkpt lat="45.6858" lon="3.7831">
        <ele>1389.0285644531</ele>
        <time>2020-09-03T22:08:47.619Z</time>
      </trkpt>
      <trkpt lat="45.68614" lon="3.7832">
        <ele>1387.6040039062</ele>
        <time>2020-09-03T22:08:57.446Z</time>
      </trkpt>
      <trkpt lat="45.68665" lon="3.78335">
        <ele>1384.9912109375</ele>
        <time>2020-09-03T22:09:07.281Z</time>
      </trkpt>
      <trkpt lat="45.68665" lon="3.78335">
        <ele>1384.9908447266</ele>
        <time>2020-09-03T22:09:17.116Z</time>
      </trkpt>
      <trkpt lat="45.68705" lon="3.78334">
        <ele>1383.1633300781</ele>
        <time>2020-09-03T22:09:26.957Z</time>
      </trkpt>
      <trkpt lat="45.68787" lon="3.78301">
        <ele>1382.1778564453</ele>
        <time>2020-09-03T22:09:36.812Z</time>
      </trkpt>
      <trkpt lat="45.68821" lon="3.78296">
        <ele>1381.7991943359</ele>
        <time>2020-09-03T22:09:46.672Z</time>
      </trkpt>
      <trkpt lat="45.68917" lon="3.78351">
        <ele>1371.4074707031</ele>
        <time>2020-09-03T22:09:56.549Z</time>
      </trkpt>
      <trkpt lat="45.68971" lon="3.78365">
        <ele>1369.4625244141</ele>
        <time>2020-09-03T22:10:06.435Z</time>
      </trkpt>
      <trkpt lat="45.69042" lon="3.7841">
        <ele>1361.5233154297</ele>
        <time>2020-09-03T22:10:16.333Z</time>
      </trkpt>
      <trkpt lat="45.6911" lon="3.78436">
        <ele>1352.1047363281</ele>
        <time>2020-09-03T22:10:26.242Z</time>
      </trkpt>
      <trkpt lat="45.69137" lon="3.78437">
        <ele>1349.0793457031</ele>
        <time>2020-09-03T22:10:36.156Z</time>
      </trkpt>
      <trkpt lat="45.69186" lon="3.78406">
        <ele>1354.0609130859</ele>
        <time>2020-09-03T22:10:46.078Z</time>
      </trkpt>
      <trkpt lat="45.69209" lon="3.78424">
        <ele>1353.6104736328</ele>
        <time>2020-09-03T22:10:56.005Z</time>
      </trkpt>
      <trkpt lat="45.69213" lon="3.7845">
        <ele>1351.6538085938</ele>
        <time>2020-09-03T22:11:05.935Z</time>
      </trkpt>
      <trkpt lat="45.69186" lon="3.78524">
        <ele>1343.8371582031</ele>
        <time>2020-09-03T22:11:15.874Z</time>
      </trkpt>
      <trkpt lat="45.69183" lon="3.78569">
        <ele>1341.4450683594</ele>
        <time>2020-09-03T22:11:25.818Z</time>
      </trkpt>
      <trkpt lat="45.69219" lon="3.78709">
        <ele>1336.9516601562</ele>
        <time>2020-09-03T22:11:35.779Z</time>
      </trkpt>
      <trkpt lat="45.69219" lon="3.78779">
        <ele>1333.3381347656</ele>
        <time>2020-09-03T22:11:45.748Z</time>
      </trkpt>
      <trkpt lat="45.69259" lon="3.78862">
        <ele>1329.7348632812</ele>
        <time>2020-09-03T22:11:55.728Z</time>
      </trkpt>
      <trkpt lat="45.69293" lon="3.78901">
        <ele>1328.5505371094</ele>
        <time>2020-09-03T22:12:05.715Z</time>
      </trkpt>
      <trkpt lat="45.69301" lon="3.78929">
        <ele>1326.6583251953</ele>
        <time>2020-09-03T22:12:15.705Z</time>
      </trkpt>
      <trkpt lat="45.69239" lon="3.79081">
        <ele>1316.0759277344</ele>
        <time>2020-09-03T22:12:25.715Z</time>
      </trkpt>
      <trkpt lat="45.69176" lon="3.79171">
        <ele>1309.2924804688</ele>
        <time>2020-09-03T22:12:35.739Z</time>
      </trkpt>
      <trkpt lat="45.69153" lon="3.79259">
        <ele>1304.4638671875</ele>
        <time>2020-09-03T22:12:45.774Z</time>
      </trkpt>
      <trkpt lat="45.69156" lon="3.79314">
        <ele>1303.4235839844</ele>
        <time>2020-09-03T22:12:55.815Z</time>
      </trkpt>
      <trkpt lat="45.69156" lon="3.79314">
        <ele>1303.4240722656</ele>
        <time>2020-09-03T22:13:05.856Z</time>
      </trkpt>
      <trkpt lat="45.69145" lon="3.79348">
        <ele>1302.4968261719</ele>
        <time>2020-09-03T22:13:15.901Z</time>
      </trkpt>
      <trkpt lat="45.69086" lon="3.79463">
        <ele>1297.7554931641</ele>
        <time>2020-09-03T22:13:25.962Z</time>
      </trkpt>
      <trkpt lat="45.69071" lon="3.79507">
        <ele>1296.1544189453</ele>
        <time>2020-09-03T22:13:36.029Z</time>
      </trkpt>
      <trkpt lat="45.69066" lon="3.79569">
        <ele>1294.4880371094</ele>
        <time>2020-09-03T22:13:46.103Z</time>
      </trkpt>
      <trkpt lat="45.6907" lon="3.79602">
        <ele>1294.4494628906</ele>
        <time>2020-09-03T22:13:56.180Z</time>
      </trkpt>
      <trkpt lat="45.69079" lon="3.79625">
        <ele>1292.5114746094</ele>
        <time>2020-09-03T22:14:06.260Z</time>
      </trkpt>
      <trkpt lat="45.6913" lon="3.79686">
        <ele>1288.8146972656</ele>
        <time>2020-09-03T22:14:16.351Z</time>
      </trkpt>
      <trkpt lat="45.69257" lon="3.79763">
        <ele>1280.5235595703</ele>
        <time>2020-09-03T22:14:26.464Z</time>
      </trkpt>
      <trkpt lat="45.69321" lon="3.7978">
        <ele>1277.1611328125</ele>
        <time>2020-09-03T22:14:36.587Z</time>
      </trkpt>
      <trkpt lat="45.69397" lon="3.79772">
        <ele>1281.28515625</ele>
        <time>2020-09-03T22:14:46.723Z</time>
      </trkpt>
      <trkpt lat="45.69412" lon="3.79791">
        <ele>1281.5168457031</ele>
        <time>2020-09-03T22:14:56.862Z</time>
      </trkpt>
      <trkpt lat="45.69423" lon="3.7983">
        <ele>1278.5892333984</ele>
        <time>2020-09-03T22:15:07.006Z</time>
      </trkpt>
      <trkpt lat="45.69442" lon="3.7986">
        <ele>1277.8232421875</ele>
        <time>2020-09-03T22:15:17.154Z</time>
      </trkpt>
      <trkpt lat="45.69545" lon="3.79975">
        <ele>1276.4859619141</ele>
        <time>2020-09-03T22:15:27.323Z</time>
      </trkpt>
      <trkpt lat="45.69595" lon="3.80056">
        <ele>1265.3636474609</ele>
        <time>2020-09-03T22:15:37.504Z</time>
      </trkpt>
      <trkpt lat="45.69654" lon="3.80097">
        <ele>1264.8011474609</ele>
        <time>2020-09-03T22:15:47.696Z</time>
      </trkpt>
      <trkpt lat="45.69696" lon="3.80154">
        <ele>1250.8889160156</ele>
        <time>2020-09-03T22:15:57.897Z</time>
      </trkpt>
      <trkpt lat="45.69745" lon="3.80159">
        <ele>1255.9151611328</ele>
        <time>2020-09-03T22:16:08.106Z</time>
      </trkpt>
      <trkpt lat="45.69807" lon="3.80201">
        <ele>1246.9643554688</ele>
        <time>2020-09-03T22:16:18.326Z</time>
      </trkpt>
      <trkpt lat="45.69903" lon="3.80235">
        <ele>1249.5393066406</ele>
        <time>2020-09-03T22:16:28.562Z</time>
      </trkpt>
      <trkpt lat="45.6993" lon="3.80298">
        <ele>1246.1628417969</ele>
        <time>2020-09-03T22:16:38.806Z</time>
      </trkpt>
      <trkpt lat="45.69919" lon="3.80485">
        <ele>1225.2407226562</ele>
        <time>2020-09-03T22:16:49.071Z</time>
      </trkpt>
      <trkpt lat="45.69915" lon="3.80573">
        <ele>1218.4755859375</ele>
        <time>2020-09-03T22:16:59.346Z</time>
      </trkpt>
      <trkpt lat="45.69928" lon="3.80628">
        <ele>1218.7674560547</ele>
        <time>2020-09-03T22:17:09.627Z</time>
      </trkpt>
      <trkpt lat="45.69953" lon="3.80688">
        <ele>1218.7615966797</ele>
        <time>2020-09-03T22:17:19.916Z</time>
      </trkpt>
      <trkpt lat="45.69993" lon="3.80746">
        <ele>1215.9357910156</ele>
        <time>2020-09-03T22:17:30.214Z</time>
      </trkpt>
      <trkpt lat="45.70063" lon="3.80808">
        <ele>1211.4017333984</ele>
        <time>2020-09-03T22:17:40.525Z</time>
      </trkpt>
      <trkpt lat="45.70128" lon="3.80839">
        <ele>1209.2852783203</ele>
        <time>2020-09-03T22:17:50.847Z</time>
      </trkpt>
      <trkpt lat="45.7014" lon="3.80853">
        <ele>1207.3316650391</ele>
        <time>2020-09-03T22:18:01.172Z</time>
      </trkpt>
      <trkpt lat="45.70151" lon="3.80897">
        <ele>1204.2264404297</ele>
        <time>2020-09-03T22:18:11.502Z</time>
      </trkpt>
      <trkpt lat="45.70153" lon="3.81187">
        <ele>1180.8043212891</ele>
        <time>2020-09-03T22:18:21.865Z</time>
      </trkpt>
      <trkpt lat="45.70167" lon="3.81212">
        <ele>1179.1340332031</ele>
        <time>2020-09-03T22:18:32.231Z</time>
      </trkpt>
      <trkpt lat="45.70217" lon="3.81231">
        <ele>1184.3602294922</ele>
        <time>2020-09-03T22:18:42.606Z</time>
      </trkpt>
      <trkpt lat="45.70237" lon="3.81256">
        <ele>1184.4705810547</ele>
        <time>2020-09-03T22:18:52.985Z</time>
      </trkpt>
      <trkpt lat="45.70237" lon="3.81256">
        <ele>1184.4724121094</ele>
        <time>2020-09-03T22:19:03.364Z</time>
      </trkpt>
      <trkpt lat="45.70239" lon="3.81275">
        <ele>1182.5227050781</ele>
        <time>2020-09-03T22:19:13.745Z</time>
      </trkpt>
      <trkpt lat="45.70228" lon="3.81296">
        <ele>1182.2476806641</ele>
        <time>2020-09-03T22:19:24.129Z</time>
      </trkpt>
      <trkpt lat="45.70159" lon="3.81368">
        <ele>1167.3200683594</ele>
        <time>2020-09-03T22:19:34.527Z</time>
      </trkpt>
      <trkpt lat="45.70103" lon="3.81463">
        <ele>1161.1981201172</ele>
        <time>2020-09-03T22:19:44.938Z</time>
      </trkpt>
      <trkpt lat="45.70103" lon="3.81463">
        <ele>1161.2003173828</ele>
        <time>2020-09-03T22:19:55.349Z</time>
      </trkpt>
      <trkpt lat="45.7004" lon="3.81554">
        <ele>1156.0775146484</ele>
        <time>2020-09-03T22:20:05.775Z</time>
      </trkpt>
      <trkpt lat="45.69986" lon="3.81578">
        <ele>1151.6236572266</ele>
        <time>2020-09-03T22:20:16.210Z</time>
      </trkpt>
      <trkpt lat="45.69934" lon="3.81586">
        <ele>1146.8562011719</ele>
        <time>2020-09-03T22:20:26.653Z</time>
      </trkpt>
      <trkpt lat="45.69897" lon="3.81608">
        <ele>1147.0350341797</ele>
        <time>2020-09-03T22:20:37.103Z</time>
      </trkpt>
      <trkpt lat="45.6986" lon="3.81648">
        <ele>1144.5041503906</ele>
        <time>2020-09-03T22:20:47.560Z</time>
      </trkpt>
      <trkpt lat="45.6985" lon="3.81669">
        <ele>1144.1041259766</ele>
        <time>2020-09-03T22:20:58.020Z</time>
      </trkpt>
      <trkpt lat="45.69789" lon="3.81885">
        <ele>1141.1597900391</ele>
        <time>2020-09-03T22:21:08.506Z</time>
      </trkpt>
      <trkpt lat="45.69765" lon="3.81916">
        <ele>1137.9313964844</ele>
        <time>2020-09-03T22:21:18.997Z</time>
      </trkpt>
      <trkpt lat="45.69617" lon="3.81975">
        <ele>1121.6258544922</ele>
        <time>2020-09-03T22:21:29.513Z</time>
      </trkpt>
      <trkpt lat="45.69527" lon="3.81978">
        <ele>1115.1715087891</ele>
        <time>2020-09-03T22:21:40.043Z</time>
      </trkpt>
      <trkpt lat="45.69451" lon="3.82017">
        <ele>1108.8176269531</ele>
        <time>2020-09-03T22:21:50.586Z</time>
      </trkpt>
      <trkpt lat="45.69451" lon="3.82017">
        <ele>1108.8189697266</ele>
        <time>2020-09-03T22:22:01.129Z</time>
      </trkpt>
      <trkpt lat="45.69423" lon="3.8204">
        <ele>1106.4069824219</ele>
        <time>2020-09-03T22:22:11.677Z</time>
      </trkpt>
      <trkpt lat="45.69391" lon="3.82087">
        <ele>1105.1882324219</ele>
        <time>2020-09-03T22:22:22.233Z</time>
      </trkpt>
      <trkpt lat="45.69312" lon="3.82237">
        <ele>1096.6285400391</ele>
        <time>2020-09-03T22:22:32.810Z</time>
      </trkpt>
      <trkpt lat="45.6929" lon="3.82362">
        <ele>1097.2277832031</ele>
        <time>2020-09-03T22:22:43.401Z</time>
      </trkpt>
      <trkpt lat="45.69291" lon="3.82443">
        <ele>1096.5230712891</ele>
        <time>2020-09-03T22:22:54.001Z</time>
      </trkpt>
      <trkpt lat="45.69276" lon="3.82493">
        <ele>1093.4594726562</ele>
        <time>2020-09-03T22:23:04.607Z</time>
      </trkpt>
      <trkpt lat="45.69256" lon="3.82526">
        <ele>1089.9656982422</ele>
        <time>2020-09-03T22:23:15.218Z</time>
      </trkpt>
      <trkpt lat="45.69217" lon="3.82598">
        <ele>1084.4439697266</ele>
        <time>2020-09-03T22:23:25.839Z</time>
      </trkpt>
      <trkpt lat="45.69189" lon="3.82619">
        <ele>1082.5122070312</ele>
        <time>2020-09-03T22:23:36.466Z</time>
      </trkpt>
      <trkpt lat="45.69173" lon="3.82658">
        <ele>1081.9456787109</ele>
        <time>2020-09-03T22:23:47.098Z</time>
      </trkpt>
      <trkpt lat="45.69143" lon="3.8277">
        <ele>1078.2603759766</ele>
        <time>2020-09-03T22:23:57.743Z</time>
      </trkpt>
      <trkpt lat="45.6914" lon="3.82835">
        <ele>1077.6285400391</ele>
        <time>2020-09-03T22:24:08.395Z</time>
      </trkpt>
      <trkpt lat="45.69145" lon="3.82893">
        <ele>1075.0714111328</ele>
        <time>2020-09-03T22:24:19.054Z</time>
      </trkpt>
      <trkpt lat="45.69174" lon="3.82957">
        <ele>1073.7913818359</ele>
        <time>2020-09-03T22:24:29.721Z</time>
      </trkpt>
      <trkpt lat="45.69177" lon="3.82986">
        <ele>1070.7430419922</ele>
        <time>2020-09-03T22:24:40.392Z</time>
      </trkpt>
      <trkpt lat="45.69155" lon="3.83104">
        <ele>1060.7717285156</ele>
        <time>2020-09-03T22:24:51.076Z</time>
      </trkpt>
      <trkpt lat="45.69146" lon="3.83125">
        <ele>1060.5063476562</ele>
        <time>2020-09-03T22:25:01.763Z</time>
      </trkpt>
      <trkpt lat="45.69137" lon="3.83127">
        <ele>1059.5151367188</ele>
        <time>2020-09-03T22:25:12.452Z</time>
      </trkpt>
      <trkpt lat="45.6913" lon="3.83156">
        <ele>1059.4395751953</ele>
        <time>2020-09-03T22:25:23.144Z</time>
      </trkpt>
      <trkpt lat="45.69128" lon="3.83187">
        <ele>1059.7722167969</ele>
        <time>2020-09-03T22:25:33.840Z</time>
      </trkpt>
      <trkpt lat="45.69135" lon="3.83256">
        <ele>1057.5020751953</ele>
        <time>2020-09-03T22:25:44.543Z</time>
      </trkpt>
      <trkpt lat="45.69129" lon="3.83296">
        <ele>1054.4645996094</ele>
        <time>2020-09-03T22:25:55.251Z</time>
      </trkpt>
      <trkpt lat="45.6911" lon="3.83323">
        <ele>1050.4483642578</ele>
        <time>2020-09-03T22:26:05.963Z</time>
      </trkpt>
      <trkpt lat="45.69066" lon="3.8336">
        <ele>1048.4532470703</ele>
        <time>2020-09-03T22:26:16.684Z</time>
      </trkpt>
      <trkpt lat="45.69052" lon="3.8339">
        <ele>1047.8862304688</ele>
        <time>2020-09-03T22:26:27.409Z</time>
      </trkpt>
      <trkpt lat="45.69033" lon="3.83517">
        <ele>1045.5721435547</ele>
        <time>2020-09-03T22:26:38.148Z</time>
      </trkpt>
      <trkpt lat="45.69043" lon="3.83558">
        <ele>1044.5673828125</ele>
        <time>2020-09-03T22:26:48.892Z</time>
      </trkpt>
      <trkpt lat="45.69098" lon="3.83644">
        <ele>1043.4696044922</ele>
        <time>2020-09-03T22:26:59.649Z</time>
      </trkpt>
      <trkpt lat="45.69152" lon="3.83725">
        <ele>1040.7669677734</ele>
        <time>2020-09-03T22:27:10.419Z</time>
      </trkpt>
      <trkpt lat="45.69205" lon="3.83792">
        <ele>1039.1231689453</ele>
        <time>2020-09-03T22:27:21.200Z</time>
      </trkpt>
      <trkpt lat="45.69205" lon="3.83792">
        <ele>1039.1237792969</ele>
        <time>2020-09-03T22:27:31.981Z</time>
      </trkpt>
      <trkpt lat="45.69248" lon="3.83858">
        <ele>1035.5816650391</ele>
        <time>2020-09-03T22:27:42.772Z</time>
      </trkpt>
      <trkpt lat="45.69312" lon="3.83913">
        <ele>1028.8312988281</ele>
        <time>2020-09-03T22:27:53.575Z</time>
      </trkpt>
      <trkpt lat="45.69428" lon="3.83965">
        <ele>1021.2662353516</ele>
        <time>2020-09-03T22:28:04.398Z</time>
      </trkpt>
      <trkpt lat="45.69472" lon="3.84025">
        <ele>1017.735534668</ele>
        <time>2020-09-03T22:28:15.230Z</time>
      </trkpt>
      <trkpt lat="45.6952" lon="3.84074">
        <ele>1012.4859619141</ele>
        <time>2020-09-03T22:28:26.072Z</time>
      </trkpt>
      <trkpt lat="45.69568" lon="3.84087">
        <ele>1009.0208740234</ele>
        <time>2020-09-03T22:28:36.922Z</time>
      </trkpt>
      <trkpt lat="45.69663" lon="3.84082">
        <ele>1003.3258056641</ele>
        <time>2020-09-03T22:28:47.787Z</time>
      </trkpt>
      <trkpt lat="45.6969" lon="3.84088">
        <ele>1002.2831420898</ele>
        <time>2020-09-03T22:28:58.656Z</time>
      </trkpt>
      <trkpt lat="45.69711" lon="3.84112">
        <ele>1001.0518188477</ele>
        <time>2020-09-03T22:29:09.529Z</time>
      </trkpt>
      <trkpt lat="45.69711" lon="3.84112">
        <ele>1001.0515136719</ele>
        <time>2020-09-03T22:29:20.402Z</time>
      </trkpt>
      <trkpt lat="45.69798" lon="3.84407">
        <ele>986.27917480469</ele>
        <time>2020-09-03T22:29:31.311Z</time>
      </trkpt>
      <trkpt lat="45.69813" lon="3.8446">
        <ele>985.30334472656</ele>
        <time>2020-09-03T22:29:42.227Z</time>
      </trkpt>
      <trkpt lat="45.69825" lon="3.84514">
        <ele>984.04180908203</ele>
        <time>2020-09-03T22:29:53.149Z</time>
      </trkpt>
      <trkpt lat="45.69828" lon="3.84523">
        <ele>983.82769775391</ele>
        <time>2020-09-03T22:30:04.072Z</time>
      </trkpt>
      <trkpt lat="45.69829" lon="3.84599">
        <ele>979.51727294922</ele>
        <time>2020-09-03T22:30:15.004Z</time>
      </trkpt>
      <trkpt lat="45.69823" lon="3.84633">
        <ele>977.92828369141</ele>
        <time>2020-09-03T22:30:25.940Z</time>
      </trkpt>
      <trkpt lat="45.69814" lon="3.84655">
        <ele>977.33618164062</ele>
        <time>2020-09-03T22:30:36.879Z</time>
      </trkpt>
      <trkpt lat="45.69796" lon="3.84671">
        <ele>977.275390625</ele>
        <time>2020-09-03T22:30:47.821Z</time>
      </trkpt>
      <trkpt lat="45.69728" lon="3.84694">
        <ele>978.23004150391</ele>
        <time>2020-09-03T22:30:58.774Z</time>
      </trkpt>
      <trkpt lat="45.69728" lon="3.84694">
        <ele>978.22973632812</ele>
        <time>2020-09-03T22:31:09.727Z</time>
      </trkpt>
      <trkpt lat="45.69712" lon="3.847">
        <ele>978.54943847656</ele>
        <time>2020-09-03T22:31:20.683Z</time>
      </trkpt>
      <trkpt lat="45.69629" lon="3.84687">
        <ele>976.26452636719</ele>
        <time>2020-09-03T22:31:31.652Z</time>
      </trkpt>
      <trkpt lat="45.69582" lon="3.84651">
        <ele>973.1494140625</ele>
        <time>2020-09-03T22:31:42.630Z</time>
      </trkpt>
      <trkpt lat="45.69558" lon="3.8461">
        <ele>973.28387451172</ele>
        <time>2020-09-03T22:31:53.614Z</time>
      </trkpt>
      <trkpt lat="45.6954" lon="3.84612">
        <ele>972.26135253906</ele>
        <time>2020-09-03T22:32:04.601Z</time>
      </trkpt>
      <trkpt lat="45.69536" lon="3.84646">
        <ele>969.68688964844</ele>
        <time>2020-09-03T22:32:15.591Z</time>
      </trkpt>
      <trkpt lat="45.69551" lon="3.84677">
        <ele>967.80731201172</ele>
        <time>2020-09-03T22:32:26.586Z</time>
      </trkpt>
      <trkpt lat="45.69584" lon="3.848">
        <ele>959.32208251953</ele>
        <time>2020-09-03T22:32:37.596Z</time>
      </trkpt>
      <trkpt lat="45.696" lon="3.84827">
        <ele>957.45275878906</ele>
        <time>2020-09-03T22:32:48.609Z</time>
      </trkpt>
      <trkpt lat="45.69621" lon="3.84847">
        <ele>956.83483886719</ele>
        <time>2020-09-03T22:32:59.626Z</time>
      </trkpt>
      <trkpt lat="45.6966" lon="3.84864">
        <ele>958.39538574219</ele>
        <time>2020-09-03T22:33:10.650Z</time>
      </trkpt>
      <trkpt lat="45.69692" lon="3.84893">
        <ele>956.38732910156</ele>
        <time>2020-09-03T22:33:21.680Z</time>
      </trkpt>
      <trkpt lat="45.69739" lon="3.84941">
        <ele>948.93646240234</ele>
        <time>2020-09-03T22:33:32.719Z</time>
      </trkpt>
      <trkpt lat="45.69756" lon="3.84983">
        <ele>943.23382568359</ele>
        <time>2020-09-03T22:33:43.764Z</time>
      </trkpt>
      <trkpt lat="45.69756" lon="3.84983">
        <ele>943.234375</ele>
        <time>2020-09-03T22:33:54.809Z</time>
      </trkpt>
      <trkpt lat="45.6976" lon="3.85008">
        <ele>938.45819091797</ele>
        <time>2020-09-03T22:34:05.857Z</time>
      </trkpt>
      <trkpt lat="45.69772" lon="3.8503">
        <ele>935.02221679688</ele>
        <time>2020-09-03T22:34:16.908Z</time>
      </trkpt>
      <trkpt lat="45.69842" lon="3.85073">
        <ele>931.19549560547</ele>
        <time>2020-09-03T22:34:27.971Z</time>
      </trkpt>
      <trkpt lat="45.69891" lon="3.85084">
        <ele>928.41162109375</ele>
        <time>2020-09-03T22:34:39.042Z</time>
      </trkpt>
      <trkpt lat="45.69967" lon="3.85086">
        <ele>920.41534423828</ele>
        <time>2020-09-03T22:34:50.125Z</time>
      </trkpt>
      <trkpt lat="45.70013" lon="3.85075">
        <ele>915.62939453125</ele>
        <time>2020-09-03T22:35:01.216Z</time>
      </trkpt>
      <trkpt lat="45.7007" lon="3.85044">
        <ele>910.02789306641</ele>
        <time>2020-09-03T22:35:12.316Z</time>
      </trkpt>
      <trkpt lat="45.70108" lon="3.85002">
        <ele>903.91442871094</ele>
        <time>2020-09-03T22:35:23.424Z</time>
      </trkpt>
      <trkpt lat="45.70161" lon="3.84941">
        <ele>902.49591064453</ele>
        <time>2020-09-03T22:35:34.543Z</time>
      </trkpt>
      <trkpt lat="45.70249" lon="3.84861">
        <ele>909.69299316406</ele>
        <time>2020-09-03T22:35:45.679Z</time>
      </trkpt>
      <trkpt lat="45.70261" lon="3.84875">
        <ele>909.62866210938</ele>
        <time>2020-09-03T22:35:56.817Z</time>
      </trkpt>
      <trkpt lat="45.70258" lon="3.84935">
        <ele>902.52972412109</ele>
        <time>2020-09-03T22:36:07.962Z</time>
      </trkpt>
      <trkpt lat="45.70258" lon="3.84935">
        <ele>902.53082275391</ele>
        <time>2020-09-03T22:36:19.107Z</time>
      </trkpt>
      <trkpt lat="45.70257" lon="3.84946">
        <ele>900.97210693359</ele>
        <time>2020-09-03T22:36:30.253Z</time>
      </trkpt>
      <trkpt lat="45.70279" lon="3.85012">
        <ele>896.57836914062</ele>
        <time>2020-09-03T22:36:41.407Z</time>
      </trkpt>
      <trkpt lat="45.70285" lon="3.85037">
        <ele>893.34545898438</ele>
        <time>2020-09-03T22:36:52.564Z</time>
      </trkpt>
      <trkpt lat="45.70299" lon="3.85049">
        <ele>892.05822753906</ele>
        <time>2020-09-03T22:37:03.724Z</time>
      </trkpt>
      <trkpt lat="45.70391" lon="3.85069">
        <ele>884.98352050781</ele>
        <time>2020-09-03T22:37:14.899Z</time>
      </trkpt>
      <trkpt lat="45.70391" lon="3.85069">
        <ele>884.98272705078</ele>
        <time>2020-09-03T22:37:26.074Z</time>
      </trkpt>
      <trkpt lat="45.70406" lon="3.85083">
        <ele>880.02764892578</ele>
        <time>2020-09-03T22:37:37.252Z</time>
      </trkpt>
      <trkpt lat="45.70426" lon="3.85121">
        <ele>870.36853027344</ele>
        <time>2020-09-03T22:37:48.435Z</time>
      </trkpt>
      <trkpt lat="45.70468" lon="3.85129">
        <ele>865.45123291016</ele>
        <time>2020-09-03T22:37:59.625Z</time>
      </trkpt>
      <trkpt lat="45.7048" lon="3.85138">
        <ele>864.44677734375</ele>
        <time>2020-09-03T22:38:10.817Z</time>
      </trkpt>
      <trkpt lat="45.70502" lon="3.8515">
        <ele>863.84173583984</ele>
        <time>2020-09-03T22:38:22.013Z</time>
      </trkpt>
      <trkpt lat="45.70536" lon="3.85193">
        <ele>860.12445068359</ele>
        <time>2020-09-03T22:38:33.216Z</time>
      </trkpt>
      <trkpt lat="45.70538" lon="3.85259">
        <ele>856.29583740234</ele>
        <time>2020-09-03T22:38:44.426Z</time>
      </trkpt>
      <trkpt lat="45.70521" lon="3.8531">
        <ele>855.66229248047</ele>
        <time>2020-09-03T22:38:55.643Z</time>
      </trkpt>
      <trkpt lat="45.70499" lon="3.85354">
        <ele>857.56243896484</ele>
        <time>2020-09-03T22:39:06.866Z</time>
      </trkpt>
      <trkpt lat="45.70505" lon="3.85359">
        <ele>858.26116943359</ele>
        <time>2020-09-03T22:39:18.090Z</time>
      </trkpt>
      <trkpt lat="45.7053" lon="3.85365">
        <ele>858.98205566406</ele>
        <time>2020-09-03T22:39:29.318Z</time>
      </trkpt>
      <trkpt lat="45.7053" lon="3.85365">
        <ele>858.98211669922</ele>
        <time>2020-09-03T22:39:40.546Z</time>
      </trkpt>
      <trkpt lat="45.70568" lon="3.85377">
        <ele>858.72686767578</ele>
        <time>2020-09-03T22:39:51.780Z</time>
      </trkpt>
      <trkpt lat="45.70596" lon="3.85397">
        <ele>858.56518554688</ele>
        <time>2020-09-03T22:40:03.019Z</time>
      </trkpt>
      <trkpt lat="45.70634" lon="3.85477">
        <ele>866.79559326172</ele>
        <time>2020-09-03T22:40:14.269Z</time>
      </trkpt>
      <trkpt lat="45.70648" lon="3.85488">
        <ele>867.32043457031</ele>
        <time>2020-09-03T22:40:25.522Z</time>
      </trkpt>
      <trkpt lat="45.70648" lon="3.85488">
        <ele>867.32104492188</ele>
        <time>2020-09-03T22:40:36.775Z</time>
      </trkpt>
      <trkpt lat="45.70687" lon="3.85517">
        <ele>869.47332763672</ele>
        <time>2020-09-03T22:40:48.035Z</time>
      </trkpt>
      <trkpt lat="45.70716" lon="3.8555">
        <ele>871.64031982422</ele>
        <time>2020-09-03T22:40:59.301Z</time>
      </trkpt>
      <trkpt lat="45.70716" lon="3.8555">
        <ele>871.64086914062</ele>
        <time>2020-09-03T22:41:10.567Z</time>
      </trkpt>
      <trkpt lat="45.70864" lon="3.85686">
        <ele>876.81213378906</ele>
        <time>2020-09-03T22:41:21.861Z</time>
      </trkpt>
      <trkpt lat="45.70865" lon="3.85708">
        <ele>879.66040039062</ele>
        <time>2020-09-03T22:41:33.157Z</time>
      </trkpt>
      <trkpt lat="45.70832" lon="3.85784">
        <ele>894.40637207031</ele>
        <time>2020-09-03T22:41:44.463Z</time>
      </trkpt>
      <trkpt lat="45.70828" lon="3.85844">
        <ele>901.58190917969</ele>
        <time>2020-09-03T22:41:55.776Z</time>
      </trkpt>
      <trkpt lat="45.70839" lon="3.85959">
        <ele>913.32666015625</ele>
        <time>2020-09-03T22:42:07.102Z</time>
      </trkpt>
      <trkpt lat="45.70841" lon="3.85973">
        <ele>914.51153564453</ele>
        <time>2020-09-03T22:42:18.430Z</time>
      </trkpt>
      <trkpt lat="45.70792" lon="3.86137">
        <ele>915.35821533203</ele>
        <time>2020-09-03T22:42:29.778Z</time>
      </trkpt>
      <trkpt lat="45.70793" lon="3.86176">
        <ele>916.63256835938</ele>
        <time>2020-09-03T22:42:41.130Z</time>
      </trkpt>
      <trkpt lat="45.70825" lon="3.86296">
        <ele>921.88708496094</ele>
        <time>2020-09-03T22:42:52.497Z</time>
      </trkpt>
      <trkpt lat="45.70834" lon="3.86355">
        <ele>924.42291259766</ele>
        <time>2020-09-03T22:43:03.870Z</time>
      </trkpt>
      <trkpt lat="45.70844" lon="3.86372">
        <ele>925.50421142578</ele>
        <time>2020-09-03T22:43:15.246Z</time>
      </trkpt>
      <trkpt lat="45.70873" lon="3.86381">
        <ele>927.20336914062</ele>
        <time>2020-09-03T22:43:26.626Z</time>
      </trkpt>
      <trkpt lat="45.70897" lon="3.86359">
        <ele>928.29724121094</ele>
        <time>2020-09-03T22:43:38.011Z</time>
      </trkpt>
      <trkpt lat="45.70904" lon="3.86238">
        <ele>933.22564697266</ele>
        <time>2020-09-03T22:43:49.410Z</time>
      </trkpt>
      <trkpt lat="45.70912" lon="3.8621">
        <ele>934.87335205078</ele>
        <time>2020-09-03T22:44:00.812Z</time>
      </trkpt>
      <trkpt lat="45.70944" lon="3.8616">
        <ele>938.75213623047</ele>
        <time>2020-09-03T22:44:12.222Z</time>
      </trkpt>
      <trkpt lat="45.7102" lon="3.8605">
        <ele>944.67785644531</ele>
        <time>2020-09-03T22:44:23.649Z</time>
      </trkpt>
      <trkpt lat="45.71069" lon="3.86012">
        <ele>947.97308349609</ele>
        <time>2020-09-03T22:44:35.085Z</time>
      </trkpt>
      <trkpt lat="45.71069" lon="3.86012">
        <ele>947.97106933594</ele>
        <time>2020-09-03T22:44:46.521Z</time>
      </trkpt>
      <trkpt lat="45.71237" lon="3.85911">
        <ele>953.28399658203</ele>
        <time>2020-09-03T22:44:57.986Z</time>
      </trkpt>
      <trkpt lat="45.71289" lon="3.85911">
        <ele>952.99462890625</ele>
        <time>2020-09-03T22:45:09.459Z</time>
      </trkpt>
      <trkpt lat="45.71376" lon="3.8598">
        <ele>967.33575439453</ele>
        <time>2020-09-03T22:45:20.948Z</time>
      </trkpt>
      <trkpt lat="45.71444" lon="3.8597">
        <ele>967.98907470703</ele>
        <time>2020-09-03T22:45:32.448Z</time>
      </trkpt>
      <trkpt lat="45.7149" lon="3.85983">
        <ele>969.7880859375</ele>
        <time>2020-09-03T22:45:43.956Z</time>
      </trkpt>
      <trkpt lat="45.71547" lon="3.86017">
        <ele>970.53466796875</ele>
        <time>2020-09-03T22:45:55.474Z</time>
      </trkpt>
      <trkpt lat="45.71568" lon="3.86105">
        <ele>982.72180175781</ele>
        <time>2020-09-03T22:46:07.002Z</time>
      </trkpt>
      <trkpt lat="45.71587" lon="3.86145">
        <ele>988.78149414062</ele>
        <time>2020-09-03T22:46:18.536Z</time>
      </trkpt>
      <trkpt lat="45.71614" lon="3.86152">
        <ele>991.16528320312</ele>
        <time>2020-09-03T22:46:30.074Z</time>
      </trkpt>
      <trkpt lat="45.71697" lon="3.86146">
        <ele>1001.5380249023</ele>
        <time>2020-09-03T22:46:41.625Z</time>
      </trkpt>
      <trkpt lat="45.71697" lon="3.86146">
        <ele>1001.5364990234</ele>
        <time>2020-09-03T22:46:53.176Z</time>
      </trkpt>
      <trkpt lat="45.71707" lon="3.86146">
        <ele>1003.4674072266</ele>
        <time>2020-09-03T22:47:04.729Z</time>
      </trkpt>
      <trkpt lat="45.71848" lon="3.86033">
        <ele>1022.4611206055</ele>
        <time>2020-09-03T22:47:16.308Z</time>
      </trkpt>
      <trkpt lat="45.71907" lon="3.85848">
        <ele>1019.6019897461</ele>
        <time>2020-09-03T22:47:27.910Z</time>
      </trkpt>
      <trkpt lat="45.7195" lon="3.85806">
        <ele>1018.825012207</ele>
        <time>2020-09-03T22:47:39.520Z</time>
      </trkpt>
      <trkpt lat="45.71999" lon="3.85804">
        <ele>1020.1987915039</ele>
        <time>2020-09-03T22:47:51.138Z</time>
      </trkpt>
      <trkpt lat="45.72187" lon="3.85895">
        <ele>1037.3771972656</ele>
        <time>2020-09-03T22:48:02.788Z</time>
      </trkpt>
      <trkpt lat="45.72236" lon="3.85889">
        <ele>1038.1922607422</ele>
        <time>2020-09-03T22:48:14.445Z</time>
      </trkpt>
      <trkpt lat="45.72236" lon="3.85889">
        <ele>1038.1920166016</ele>
        <time>2020-09-03T22:48:26.102Z</time>
      </trkpt>
      <trkpt lat="45.72287" lon="3.85885">
        <ele>1041.4515380859</ele>
        <time>2020-09-03T22:48:37.768Z</time>
      </trkpt>
      <trkpt lat="45.72335" lon="3.85865">
        <ele>1043.1947021484</ele>
        <time>2020-09-03T22:48:49.442Z</time>
      </trkpt>
      <trkpt lat="45.72384" lon="3.85866">
        <ele>1047.2873535156</ele>
        <time>2020-09-03T22:49:01.124Z</time>
      </trkpt>
      <trkpt lat="45.7242" lon="3.8567">
        <ele>1058.2680664062</ele>
        <time>2020-09-03T22:49:12.828Z</time>
      </trkpt>
      <trkpt lat="45.72463" lon="3.85513">
        <ele>1069.7796630859</ele>
        <time>2020-09-03T22:49:24.551Z</time>
      </trkpt>
      <trkpt lat="45.72502" lon="3.852">
        <ele>1069.3990478516</ele>
        <time>2020-09-03T22:49:36.310Z</time>
      </trkpt>
      <trkpt lat="45.7254" lon="3.85084">
        <ele>1065.9189453125</ele>
        <time>2020-09-03T22:49:48.083Z</time>
      </trkpt>
      <trkpt lat="45.7254" lon="3.85084">
        <ele>1065.9169921875</ele>
        <time>2020-09-03T22:49:59.856Z</time>
      </trkpt>
      <trkpt lat="45.72559" lon="3.85045">
        <ele>1064.1271972656</ele>
        <time>2020-09-03T22:50:11.634Z</time>
      </trkpt>
      <trkpt lat="45.72669" lon="3.8489">
        <ele>1075.5073242188</ele>
        <time>2020-09-03T22:50:23.437Z</time>
      </trkpt>
      <trkpt lat="45.72725" lon="3.84784">
        <ele>1083.4388427734</ele>
        <time>2020-09-03T22:50:35.255Z</time>
      </trkpt>
      <trkpt lat="45.72738" lon="3.84681">
        <ele>1084.0604248047</ele>
        <time>2020-09-03T22:50:47.085Z</time>
      </trkpt>
      <trkpt lat="45.72789" lon="3.8429">
        <ele>1078.2347412109</ele>
        <time>2020-09-03T22:50:58.959Z</time>
      </trkpt>
      <trkpt lat="45.72789" lon="3.8429">
        <ele>1078.2329101562</ele>
        <time>2020-09-03T22:51:10.833Z</time>
      </trkpt>
      <trkpt lat="45.72866" lon="3.84177">
        <ele>1078.5258789062</ele>
        <time>2020-09-03T22:51:22.725Z</time>
      </trkpt>
      <trkpt lat="45.72866" lon="3.84177">
        <ele>1078.5241699219</ele>
        <time>2020-09-03T22:51:34.617Z</time>
      </trkpt>
      <trkpt lat="45.7288" lon="3.84157">
        <ele>1080.3139648438</ele>
        <time>2020-09-03T22:51:46.512Z</time>
      </trkpt>
      <trkpt lat="45.72922" lon="3.84048">
        <ele>1077.92578125</ele>
        <time>2020-09-03T22:51:58.421Z</time>
      </trkpt>
      <trkpt lat="45.73" lon="3.83975">
        <ele>1076.6763916016</ele>
        <time>2020-09-03T22:52:10.345Z</time>
      </trkpt>
      <trkpt lat="45.73115" lon="3.83949">
        <ele>1084.6579589844</ele>
        <time>2020-09-03T22:52:22.288Z</time>
      </trkpt>
      <trkpt lat="45.73162" lon="3.83902">
        <ele>1086.9456787109</ele>
        <time>2020-09-03T22:52:34.240Z</time>
      </trkpt>
      <trkpt lat="45.73203" lon="3.83832">
        <ele>1089.0830078125</ele>
        <time>2020-09-03T22:52:46.202Z</time>
      </trkpt>
      <trkpt lat="45.73203" lon="3.83832">
        <ele>1089.0816650391</ele>
        <time>2020-09-03T22:52:58.164Z</time>
      </trkpt>
      <trkpt lat="45.7324" lon="3.83743">
        <ele>1090.5476074219</ele>
        <time>2020-09-03T22:53:10.138Z</time>
      </trkpt>
      <trkpt lat="45.7331" lon="3.83633">
        <ele>1091.9862060547</ele>
        <time>2020-09-03T22:53:22.128Z</time>
      </trkpt>
      <trkpt lat="45.7331" lon="3.83633">
        <ele>1091.984375</ele>
        <time>2020-09-03T22:53:34.118Z</time>
      </trkpt>
      <trkpt lat="45.73322" lon="3.83619">
        <ele>1092.9833984375</ele>
        <time>2020-09-03T22:53:46.111Z</time>
      </trkpt>
      <trkpt lat="45.73322" lon="3.83619">
        <ele>1092.9819335938</ele>
        <time>2020-09-03T22:53:58.104Z</time>
      </trkpt>
      <trkpt lat="45.73404" lon="3.83508">
        <ele>1091.9086914062</ele>
        <time>2020-09-03T22:54:10.115Z</time>
      </trkpt>
      <trkpt lat="45.73539" lon="3.83377">
        <ele>1099.5041503906</ele>
        <time>2020-09-03T22:54:22.152Z</time>
      </trkpt>
      <trkpt lat="45.73539" lon="3.83377">
        <ele>1099.5030517578</ele>
        <time>2020-09-03T22:54:34.189Z</time>
      </trkpt>
      <trkpt lat="45.73646" lon="3.83244">
        <ele>1099.1622314453</ele>
        <time>2020-09-03T22:54:46.249Z</time>
      </trkpt>
      <trkpt lat="45.7377" lon="3.83119">
        <ele>1106.3712158203</ele>
        <time>2020-09-03T22:54:58.333Z</time>
      </trkpt>
      <trkpt lat="45.73832" lon="3.83019">
        <ele>1115.2523193359</ele>
        <time>2020-09-03T22:55:10.432Z</time>
      </trkpt>
      <trkpt lat="45.73841" lon="3.82947">
        <ele>1125.9312744141</ele>
        <time>2020-09-03T22:55:22.539Z</time>
      </trkpt>
      <trkpt lat="45.73785" lon="3.82852">
        <ele>1131.7131347656</ele>
        <time>2020-09-03T22:55:34.660Z</time>
      </trkpt>
      <trkpt lat="45.73717" lon="3.82771">
        <ele>1134.7360839844</ele>
        <time>2020-09-03T22:55:46.795Z</time>
      </trkpt>
      <trkpt lat="45.73699" lon="3.82679">
        <ele>1129.7884521484</ele>
        <time>2020-09-03T22:55:58.941Z</time>
      </trkpt>
      <trkpt lat="45.73687" lon="3.82579">
        <ele>1127.0609130859</ele>
        <time>2020-09-03T22:56:11.099Z</time>
      </trkpt>
      <trkpt lat="45.73694" lon="3.82535">
        <ele>1128.8571777344</ele>
        <time>2020-09-03T22:56:23.262Z</time>
      </trkpt>
      <trkpt lat="45.73715" lon="3.82406">
        <ele>1125.2866210938</ele>
        <time>2020-09-03T22:56:35.439Z</time>
      </trkpt>
      <trkpt lat="45.73747" lon="3.82277">
        <ele>1122.3587646484</ele>
        <time>2020-09-03T22:56:47.632Z</time>
      </trkpt>
      <trkpt lat="45.73799" lon="3.82217">
        <ele>1122.3759765625</ele>
        <time>2020-09-03T22:56:59.835Z</time>
      </trkpt>
      <trkpt lat="45.73891" lon="3.82133">
        <ele>1127.9366455078</ele>
        <time>2020-09-03T22:57:12.056Z</time>
      </trkpt>
      <trkpt lat="45.7401" lon="3.81985">
        <ele>1135.9063720703</ele>
        <time>2020-09-03T22:57:24.302Z</time>
      </trkpt>
      <trkpt lat="45.7401" lon="3.81985">
        <ele>1135.9044189453</ele>
        <time>2020-09-03T22:57:36.548Z</time>
      </trkpt>
      <trkpt lat="45.74024" lon="3.81955">
        <ele>1138.0268554688</ele>
        <time>2020-09-03T22:57:48.798Z</time>
      </trkpt>
      <trkpt lat="45.74074" lon="3.81848">
        <ele>1142.4794921875</ele>
        <time>2020-09-03T22:58:01.063Z</time>
      </trkpt>
      <trkpt lat="45.74074" lon="3.81848">
        <ele>1142.4777832031</ele>
        <time>2020-09-03T22:58:13.328Z</time>
      </trkpt>
      <trkpt lat="45.74156" lon="3.81655">
        <ele>1144.0592041016</ele>
        <time>2020-09-03T22:58:25.618Z</time>
      </trkpt>
      <trkpt lat="45.74268" lon="3.81589">
        <ele>1139.7053222656</ele>
        <time>2020-09-03T22:58:37.927Z</time>
      </trkpt>
      <trkpt lat="45.74408" lon="3.8145">
        <ele>1141.509765625</ele>
        <time>2020-09-03T22:58:50.264Z</time>
      </trkpt>
      <trkpt lat="45.74418" lon="3.81431">
        <ele>1141.4283447266</ele>
        <time>2020-09-03T22:59:02.603Z</time>
      </trkpt>
      <trkpt lat="45.74418" lon="3.81431">
        <ele>1141.4273681641</ele>
        <time>2020-09-03T22:59:14.942Z</time>
      </trkpt>
      <trkpt lat="45.74445" lon="3.8138">
        <ele>1142.4350585938</ele>
        <time>2020-09-03T22:59:27.288Z</time>
      </trkpt>
      <trkpt lat="45.74464" lon="3.81324">
        <ele>1146.1394042969</ele>
        <time>2020-09-03T22:59:39.641Z</time>
      </trkpt>
      <trkpt lat="45.74465" lon="3.8129">
        <ele>1148.6237792969</ele>
        <time>2020-09-03T22:59:51.998Z</time>
      </trkpt>
      <trkpt lat="45.74444" lon="3.81258">
        <ele>1152.3889160156</ele>
        <time>2020-09-03T23:00:04.360Z</time>
      </trkpt>
      <trkpt lat="45.74406" lon="3.81251">
        <ele>1153.1613769531</ele>
        <time>2020-09-03T23:00:16.728Z</time>
      </trkpt>
      <trkpt lat="45.74406" lon="3.81251">
        <ele>1153.1612548828</ele>
        <time>2020-09-03T23:00:29.096Z</time>
      </trkpt>
      <trkpt lat="45.74357" lon="3.8122">
        <ele>1153.8493652344</ele>
        <time>2020-09-03T23:00:41.473Z</time>
      </trkpt>
      <trkpt lat="45.74288" lon="3.8108">
        <ele>1163.8100585938</ele>
        <time>2020-09-03T23:00:53.869Z</time>
      </trkpt>
      <trkpt lat="45.74275" lon="3.81068">
        <ele>1163.7728271484</ele>
        <time>2020-09-03T23:01:06.268Z</time>
      </trkpt>
      <trkpt lat="45.74275" lon="3.81068">
        <ele>1163.7713623047</ele>
        <time>2020-09-03T23:01:18.667Z</time>
      </trkpt>
      <trkpt lat="45.74182" lon="3.80978">
        <ele>1162.1243896484</ele>
        <time>2020-09-03T23:01:31.083Z</time>
      </trkpt>
      <trkpt lat="45.74156" lon="3.80845">
        <ele>1171.0185546875</ele>
        <time>2020-09-03T23:01:43.515Z</time>
      </trkpt>
      <trkpt lat="45.74146" lon="3.80774">
        <ele>1174.8413085938</ele>
        <time>2020-09-03T23:01:55.955Z</time>
      </trkpt>
      <trkpt lat="45.7415" lon="3.80639">
        <ele>1176.4368896484</ele>
        <time>2020-09-03T23:02:08.410Z</time>
      </trkpt>
      <trkpt lat="45.74172" lon="3.80559">
        <ele>1176.5157470703</ele>
        <time>2020-09-03T23:02:20.875Z</time>
      </trkpt>
      <trkpt lat="45.74197" lon="3.80505">
        <ele>1176.3892822266</ele>
        <time>2020-09-03T23:02:33.347Z</time>
      </trkpt>
      <trkpt lat="45.74278" lon="3.80361">
        <ele>1179.4968261719</ele>
        <time>2020-09-03T23:02:45.840Z</time>
      </trkpt>
      <trkpt lat="45.74339" lon="3.80236">
        <ele>1190.4942626953</ele>
        <time>2020-09-03T23:02:58.350Z</time>
      </trkpt>
      <trkpt lat="45.74352" lon="3.80109">
        <ele>1196.9871826172</ele>
        <time>2020-09-03T23:03:10.874Z</time>
      </trkpt>
      <trkpt lat="45.74349" lon="3.80051">
        <ele>1201.4187011719</ele>
        <time>2020-09-03T23:03:23.405Z</time>
      </trkpt>
      <trkpt lat="45.74334" lon="3.8003">
        <ele>1200.7750244141</ele>
        <time>2020-09-03T23:03:35.939Z</time>
      </trkpt>
      <trkpt lat="45.74271" lon="3.80011">
        <ele>1196.8035888672</ele>
        <time>2020-09-03T23:03:48.483Z</time>
      </trkpt>
      <trkpt lat="45.74237" lon="3.79936">
        <ele>1200.3742675781</ele>
        <time>2020-09-03T23:04:01.037Z</time>
      </trkpt>
      <trkpt lat="45.74234" lon="3.79876">
        <ele>1200.1047363281</ele>
        <time>2020-09-03T23:04:13.598Z</time>
      </trkpt>
      <trkpt lat="45.74277" lon="3.79784">
        <ele>1205.2739257812</ele>
        <time>2020-09-03T23:04:26.171Z</time>
      </trkpt>
      <trkpt lat="45.74277" lon="3.79784">
        <ele>1205.2725830078</ele>
        <time>2020-09-03T23:04:38.744Z</time>
      </trkpt>
      <trkpt lat="45.74486" lon="3.79337">
        <ele>1224.4438476562</ele>
        <time>2020-09-03T23:04:51.378Z</time>
      </trkpt>
      <trkpt lat="45.745" lon="3.79276">
        <ele>1227.3516845703</ele>
        <time>2020-09-03T23:05:04.019Z</time>
      </trkpt>
      <trkpt lat="45.74462" lon="3.7897">
        <ele>1237.4758300781</ele>
        <time>2020-09-03T23:05:16.695Z</time>
      </trkpt>
      <trkpt lat="45.74462" lon="3.7897">
        <ele>1237.474609375</ele>
        <time>2020-09-03T23:05:29.371Z</time>
      </trkpt>
      <trkpt lat="45.74439" lon="3.78873">
        <ele>1244.6271972656</ele>
        <time>2020-09-03T23:05:42.058Z</time>
      </trkpt>
      <trkpt lat="45.74377" lon="3.78816">
        <ele>1243.052734375</ele>
        <time>2020-09-03T23:05:54.757Z</time>
      </trkpt>
      <trkpt lat="45.7434" lon="3.78698">
        <ele>1248.4090576172</ele>
        <time>2020-09-03T23:06:07.471Z</time>
      </trkpt>
      <trkpt lat="45.74334" lon="3.78444">
        <ele>1258.1884765625</ele>
        <time>2020-09-03T23:06:20.213Z</time>
      </trkpt>
      <trkpt lat="45.74315" lon="3.78356">
        <ele>1258.4053955078</ele>
        <time>2020-09-03T23:06:32.965Z</time>
      </trkpt>
      <trkpt lat="45.74302" lon="3.7822">
        <ele>1259.2321777344</ele>
        <time>2020-09-03T23:06:45.733Z</time>
      </trkpt>
      <trkpt lat="45.74259" lon="3.77999">
        <ele>1254.7742919922</ele>
        <time>2020-09-03T23:06:58.526Z</time>
      </trkpt>
      <trkpt lat="45.74259" lon="3.77971">
        <ele>1255.5863037109</ele>
        <time>2020-09-03T23:07:11.323Z</time>
      </trkpt>
      <trkpt lat="45.74266" lon="3.77939">
        <ele>1253.4494628906</ele>
        <time>2020-09-03T23:07:24.123Z</time>
      </trkpt>
      <trkpt lat="45.74293" lon="3.77906">
        <ele>1251.1804199219</ele>
        <time>2020-09-03T23:07:36.929Z</time>
      </trkpt>
      <trkpt lat="45.74381" lon="3.77856">
        <ele>1248.8854980469</ele>
        <time>2020-09-03T23:07:49.750Z</time>
      </trkpt>
      <trkpt lat="45.74469" lon="3.77816">
        <ele>1242.2263183594</ele>
        <time>2020-09-03T23:08:02.586Z</time>
      </trkpt>
      <trkpt lat="45.74544" lon="3.77803">
        <ele>1235.4764404297</ele>
        <time>2020-09-03T23:08:15.434Z</time>
      </trkpt>
      <trkpt lat="45.74666" lon="3.77825">
        <ele>1229.8565673828</ele>
        <time>2020-09-03T23:08:28.302Z</time>
      </trkpt>
      <trkpt lat="45.74707" lon="3.77812">
        <ele>1223.6934814453</ele>
        <time>2020-09-03T23:08:41.176Z</time>
      </trkpt>
      <trkpt lat="45.74755" lon="3.7781">
        <ele>1216.3360595703</ele>
        <time>2020-09-03T23:08:54.058Z</time>
      </trkpt>
      <trkpt lat="45.74797" lon="3.77825">
        <ele>1214.6181640625</ele>
        <time>2020-09-03T23:09:06.947Z</time>
      </trkpt>
      <trkpt lat="45.74909" lon="3.779">
        <ele>1209.7095947266</ele>
        <time>2020-09-03T23:09:19.856Z</time>
      </trkpt>
      <trkpt lat="45.75065" lon="3.77997">
        <ele>1205.5776367188</ele>
        <time>2020-09-03T23:09:32.792Z</time>
      </trkpt>
      <trkpt lat="45.75094" lon="3.77992">
        <ele>1204.6251220703</ele>
        <time>2020-09-03T23:09:45.733Z</time>
      </trkpt>
      <trkpt lat="45.75117" lon="3.77953">
        <ele>1202.798828125</ele>
        <time>2020-09-03T23:09:58.679Z</time>
      </trkpt>
      <trkpt lat="45.75206" lon="3.77771">
        <ele>1197.4224853516</ele>
        <time>2020-09-03T23:10:11.650Z</time>
      </trkpt>
      <trkpt lat="45.75433" lon="3.77405">
        <ele>1179.4504394531</ele>
        <time>2020-09-03T23:10:24.676Z</time>
      </trkpt>
      <trkpt lat="45.75566" lon="3.77128">
        <ele>1155.3625488281</ele>
        <time>2020-09-03T23:10:37.740Z</time>
      </trkpt>
      <trkpt lat="45.75566" lon="3.77128">
        <ele>1155.3641357422</ele>
        <time>2020-09-03T23:10:50.804Z</time>
      </trkpt>
      <trkpt lat="45.75601" lon="3.77054">
        <ele>1151.3078613281</ele>
        <time>2020-09-03T23:11:03.878Z</time>
      </trkpt>
      <trkpt lat="45.75613" lon="3.77012">
        <ele>1148.2990722656</ele>
        <time>2020-09-03T23:11:16.957Z</time>
      </trkpt>
      <trkpt lat="45.75613" lon="3.77012">
        <ele>1148.2984619141</ele>
        <time>2020-09-03T23:11:30.036Z</time>
      </trkpt>
      <trkpt lat="45.75623" lon="3.76953">
        <ele>1145.2911376953</ele>
        <time>2020-09-03T23:11:43.122Z</time>
      </trkpt>
      <trkpt lat="45.75634" lon="3.76933">
        <ele>1143.8265380859</ele>
        <time>2020-09-03T23:11:56.211Z</time>
      </trkpt>
      <trkpt lat="45.75574" lon="3.76808">
        <ele>1133.7818603516</ele>
        <time>2020-09-03T23:12:09.317Z</time>
      </trkpt>
      <trkpt lat="45.75539" lon="3.7679">
        <ele>1132.2302246094</ele>
        <time>2020-09-03T23:12:22.429Z</time>
      </trkpt>
      <trkpt lat="45.75504" lon="3.76766">
        <ele>1126.9986572266</ele>
        <time>2020-09-03T23:12:35.547Z</time>
      </trkpt>
      <trkpt lat="45.75477" lon="3.76702">
        <ele>1118.8760986328</ele>
        <time>2020-09-03T23:12:48.673Z</time>
      </trkpt>
      <trkpt lat="45.75495" lon="3.76661">
        <ele>1113.3947753906</ele>
        <time>2020-09-03T23:13:01.804Z</time>
      </trkpt>
      <trkpt lat="45.75514" lon="3.76644">
        <ele>1111.2000732422</ele>
        <time>2020-09-03T23:13:14.939Z</time>
      </trkpt>
      <trkpt lat="45.75566" lon="3.76624">
        <ele>1106.4685058594</ele>
        <time>2020-09-03T23:13:28.083Z</time>
      </trkpt>
      <trkpt lat="45.75612" lon="3.76582">
        <ele>1102.5465087891</ele>
        <time>2020-09-03T23:13:41.235Z</time>
      </trkpt>
      <trkpt lat="45.75716" lon="3.76561">
        <ele>1096.3887939453</ele>
        <time>2020-09-03T23:13:54.404Z</time>
      </trkpt>
      <trkpt lat="45.75716" lon="3.76561">
        <ele>1096.3897705078</ele>
        <time>2020-09-03T23:14:07.573Z</time>
      </trkpt>
      <trkpt lat="45.75734" lon="3.76555">
        <ele>1094.6723632812</ele>
        <time>2020-09-03T23:14:20.745Z</time>
      </trkpt>
      <trkpt lat="45.7574" lon="3.76542">
        <ele>1093.1276855469</ele>
        <time>2020-09-03T23:14:33.919Z</time>
      </trkpt>
      <trkpt lat="45.75749" lon="3.76499">
        <ele>1093.3344726562</ele>
        <time>2020-09-03T23:14:47.098Z</time>
      </trkpt>
      <trkpt lat="45.75747" lon="3.76481">
        <ele>1093.2315673828</ele>
        <time>2020-09-03T23:15:00.279Z</time>
      </trkpt>
      <trkpt lat="45.75653" lon="3.76213">
        <ele>1093.6468505859</ele>
        <time>2020-09-03T23:15:13.494Z</time>
      </trkpt>
      <trkpt lat="45.75646" lon="3.76176">
        <ele>1093.90625</ele>
        <time>2020-09-03T23:15:26.713Z</time>
      </trkpt>
      <trkpt lat="45.75617" lon="3.76108">
        <ele>1089.8774414062</ele>
        <time>2020-09-03T23:15:39.941Z</time>
      </trkpt>
      <trkpt lat="45.75621" lon="3.75994">
        <ele>1099.2694091797</ele>
        <time>2020-09-03T23:15:53.182Z</time>
      </trkpt>
      <trkpt lat="45.75617" lon="3.75942">
        <ele>1104.0322265625</ele>
        <time>2020-09-03T23:16:06.428Z</time>
      </trkpt>
      <trkpt lat="45.7557" lon="3.75869">
        <ele>1091.6239013672</ele>
        <time>2020-09-03T23:16:19.686Z</time>
      </trkpt>
      <trkpt lat="45.75557" lon="3.75824">
        <ele>1089.2683105469</ele>
        <time>2020-09-03T23:16:32.949Z</time>
      </trkpt>
      <trkpt lat="45.75559" lon="3.75784">
        <ele>1091.8685302734</ele>
        <time>2020-09-03T23:16:46.217Z</time>
      </trkpt>
      <trkpt lat="45.75546" lon="3.7573">
        <ele>1089.5026855469</ele>
        <time>2020-09-03T23:16:59.491Z</time>
      </trkpt>
      <trkpt lat="45.75547" lon="3.7568">
        <ele>1090.0721435547</ele>
        <time>2020-09-03T23:17:12.771Z</time>
      </trkpt>
      <trkpt lat="45.75556" lon="3.75635">
        <ele>1089.8792724609</ele>
        <time>2020-09-03T23:17:26.056Z</time>
      </trkpt>
      <trkpt lat="45.75581" lon="3.75572">
        <ele>1095.8125</ele>
        <time>2020-09-03T23:17:39.349Z</time>
      </trkpt>
      <trkpt lat="45.75606" lon="3.75509">
        <ele>1103.5712890625</ele>
        <time>2020-09-03T23:17:52.650Z</time>
      </trkpt>
      <trkpt lat="45.7561" lon="3.7548">
        <ele>1109.1429443359</ele>
        <time>2020-09-03T23:18:05.954Z</time>
      </trkpt>
      <trkpt lat="45.75598" lon="3.75449">
        <ele>1110.2113037109</ele>
        <time>2020-09-03T23:18:19.262Z</time>
      </trkpt>
      <trkpt lat="45.7556" lon="3.75414">
        <ele>1108.9649658203</ele>
        <time>2020-09-03T23:18:32.578Z</time>
      </trkpt>
      <trkpt lat="45.75545" lon="3.75387">
        <ele>1109.1766357422</ele>
        <time>2020-09-03T23:18:45.897Z</time>
      </trkpt>
      <trkpt lat="45.75536" lon="3.75354">
        <ele>1110.7858886719</ele>
        <time>2020-09-03T23:18:59.220Z</time>
      </trkpt>
      <trkpt lat="45.75541" lon="3.75275">
        <ele>1107.9604492188</ele>
        <time>2020-09-03T23:19:12.552Z</time>
      </trkpt>
      <trkpt lat="45.75558" lon="3.75227">
        <ele>1104.0428466797</ele>
        <time>2020-09-03T23:19:25.890Z</time>
      </trkpt>
      <trkpt lat="45.75574" lon="3.75205">
        <ele>1102.7222900391</ele>
        <time>2020-09-03T23:19:39.232Z</time>
      </trkpt>
      <trkpt lat="45.75606" lon="3.75182">
        <ele>1103.1148681641</ele>
        <time>2020-09-03T23:19:52.580Z</time>
      </trkpt>
      <trkpt lat="45.75634" lon="3.75178">
        <ele>1104.8278808594</ele>
        <time>2020-09-03T23:20:05.932Z</time>
      </trkpt>
      <trkpt lat="45.7574" lon="3.75197">
        <ele>1117.6749267578</ele>
        <time>2020-09-03T23:20:19.301Z</time>
      </trkpt>
      <trkpt lat="45.75797" lon="3.75181">
        <ele>1121.0339355469</ele>
        <time>2020-09-03T23:20:32.679Z</time>
      </trkpt>
      <trkpt lat="45.75797" lon="3.75181">
        <ele>1121.0330810547</ele>
        <time>2020-09-03T23:20:46.057Z</time>
      </trkpt>
      <trkpt lat="45.75857" lon="3.75142">
        <ele>1128.9143066406</ele>
        <time>2020-09-03T23:20:59.446Z</time>
      </trkpt>
      <trkpt lat="45.75884" lon="3.75111">
        <ele>1128.5152587891</ele>
        <time>2020-09-03T23:21:12.841Z</time>
      </trkpt>
      <trkpt lat="45.75924" lon="3.75051">
        <ele>1135.2497558594</ele>
        <time>2020-09-03T23:21:26.245Z</time>
      </trkpt>
      <trkpt lat="45.75933" lon="3.75009">
        <ele>1136.1105957031</ele>
        <time>2020-09-03T23:21:39.654Z</time>
      </trkpt>
      <trkpt lat="45.75924" lon="3.74984">
        <ele>1138.1573486328</ele>
        <time>2020-09-03T23:21:53.066Z</time>
      </trkpt>
      <trkpt lat="45.75873" lon="3.74954">
        <ele>1132.9041748047</ele>
        <time>2020-09-03T23:22:06.487Z</time>
      </trkpt>
      <trkpt lat="45.75828" lon="3.74911">
        <ele>1130.5200195312</ele>
        <time>2020-09-03T23:22:19.916Z</time>
      </trkpt>
      <trkpt lat="45.75806" lon="3.74878">
        <ele>1130.3269042969</ele>
        <time>2020-09-03T23:22:33.351Z</time>
      </trkpt>
      <trkpt lat="45.75786" lon="3.7481">
        <ele>1132.6281738281</ele>
        <time>2020-09-03T23:22:46.794Z</time>
      </trkpt>
      <trkpt lat="45.7575" lon="3.74744">
        <ele>1127.9013671875</ele>
        <time>2020-09-03T23:23:00.246Z</time>
      </trkpt>
      <trkpt lat="45.75743" lon="3.74642">
        <ele>1130.0893554688</ele>
        <time>2020-09-03T23:23:13.710Z</time>
      </trkpt>
      <trkpt lat="45.75735" lon="3.74623">
        <ele>1129.1883544922</ele>
        <time>2020-09-03T23:23:27.176Z</time>
      </trkpt>
      <trkpt lat="45.75681" lon="3.74572">
        <ele>1126.6950683594</ele>
        <time>2020-09-03T23:23:40.653Z</time>
      </trkpt>
      <trkpt lat="45.75668" lon="3.74508">
        <ele>1133.4002685547</ele>
        <time>2020-09-03T23:23:54.137Z</time>
      </trkpt>
      <trkpt lat="45.75663" lon="3.74466">
        <ele>1137.2093505859</ele>
        <time>2020-09-03T23:24:07.626Z</time>
      </trkpt>
      <trkpt lat="45.75637" lon="3.74398">
        <ele>1140.2331542969</ele>
        <time>2020-09-03T23:24:21.123Z</time>
      </trkpt>
      <trkpt lat="45.75624" lon="3.74322">
        <ele>1146.7243652344</ele>
        <time>2020-09-03T23:24:34.629Z</time>
      </trkpt>
      <trkpt lat="45.75593" lon="3.7424">
        <ele>1153.0606689453</ele>
        <time>2020-09-03T23:24:48.146Z</time>
      </trkpt>
      <trkpt lat="45.75498" lon="3.74044">
        <ele>1158.8234863281</ele>
        <time>2020-09-03T23:25:01.689Z</time>
      </trkpt>
      <trkpt lat="45.75488" lon="3.74008">
        <ele>1159.0852050781</ele>
        <time>2020-09-03T23:25:15.237Z</time>
      </trkpt>
      <trkpt lat="45.7549" lon="3.73946">
        <ele>1158.1138916016</ele>
        <time>2020-09-03T23:25:28.792Z</time>
      </trkpt>
      <trkpt lat="45.75511" lon="3.73892">
        <ele>1156.2734375</ele>
        <time>2020-09-03T23:25:42.353Z</time>
      </trkpt>
      <trkpt lat="45.75636" lon="3.73751">
        <ele>1152.5981445312</ele>
        <time>2020-09-03T23:25:55.940Z</time>
      </trkpt>
      <trkpt lat="45.75856" lon="3.73568">
        <ele>1150.3797607422</ele>
        <time>2020-09-03T23:26:09.568Z</time>
      </trkpt>
      <trkpt lat="45.759" lon="3.73511">
        <ele>1143.5054931641</ele>
        <time>2020-09-03T23:26:23.205Z</time>
      </trkpt>
      <trkpt lat="45.75928" lon="3.73489">
        <ele>1140.3903808594</ele>
        <time>2020-09-03T23:26:36.847Z</time>
      </trkpt>
      <trkpt lat="45.75971" lon="3.73478">
        <ele>1140.88671875</ele>
        <time>2020-09-03T23:26:50.496Z</time>
      </trkpt>
      <trkpt lat="45.76028" lon="3.73492">
        <ele>1137.7947998047</ele>
        <time>2020-09-03T23:27:04.155Z</time>
      </trkpt>
      <trkpt lat="45.7608" lon="3.73516">
        <ele>1137.3359375</ele>
        <time>2020-09-03T23:27:17.822Z</time>
      </trkpt>
      <trkpt lat="45.76188" lon="3.73591">
        <ele>1141.1375732422</ele>
        <time>2020-09-03T23:27:31.509Z</time>
      </trkpt>
      <trkpt lat="45.76298" lon="3.73639">
        <ele>1142.3836669922</ele>
        <time>2020-09-03T23:27:45.214Z</time>
      </trkpt>
      <trkpt lat="45.76394" lon="3.73733">
        <ele>1152.8365478516</ele>
        <time>2020-09-03T23:27:58.938Z</time>
      </trkpt>
      <trkpt lat="45.76513" lon="3.7385">
        <ele>1164.4665527344</ele>
        <time>2020-09-03T23:28:12.685Z</time>
      </trkpt>
      <trkpt lat="45.76562" lon="3.73881">
        <ele>1166.5577392578</ele>
        <time>2020-09-03T23:28:26.440Z</time>
      </trkpt>
      <trkpt lat="45.76641" lon="3.73955">
        <ele>1172.8752441406</ele>
        <time>2020-09-03T23:28:40.211Z</time>
      </trkpt>
      <trkpt lat="45.76663" lon="3.73969">
        <ele>1173.8020019531</ele>
        <time>2020-09-03T23:28:53.985Z</time>
      </trkpt>
      <trkpt lat="45.76736" lon="3.73986">
        <ele>1175.919921875</ele>
        <time>2020-09-03T23:29:07.771Z</time>
      </trkpt>
      <trkpt lat="45.76798" lon="3.74074">
        <ele>1177.9228515625</ele>
        <time>2020-09-03T23:29:21.571Z</time>
      </trkpt>
      <trkpt lat="45.76826" lon="3.74096">
        <ele>1176.4545898438</ele>
        <time>2020-09-03T23:29:35.376Z</time>
      </trkpt>
      <trkpt lat="45.76854" lon="3.74107">
        <ele>1174.3032226562</ele>
        <time>2020-09-03T23:29:49.186Z</time>
      </trkpt>
      <trkpt lat="45.76884" lon="3.74107">
        <ele>1172.140625</ele>
        <time>2020-09-03T23:30:03.001Z</time>
      </trkpt>
      <trkpt lat="45.76966" lon="3.74037">
        <ele>1169.0769042969</ele>
        <time>2020-09-03T23:30:16.831Z</time>
      </trkpt>
      <trkpt lat="45.77005" lon="3.74015">
        <ele>1165.8131103516</ele>
        <time>2020-09-03T23:30:30.668Z</time>
      </trkpt>
      <trkpt lat="45.77038" lon="3.74016">
        <ele>1162.6077880859</ele>
        <time>2020-09-03T23:30:44.510Z</time>
      </trkpt>
      <trkpt lat="45.77064" lon="3.74039">
        <ele>1159.6225585938</ele>
        <time>2020-09-03T23:30:58.357Z</time>
      </trkpt>
      <trkpt lat="45.77079" lon="3.74044">
        <ele>1157.8264160156</ele>
        <time>2020-09-03T23:31:12.206Z</time>
      </trkpt>
      <trkpt lat="45.77178" lon="3.74026">
        <ele>1149.5673828125</ele>
        <time>2020-09-03T23:31:26.071Z</time>
      </trkpt>
      <trkpt lat="45.77207" lon="3.74013">
        <ele>1146.9422607422</ele>
        <time>2020-09-03T23:31:39.941Z</time>
      </trkpt>
      <trkpt lat="45.77228" lon="3.73994">
        <ele>1144.7841796875</ele>
        <time>2020-09-03T23:31:53.815Z</time>
      </trkpt>
      <trkpt lat="45.77273" lon="3.73928">
        <ele>1138.8699951172</ele>
        <time>2020-09-03T23:32:07.700Z</time>
      </trkpt>
      <trkpt lat="45.77286" lon="3.73896">
        <ele>1137.9815673828</ele>
        <time>2020-09-03T23:32:21.589Z</time>
      </trkpt>
      <trkpt lat="45.77301" lon="3.73815">
        <ele>1141.4182128906</ele>
        <time>2020-09-03T23:32:35.487Z</time>
      </trkpt>
      <trkpt lat="45.77323" lon="3.73798">
        <ele>1142.2651367188</ele>
        <time>2020-09-03T23:32:49.389Z</time>
      </trkpt>
      <trkpt lat="45.77357" lon="3.73806">
        <ele>1142.4969482422</ele>
        <time>2020-09-03T23:33:03.297Z</time>
      </trkpt>
      <trkpt lat="45.77454" lon="3.73874">
        <ele>1136.1206054688</ele>
        <time>2020-09-03T23:33:17.222Z</time>
      </trkpt>
      <trkpt lat="45.77603" lon="3.73934">
        <ele>1123.8509521484</ele>
        <time>2020-09-03T23:33:31.172Z</time>
      </trkpt>
      <trkpt lat="45.77688" lon="3.74041">
        <ele>1110.8403320312</ele>
        <time>2020-09-03T23:33:45.140Z</time>
      </trkpt>
      <trkpt lat="45.77717" lon="3.74047">
        <ele>1109.025390625</ele>
        <time>2020-09-03T23:33:59.112Z</time>
      </trkpt>
      <trkpt lat="45.77763" lon="3.74033">
        <ele>1106.0668945312</ele>
        <time>2020-09-03T23:34:13.092Z</time>
      </trkpt>
      <trkpt lat="45.77847" lon="3.74031">
        <ele>1094.9768066406</ele>
        <time>2020-09-03T23:34:27.085Z</time>
      </trkpt>
      <trkpt lat="45.77861" lon="3.74023">
        <ele>1093.2647705078</ele>
        <time>2020-09-03T23:34:41.081Z</time>
      </trkpt>
      <trkpt lat="45.77896" lon="3.7398">
        <ele>1088.2294921875</ele>
        <time>2020-09-03T23:34:55.084Z</time>
      </trkpt>
      <trkpt lat="45.77926" lon="3.73889">
        <ele>1087.7653808594</ele>
        <time>2020-09-03T23:35:09.098Z</time>
      </trkpt>
      <trkpt lat="45.77975" lon="3.73821">
        <ele>1086.5498046875</ele>
        <time>2020-09-03T23:35:23.123Z</time>
      </trkpt>
      <trkpt lat="45.78234" lon="3.73686">
        <ele>1071.6123046875</ele>
        <time>2020-09-03T23:35:37.192Z</time>
      </trkpt>
      <trkpt lat="45.78266" lon="3.73659">
        <ele>1072.1271972656</ele>
        <time>2020-09-03T23:35:51.268Z</time>
      </trkpt>
      <trkpt lat="45.78287" lon="3.73656">
        <ele>1071.4835205078</ele>
        <time>2020-09-03T23:36:05.347Z</time>
      </trkpt>
      <trkpt lat="45.78299" lon="3.73667">
        <ele>1070.4151611328</ele>
        <time>2020-09-03T23:36:19.428Z</time>
      </trkpt>
      <trkpt lat="45.78321" lon="3.73724">
        <ele>1065.6661376953</ele>
        <time>2020-09-03T23:36:33.516Z</time>
      </trkpt>
      <trkpt lat="45.78338" lon="3.73751">
        <ele>1063.2976074219</ele>
        <time>2020-09-03T23:36:47.608Z</time>
      </trkpt>
      <trkpt lat="45.78363" lon="3.73776">
        <ele>1061.0633544922</ele>
        <time>2020-09-03T23:37:01.705Z</time>
      </trkpt>
      <trkpt lat="45.78397" lon="3.73793">
        <ele>1058.7855224609</ele>
        <time>2020-09-03T23:37:15.808Z</time>
      </trkpt>
      <trkpt lat="45.78532" lon="3.73817">
        <ele>1048.4348144531</ele>
        <time>2020-09-03T23:37:29.933Z</time>
      </trkpt>
      <trkpt lat="45.7858" lon="3.7381">
        <ele>1044.9445800781</ele>
        <time>2020-09-03T23:37:44.066Z</time>
      </trkpt>
      <trkpt lat="45.78679" lon="3.73767">
        <ele>1041.4730224609</ele>
        <time>2020-09-03T23:37:58.215Z</time>
      </trkpt>
      <trkpt lat="45.78733" lon="3.73723">
        <ele>1042.6690673828</ele>
        <time>2020-09-03T23:38:12.374Z</time>
      </trkpt>
      <trkpt lat="45.78733" lon="3.73723">
        <ele>1042.669921875</ele>
        <time>2020-09-03T23:38:26.533Z</time>
      </trkpt>
      <trkpt lat="45.78751" lon="3.73712">
        <ele>1041.9464111328</ele>
        <time>2020-09-03T23:38:40.695Z</time>
      </trkpt>
      <trkpt lat="45.78762" lon="3.73717">
        <ele>1040.0155029297</ele>
        <time>2020-09-03T23:38:54.859Z</time>
      </trkpt>
      <trkpt lat="45.78768" lon="3.73726">
        <ele>1038.4322509766</ele>
        <time>2020-09-03T23:39:09.025Z</time>
      </trkpt>
      <trkpt lat="45.7877" lon="3.73761">
        <ele>1034.5603027344</ele>
        <time>2020-09-03T23:39:23.194Z</time>
      </trkpt>
      <trkpt lat="45.78748" lon="3.73939">
        <ele>1025.3121337891</ele>
        <time>2020-09-03T23:39:37.384Z</time>
      </trkpt>
      <trkpt lat="45.78701" lon="3.74088">
        <ele>1023.2304077148</ele>
        <time>2020-09-03T23:39:51.592Z</time>
      </trkpt>
      <trkpt lat="45.78703" lon="3.74159">
        <ele>1021.7790527344</ele>
        <time>2020-09-03T23:40:05.808Z</time>
      </trkpt>
      <trkpt lat="45.7871" lon="3.74195">
        <ele>1020.2091064453</ele>
        <time>2020-09-03T23:40:20.028Z</time>
      </trkpt>
      <trkpt lat="45.78731" lon="3.74241">
        <ele>1017.0296020508</ele>
        <time>2020-09-03T23:40:34.254Z</time>
      </trkpt>
      <trkpt lat="45.78817" lon="3.74306">
        <ele>1013.0562133789</ele>
        <time>2020-09-03T23:40:48.496Z</time>
      </trkpt>
      <trkpt lat="45.78837" lon="3.74312">
        <ele>1011.9749755859</ele>
        <time>2020-09-03T23:41:02.741Z</time>
      </trkpt>
      <trkpt lat="45.78915" lon="3.74307">
        <ele>1007.0665893555</ele>
        <time>2020-09-03T23:41:16.999Z</time>
      </trkpt>
      <trkpt lat="45.78949" lon="3.74295">
        <ele>1004.5050048828</ele>
        <time>2020-09-03T23:41:31.262Z</time>
      </trkpt>
      <trkpt lat="45.7902" lon="3.74245">
        <ele>1001.9153442383</ele>
        <time>2020-09-03T23:41:45.538Z</time>
      </trkpt>
      <trkpt lat="45.79054" lon="3.74208">
        <ele>993.62463378906</ele>
        <time>2020-09-03T23:41:59.821Z</time>
      </trkpt>
      <trkpt lat="45.79096" lon="3.74112">
        <ele>980.39526367188</ele>
        <time>2020-09-03T23:42:14.116Z</time>
      </trkpt>
      <trkpt lat="45.79131" lon="3.73964">
        <ele>978.39660644531</ele>
        <time>2020-09-03T23:42:28.429Z</time>
      </trkpt>
      <trkpt lat="45.79175" lon="3.73916">
        <ele>977.89196777344</ele>
        <time>2020-09-03T23:42:42.751Z</time>
      </trkpt>
      <trkpt lat="45.79208" lon="3.73914">
        <ele>974.58374023438</ele>
        <time>2020-09-03T23:42:57.078Z</time>
      </trkpt>
      <trkpt lat="45.79217" lon="3.73916">
        <ele>973.25695800781</ele>
        <time>2020-09-03T23:43:11.407Z</time>
      </trkpt>
      <trkpt lat="45.79235" lon="3.73924">
        <ele>970.88177490234</ele>
        <time>2020-09-03T23:43:25.738Z</time>
      </trkpt>
      <trkpt lat="45.79284" lon="3.73973">
        <ele>961.66900634766</ele>
        <time>2020-09-03T23:43:40.079Z</time>
      </trkpt>
      <trkpt lat="45.79298" lon="3.73975">
        <ele>960.43322753906</ele>
        <time>2020-09-03T23:43:54.422Z</time>
      </trkpt>
      <trkpt lat="45.79334" lon="3.73958">
        <ele>956.02026367188</ele>
        <time>2020-09-03T23:44:08.771Z</time>
      </trkpt>
      <trkpt lat="45.7939" lon="3.73894">
        <ele>949.72271728516</ele>
        <time>2020-09-03T23:44:23.132Z</time>
      </trkpt>
      <trkpt lat="45.79407" lon="3.73865">
        <ele>947.58862304688</ele>
        <time>2020-09-03T23:44:37.497Z</time>
      </trkpt>
      <trkpt lat="45.79414" lon="3.73839">
        <ele>946.08703613281</ele>
        <time>2020-09-03T23:44:51.865Z</time>
      </trkpt>
      <trkpt lat="45.79446" lon="3.73655">
        <ele>945.37231445312</ele>
        <time>2020-09-03T23:45:06.254Z</time>
      </trkpt>
      <trkpt lat="45.79462" lon="3.73593">
        <ele>949.6123046875</ele>
        <time>2020-09-03T23:45:20.651Z</time>
      </trkpt>
      <trkpt lat="45.79496" lon="3.73562">
        <ele>942.02960205078</ele>
        <time>2020-09-03T23:45:35.054Z</time>
      </trkpt>
      <trkpt lat="45.79532" lon="3.73501">
        <ele>937.47686767578</ele>
        <time>2020-09-03T23:45:49.466Z</time>
      </trkpt>
      <trkpt lat="45.7958" lon="3.73458">
        <ele>935.50500488281</ele>
        <time>2020-09-03T23:46:03.887Z</time>
      </trkpt>
      <trkpt lat="45.79637" lon="3.73445">
        <ele>924.02276611328</ele>
        <time>2020-09-03T23:46:18.318Z</time>
      </trkpt>
      <trkpt lat="45.79687" lon="3.73386">
        <ele>929.75933837891</ele>
        <time>2020-09-03T23:46:32.759Z</time>
      </trkpt>
      <trkpt lat="45.79713" lon="3.73366">
        <ele>932.44964599609</ele>
        <time>2020-09-03T23:46:47.205Z</time>
      </trkpt>
      <trkpt lat="45.79729" lon="3.7338">
        <ele>932.23687744141</ele>
        <time>2020-09-03T23:47:01.654Z</time>
      </trkpt>
      <trkpt lat="45.79757" lon="3.73494">
        <ele>924.12518310547</ele>
        <time>2020-09-03T23:47:16.116Z</time>
      </trkpt>
      <trkpt lat="45.79781" lon="3.73527">
        <ele>924.78784179688</ele>
        <time>2020-09-03T23:47:30.584Z</time>
      </trkpt>
      <trkpt lat="45.79857" lon="3.73587">
        <ele>926.87316894531</ele>
        <time>2020-09-03T23:47:45.065Z</time>
      </trkpt>
      <trkpt lat="45.80002" lon="3.73723">
        <ele>897.95825195312</ele>
        <time>2020-09-03T23:47:59.574Z</time>
      </trkpt>
      <trkpt lat="45.80121" lon="3.73755">
        <ele>894.86401367188</ele>
        <time>2020-09-03T23:48:14.103Z</time>
      </trkpt>
      <trkpt lat="45.80205" lon="3.73739">
        <ele>891.00347900391</ele>
        <time>2020-09-03T23:48:28.645Z</time>
      </trkpt>
      <trkpt lat="45.80242" lon="3.73729">
        <ele>888.00091552734</ele>
        <time>2020-09-03T23:48:43.193Z</time>
      </trkpt>
      <trkpt lat="45.80313" lon="3.73669">
        <ele>881.62097167969</ele>
        <time>2020-09-03T23:48:57.754Z</time>
      </trkpt>
      <trkpt lat="45.80393" lon="3.73665">
        <ele>874.19012451172</ele>
        <time>2020-09-03T23:49:12.328Z</time>
      </trkpt>
      <trkpt lat="45.80507" lon="3.737">
        <ele>868.58813476562</ele>
        <time>2020-09-03T23:49:26.921Z</time>
      </trkpt>
      <trkpt lat="45.80529" lon="3.73697">
        <ele>868.58813476562</ele>
        <time>2020-09-03T23:49:41.517Z</time>
      </trkpt>
      <trkpt lat="45.80542" lon="3.73689">
        <ele>870.05920410156</ele>
        <time>2020-09-03T23:49:56.116Z</time>
      </trkpt>
      <trkpt lat="45.80542" lon="3.73689">
        <ele>870.05780029297</ele>
        <time>2020-09-03T23:50:10.715Z</time>
      </trkpt>
      <trkpt lat="45.8061" lon="3.73647">
        <ele>867.05438232422</ele>
        <time>2020-09-03T23:50:25.326Z</time>
      </trkpt>
      <trkpt lat="45.80682" lon="3.73624">
        <ele>865.99682617188</ele>
        <time>2020-09-03T23:50:39.948Z</time>
      </trkpt>
      <trkpt lat="45.80711" lon="3.73624">
        <ele>864.60662841797</ele>
        <time>2020-09-03T23:50:54.575Z</time>
      </trkpt>
      <trkpt lat="45.80774" lon="3.73638">
        <ele>862.04864501953</ele>
        <time>2020-09-03T23:51:09.212Z</time>
      </trkpt>
      <trkpt lat="45.80842" lon="3.73641">
        <ele>864.03179931641</ele>
        <time>2020-09-03T23:51:23.860Z</time>
      </trkpt>
      <trkpt lat="45.80867" lon="3.73653">
        <ele>865.11889648438</ele>
        <time>2020-09-03T23:51:38.512Z</time>
      </trkpt>
      <trkpt lat="45.80959" lon="3.73886">
        <ele>842.66558837891</ele>
        <time>2020-09-03T23:51:53.194Z</time>
      </trkpt>
      <trkpt lat="45.80961" lon="3.73941">
        <ele>837.44702148438</ele>
        <time>2020-09-03T23:52:07.882Z</time>
      </trkpt>
      <trkpt lat="45.80952" lon="3.73987">
        <ele>831.53948974609</ele>
        <time>2020-09-03T23:52:22.576Z</time>
      </trkpt>
      <trkpt lat="45.8093" lon="3.74035">
        <ele>825.91345214844</ele>
        <time>2020-09-03T23:52:37.276Z</time>
      </trkpt>
      <trkpt lat="45.80922" lon="3.74085">
        <ele>823.74243164062</ele>
        <time>2020-09-03T23:52:51.982Z</time>
      </trkpt>
      <trkpt lat="45.80938" lon="3.74185">
        <ele>818.38775634766</ele>
        <time>2020-09-03T23:53:06.699Z</time>
      </trkpt>
      <trkpt lat="45.80941" lon="3.74239">
        <ele>816.78662109375</ele>
        <time>2020-09-03T23:53:21.422Z</time>
      </trkpt>
      <trkpt lat="45.80909" lon="3.74337">
        <ele>815.21453857422</ele>
        <time>2020-09-03T23:53:36.157Z</time>
      </trkpt>
      <trkpt lat="45.80902" lon="3.74382">
        <ele>813.72106933594</ele>
        <time>2020-09-03T23:53:50.898Z</time>
      </trkpt>
      <trkpt lat="45.80902" lon="3.74382">
        <ele>813.7216796875</ele>
        <time>2020-09-03T23:54:05.639Z</time>
      </trkpt>
      <trkpt lat="45.80908" lon="3.74412">
        <ele>810.73522949219</ele>
        <time>2020-09-03T23:54:20.383Z</time>
      </trkpt>
      <trkpt lat="45.80937" lon="3.74474">
        <ele>807.80560302734</ele>
        <time>2020-09-03T23:54:35.136Z</time>
      </trkpt>
      <trkpt lat="45.80967" lon="3.74525">
        <ele>807.10949707031</ele>
        <time>2020-09-03T23:54:49.896Z</time>
      </trkpt>
      <trkpt lat="45.80998" lon="3.74559">
        <ele>804.13208007812</ele>
        <time>2020-09-03T23:55:04.662Z</time>
      </trkpt>
      <trkpt lat="45.81057" lon="3.74623">
        <ele>798.54968261719</ele>
        <time>2020-09-03T23:55:19.440Z</time>
      </trkpt>
      <trkpt lat="45.81101" lon="3.74695">
        <ele>799.30737304688</ele>
        <time>2020-09-03T23:55:34.229Z</time>
      </trkpt>
      <trkpt lat="45.81122" lon="3.7471">
        <ele>800.2470703125</ele>
        <time>2020-09-03T23:55:49.022Z</time>
      </trkpt>
      <trkpt lat="45.81199" lon="3.7473">
        <ele>793.56066894531</ele>
        <time>2020-09-03T23:56:03.827Z</time>
      </trkpt>
      <trkpt lat="45.8142" lon="3.74934">
        <ele>772.18829345703</ele>
        <time>2020-09-03T23:56:18.674Z</time>
      </trkpt>
      <trkpt lat="45.81489" lon="3.75044">
        <ele>767.90411376953</ele>
        <time>2020-09-03T23:56:33.538Z</time>
      </trkpt>
      <trkpt lat="45.81531" lon="3.75143">
        <ele>765.47143554688</ele>
        <time>2020-09-03T23:56:48.415Z</time>
      </trkpt>
      <trkpt lat="45.81531" lon="3.75143">
        <ele>765.47381591797</ele>
        <time>2020-09-03T23:57:03.292Z</time>
      </trkpt>
      <trkpt lat="45.81552" lon="3.75212">
        <ele>762.60943603516</ele>
        <time>2020-09-03T23:57:18.177Z</time>
      </trkpt>
      <trkpt lat="45.81577" lon="3.75347">
        <ele>753.76043701172</ele>
        <time>2020-09-03T23:57:33.078Z</time>
      </trkpt>
      <trkpt lat="45.81635" lon="3.75531">
        <ele>745.54931640625</ele>
        <time>2020-09-03T23:57:48.001Z</time>
      </trkpt>
      <trkpt lat="45.8165" lon="3.75706">
        <ele>743.70062255859</ele>
        <time>2020-09-03T23:58:02.944Z</time>
      </trkpt>
      <trkpt lat="45.81668" lon="3.75745">
        <ele>742.96685791016</ele>
        <time>2020-09-03T23:58:17.892Z</time>
      </trkpt>
      <trkpt lat="45.81827" lon="3.75843">
        <ele>745.2392578125</ele>
        <time>2020-09-03T23:58:32.868Z</time>
      </trkpt>
      <trkpt lat="45.81827" lon="3.75843">
        <ele>745.23907470703</ele>
        <time>2020-09-03T23:58:47.844Z</time>
      </trkpt>
      <trkpt lat="45.81885" lon="3.75881">
        <ele>746.90264892578</ele>
        <time>2020-09-03T23:59:02.830Z</time>
      </trkpt>
      <trkpt lat="45.81992" lon="3.7594">
        <ele>746.47918701172</ele>
        <time>2020-09-03T23:59:17.835Z</time>
      </trkpt>
      <trkpt lat="45.82081" lon="3.75945">
        <ele>745.12475585938</ele>
        <time>2020-09-03T23:59:32.854Z</time>
      </trkpt>
      <trkpt lat="45.82098" lon="3.75953">
        <ele>745.43359375</ele>
        <time>2020-09-03T23:59:47.876Z</time>
      </trkpt>
      <trkpt lat="45.82098" lon="3.75953">
        <ele>745.43371582031</ele>
        <time>2020-09-04T00:00:02.898Z</time>
      </trkpt>
      <trkpt lat="45.82108" lon="3.7593">
        <ele>743.99578857422</ele>
        <time>2020-09-04T00:00:17.923Z</time>
      </trkpt>
      <trkpt lat="45.82137" lon="3.75905">
        <ele>741.73156738281</ele>
        <time>2020-09-04T00:00:32.953Z</time>
      </trkpt>
      <trkpt lat="45.8227" lon="3.75878">
        <ele>736.15295410156</ele>
        <time>2020-09-04T00:00:48.005Z</time>
      </trkpt>
      <trkpt lat="45.8232" lon="3.7583">
        <ele>737.54779052734</ele>
        <time>2020-09-04T00:01:03.066Z</time>
      </trkpt>
      <trkpt lat="45.82342" lon="3.75776">
        <ele>743.24053955078</ele>
        <time>2020-09-04T00:01:18.134Z</time>
      </trkpt>
      <trkpt lat="45.82348" lon="3.75745">
        <ele>744.03686523438</ele>
        <time>2020-09-04T00:01:33.206Z</time>
      </trkpt>
      <trkpt lat="45.82348" lon="3.75745">
        <ele>744.03466796875</ele>
        <time>2020-09-04T00:01:48.278Z</time>
      </trkpt>
      <trkpt lat="45.82373" lon="3.75607">
        <ele>736.69256591797</ele>
        <time>2020-09-04T00:02:03.366Z</time>
      </trkpt>
      <trkpt lat="45.82408" lon="3.75533">
        <ele>733.69775390625</ele>
        <time>2020-09-04T00:02:18.464Z</time>
      </trkpt>
      <trkpt lat="45.82475" lon="3.7545">
        <ele>728.02099609375</ele>
        <time>2020-09-04T00:02:33.576Z</time>
      </trkpt>
      <trkpt lat="45.82525" lon="3.75405">
        <ele>730.03125</ele>
        <time>2020-09-04T00:02:48.698Z</time>
      </trkpt>
      <trkpt lat="45.8261" lon="3.75359">
        <ele>723.17657470703</ele>
        <time>2020-09-04T00:03:03.834Z</time>
      </trkpt>
      <trkpt lat="45.8261" lon="3.75359">
        <ele>723.17626953125</ele>
        <time>2020-09-04T00:03:18.970Z</time>
      </trkpt>
      <trkpt lat="45.83167" lon="3.75093">
        <ele>714.13275146484</ele>
        <time>2020-09-04T00:03:34.200Z</time>
      </trkpt>
      <trkpt lat="45.83221" lon="3.75038">
        <ele>714.41516113281</ele>
        <time>2020-09-04T00:03:49.441Z</time>
      </trkpt>
      <trkpt lat="45.83301" lon="3.74892">
        <ele>712.47015380859</ele>
        <time>2020-09-04T00:04:04.702Z</time>
      </trkpt>
      <trkpt lat="45.8333" lon="3.74855">
        <ele>711.32897949219</ele>
        <time>2020-09-04T00:04:19.970Z</time>
      </trkpt>
      <trkpt lat="45.83406" lon="3.74785">
        <ele>712.51208496094</ele>
        <time>2020-09-04T00:04:35.252Z</time>
      </trkpt>
      <trkpt lat="45.83499" lon="3.74742">
        <ele>712.23107910156</ele>
        <time>2020-09-04T00:04:50.550Z</time>
      </trkpt>
      <trkpt lat="45.83499" lon="3.74742">
        <ele>712.23095703125</ele>
        <time>2020-09-04T00:05:05.848Z</time>
      </trkpt>
      <trkpt lat="45.83705" lon="3.74733">
        <ele>709.82165527344</ele>
        <time>2020-09-04T00:05:21.179Z</time>
      </trkpt>
      <trkpt lat="45.83889" lon="3.74639">
        <ele>700.26770019531</ele>
        <time>2020-09-04T00:05:36.541Z</time>
      </trkpt>
      <trkpt lat="45.8395" lon="3.74636">
        <ele>697.22302246094</ele>
        <time>2020-09-04T00:05:51.913Z</time>
      </trkpt>
      <trkpt lat="45.84015" lon="3.74651">
        <ele>698.75006103516</ele>
        <time>2020-09-04T00:06:07.295Z</time>
      </trkpt>
      <trkpt lat="45.84043" lon="3.74648">
        <ele>697.68347167969</ele>
        <time>2020-09-04T00:06:22.682Z</time>
      </trkpt>
      <trkpt lat="45.84101" lon="3.74623">
        <ele>693.91046142578</ele>
        <time>2020-09-04T00:06:38.079Z</time>
      </trkpt>
      <trkpt lat="45.8414" lon="3.74596">
        <ele>692.86657714844</ele>
        <time>2020-09-04T00:06:53.482Z</time>
      </trkpt>
      <trkpt lat="45.84154" lon="3.74583">
        <ele>693.56170654297</ele>
        <time>2020-09-04T00:07:08.888Z</time>
      </trkpt>
      <trkpt lat="45.8418" lon="3.74547">
        <ele>694.71197509766</ele>
        <time>2020-09-04T00:07:24.300Z</time>
      </trkpt>
      <trkpt lat="45.84246" lon="3.74372">
        <ele>692.99273681641</ele>
        <time>2020-09-04T00:07:39.734Z</time>
      </trkpt>
      <trkpt lat="45.84262" lon="3.74288">
        <ele>691.28198242188</ele>
        <time>2020-09-04T00:07:55.178Z</time>
      </trkpt>
      <trkpt lat="45.84285" lon="3.74227">
        <ele>690.35894775391</ele>
        <time>2020-09-04T00:08:10.630Z</time>
      </trkpt>
      <trkpt lat="45.84307" lon="3.74193">
        <ele>688.47973632812</ele>
        <time>2020-09-04T00:08:26.087Z</time>
      </trkpt>
      <trkpt lat="45.84356" lon="3.74148">
        <ele>688.12805175781</ele>
        <time>2020-09-04T00:08:41.553Z</time>
      </trkpt>
      <trkpt lat="45.84413" lon="3.74111">
        <ele>685.50604248047</ele>
        <time>2020-09-04T00:08:57.029Z</time>
      </trkpt>
      <trkpt lat="45.84444" lon="3.74092">
        <ele>686.1162109375</ele>
        <time>2020-09-04T00:09:12.510Z</time>
      </trkpt>
      <trkpt lat="45.8454" lon="3.74023">
        <ele>680.54956054688</ele>
        <time>2020-09-04T00:09:28.009Z</time>
      </trkpt>
      <trkpt lat="45.8466" lon="3.73958">
        <ele>679.96655273438</ele>
        <time>2020-09-04T00:09:43.528Z</time>
      </trkpt>
      <trkpt lat="45.8477" lon="3.73918">
        <ele>682.42272949219</ele>
        <time>2020-09-04T00:09:59.065Z</time>
      </trkpt>
      <trkpt lat="45.84848" lon="3.73861">
        <ele>680.10894775391</ele>
        <time>2020-09-04T00:10:14.616Z</time>
      </trkpt>
      <trkpt lat="45.84893" lon="3.73791">
        <ele>675.3642578125</ele>
        <time>2020-09-04T00:10:30.178Z</time>
      </trkpt>
      <trkpt lat="45.84893" lon="3.73791">
        <ele>675.36328125</ele>
        <time>2020-09-04T00:10:45.740Z</time>
      </trkpt>
      <trkpt lat="45.8511" lon="3.73254">
        <ele>674.96875</ele>
        <time>2020-09-04T00:11:01.371Z</time>
      </trkpt>
      <trkpt lat="45.85136" lon="3.73207">
        <ele>671.84130859375</ele>
        <time>2020-09-04T00:11:17.009Z</time>
      </trkpt>
      <trkpt lat="45.8519" lon="3.73149">
        <ele>669.03259277344</ele>
        <time>2020-09-04T00:11:32.658Z</time>
      </trkpt>
      <trkpt lat="45.85298" lon="3.73086">
        <ele>669.5859375</ele>
        <time>2020-09-04T00:11:48.326Z</time>
      </trkpt>
      <trkpt lat="45.85403" lon="3.72946">
        <ele>672.50054931641</ele>
        <time>2020-09-04T00:12:04.017Z</time>
      </trkpt>
      <trkpt lat="45.85515" lon="3.72873">
        <ele>673.09136962891</ele>
        <time>2020-09-04T00:12:19.727Z</time>
      </trkpt>
      <trkpt lat="45.85515" lon="3.72873">
        <ele>673.09094238281</ele>
        <time>2020-09-04T00:12:35.437Z</time>
      </trkpt>
      <trkpt lat="45.85623" lon="3.72824">
        <ele>668.72741699219</ele>
        <time>2020-09-04T00:12:51.165Z</time>
      </trkpt>
      <trkpt lat="45.85715" lon="3.72736">
        <ele>667.41442871094</ele>
        <time>2020-09-04T00:13:06.911Z</time>
      </trkpt>
      <trkpt lat="45.8582" lon="3.72644">
        <ele>667.61468505859</ele>
        <time>2020-09-04T00:13:22.677Z</time>
      </trkpt>
      <trkpt lat="45.85868" lon="3.72601">
        <ele>670.11199951172</ele>
        <time>2020-09-04T00:13:38.452Z</time>
      </trkpt>
      <trkpt lat="45.85943" lon="3.72491">
        <ele>672.09228515625</ele>
        <time>2020-09-04T00:13:54.244Z</time>
      </trkpt>
      <trkpt lat="45.86009" lon="3.72426">
        <ele>668.00903320312</ele>
        <time>2020-09-04T00:14:10.049Z</time>
      </trkpt>
      <trkpt lat="45.86406" lon="3.72158">
        <ele>656.0908203125</ele>
        <time>2020-09-04T00:14:25.924Z</time>
      </trkpt>
      <trkpt lat="45.86532" lon="3.72049">
        <ele>651.66955566406</ele>
        <time>2020-09-04T00:14:41.823Z</time>
      </trkpt>
      <trkpt lat="45.86803" lon="3.7185">
        <ele>651.62365722656</ele>
        <time>2020-09-04T00:14:57.770Z</time>
      </trkpt>
      <trkpt lat="45.86838" lon="3.71816">
        <ele>654.23864746094</ele>
        <time>2020-09-04T00:15:13.724Z</time>
      </trkpt>
      <trkpt lat="45.86911" lon="3.71706">
        <ele>646.59729003906</ele>
        <time>2020-09-04T00:15:29.695Z</time>
      </trkpt>
      <trkpt lat="45.87051" lon="3.71548">
        <ele>644.53460693359</ele>
        <time>2020-09-04T00:15:45.695Z</time>
      </trkpt>
      <trkpt lat="45.87071" lon="3.71513">
        <ele>645.73986816406</ele>
        <time>2020-09-04T00:16:01.700Z</time>
      </trkpt>
      <trkpt lat="45.87096" lon="3.7144">
        <ele>649.74261474609</ele>
        <time>2020-09-04T00:16:17.714Z</time>
      </trkpt>
      <trkpt lat="45.8711" lon="3.71249">
        <ele>647.09027099609</ele>
        <time>2020-09-04T00:16:33.749Z</time>
      </trkpt>
      <trkpt lat="45.8713" lon="3.71196">
        <ele>640.58465576172</ele>
        <time>2020-09-04T00:16:49.791Z</time>
      </trkpt>
      <trkpt lat="45.87171" lon="3.71148">
        <ele>637.97448730469</ele>
        <time>2020-09-04T00:17:05.842Z</time>
      </trkpt>
      <trkpt lat="45.87332" lon="3.71104">
        <ele>631.93145751953</ele>
        <time>2020-09-04T00:17:21.919Z</time>
      </trkpt>
      <trkpt lat="45.87357" lon="3.71086">
        <ele>633.05389404297</ele>
        <time>2020-09-04T00:17:38.000Z</time>
      </trkpt>
      <trkpt lat="45.8737" lon="3.71094">
        <ele>633.41461181641</ele>
        <time>2020-09-04T00:17:54.084Z</time>
      </trkpt>
      <trkpt lat="45.87407" lon="3.71063">
        <ele>633.99017333984</ele>
        <time>2020-09-04T00:18:10.174Z</time>
      </trkpt>
      <trkpt lat="45.87428" lon="3.71014">
        <ele>634.16693115234</ele>
        <time>2020-09-04T00:18:26.271Z</time>
      </trkpt>
      <trkpt lat="45.87474" lon="3.70744">
        <ele>640.05834960938</ele>
        <time>2020-09-04T00:18:42.399Z</time>
      </trkpt>
      <trkpt lat="45.87474" lon="3.70744">
        <ele>640.05895996094</ele>
        <time>2020-09-04T00:18:58.527Z</time>
      </trkpt>
      <trkpt lat="45.87492" lon="3.70646">
        <ele>642.66802978516</ele>
        <time>2020-09-04T00:19:14.666Z</time>
      </trkpt>
      <trkpt lat="45.87492" lon="3.70646">
        <ele>642.66833496094</ele>
        <time>2020-09-04T00:19:30.805Z</time>
      </trkpt>
      <trkpt lat="45.87524" lon="3.70544">
        <ele>643.35485839844</ele>
        <time>2020-09-04T00:19:46.957Z</time>
      </trkpt>
      <trkpt lat="45.87526" lon="3.70536">
        <ele>643.12335205078</ele>
        <time>2020-09-04T00:20:03.110Z</time>
      </trkpt>
      <trkpt lat="45.87546" lon="3.70544">
        <ele>642.81420898438</ele>
        <time>2020-09-04T00:20:19.266Z</time>
      </trkpt>
      <trkpt lat="45.87546" lon="3.70544">
        <ele>642.81439208984</ele>
        <time>2020-09-04T00:20:35.422Z</time>
      </trkpt>
      <trkpt lat="45.87659" lon="3.70719">
        <ele>647.23095703125</ele>
        <time>2020-09-04T00:20:51.605Z</time>
      </trkpt>
      <trkpt lat="45.87659" lon="3.70719">
        <ele>647.23065185547</ele>
        <time>2020-09-04T00:21:07.788Z</time>
      </trkpt>
      <trkpt lat="45.87715" lon="3.70799">
        <ele>652.40045166016</ele>
        <time>2020-09-04T00:21:23.983Z</time>
      </trkpt>
      <trkpt lat="45.87751" lon="3.70822">
        <ele>655.26751708984</ele>
        <time>2020-09-04T00:21:40.185Z</time>
      </trkpt>
      <trkpt lat="45.87884" lon="3.70984">
        <ele>667.75439453125</ele>
        <time>2020-09-04T00:21:56.415Z</time>
      </trkpt>
      <trkpt lat="45.8793" lon="3.70973">
        <ele>668.09967041016</ele>
        <time>2020-09-04T00:22:12.652Z</time>
      </trkpt>
      <trkpt lat="45.8795" lon="3.70977">
        <ele>668.64031982422</ele>
        <time>2020-09-04T00:22:28.892Z</time>
      </trkpt>
      <trkpt lat="45.88078" lon="3.7116">
        <ele>684.34552001953</ele>
        <time>2020-09-04T00:22:45.161Z</time>
      </trkpt>
      <trkpt lat="45.88216" lon="3.71157">
        <ele>687.99798583984</ele>
        <time>2020-09-04T00:23:01.452Z</time>
      </trkpt>
      <trkpt lat="45.88216" lon="3.71157">
        <ele>687.998046875</ele>
        <time>2020-09-04T00:23:17.743Z</time>
      </trkpt>
      <trkpt lat="45.8823" lon="3.71275">
        <ele>694.65783691406</ele>
        <time>2020-09-04T00:23:34.048Z</time>
      </trkpt>
      <trkpt lat="45.88318" lon="3.71313">
        <ele>704.50109863281</ele>
        <time>2020-09-04T00:23:50.367Z</time>
      </trkpt>
      <trkpt lat="45.88409" lon="3.71374">
        <ele>720.36627197266</ele>
        <time>2020-09-04T00:24:06.702Z</time>
      </trkpt>
      <trkpt lat="45.88542" lon="3.71396">
        <ele>740.05871582031</ele>
        <time>2020-09-04T00:24:23.059Z</time>
      </trkpt>
      <trkpt lat="45.88592" lon="3.71399">
        <ele>747.06634521484</ele>
        <time>2020-09-04T00:24:39.424Z</time>
      </trkpt>
      <trkpt lat="45.88626" lon="3.71382">
        <ele>750.31042480469</ele>
        <time>2020-09-04T00:24:55.795Z</time>
      </trkpt>
      <trkpt lat="45.88694" lon="3.71316">
        <ele>758.97247314453</ele>
        <time>2020-09-04T00:25:12.179Z</time>
      </trkpt>
      <trkpt lat="45.88714" lon="3.71315">
        <ele>761.30334472656</ele>
        <time>2020-09-04T00:25:28.566Z</time>
      </trkpt>
      <trkpt lat="45.88714" lon="3.71315">
        <ele>761.30236816406</ele>
        <time>2020-09-04T00:25:44.953Z</time>
      </trkpt>
      <trkpt lat="45.88763" lon="3.71347">
        <ele>769.70959472656</ele>
        <time>2020-09-04T00:26:01.349Z</time>
      </trkpt>
      <trkpt lat="45.88782" lon="3.71333">
        <ele>773.58422851562</ele>
        <time>2020-09-04T00:26:17.748Z</time>
      </trkpt>
      <trkpt lat="45.88796" lon="3.71299">
        <ele>775.60675048828</ele>
        <time>2020-09-04T00:26:34.151Z</time>
      </trkpt>
      <trkpt lat="45.88826" lon="3.7129">
        <ele>780.76965332031</ele>
        <time>2020-09-04T00:26:50.559Z</time>
      </trkpt>
      <trkpt lat="45.88831" lon="3.71291">
        <ele>781.51763916016</ele>
        <time>2020-09-04T00:27:06.968Z</time>
      </trkpt>
      <trkpt lat="45.88897" lon="3.71296">
        <ele>793.07672119141</ele>
        <time>2020-09-04T00:27:23.388Z</time>
      </trkpt>
      <trkpt lat="45.88907" lon="3.71293">
        <ele>794.96728515625</ele>
        <time>2020-09-04T00:27:39.809Z</time>
      </trkpt>
      <trkpt lat="45.88927" lon="3.71266">
        <ele>795.30072021484</ele>
        <time>2020-09-04T00:27:56.235Z</time>
      </trkpt>
      <trkpt lat="45.88981" lon="3.71221">
        <ele>797.84680175781</ele>
        <time>2020-09-04T00:28:12.671Z</time>
      </trkpt>
      <trkpt lat="45.8899" lon="3.71209">
        <ele>798.07849121094</ele>
        <time>2020-09-04T00:28:29.109Z</time>
      </trkpt>
      <trkpt lat="45.89003" lon="3.71194">
        <ele>797.64569091797</ele>
        <time>2020-09-04T00:28:45.549Z</time>
      </trkpt>
      <trkpt lat="45.8907" lon="3.71185">
        <ele>804.39343261719</ele>
        <time>2020-09-04T00:29:02.000Z</time>
      </trkpt>
      <trkpt lat="45.89157" lon="3.71158">
        <ele>809.14276123047</ele>
        <time>2020-09-04T00:29:18.465Z</time>
      </trkpt>
      <trkpt lat="45.89204" lon="3.71178">
        <ele>813.94439697266</ele>
        <time>2020-09-04T00:29:34.938Z</time>
      </trkpt>
      <trkpt lat="45.89253" lon="3.71213">
        <ele>813.951171875</ele>
        <time>2020-09-04T00:29:51.420Z</time>
      </trkpt>
      <trkpt lat="45.89305" lon="3.71311">
        <ele>826.24572753906</ele>
        <time>2020-09-04T00:30:07.916Z</time>
      </trkpt>
      <trkpt lat="45.89305" lon="3.71311">
        <ele>826.24792480469</ele>
        <time>2020-09-04T00:30:24.412Z</time>
      </trkpt>
      <trkpt lat="45.89374" lon="3.71422">
        <ele>848.81683349609</ele>
        <time>2020-09-04T00:30:40.924Z</time>
      </trkpt>
      <trkpt lat="45.89465" lon="3.71463">
        <ele>855.37127685547</ele>
        <time>2020-09-04T00:30:57.451Z</time>
      </trkpt>
      <trkpt lat="45.89565" lon="3.71484">
        <ele>858.33361816406</ele>
        <time>2020-09-04T00:31:13.995Z</time>
      </trkpt>
      <trkpt lat="45.89641" lon="3.7152">
        <ele>867.00653076172</ele>
        <time>2020-09-04T00:31:30.551Z</time>
      </trkpt>
      <trkpt lat="45.89702" lon="3.71525">
        <ele>868.08782958984</ele>
        <time>2020-09-04T00:31:47.117Z</time>
      </trkpt>
      <trkpt lat="45.8988" lon="3.71642">
        <ele>884.71917724609</ele>
        <time>2020-09-04T00:32:03.715Z</time>
      </trkpt>
      <trkpt lat="45.89906" lon="3.71678">
        <ele>890.05932617188</ele>
        <time>2020-09-04T00:32:20.318Z</time>
      </trkpt>
      <trkpt lat="45.89924" lon="3.71737">
        <ele>897.91278076172</ele>
        <time>2020-09-04T00:32:36.929Z</time>
      </trkpt>
      <trkpt lat="45.89954" lon="3.71795">
        <ele>905.083984375</ele>
        <time>2020-09-04T00:32:53.548Z</time>
      </trkpt>
      <trkpt lat="45.90018" lon="3.7185">
        <ele>910.35656738281</ele>
        <time>2020-09-04T00:33:10.179Z</time>
      </trkpt>
      <trkpt lat="45.90084" lon="3.71941">
        <ele>922.4228515625</ele>
        <time>2020-09-04T00:33:26.824Z</time>
      </trkpt>
      <trkpt lat="45.90146" lon="3.7206">
        <ele>932.79058837891</ele>
        <time>2020-09-04T00:33:43.486Z</time>
      </trkpt>
      <trkpt lat="45.90159" lon="3.72121">
        <ele>936.75939941406</ele>
        <time>2020-09-04T00:34:00.155Z</time>
      </trkpt>
      <trkpt lat="45.90192" lon="3.72179">
        <ele>943.357421875</ele>
        <time>2020-09-04T00:34:16.832Z</time>
      </trkpt>
      <trkpt lat="45.90206" lon="3.72192">
        <ele>944.60015869141</ele>
        <time>2020-09-04T00:34:33.512Z</time>
      </trkpt>
      <trkpt lat="45.90278" lon="3.72203">
        <ele>948.31591796875</ele>
        <time>2020-09-04T00:34:50.204Z</time>
      </trkpt>
      <trkpt lat="45.90306" lon="3.72221">
        <ele>951.53405761719</ele>
        <time>2020-09-04T00:35:06.901Z</time>
      </trkpt>
      <trkpt lat="45.9035" lon="3.72266">
        <ele>958.42077636719</ele>
        <time>2020-09-04T00:35:23.606Z</time>
      </trkpt>
      <trkpt lat="45.90423" lon="3.72257">
        <ele>967.68273925781</ele>
        <time>2020-09-04T00:35:40.323Z</time>
      </trkpt>
      <trkpt lat="45.90453" lon="3.72201">
        <ele>972.00909423828</ele>
        <time>2020-09-04T00:35:57.048Z</time>
      </trkpt>
      <trkpt lat="45.90453" lon="3.72201">
        <ele>972.00787353516</ele>
        <time>2020-09-04T00:36:13.773Z</time>
      </trkpt>
      <trkpt lat="45.90457" lon="3.72184">
        <ele>972.84722900391</ele>
        <time>2020-09-04T00:36:30.500Z</time>
      </trkpt>
      <trkpt lat="45.90484" lon="3.72176">
        <ele>977.33782958984</ele>
        <time>2020-09-04T00:36:47.231Z</time>
      </trkpt>
      <trkpt lat="45.90502" lon="3.72193">
        <ele>978.17041015625</ele>
        <time>2020-09-04T00:37:03.966Z</time>
      </trkpt>
      <trkpt lat="45.90504" lon="3.72217">
        <ele>980.07550048828</ele>
        <time>2020-09-04T00:37:20.703Z</time>
      </trkpt>
      <trkpt lat="45.90432" lon="3.72366">
        <ele>979.61004638672</ele>
        <time>2020-09-04T00:37:37.461Z</time>
      </trkpt>
      <trkpt lat="45.90431" lon="3.72393">
        <ele>981.64392089844</ele>
        <time>2020-09-04T00:37:54.222Z</time>
      </trkpt>
      <trkpt lat="45.90468" lon="3.72454">
        <ele>993.89874267578</ele>
        <time>2020-09-04T00:38:10.992Z</time>
      </trkpt>
      <trkpt lat="45.90478" lon="3.7249">
        <ele>997.56121826172</ele>
        <time>2020-09-04T00:38:27.766Z</time>
      </trkpt>
      <trkpt lat="45.90478" lon="3.72529">
        <ele>999.63446044922</ele>
        <time>2020-09-04T00:38:44.544Z</time>
      </trkpt>
      <trkpt lat="45.90463" lon="3.72555">
        <ele>999.68524169922</ele>
        <time>2020-09-04T00:39:01.326Z</time>
      </trkpt>
      <trkpt lat="45.90455" lon="3.72585">
        <ele>1001.1781616211</ele>
        <time>2020-09-04T00:39:18.112Z</time>
      </trkpt>
      <trkpt lat="45.90458" lon="3.72601">
        <ele>1003.2944335938</ele>
        <time>2020-09-04T00:39:34.900Z</time>
      </trkpt>
      <trkpt lat="45.90485" lon="3.72618">
        <ele>1006.6448364258</ele>
        <time>2020-09-04T00:39:51.692Z</time>
      </trkpt>
      <trkpt lat="45.90499" lon="3.72614">
        <ele>1009.4833984375</ele>
        <time>2020-09-04T00:40:08.487Z</time>
      </trkpt>
      <trkpt lat="45.9055" lon="3.72558">
        <ele>1016.8107299805</ele>
        <time>2020-09-04T00:40:25.292Z</time>
      </trkpt>
      <trkpt lat="45.90555" lon="3.72496">
        <ele>1013.0835571289</ele>
        <time>2020-09-04T00:40:42.104Z</time>
      </trkpt>
      <trkpt lat="45.90563" lon="3.72456">
        <ele>1012.6558837891</ele>
        <time>2020-09-04T00:40:58.921Z</time>
      </trkpt>
      <trkpt lat="45.90592" lon="3.72422">
        <ele>1015.0534057617</ele>
        <time>2020-09-04T00:41:15.744Z</time>
      </trkpt>
      <trkpt lat="45.90613" lon="3.72412">
        <ele>1017.9110717773</ele>
        <time>2020-09-04T00:41:32.570Z</time>
      </trkpt>
      <trkpt lat="45.90886" lon="3.72418">
        <ele>1041.8737792969</ele>
        <time>2020-09-04T00:41:49.440Z</time>
      </trkpt>
      <trkpt lat="45.90971" lon="3.72447">
        <ele>1049.2474365234</ele>
        <time>2020-09-04T00:42:06.324Z</time>
      </trkpt>
      <trkpt lat="45.91151" lon="3.72537">
        <ele>1067.0919189453</ele>
        <time>2020-09-04T00:42:23.238Z</time>
      </trkpt>
      <trkpt lat="45.91329" lon="3.72717">
        <ele>1089.0869140625</ele>
        <time>2020-09-04T00:42:40.187Z</time>
      </trkpt>
      <trkpt lat="45.91344" lon="3.72731">
        <ele>1091.5584716797</ele>
        <time>2020-09-04T00:42:57.139Z</time>
      </trkpt>
      <trkpt lat="45.91369" lon="3.72737">
        <ele>1094.2445068359</ele>
        <time>2020-09-04T00:43:14.095Z</time>
      </trkpt>
      <trkpt lat="45.9139" lon="3.72733">
        <ele>1095.3813476562</ele>
        <time>2020-09-04T00:43:31.054Z</time>
      </trkpt>
      <trkpt lat="45.91446" lon="3.72694">
        <ele>1098.9555664062</ele>
        <time>2020-09-04T00:43:48.023Z</time>
      </trkpt>
      <trkpt lat="45.91786" lon="3.72622">
        <ele>1114.2774658203</ele>
        <time>2020-09-04T00:44:05.047Z</time>
      </trkpt>
      <trkpt lat="45.91923" lon="3.72531">
        <ele>1116.4953613281</ele>
        <time>2020-09-04T00:44:22.096Z</time>
      </trkpt>
      <trkpt lat="45.91991" lon="3.72526">
        <ele>1116.2845458984</ele>
        <time>2020-09-04T00:44:39.156Z</time>
      </trkpt>
      <trkpt lat="45.9203" lon="3.72511">
        <ele>1115.4909667969</ele>
        <time>2020-09-04T00:44:56.222Z</time>
      </trkpt>
      <trkpt lat="45.92057" lon="3.72517">
        <ele>1113.2509765625</ele>
        <time>2020-09-04T00:45:13.292Z</time>
      </trkpt>
      <trkpt lat="45.92075" lon="3.72541">
        <ele>1116.6912841797</ele>
        <time>2020-09-04T00:45:30.366Z</time>
      </trkpt>
      <trkpt lat="45.9209" lon="3.7259">
        <ele>1120.5787353516</ele>
        <time>2020-09-04T00:45:47.446Z</time>
      </trkpt>
      <trkpt lat="45.92088" lon="3.72689">
        <ele>1118.732421875</ele>
        <time>2020-09-04T00:46:04.537Z</time>
      </trkpt>
      <trkpt lat="45.92048" lon="3.72776">
        <ele>1110.5679931641</ele>
        <time>2020-09-04T00:46:21.640Z</time>
      </trkpt>
      <trkpt lat="45.92041" lon="3.72819">
        <ele>1110.2076416016</ele>
        <time>2020-09-04T00:46:38.748Z</time>
      </trkpt>
      <trkpt lat="45.92061" lon="3.72954">
        <ele>1105.7884521484</ele>
        <time>2020-09-04T00:46:55.871Z</time>
      </trkpt>
      <trkpt lat="45.92052" lon="3.73091">
        <ele>1092.0657958984</ele>
        <time>2020-09-04T00:47:13.010Z</time>
      </trkpt>
      <trkpt lat="45.92059" lon="3.73122">
        <ele>1090.5</ele>
        <time>2020-09-04T00:47:30.152Z</time>
      </trkpt>
      <trkpt lat="45.92084" lon="3.73163">
        <ele>1088.6335449219</ele>
        <time>2020-09-04T00:47:47.300Z</time>
      </trkpt>
      <trkpt lat="45.92118" lon="3.73183">
        <ele>1086.9085693359</ele>
        <time>2020-09-04T00:48:04.454Z</time>
      </trkpt>
      <trkpt lat="45.92178" lon="3.73185">
        <ele>1083.0043945312</ele>
        <time>2020-09-04T00:48:21.618Z</time>
      </trkpt>
      <trkpt lat="45.92208" lon="3.73178">
        <ele>1081.1121826172</ele>
        <time>2020-09-04T00:48:38.787Z</time>
      </trkpt>
      <trkpt lat="45.92268" lon="3.73139">
        <ele>1084.1494140625</ele>
        <time>2020-09-04T00:48:55.966Z</time>
      </trkpt>
      <trkpt lat="45.92298" lon="3.73139">
        <ele>1085.5911865234</ele>
        <time>2020-09-04T00:49:13.150Z</time>
      </trkpt>
      <trkpt lat="45.92322" lon="3.73178">
        <ele>1085.2248535156</ele>
        <time>2020-09-04T00:49:30.340Z</time>
      </trkpt>
      <trkpt lat="45.92324" lon="3.73247">
        <ele>1081.3541259766</ele>
        <time>2020-09-04T00:49:47.538Z</time>
      </trkpt>
      <trkpt lat="45.92331" lon="3.73286">
        <ele>1079.3099365234</ele>
        <time>2020-09-04T00:50:04.740Z</time>
      </trkpt>
      <trkpt lat="45.92365" lon="3.73377">
        <ele>1072.5595703125</ele>
        <time>2020-09-04T00:50:21.954Z</time>
      </trkpt>
      <trkpt lat="45.92389" lon="3.73404">
        <ele>1070.4227294922</ele>
        <time>2020-09-04T00:50:39.173Z</time>
      </trkpt>
      <trkpt lat="45.92409" lon="3.73415">
        <ele>1068.5197753906</ele>
        <time>2020-09-04T00:50:56.395Z</time>
      </trkpt>
      <trkpt lat="45.92475" lon="3.73426">
        <ele>1065.8575439453</ele>
        <time>2020-09-04T00:51:13.628Z</time>
      </trkpt>
      <trkpt lat="45.92504" lon="3.73439">
        <ele>1065.2559814453</ele>
        <time>2020-09-04T00:51:30.865Z</time>
      </trkpt>
      <trkpt lat="45.92551" lon="3.735">
        <ele>1058.716796875</ele>
        <time>2020-09-04T00:51:48.113Z</time>
      </trkpt>
      <trkpt lat="45.9257" lon="3.73515">
        <ele>1055.8013916016</ele>
        <time>2020-09-04T00:52:05.364Z</time>
      </trkpt>
      <trkpt lat="45.926" lon="3.73522">
        <ele>1051.8923339844</ele>
        <time>2020-09-04T00:52:22.620Z</time>
      </trkpt>
      <trkpt lat="45.92621" lon="3.73518">
        <ele>1051.0128173828</ele>
        <time>2020-09-04T00:52:39.879Z</time>
      </trkpt>
      <trkpt lat="45.9269" lon="3.73474">
        <ele>1051.1583251953</ele>
        <time>2020-09-04T00:52:57.150Z</time>
      </trkpt>
      <trkpt lat="45.92776" lon="3.73443">
        <ele>1040.1729736328</ele>
        <time>2020-09-04T00:53:14.436Z</time>
      </trkpt>
      <trkpt lat="45.92803" lon="3.73424">
        <ele>1034.3675537109</ele>
        <time>2020-09-04T00:53:31.727Z</time>
      </trkpt>
      <trkpt lat="45.92843" lon="3.73376">
        <ele>1039.2694091797</ele>
        <time>2020-09-04T00:53:49.026Z</time>
      </trkpt>
      <trkpt lat="45.92857" lon="3.73277">
        <ele>1040.9924316406</ele>
        <time>2020-09-04T00:54:06.336Z</time>
      </trkpt>
      <trkpt lat="45.92867" lon="3.73264">
        <ele>1037.8352050781</ele>
        <time>2020-09-04T00:54:23.648Z</time>
      </trkpt>
      <trkpt lat="45.92882" lon="3.73286">
        <ele>1031.9945068359</ele>
        <time>2020-09-04T00:54:40.964Z</time>
      </trkpt>
      <trkpt lat="45.92877" lon="3.73384">
        <ele>1033.3995361328</ele>
        <time>2020-09-04T00:54:58.291Z</time>
      </trkpt>
      <trkpt lat="45.9291" lon="3.73288">
        <ele>1034.46875</ele>
        <time>2020-09-04T00:55:15.629Z</time>
      </trkpt>
      <trkpt lat="45.92919" lon="3.73305">
        <ele>1037.5482177734</ele>
        <time>2020-09-04T00:55:32.970Z</time>
      </trkpt>
      <trkpt lat="45.92907" lon="3.73365">
        <ele>1035.1949462891</ele>
        <time>2020-09-04T00:55:50.318Z</time>
      </trkpt>
      <trkpt lat="45.92866" lon="3.73462">
        <ele>1037.19921875</ele>
        <time>2020-09-04T00:56:07.679Z</time>
      </trkpt>
      <trkpt lat="45.92771" lon="3.73622">
        <ele>1034.9672851562</ele>
        <time>2020-09-04T00:56:25.063Z</time>
      </trkpt>
      <trkpt lat="45.92741" lon="3.73689">
        <ele>1031.3458251953</ele>
        <time>2020-09-04T00:56:42.456Z</time>
      </trkpt>
      <trkpt lat="45.92698" lon="3.73835">
        <ele>1032.4473876953</ele>
        <time>2020-09-04T00:56:59.867Z</time>
      </trkpt>
      <trkpt lat="45.92683" lon="3.73929">
        <ele>1036.7523193359</ele>
        <time>2020-09-04T00:57:17.288Z</time>
      </trkpt>
      <trkpt lat="45.9268" lon="3.74046">
        <ele>1038.0975341797</ele>
        <time>2020-09-04T00:57:34.722Z</time>
      </trkpt>
      <trkpt lat="45.92699" lon="3.74159">
        <ele>1035.8303222656</ele>
        <time>2020-09-04T00:57:52.169Z</time>
      </trkpt>
      <trkpt lat="45.92726" lon="3.74235">
        <ele>1033.3785400391</ele>
        <time>2020-09-04T00:58:09.626Z</time>
      </trkpt>
      <trkpt lat="45.92767" lon="3.74287">
        <ele>1027.6525878906</ele>
        <time>2020-09-04T00:58:27.092Z</time>
      </trkpt>
      <trkpt lat="45.92832" lon="3.74311">
        <ele>1024.0140380859</ele>
        <time>2020-09-04T00:58:44.569Z</time>
      </trkpt>
      <trkpt lat="45.92877" lon="3.74318">
        <ele>1020.4994506836</ele>
        <time>2020-09-04T00:59:02.053Z</time>
      </trkpt>
      <trkpt lat="45.92986" lon="3.74318">
        <ele>1019.4234008789</ele>
        <time>2020-09-04T00:59:19.554Z</time>
      </trkpt>
      <trkpt lat="45.93013" lon="3.74338">
        <ele>1019.6809082031</ele>
        <time>2020-09-04T00:59:37.060Z</time>
      </trkpt>
      <trkpt lat="45.93151" lon="3.74558">
        <ele>1003.4714355469</ele>
        <time>2020-09-04T00:59:54.599Z</time>
      </trkpt>
      <trkpt lat="45.93193" lon="3.7456">
        <ele>1003.3422241211</ele>
        <time>2020-09-04T01:00:12.145Z</time>
      </trkpt>
      <trkpt lat="45.93279" lon="3.74543">
        <ele>999.93334960938</ele>
        <time>2020-09-04T01:00:29.705Z</time>
      </trkpt>
      <trkpt lat="45.93279" lon="3.74543">
        <ele>999.93365478516</ele>
        <time>2020-09-04T01:00:47.265Z</time>
      </trkpt>
      <trkpt lat="45.93353" lon="3.74536">
        <ele>995.17181396484</ele>
        <time>2020-09-04T01:01:04.836Z</time>
      </trkpt>
      <trkpt lat="45.93469" lon="3.74497">
        <ele>989.62341308594</ele>
        <time>2020-09-04T01:01:22.427Z</time>
      </trkpt>
      <trkpt lat="45.93537" lon="3.74491">
        <ele>986.75225830078</ele>
        <time>2020-09-04T01:01:40.029Z</time>
      </trkpt>
      <trkpt lat="45.93586" lon="3.74498">
        <ele>985.681640625</ele>
        <time>2020-09-04T01:01:57.638Z</time>
      </trkpt>
      <trkpt lat="45.93619" lon="3.7452">
        <ele>982.83685302734</ele>
        <time>2020-09-04T01:02:15.253Z</time>
      </trkpt>
      <trkpt lat="45.93628" lon="3.74573">
        <ele>979.74084472656</ele>
        <time>2020-09-04T01:02:32.874Z</time>
      </trkpt>
      <trkpt lat="45.93656" lon="3.7462">
        <ele>977.99627685547</ele>
        <time>2020-09-04T01:02:50.502Z</time>
      </trkpt>
      <trkpt lat="45.93656" lon="3.7462">
        <ele>977.99591064453</ele>
        <time>2020-09-04T01:03:08.130Z</time>
      </trkpt>
      <trkpt lat="45.93714" lon="3.74685">
        <ele>977.63586425781</ele>
        <time>2020-09-04T01:03:25.770Z</time>
      </trkpt>
      <trkpt lat="45.93742" lon="3.74706">
        <ele>972.98052978516</ele>
        <time>2020-09-04T01:03:43.415Z</time>
      </trkpt>
      <trkpt lat="45.93796" lon="3.74704">
        <ele>973.56341552734</ele>
        <time>2020-09-04T01:04:01.069Z</time>
      </trkpt>
      <trkpt lat="45.93908" lon="3.74744">
        <ele>971.89508056641</ele>
        <time>2020-09-04T01:04:18.741Z</time>
      </trkpt>
      <trkpt lat="45.93933" lon="3.74762">
        <ele>970.46624755859</ele>
        <time>2020-09-04T01:04:36.418Z</time>
      </trkpt>
      <trkpt lat="45.93983" lon="3.7486">
        <ele>953.99176025391</ele>
        <time>2020-09-04T01:04:54.108Z</time>
      </trkpt>
      <trkpt lat="45.93995" lon="3.74867">
        <ele>951.52026367188</ele>
        <time>2020-09-04T01:05:11.800Z</time>
      </trkpt>
      <trkpt lat="45.94047" lon="3.74848">
        <ele>950.99542236328</ele>
        <time>2020-09-04T01:05:29.501Z</time>
      </trkpt>
      <trkpt lat="45.94133" lon="3.74803">
        <ele>943.38171386719</ele>
        <time>2020-09-04T01:05:47.216Z</time>
      </trkpt>
      <trkpt lat="45.9422" lon="3.74736">
        <ele>937.92108154297</ele>
        <time>2020-09-04T01:06:04.947Z</time>
      </trkpt>
      <trkpt lat="45.94283" lon="3.74649">
        <ele>937.62585449219</ele>
        <time>2020-09-04T01:06:22.692Z</time>
      </trkpt>
      <trkpt lat="45.94323" lon="3.74618">
        <ele>938.66400146484</ele>
        <time>2020-09-04T01:06:40.445Z</time>
      </trkpt>
      <trkpt lat="45.94421" lon="3.74618">
        <ele>929.49664306641</ele>
        <time>2020-09-04T01:06:58.213Z</time>
      </trkpt>
      <trkpt lat="45.94472" lon="3.74628">
        <ele>917.40942382812</ele>
        <time>2020-09-04T01:07:15.989Z</time>
      </trkpt>
      <trkpt lat="45.94493" lon="3.74634">
        <ele>914.41510009766</ele>
        <time>2020-09-04T01:07:33.769Z</time>
      </trkpt>
      <trkpt lat="45.9456" lon="3.74675">
        <ele>901.90490722656</ele>
        <time>2020-09-04T01:07:51.561Z</time>
      </trkpt>
      <trkpt lat="45.94609" lon="3.74678">
        <ele>899.03436279297</ele>
        <time>2020-09-04T01:08:09.360Z</time>
      </trkpt>
      <trkpt lat="45.94675" lon="3.74635">
        <ele>898.27465820312</ele>
        <time>2020-09-04T01:08:27.171Z</time>
      </trkpt>
      <trkpt lat="45.94731" lon="3.74554">
        <ele>892.16052246094</ele>
        <time>2020-09-04T01:08:44.995Z</time>
      </trkpt>
      <trkpt lat="45.94757" lon="3.74549">
        <ele>888.47058105469</ele>
        <time>2020-09-04T01:09:02.823Z</time>
      </trkpt>
      <trkpt lat="45.94773" lon="3.74579">
        <ele>885.54406738281</ele>
        <time>2020-09-04T01:09:20.655Z</time>
      </trkpt>
      <trkpt lat="45.94774" lon="3.74616">
        <ele>883.14074707031</ele>
        <time>2020-09-04T01:09:38.491Z</time>
      </trkpt>
      <trkpt lat="45.94759" lon="3.74711">
        <ele>877.31988525391</ele>
        <time>2020-09-04T01:09:56.338Z</time>
      </trkpt>
      <trkpt lat="45.94759" lon="3.74711">
        <ele>877.32189941406</ele>
        <time>2020-09-04T01:10:14.185Z</time>
      </trkpt>
      <trkpt lat="45.94741" lon="3.74795">
        <ele>871.29046630859</ele>
        <time>2020-09-04T01:10:32.042Z</time>
      </trkpt>
      <trkpt lat="45.94734" lon="3.74865">
        <ele>866.181640625</ele>
        <time>2020-09-04T01:10:49.907Z</time>
      </trkpt>
      <trkpt lat="45.94737" lon="3.7488">
        <ele>865.48651123047</ele>
        <time>2020-09-04T01:11:07.774Z</time>
      </trkpt>
      <trkpt lat="45.94888" lon="3.75014">
        <ele>855.38244628906</ele>
        <time>2020-09-04T01:11:25.669Z</time>
      </trkpt>
      <trkpt lat="45.94892" lon="3.75035">
        <ele>853.84197998047</ele>
        <time>2020-09-04T01:11:43.567Z</time>
      </trkpt>
      <trkpt lat="45.94887" lon="3.75116">
        <ele>847.5458984375</ele>
        <time>2020-09-04T01:12:01.474Z</time>
      </trkpt>
      <trkpt lat="45.94893" lon="3.75131">
        <ele>845.63037109375</ele>
        <time>2020-09-04T01:12:19.383Z</time>
      </trkpt>
      <trkpt lat="45.94948" lon="3.75176">
        <ele>835.62841796875</ele>
        <time>2020-09-04T01:12:37.302Z</time>
      </trkpt>
      <trkpt lat="45.94991" lon="3.75244">
        <ele>824.57385253906</ele>
        <time>2020-09-04T01:12:55.231Z</time>
      </trkpt>
      <trkpt lat="45.95043" lon="3.75151">
        <ele>821.16693115234</ele>
        <time>2020-09-04T01:13:13.173Z</time>
      </trkpt>
      <trkpt lat="45.95147" lon="3.75037">
        <ele>819.50994873047</ele>
        <time>2020-09-04T01:13:31.136Z</time>
      </trkpt>
      <trkpt lat="45.95182" lon="3.75023">
        <ele>819.74133300781</ele>
        <time>2020-09-04T01:13:49.105Z</time>
      </trkpt>
      <trkpt lat="45.95232" lon="3.75031">
        <ele>816.03039550781</ele>
        <time>2020-09-04T01:14:07.082Z</time>
      </trkpt>
      <trkpt lat="45.95291" lon="3.75062">
        <ele>806.63348388672</ele>
        <time>2020-09-04T01:14:25.069Z</time>
      </trkpt>
      <trkpt lat="45.95341" lon="3.75063">
        <ele>801.3701171875</ele>
        <time>2020-09-04T01:14:43.064Z</time>
      </trkpt>
      <trkpt lat="45.95373" lon="3.75075">
        <ele>795.51971435547</ele>
        <time>2020-09-04T01:15:01.064Z</time>
      </trkpt>
      <trkpt lat="45.95367" lon="3.75208">
        <ele>790.08258056641</ele>
        <time>2020-09-04T01:15:19.079Z</time>
      </trkpt>
      <trkpt lat="45.95416" lon="3.75355">
        <ele>781.90948486328</ele>
        <time>2020-09-04T01:15:37.113Z</time>
      </trkpt>
      <trkpt lat="45.95429" lon="3.75383">
        <ele>780.82818603516</ele>
        <time>2020-09-04T01:15:55.150Z</time>
      </trkpt>
      <trkpt lat="45.9548" lon="3.75452">
        <ele>776.85803222656</ele>
        <time>2020-09-04T01:16:13.199Z</time>
      </trkpt>
      <trkpt lat="45.95564" lon="3.7556">
        <ele>776.00537109375</ele>
        <time>2020-09-04T01:16:31.266Z</time>
      </trkpt>
      <trkpt lat="45.95555" lon="3.75593">
        <ele>776.7841796875</ele>
        <time>2020-09-04T01:16:49.337Z</time>
      </trkpt>
      <trkpt lat="45.95546" lon="3.75733">
        <ele>775.36724853516</ele>
        <time>2020-09-04T01:17:07.423Z</time>
      </trkpt>
      <trkpt lat="45.95546" lon="3.75733">
        <ele>775.36694335938</ele>
        <time>2020-09-04T01:17:25.509Z</time>
      </trkpt>
      <trkpt lat="45.95555" lon="3.75593">
        <ele>776.7841796875</ele>
        <time>2020-09-04T01:17:43.611Z</time>
      </trkpt>
      <trkpt lat="45.95564" lon="3.7556">
        <ele>776.00537109375</ele>
        <time>2020-09-04T01:18:01.717Z</time>
      </trkpt>
      <trkpt lat="45.95824" lon="3.7531">
        <ele>756.30718994141</ele>
        <time>2020-09-04T01:18:19.873Z</time>
      </trkpt>
      <trkpt lat="45.959" lon="3.75217">
        <ele>750.77954101562</ele>
        <time>2020-09-04T01:18:38.045Z</time>
      </trkpt>
      <trkpt lat="45.95914" lon="3.752">
        <ele>749.69262695312</ele>
        <time>2020-09-04T01:18:56.220Z</time>
      </trkpt>
      <trkpt lat="45.96024" lon="3.75067">
        <ele>748.48400878906</ele>
        <time>2020-09-04T01:19:14.418Z</time>
      </trkpt>
      <trkpt lat="45.96068" lon="3.74981">
        <ele>748.9013671875</ele>
        <time>2020-09-04T01:19:32.628Z</time>
      </trkpt>
      <trkpt lat="45.96101" lon="3.74934">
        <ele>748.64422607422</ele>
        <time>2020-09-04T01:19:50.845Z</time>
      </trkpt>
      <trkpt lat="45.96145" lon="3.74896">
        <ele>747.28314208984</ele>
        <time>2020-09-04T01:20:09.071Z</time>
      </trkpt>
      <trkpt lat="45.96145" lon="3.74896">
        <ele>747.28350830078</ele>
        <time>2020-09-04T01:20:27.297Z</time>
      </trkpt>
      <trkpt lat="45.96159" lon="3.74874">
        <ele>745.841796875</ele>
        <time>2020-09-04T01:20:45.526Z</time>
      </trkpt>
      <trkpt lat="45.96177" lon="3.74873">
        <ele>745.57476806641</ele>
        <time>2020-09-04T01:21:03.758Z</time>
      </trkpt>
      <trkpt lat="45.96206" lon="3.74851">
        <ele>744.96563720703</ele>
        <time>2020-09-04T01:21:21.995Z</time>
      </trkpt>
      <trkpt lat="45.96247" lon="3.74871">
        <ele>742.52679443359</ele>
        <time>2020-09-04T01:21:40.239Z</time>
      </trkpt>
      <trkpt lat="45.96263" lon="3.74869">
        <ele>740.78900146484</ele>
        <time>2020-09-04T01:21:58.485Z</time>
      </trkpt>
      <trkpt lat="45.96289" lon="3.74885">
        <ele>738.00854492188</ele>
        <time>2020-09-04T01:22:16.736Z</time>
      </trkpt>
      <trkpt lat="45.96318" lon="3.7489">
        <ele>734.75616455078</ele>
        <time>2020-09-04T01:22:34.992Z</time>
      </trkpt>
      <trkpt lat="45.96396" lon="3.74964">
        <ele>725.03833007812</ele>
        <time>2020-09-04T01:22:53.263Z</time>
      </trkpt>
      <trkpt lat="45.96452" lon="3.75003">
        <ele>717.88128662109</ele>
        <time>2020-09-04T01:23:11.544Z</time>
      </trkpt>
      <trkpt lat="45.96462" lon="3.75028">
        <ele>716.185546875</ele>
        <time>2020-09-04T01:23:29.828Z</time>
      </trkpt>
      <trkpt lat="45.96488" lon="3.75054">
        <ele>712.12536621094</ele>
        <time>2020-09-04T01:23:48.117Z</time>
      </trkpt>
      <trkpt lat="45.96517" lon="3.75052">
        <ele>709.44787597656</ele>
        <time>2020-09-04T01:24:06.410Z</time>
      </trkpt>
      <trkpt lat="45.96535" lon="3.75024">
        <ele>709.03601074219</ele>
        <time>2020-09-04T01:24:24.708Z</time>
      </trkpt>
      <trkpt lat="45.96536" lon="3.74972">
        <ele>708.70959472656</ele>
        <time>2020-09-04T01:24:43.012Z</time>
      </trkpt>
      <trkpt lat="45.96515" lon="3.74827">
        <ele>700.70452880859</ele>
        <time>2020-09-04T01:25:01.332Z</time>
      </trkpt>
      <trkpt lat="45.96494" lon="3.74789">
        <ele>697.87225341797</ele>
        <time>2020-09-04T01:25:19.657Z</time>
      </trkpt>
      <trkpt lat="45.96428" lon="3.74716">
        <ele>696.17718505859</ele>
        <time>2020-09-04T01:25:37.996Z</time>
      </trkpt>
      <trkpt lat="45.96351" lon="3.74544">
        <ele>688.27490234375</ele>
        <time>2020-09-04T01:25:56.358Z</time>
      </trkpt>
      <trkpt lat="45.96293" lon="3.74491">
        <ele>686.91998291016</ele>
        <time>2020-09-04T01:26:14.731Z</time>
      </trkpt>
      <trkpt lat="45.9629" lon="3.74469">
        <ele>685.91571044922</ele>
        <time>2020-09-04T01:26:33.106Z</time>
      </trkpt>
      <trkpt lat="45.96296" lon="3.74448">
        <ele>684.80889892578</ele>
        <time>2020-09-04T01:26:51.484Z</time>
      </trkpt>
      <trkpt lat="45.96358" lon="3.74374">
        <ele>688.16204833984</ele>
        <time>2020-09-04T01:27:09.875Z</time>
      </trkpt>
      <trkpt lat="45.96361" lon="3.74338">
        <ele>688.75415039062</ele>
        <time>2020-09-04T01:27:28.270Z</time>
      </trkpt>
      <trkpt lat="45.96377" lon="3.74132">
        <ele>698.99523925781</ele>
        <time>2020-09-04T01:27:46.688Z</time>
      </trkpt>
      <trkpt lat="45.96405" lon="3.73753">
        <ele>709.08160400391</ele>
        <time>2020-09-04T01:28:05.148Z</time>
      </trkpt>
      <trkpt lat="45.96451" lon="3.73656">
        <ele>715.99096679688</ele>
        <time>2020-09-04T01:28:23.621Z</time>
      </trkpt>
      <trkpt lat="45.9645" lon="3.73555">
        <ele>716.72967529297</ele>
        <time>2020-09-04T01:28:42.106Z</time>
      </trkpt>
      <trkpt lat="45.96486" lon="3.73429">
        <ele>720.68859863281</ele>
        <time>2020-09-04T01:29:00.606Z</time>
      </trkpt>
      <trkpt lat="45.9651" lon="3.7338">
        <ele>723.11260986328</ele>
        <time>2020-09-04T01:29:19.113Z</time>
      </trkpt>
      <trkpt lat="45.96551" lon="3.73325">
        <ele>725.31018066406</ele>
        <time>2020-09-04T01:29:37.629Z</time>
      </trkpt>
      <trkpt lat="45.96594" lon="3.73291">
        <ele>726.8603515625</ele>
        <time>2020-09-04T01:29:56.152Z</time>
      </trkpt>
      <trkpt lat="45.96671" lon="3.73246">
        <ele>731.39111328125</ele>
        <time>2020-09-04T01:30:14.689Z</time>
      </trkpt>
      <trkpt lat="45.96752" lon="3.73184">
        <ele>738.06561279297</ele>
        <time>2020-09-04T01:30:33.240Z</time>
      </trkpt>
      <trkpt lat="45.96771" lon="3.73152">
        <ele>747.10205078125</ele>
        <time>2020-09-04T01:30:51.796Z</time>
      </trkpt>
      <trkpt lat="45.9677" lon="3.73116">
        <ele>748.66241455078</ele>
        <time>2020-09-04T01:31:10.356Z</time>
      </trkpt>
      <trkpt lat="45.9676" lon="3.731">
        <ele>749.62713623047</ele>
        <time>2020-09-04T01:31:28.919Z</time>
      </trkpt>
      <trkpt lat="45.96684" lon="3.73071">
        <ele>747.07830810547</ele>
        <time>2020-09-04T01:31:47.494Z</time>
      </trkpt>
      <trkpt lat="45.9667" lon="3.73046">
        <ele>747.97064208984</ele>
        <time>2020-09-04T01:32:06.073Z</time>
      </trkpt>
      <trkpt lat="45.96673" lon="3.72997">
        <ele>750.57800292969</ele>
        <time>2020-09-04T01:32:24.657Z</time>
      </trkpt>
      <trkpt lat="45.96686" lon="3.72935">
        <ele>748.64636230469</ele>
        <time>2020-09-04T01:32:43.248Z</time>
      </trkpt>
      <trkpt lat="45.96725" lon="3.72863">
        <ele>753.56451416016</ele>
        <time>2020-09-04T01:33:01.850Z</time>
      </trkpt>
      <trkpt lat="45.96764" lon="3.72807">
        <ele>756.92687988281</ele>
        <time>2020-09-04T01:33:20.461Z</time>
      </trkpt>
      <trkpt lat="45.9686" lon="3.72713">
        <ele>762.81799316406</ele>
        <time>2020-09-04T01:33:39.090Z</time>
      </trkpt>
      <trkpt lat="45.9687" lon="3.72689">
        <ele>764.13098144531</ele>
        <time>2020-09-04T01:33:57.722Z</time>
      </trkpt>
      <trkpt lat="45.96875" lon="3.72661">
        <ele>766.19934082031</ele>
        <time>2020-09-04T01:34:16.357Z</time>
      </trkpt>
      <trkpt lat="45.96866" lon="3.72607">
        <ele>765.19525146484</ele>
        <time>2020-09-04T01:34:34.999Z</time>
      </trkpt>
      <trkpt lat="45.96834" lon="3.72477">
        <ele>766.54626464844</ele>
        <time>2020-09-04T01:34:53.656Z</time>
      </trkpt>
      <trkpt lat="45.96837" lon="3.72403">
        <ele>767.83721923828</ele>
        <time>2020-09-04T01:35:12.321Z</time>
      </trkpt>
      <trkpt lat="45.96857" lon="3.72344">
        <ele>768.87725830078</ele>
        <time>2020-09-04T01:35:30.993Z</time>
      </trkpt>
      <trkpt lat="45.9689" lon="3.72305">
        <ele>771.29333496094</ele>
        <time>2020-09-04T01:35:49.672Z</time>
      </trkpt>
      <trkpt lat="45.96914" lon="3.72295">
        <ele>773.44384765625</ele>
        <time>2020-09-04T01:36:08.355Z</time>
      </trkpt>
      <trkpt lat="45.96914" lon="3.72295">
        <ele>773.44299316406</ele>
        <time>2020-09-04T01:36:27.038Z</time>
      </trkpt>
      <trkpt lat="45.97113" lon="3.72218">
        <ele>783.58709716797</ele>
        <time>2020-09-04T01:36:45.754Z</time>
      </trkpt>
      <trkpt lat="45.97129" lon="3.72203">
        <ele>786.08435058594</ele>
        <time>2020-09-04T01:37:04.473Z</time>
      </trkpt>
      <trkpt lat="45.97141" lon="3.72178">
        <ele>788.28515625</ele>
        <time>2020-09-04T01:37:23.196Z</time>
      </trkpt>
      <trkpt lat="45.9715" lon="3.72054">
        <ele>793.51232910156</ele>
        <time>2020-09-04T01:37:41.933Z</time>
      </trkpt>
      <trkpt lat="45.97193" lon="3.71925">
        <ele>798.58087158203</ele>
        <time>2020-09-04T01:38:00.686Z</time>
      </trkpt>
      <trkpt lat="45.97194" lon="3.71871">
        <ele>799.07489013672</ele>
        <time>2020-09-04T01:38:19.445Z</time>
      </trkpt>
      <trkpt lat="45.97194" lon="3.71871">
        <ele>799.07403564453</ele>
        <time>2020-09-04T01:38:38.204Z</time>
      </trkpt>
      <trkpt lat="45.97176" lon="3.71813">
        <ele>798.7431640625</ele>
        <time>2020-09-04T01:38:56.970Z</time>
      </trkpt>
      <trkpt lat="45.97171" lon="3.71761">
        <ele>799.75775146484</ele>
        <time>2020-09-04T01:39:15.742Z</time>
      </trkpt>
      <trkpt lat="45.97178" lon="3.71728">
        <ele>798.90728759766</ele>
        <time>2020-09-04T01:39:34.517Z</time>
      </trkpt>
      <trkpt lat="45.97209" lon="3.71675">
        <ele>801.97204589844</ele>
        <time>2020-09-04T01:39:53.300Z</time>
      </trkpt>
      <trkpt lat="45.97267" lon="3.71621">
        <ele>804.08801269531</ele>
        <time>2020-09-04T01:40:12.094Z</time>
      </trkpt>
      <trkpt lat="45.9734" lon="3.71577">
        <ele>817.73248291016</ele>
        <time>2020-09-04T01:40:30.901Z</time>
      </trkpt>
      <trkpt lat="45.97355" lon="3.71541">
        <ele>824.19049072266</ele>
        <time>2020-09-04T01:40:49.713Z</time>
      </trkpt>
      <trkpt lat="45.97354" lon="3.71503">
        <ele>826.11920166016</ele>
        <time>2020-09-04T01:41:08.529Z</time>
      </trkpt>
      <trkpt lat="45.97332" lon="3.71406">
        <ele>819.77716064453</ele>
        <time>2020-09-04T01:41:27.356Z</time>
      </trkpt>
      <trkpt lat="45.97331" lon="3.71344">
        <ele>818.361328125</ele>
        <time>2020-09-04T01:41:46.190Z</time>
      </trkpt>
      <trkpt lat="45.97346" lon="3.71233">
        <ele>821.01928710938</ele>
        <time>2020-09-04T01:42:05.037Z</time>
      </trkpt>
      <trkpt lat="45.97385" lon="3.7103">
        <ele>823.15478515625</ele>
        <time>2020-09-04T01:42:23.907Z</time>
      </trkpt>
      <trkpt lat="45.97418" lon="3.70975">
        <ele>822.68127441406</ele>
        <time>2020-09-04T01:42:42.785Z</time>
      </trkpt>
      <trkpt lat="45.97419" lon="3.70974">
        <ele>822.66845703125</ele>
        <time>2020-09-04T01:43:01.663Z</time>
      </trkpt>
      <trkpt lat="45.97478" lon="3.71144">
        <ele>829.05090332031</ele>
        <time>2020-09-04T01:43:20.563Z</time>
      </trkpt>
      <trkpt lat="45.97483" lon="3.71158">
        <ele>830.31201171875</ele>
        <time>2020-09-04T01:43:39.464Z</time>
      </trkpt>
      <trkpt lat="45.97483" lon="3.71158">
        <ele>830.31243896484</ele>
        <time>2020-09-04T01:43:58.365Z</time>
      </trkpt>
      <trkpt lat="45.97567" lon="3.71416">
        <ele>862.26940917969</ele>
        <time>2020-09-04T01:44:17.298Z</time>
      </trkpt>
      <trkpt lat="45.97602" lon="3.71559">
        <ele>874.52349853516</ele>
        <time>2020-09-04T01:44:36.248Z</time>
      </trkpt>
      <trkpt lat="45.97723" lon="3.71703">
        <ele>882.62670898438</ele>
        <time>2020-09-04T01:44:55.223Z</time>
      </trkpt>
      <trkpt lat="45.97764" lon="3.71767">
        <ele>891.56140136719</ele>
        <time>2020-09-04T01:45:14.208Z</time>
      </trkpt>
      <trkpt lat="45.97816" lon="3.71928">
        <ele>891.50170898438</ele>
        <time>2020-09-04T01:45:33.213Z</time>
      </trkpt>
      <trkpt lat="45.97816" lon="3.71981">
        <ele>889.29443359375</ele>
        <time>2020-09-04T01:45:52.224Z</time>
      </trkpt>
      <trkpt lat="45.97798" lon="3.72074">
        <ele>893.35296630859</ele>
        <time>2020-09-04T01:46:11.245Z</time>
      </trkpt>
      <trkpt lat="45.97833" lon="3.72106">
        <ele>892.71234130859</ele>
        <time>2020-09-04T01:46:30.273Z</time>
      </trkpt>
      <trkpt lat="45.97846" lon="3.72137">
        <ele>892.96978759766</ele>
        <time>2020-09-04T01:46:49.305Z</time>
      </trkpt>
      <trkpt lat="45.97867" lon="3.72219">
        <ele>896.16986083984</ele>
        <time>2020-09-04T01:47:08.347Z</time>
      </trkpt>
      <trkpt lat="45.97873" lon="3.7228">
        <ele>898.93371582031</ele>
        <time>2020-09-04T01:47:27.396Z</time>
      </trkpt>
      <trkpt lat="45.97888" lon="3.72313">
        <ele>898.88220214844</ele>
        <time>2020-09-04T01:47:46.449Z</time>
      </trkpt>
      <trkpt lat="45.97989" lon="3.7241">
        <ele>900.37780761719</ele>
        <time>2020-09-04T01:48:05.522Z</time>
      </trkpt>
      <trkpt lat="45.98079" lon="3.72515">
        <ele>903.94836425781</ele>
        <time>2020-09-04T01:48:24.613Z</time>
      </trkpt>
      <trkpt lat="45.98079" lon="3.72515">
        <ele>903.94757080078</ele>
        <time>2020-09-04T01:48:43.704Z</time>
      </trkpt>
      <trkpt lat="45.98161" lon="3.72481">
        <ele>895.84655761719</ele>
        <time>2020-09-04T01:49:02.809Z</time>
      </trkpt>
      <trkpt lat="45.98239" lon="3.72474">
        <ele>889.89562988281</ele>
        <time>2020-09-04T01:49:21.926Z</time>
      </trkpt>
      <trkpt lat="45.98317" lon="3.72449">
        <ele>883.55639648438</ele>
        <time>2020-09-04T01:49:41.056Z</time>
      </trkpt>
      <trkpt lat="45.98381" lon="3.72412">
        <ele>879.51654052734</ele>
        <time>2020-09-04T01:50:00.197Z</time>
      </trkpt>
      <trkpt lat="45.98447" lon="3.72386">
        <ele>882.52996826172</ele>
        <time>2020-09-04T01:50:19.349Z</time>
      </trkpt>
      <trkpt lat="45.98528" lon="3.72306">
        <ele>888.04370117188</ele>
        <time>2020-09-04T01:50:38.517Z</time>
      </trkpt>
      <trkpt lat="45.98557" lon="3.72263">
        <ele>889.69738769531</ele>
        <time>2020-09-04T01:50:57.692Z</time>
      </trkpt>
      <trkpt lat="45.9861" lon="3.72223">
        <ele>894.82061767578</ele>
        <time>2020-09-04T01:51:16.876Z</time>
      </trkpt>
      <trkpt lat="45.98628" lon="3.72186">
        <ele>897.20788574219</ele>
        <time>2020-09-04T01:51:36.065Z</time>
      </trkpt>
      <trkpt lat="45.98643" lon="3.72148">
        <ele>901.80255126953</ele>
        <time>2020-09-04T01:51:55.259Z</time>
      </trkpt>
      <trkpt lat="45.98641" lon="3.72059">
        <ele>906.00927734375</ele>
        <time>2020-09-04T01:52:14.463Z</time>
      </trkpt>
      <trkpt lat="45.98656" lon="3.71941">
        <ele>913.33679199219</ele>
        <time>2020-09-04T01:52:33.680Z</time>
      </trkpt>
      <trkpt lat="45.98679" lon="3.71852">
        <ele>920.67504882812</ele>
        <time>2020-09-04T01:52:52.908Z</time>
      </trkpt>
      <trkpt lat="45.98689" lon="3.71829">
        <ele>922.42572021484</ele>
        <time>2020-09-04T01:53:12.139Z</time>
      </trkpt>
      <trkpt lat="45.98715" lon="3.71768">
        <ele>927.16888427734</ele>
        <time>2020-09-04T01:53:31.378Z</time>
      </trkpt>
      <trkpt lat="45.98741" lon="3.7166">
        <ele>924.02856445312</ele>
        <time>2020-09-04T01:53:50.630Z</time>
      </trkpt>
      <trkpt lat="45.98764" lon="3.71609">
        <ele>923.15905761719</ele>
        <time>2020-09-04T01:54:09.889Z</time>
      </trkpt>
      <trkpt lat="45.98864" lon="3.7145">
        <ele>934.56182861328</ele>
        <time>2020-09-04T01:54:29.172Z</time>
      </trkpt>
      <trkpt lat="45.98915" lon="3.71327">
        <ele>940.68414306641</ele>
        <time>2020-09-04T01:54:48.470Z</time>
      </trkpt>
      <trkpt lat="45.98954" lon="3.71271">
        <ele>945.07391357422</ele>
        <time>2020-09-04T01:55:07.777Z</time>
      </trkpt>
      <trkpt lat="45.99067" lon="3.7118">
        <ele>963.23364257812</ele>
        <time>2020-09-04T01:55:27.105Z</time>
      </trkpt>
      <trkpt lat="45.99163" lon="3.71049">
        <ele>963.40588378906</ele>
        <time>2020-09-04T01:55:46.454Z</time>
      </trkpt>
      <trkpt lat="45.99184" lon="3.71044">
        <ele>963.29296875</ele>
        <time>2020-09-04T01:56:05.807Z</time>
      </trkpt>
      <trkpt lat="45.99307" lon="3.71073">
        <ele>964.9326171875</ele>
        <time>2020-09-04T01:56:25.180Z</time>
      </trkpt>
      <trkpt lat="45.99461" lon="3.71023">
        <ele>961.67590332031</ele>
        <time>2020-09-04T01:56:44.578Z</time>
      </trkpt>
      <trkpt lat="45.99461" lon="3.71023">
        <ele>961.67620849609</ele>
        <time>2020-09-04T01:57:03.976Z</time>
      </trkpt>
      <trkpt lat="45.99604" lon="3.70937">
        <ele>957.07086181641</ele>
        <time>2020-09-04T01:57:23.399Z</time>
      </trkpt>
      <trkpt lat="45.99701" lon="3.70908">
        <ele>951.99652099609</ele>
        <time>2020-09-04T01:57:42.837Z</time>
      </trkpt>
      <trkpt lat="45.99804" lon="3.70901">
        <ele>954.74536132812</ele>
        <time>2020-09-04T01:58:02.292Z</time>
      </trkpt>
      <trkpt lat="45.9985" lon="3.70913">
        <ele>950.49584960938</ele>
        <time>2020-09-04T01:58:21.754Z</time>
      </trkpt>
      <trkpt lat="45.99896" lon="3.70911">
        <ele>944.44305419922</ele>
        <time>2020-09-04T01:58:41.224Z</time>
      </trkpt>
      <trkpt lat="46" lon="3.70925">
        <ele>937.19158935547</ele>
        <time>2020-09-04T01:59:00.711Z</time>
      </trkpt>
      <trkpt lat="46.00083" lon="3.70855">
        <ele>926.51141357422</ele>
        <time>2020-09-04T01:59:20.213Z</time>
      </trkpt>
      <trkpt lat="46.00159" lon="3.70832">
        <ele>917.58843994141</ele>
        <time>2020-09-04T01:59:39.727Z</time>
      </trkpt>
      <trkpt lat="46.00212" lon="3.70827">
        <ele>913.16998291016</ele>
        <time>2020-09-04T01:59:59.250Z</time>
      </trkpt>
      <trkpt lat="46.00265" lon="3.70836">
        <ele>909.05523681641</ele>
        <time>2020-09-04T02:00:18.781Z</time>
      </trkpt>
      <trkpt lat="46.00279" lon="3.70827">
        <ele>906.35205078125</ele>
        <time>2020-09-04T02:00:38.315Z</time>
      </trkpt>
      <trkpt lat="46.00334" lon="3.70734">
        <ele>896.37683105469</ele>
        <time>2020-09-04T02:00:57.863Z</time>
      </trkpt>
      <trkpt lat="46.00367" lon="3.7071">
        <ele>893.83148193359</ele>
        <time>2020-09-04T02:01:17.416Z</time>
      </trkpt>
      <trkpt lat="46.00571" lon="3.70678">
        <ele>894.00054931641</ele>
        <time>2020-09-04T02:01:37.002Z</time>
      </trkpt>
      <trkpt lat="46.00571" lon="3.70678">
        <ele>894.00067138672</ele>
        <time>2020-09-04T02:01:56.588Z</time>
      </trkpt>
      <trkpt lat="46.00615" lon="3.70643">
        <ele>890.47943115234</ele>
        <time>2020-09-04T02:02:16.182Z</time>
      </trkpt>
      <trkpt lat="46.00649" lon="3.70635">
        <ele>891.40625</ele>
        <time>2020-09-04T02:02:35.782Z</time>
      </trkpt>
      <trkpt lat="46.00753" lon="3.70533">
        <ele>899.38031005859</ele>
        <time>2020-09-04T02:02:55.402Z</time>
      </trkpt>
      <trkpt lat="46.00802" lon="3.70513">
        <ele>902.60784912109</ele>
        <time>2020-09-04T02:03:15.030Z</time>
      </trkpt>
      <trkpt lat="46.00867" lon="3.70465">
        <ele>905.77410888672</ele>
        <time>2020-09-04T02:03:34.670Z</time>
      </trkpt>
      <trkpt lat="46.00923" lon="3.70446">
        <ele>905.61236572266</ele>
        <time>2020-09-04T02:03:54.319Z</time>
      </trkpt>
      <trkpt lat="46.00973" lon="3.70415">
        <ele>902.93988037109</ele>
        <time>2020-09-04T02:04:13.977Z</time>
      </trkpt>
      <trkpt lat="46.01015" lon="3.7041">
        <ele>900.75732421875</ele>
        <time>2020-09-04T02:04:33.642Z</time>
      </trkpt>
      <trkpt lat="46.01039" lon="3.70397">
        <ele>898.02795410156</ele>
        <time>2020-09-04T02:04:53.311Z</time>
      </trkpt>
      <trkpt lat="46.01099" lon="3.70409">
        <ele>896.16693115234</ele>
        <time>2020-09-04T02:05:12.989Z</time>
      </trkpt>
      <trkpt lat="46.01161" lon="3.70423">
        <ele>895.5634765625</ele>
        <time>2020-09-04T02:05:32.677Z</time>
      </trkpt>
      <trkpt lat="46.01205" lon="3.70416">
        <ele>892.74176025391</ele>
        <time>2020-09-04T02:05:52.372Z</time>
      </trkpt>
      <trkpt lat="46.01364" lon="3.70346">
        <ele>878.57458496094</ele>
        <time>2020-09-04T02:06:12.094Z</time>
      </trkpt>
      <trkpt lat="46.01495" lon="3.70254">
        <ele>859.56903076172</ele>
        <time>2020-09-04T02:06:31.839Z</time>
      </trkpt>
      <trkpt lat="46.01516" lon="3.70254">
        <ele>858.02435302734</ele>
        <time>2020-09-04T02:06:51.588Z</time>
      </trkpt>
      <trkpt lat="46.01629" lon="3.70294">
        <ele>859.11193847656</ele>
        <time>2020-09-04T02:07:11.355Z</time>
      </trkpt>
      <trkpt lat="46.01655" lon="3.70285">
        <ele>860.39172363281</ele>
        <time>2020-09-04T02:07:31.127Z</time>
      </trkpt>
      <trkpt lat="46.01692" lon="3.70241">
        <ele>864.21771240234</ele>
        <time>2020-09-04T02:07:50.906Z</time>
      </trkpt>
      <trkpt lat="46.01766" lon="3.70112">
        <ele>862.75311279297</ele>
        <time>2020-09-04T02:08:10.704Z</time>
      </trkpt>
      <trkpt lat="46.01797" lon="3.7007">
        <ele>861.98840332031</ele>
        <time>2020-09-04T02:08:30.509Z</time>
      </trkpt>
      <trkpt lat="46.019" lon="3.70009">
        <ele>853.67919921875</ele>
        <time>2020-09-04T02:08:50.332Z</time>
      </trkpt>
      <trkpt lat="46.02023" lon="3.69983">
        <ele>842.87866210938</ele>
        <time>2020-09-04T02:09:10.175Z</time>
      </trkpt>
      <trkpt lat="46.02085" lon="3.69885">
        <ele>839.90307617188</ele>
        <time>2020-09-04T02:09:30.032Z</time>
      </trkpt>
      <trkpt lat="46.02085" lon="3.69885">
        <ele>839.90283203125</ele>
        <time>2020-09-04T02:09:49.889Z</time>
      </trkpt>
      <trkpt lat="46.021" lon="3.69862">
        <ele>839.98809814453</ele>
        <time>2020-09-04T02:10:09.750Z</time>
      </trkpt>
      <trkpt lat="46.02224" lon="3.69743">
        <ele>847.17651367188</ele>
        <time>2020-09-04T02:10:29.635Z</time>
      </trkpt>
      <trkpt lat="46.02294" lon="3.69705">
        <ele>849.37133789062</ele>
        <time>2020-09-04T02:10:49.532Z</time>
      </trkpt>
      <trkpt lat="46.02409" lon="3.69605">
        <ele>857.66748046875</ele>
        <time>2020-09-04T02:11:09.450Z</time>
      </trkpt>
      <trkpt lat="46.02409" lon="3.69605">
        <ele>857.66784667969</ele>
        <time>2020-09-04T02:11:29.368Z</time>
      </trkpt>
      <trkpt lat="46.02456" lon="3.69576">
        <ele>860.34777832031</ele>
        <time>2020-09-04T02:11:49.294Z</time>
      </trkpt>
      <trkpt lat="46.02509" lon="3.69558">
        <ele>866.21643066406</ele>
        <time>2020-09-04T02:12:09.229Z</time>
      </trkpt>
      <trkpt lat="46.02598" lon="3.69499">
        <ele>869.58020019531</ele>
        <time>2020-09-04T02:12:29.180Z</time>
      </trkpt>
      <trkpt lat="46.02622" lon="3.69464">
        <ele>869.78619384766</ele>
        <time>2020-09-04T02:12:49.136Z</time>
      </trkpt>
      <trkpt lat="46.02645" lon="3.69454">
        <ele>870.85675048828</ele>
        <time>2020-09-04T02:13:09.096Z</time>
      </trkpt>
      <trkpt lat="46.0266" lon="3.69434">
        <ele>870.81109619141</ele>
        <time>2020-09-04T02:13:29.059Z</time>
      </trkpt>
      <trkpt lat="46.0271" lon="3.69302">
        <ele>865.4482421875</ele>
        <time>2020-09-04T02:13:49.039Z</time>
      </trkpt>
      <trkpt lat="46.02746" lon="3.69247">
        <ele>863.90557861328</ele>
        <time>2020-09-04T02:14:09.028Z</time>
      </trkpt>
      <trkpt lat="46.02746" lon="3.69247">
        <ele>863.90637207031</ele>
        <time>2020-09-04T02:14:29.017Z</time>
      </trkpt>
      <trkpt lat="46.02803" lon="3.69178">
        <ele>866.18096923828</ele>
        <time>2020-09-04T02:14:49.017Z</time>
      </trkpt>
      <trkpt lat="46.02812" lon="3.69158">
        <ele>865.99981689453</ele>
        <time>2020-09-04T02:15:09.020Z</time>
      </trkpt>
      <trkpt lat="46.029" lon="3.68836">
        <ele>860.66564941406</ele>
        <time>2020-09-04T02:15:29.062Z</time>
      </trkpt>
      <trkpt lat="46.02929" lon="3.68769">
        <ele>860.75451660156</ele>
        <time>2020-09-04T02:15:49.112Z</time>
      </trkpt>
      <trkpt lat="46.02933" lon="3.68702">
        <ele>856.25671386719</ele>
        <time>2020-09-04T02:16:09.170Z</time>
      </trkpt>
      <trkpt lat="46.03025" lon="3.68395">
        <ele>846.60131835938</ele>
        <time>2020-09-04T02:16:29.265Z</time>
      </trkpt>
      <trkpt lat="46.03117" lon="3.68216">
        <ele>847.60571289062</ele>
        <time>2020-09-04T02:16:49.385Z</time>
      </trkpt>
      <trkpt lat="46.03179" lon="3.68061">
        <ele>850.90484619141</ele>
        <time>2020-09-04T02:17:09.525Z</time>
      </trkpt>
      <trkpt lat="46.03234" lon="3.67983">
        <ele>855.14025878906</ele>
        <time>2020-09-04T02:17:29.677Z</time>
      </trkpt>
      <trkpt lat="46.03277" lon="3.67953">
        <ele>853.83654785156</ele>
        <time>2020-09-04T02:17:49.837Z</time>
      </trkpt>
      <trkpt lat="46.03332" lon="3.67884">
        <ele>851.40582275391</ele>
        <time>2020-09-04T02:18:10.009Z</time>
      </trkpt>
      <trkpt lat="46.03341" lon="3.67851">
        <ele>847.38116455078</ele>
        <time>2020-09-04T02:18:30.185Z</time>
      </trkpt>
      <trkpt lat="46.03347" lon="3.67652">
        <ele>827.23699951172</ele>
        <time>2020-09-04T02:18:50.383Z</time>
      </trkpt>
      <trkpt lat="46.03328" lon="3.67435">
        <ele>821.16766357422</ele>
        <time>2020-09-04T02:19:10.605Z</time>
      </trkpt>
      <trkpt lat="46.03328" lon="3.67435">
        <ele>821.16650390625</ele>
        <time>2020-09-04T02:19:30.827Z</time>
      </trkpt>
      <trkpt lat="46.03335" lon="3.67398">
        <ele>819.36553955078</ele>
        <time>2020-09-04T02:19:51.053Z</time>
      </trkpt>
      <trkpt lat="46.03352" lon="3.67435">
        <ele>817.76934814453</ele>
        <time>2020-09-04T02:20:11.284Z</time>
      </trkpt>
      <trkpt lat="46.03371" lon="3.67568">
        <ele>815.86346435547</ele>
        <time>2020-09-04T02:20:31.531Z</time>
      </trkpt>
      <trkpt lat="46.03403" lon="3.67718">
        <ele>821.38256835938</ele>
        <time>2020-09-04T02:20:51.795Z</time>
      </trkpt>
      <trkpt lat="46.03449" lon="3.67798">
        <ele>817.91241455078</ele>
        <time>2020-09-04T02:21:12.071Z</time>
      </trkpt>
      <trkpt lat="46.03472" lon="3.67884">
        <ele>818.05255126953</ele>
        <time>2020-09-04T02:21:32.357Z</time>
      </trkpt>
      <trkpt lat="46.03476" lon="3.67998">
        <ele>824.70013427734</ele>
        <time>2020-09-04T02:21:52.656Z</time>
      </trkpt>
      <trkpt lat="46.03482" lon="3.68013">
        <ele>825.60125732422</ele>
        <time>2020-09-04T02:22:12.956Z</time>
      </trkpt>
      <trkpt lat="46.03478" lon="3.68035">
        <ele>824.97839355469</ele>
        <time>2020-09-04T02:22:33.259Z</time>
      </trkpt>
      <trkpt lat="46.03452" lon="3.6807">
        <ele>825.82476806641</ele>
        <time>2020-09-04T02:22:53.568Z</time>
      </trkpt>
      <trkpt lat="46.03437" lon="3.68081">
        <ele>825.63043212891</ele>
        <time>2020-09-04T02:23:13.879Z</time>
      </trkpt>
      <trkpt lat="46.03392" lon="3.68086">
        <ele>826.90698242188</ele>
        <time>2020-09-04T02:23:34.198Z</time>
      </trkpt>
      <trkpt lat="46.03333" lon="3.68154">
        <ele>819.62939453125</ele>
        <time>2020-09-04T02:23:54.529Z</time>
      </trkpt>
      <trkpt lat="46.03323" lon="3.68301">
        <ele>811.30316162109</ele>
        <time>2020-09-04T02:24:14.876Z</time>
      </trkpt>
      <trkpt lat="46.03304" lon="3.6839">
        <ele>813.19757080078</ele>
        <time>2020-09-04T02:24:35.233Z</time>
      </trkpt>
      <trkpt lat="46.03322" lon="3.68466">
        <ele>807.50732421875</ele>
        <time>2020-09-04T02:24:55.599Z</time>
      </trkpt>
      <trkpt lat="46.03369" lon="3.68562">
        <ele>797.42163085938</ele>
        <time>2020-09-04T02:25:15.979Z</time>
      </trkpt>
      <trkpt lat="46.0338" lon="3.68633">
        <ele>795.78973388672</ele>
        <time>2020-09-04T02:25:36.367Z</time>
      </trkpt>
      <trkpt lat="46.0341" lon="3.68736">
        <ele>787.82983398438</ele>
        <time>2020-09-04T02:25:56.767Z</time>
      </trkpt>
      <trkpt lat="46.03401" lon="3.68778">
        <ele>788.56127929688</ele>
        <time>2020-09-04T02:26:17.172Z</time>
      </trkpt>
      <trkpt lat="46.03395" lon="3.68913">
        <ele>788.16040039062</ele>
        <time>2020-09-04T02:26:37.592Z</time>
      </trkpt>
      <trkpt lat="46.03383" lon="3.68963">
        <ele>791.76196289062</ele>
        <time>2020-09-04T02:26:58.018Z</time>
      </trkpt>
      <trkpt lat="46.03399" lon="3.69009">
        <ele>788.42175292969</ele>
        <time>2020-09-04T02:27:18.450Z</time>
      </trkpt>
      <trkpt lat="46.03407" lon="3.6906">
        <ele>789.03521728516</ele>
        <time>2020-09-04T02:27:38.888Z</time>
      </trkpt>
      <trkpt lat="46.03443" lon="3.69134">
        <ele>785.54193115234</ele>
        <time>2020-09-04T02:27:59.336Z</time>
      </trkpt>
      <trkpt lat="46.03517" lon="3.69076">
        <ele>778.50994873047</ele>
        <time>2020-09-04T02:28:19.797Z</time>
      </trkpt>
      <trkpt lat="46.03641" lon="3.69036">
        <ele>770.81439208984</ele>
        <time>2020-09-04T02:28:40.278Z</time>
      </trkpt>
      <trkpt lat="46.03755" lon="3.69029">
        <ele>767.91442871094</ele>
        <time>2020-09-04T02:29:00.778Z</time>
      </trkpt>
      <trkpt lat="46.03818" lon="3.69063">
        <ele>766.91046142578</ele>
        <time>2020-09-04T02:29:21.288Z</time>
      </trkpt>
      <trkpt lat="46.03867" lon="3.69104">
        <ele>764.97692871094</ele>
        <time>2020-09-04T02:29:41.808Z</time>
      </trkpt>
      <trkpt lat="46.03988" lon="3.69147">
        <ele>766.64794921875</ele>
        <time>2020-09-04T02:30:02.348Z</time>
      </trkpt>
      <trkpt lat="46.04027" lon="3.69167">
        <ele>765.23199462891</ele>
        <time>2020-09-04T02:30:22.894Z</time>
      </trkpt>
      <trkpt lat="46.04059" lon="3.69173">
        <ele>764.65850830078</ele>
        <time>2020-09-04T02:30:43.445Z</time>
      </trkpt>
      <trkpt lat="46.04089" lon="3.69166">
        <ele>762.80987548828</ele>
        <time>2020-09-04T02:31:04.001Z</time>
      </trkpt>
      <trkpt lat="46.04133" lon="3.69132">
        <ele>762.37322998047</ele>
        <time>2020-09-04T02:31:24.565Z</time>
      </trkpt>
      <trkpt lat="46.04188" lon="3.69118">
        <ele>763.29895019531</ele>
        <time>2020-09-04T02:31:45.138Z</time>
      </trkpt>
      <trkpt lat="46.04277" lon="3.6913">
        <ele>762.47479248047</ele>
        <time>2020-09-04T02:32:05.725Z</time>
      </trkpt>
      <trkpt lat="46.04322" lon="3.69144">
        <ele>760.32818603516</ele>
        <time>2020-09-04T02:32:26.320Z</time>
      </trkpt>
      <trkpt lat="46.04444" lon="3.692">
        <ele>749.41815185547</ele>
        <time>2020-09-04T02:32:46.935Z</time>
      </trkpt>
      <trkpt lat="46.04531" lon="3.69208">
        <ele>738.62609863281</ele>
        <time>2020-09-04T02:33:07.564Z</time>
      </trkpt>
      <trkpt lat="46.04578" lon="3.69239">
        <ele>729.75317382812</ele>
        <time>2020-09-04T02:33:28.202Z</time>
      </trkpt>
      <trkpt lat="46.04608" lon="3.6923">
        <ele>720.40283203125</ele>
        <time>2020-09-04T02:33:48.845Z</time>
      </trkpt>
      <trkpt lat="46.04609" lon="3.69229">
        <ele>719.78820800781</ele>
        <time>2020-09-04T02:34:09.488Z</time>
      </trkpt>
      <trkpt lat="46.04663" lon="3.69211">
        <ele>695.89691162109</ele>
        <time>2020-09-04T02:34:30.140Z</time>
      </trkpt>
      <trkpt lat="46.04751" lon="3.69326">
        <ele>685.96868896484</ele>
        <time>2020-09-04T02:34:50.811Z</time>
      </trkpt>
      <trkpt lat="46.04801" lon="3.69318">
        <ele>669.59210205078</ele>
        <time>2020-09-04T02:35:11.490Z</time>
      </trkpt>
      <trkpt lat="46.04844" lon="3.69323">
        <ele>657.32073974609</ele>
        <time>2020-09-04T02:35:32.176Z</time>
      </trkpt>
      <trkpt lat="46.04819" lon="3.69224">
        <ele>652.04937744141</ele>
        <time>2020-09-04T02:35:52.873Z</time>
      </trkpt>
      <trkpt lat="46.04819" lon="3.69224">
        <ele>652.04718017578</ele>
        <time>2020-09-04T02:36:13.570Z</time>
      </trkpt>
      <trkpt lat="46.04801" lon="3.69171">
        <ele>649.19659423828</ele>
        <time>2020-09-04T02:36:34.274Z</time>
      </trkpt>
      <trkpt lat="46.04815" lon="3.69175">
        <ele>646.79339599609</ele>
        <time>2020-09-04T02:36:54.980Z</time>
      </trkpt>
      <trkpt lat="46.04815" lon="3.69175">
        <ele>646.79168701172</ele>
        <time>2020-09-04T02:37:15.686Z</time>
      </trkpt>
      <trkpt lat="46.04866" lon="3.69207">
        <ele>639.68908691406</ele>
        <time>2020-09-04T02:37:36.401Z</time>
      </trkpt>
      <trkpt lat="46.04977" lon="3.69303">
        <ele>626.12371826172</ele>
        <time>2020-09-04T02:37:57.137Z</time>
      </trkpt>
      <trkpt lat="46.05019" lon="3.69383">
        <ele>624.67193603516</ele>
        <time>2020-09-04T02:38:17.884Z</time>
      </trkpt>
      <trkpt lat="46.05078" lon="3.69439">
        <ele>619.54876708984</ele>
        <time>2020-09-04T02:38:38.642Z</time>
      </trkpt>
      <trkpt lat="46.0526" lon="3.69335">
        <ele>608.33062744141</ele>
        <time>2020-09-04T02:38:59.432Z</time>
      </trkpt>
      <trkpt lat="46.05386" lon="3.69206">
        <ele>599.38800048828</ele>
        <time>2020-09-04T02:39:20.246Z</time>
      </trkpt>
      <trkpt lat="46.05402" lon="3.69181">
        <ele>597.12097167969</ele>
        <time>2020-09-04T02:39:41.064Z</time>
      </trkpt>
      <trkpt lat="46.05403" lon="3.6917">
        <ele>595.83374023438</ele>
        <time>2020-09-04T02:40:01.884Z</time>
      </trkpt>
      <trkpt lat="46.05393" lon="3.69147">
        <ele>595.21368408203</ele>
        <time>2020-09-04T02:40:22.707Z</time>
      </trkpt>
      <trkpt lat="46.05275" lon="3.69042">
        <ele>594.89239501953</ele>
        <time>2020-09-04T02:40:43.552Z</time>
      </trkpt>
      <trkpt lat="46.0526" lon="3.69019">
        <ele>594.21447753906</ele>
        <time>2020-09-04T02:41:04.400Z</time>
      </trkpt>
      <trkpt lat="46.0526" lon="3.68999">
        <ele>595.19274902344</ele>
        <time>2020-09-04T02:41:25.251Z</time>
      </trkpt>
      <trkpt lat="46.05274" lon="3.68978">
        <ele>595.88806152344</ele>
        <time>2020-09-04T02:41:46.105Z</time>
      </trkpt>
      <trkpt lat="46.05291" lon="3.68972">
        <ele>595.73358154297</ele>
        <time>2020-09-04T02:42:06.962Z</time>
      </trkpt>
      <trkpt lat="46.05425" lon="3.68955">
        <ele>592.22839355469</ele>
        <time>2020-09-04T02:42:27.840Z</time>
      </trkpt>
      <trkpt lat="46.05459" lon="3.68941">
        <ele>591.40454101562</ele>
        <time>2020-09-04T02:42:48.724Z</time>
      </trkpt>
      <trkpt lat="46.05459" lon="3.68941">
        <ele>591.40435791016</ele>
        <time>2020-09-04T02:43:09.608Z</time>
      </trkpt>
      <trkpt lat="46.05475" lon="3.68921">
        <ele>590.66662597656</ele>
        <time>2020-09-04T02:43:30.495Z</time>
      </trkpt>
      <trkpt lat="46.05491" lon="3.68874">
        <ele>588.19989013672</ele>
        <time>2020-09-04T02:43:51.388Z</time>
      </trkpt>
      <trkpt lat="46.056" lon="3.68511">
        <ele>571.13891601562</ele>
        <time>2020-09-04T02:44:12.325Z</time>
      </trkpt>
      <trkpt lat="46.0564" lon="3.68428">
        <ele>572.24987792969</ele>
        <time>2020-09-04T02:44:33.273Z</time>
      </trkpt>
      <trkpt lat="46.0564" lon="3.68428">
        <ele>572.24969482422</ele>
        <time>2020-09-04T02:44:54.221Z</time>
      </trkpt>
      <trkpt lat="46.05727" lon="3.68262">
        <ele>570.15478515625</ele>
        <time>2020-09-04T02:45:15.193Z</time>
      </trkpt>
      <trkpt lat="46.05768" lon="3.68184">
        <ele>570.95697021484</ele>
        <time>2020-09-04T02:45:36.175Z</time>
      </trkpt>
      <trkpt lat="46.05742" lon="3.68182">
        <ele>571.54913330078</ele>
        <time>2020-09-04T02:45:57.162Z</time>
      </trkpt>
      <trkpt lat="46.05768" lon="3.68184">
        <ele>570.95678710938</ele>
        <time>2020-09-04T02:46:18.153Z</time>
      </trkpt>
      <trkpt lat="46.05773" lon="3.6817">
        <ele>570.66088867188</ele>
        <time>2020-09-04T02:46:39.146Z</time>
      </trkpt>
      <trkpt lat="46.05774" lon="3.6817">
        <ele>570.66070556641</ele>
        <time>2020-09-04T02:47:00.139Z</time>
      </trkpt>
      <trkpt lat="46.05796" lon="3.68111">
        <ele>572.40441894531</ele>
        <time>2020-09-04T02:47:21.139Z</time>
      </trkpt>
      <trkpt lat="46.05833" lon="3.67833">
        <ele>567.62902832031</ele>
        <time>2020-09-04T02:47:42.171Z</time>
      </trkpt>
      <trkpt lat="46.05831" lon="3.67806">
        <ele>567.88647460938</ele>
        <time>2020-09-04T02:48:03.206Z</time>
      </trkpt>
      <trkpt lat="46.05796" lon="3.67683">
        <ele>565.78881835938</ele>
        <time>2020-09-04T02:48:24.255Z</time>
      </trkpt>
      <trkpt lat="46.05793" lon="3.6762">
        <ele>564.02526855469</ele>
        <time>2020-09-04T02:48:45.311Z</time>
      </trkpt>
      <trkpt lat="46.05811" lon="3.67546">
        <ele>561.60363769531</ele>
        <time>2020-09-04T02:49:06.376Z</time>
      </trkpt>
      <trkpt lat="46.05825" lon="3.67522">
        <ele>560.61102294922</ele>
        <time>2020-09-04T02:49:27.445Z</time>
      </trkpt>
      <trkpt lat="46.06036" lon="3.6729">
        <ele>550.34820556641</ele>
        <time>2020-09-04T02:49:48.556Z</time>
      </trkpt>
      <trkpt lat="46.06036" lon="3.6729">
        <ele>550.34869384766</ele>
        <time>2020-09-04T02:50:09.667Z</time>
      </trkpt>
      <trkpt lat="46.06153" lon="3.67161">
        <ele>550.26306152344</ele>
        <time>2020-09-04T02:50:30.802Z</time>
      </trkpt>
      <trkpt lat="46.06213" lon="3.67096">
        <ele>551.54119873047</ele>
        <time>2020-09-04T02:50:51.949Z</time>
      </trkpt>
      <trkpt lat="46.06329" lon="3.67016">
        <ele>550.59759521484</ele>
        <time>2020-09-04T02:51:13.116Z</time>
      </trkpt>
      <trkpt lat="46.0637" lon="3.66967">
        <ele>554.95910644531</ele>
        <time>2020-09-04T02:51:34.292Z</time>
      </trkpt>
      <trkpt lat="46.06383" lon="3.66949">
        <ele>553.76147460938</ele>
        <time>2020-09-04T02:51:55.471Z</time>
      </trkpt>
      <trkpt lat="46.06376" lon="3.66912">
        <ele>551.18798828125</ele>
        <time>2020-09-04T02:52:16.654Z</time>
      </trkpt>
      <trkpt lat="46.06374" lon="3.6682">
        <ele>544.86840820312</ele>
        <time>2020-09-04T02:52:37.847Z</time>
      </trkpt>
      <trkpt lat="46.06374" lon="3.6682">
        <ele>544.86822509766</ele>
        <time>2020-09-04T02:52:59.040Z</time>
      </trkpt>
      <trkpt lat="46.0638" lon="3.66735">
        <ele>542.91711425781</ele>
        <time>2020-09-04T02:53:20.243Z</time>
      </trkpt>
      <trkpt lat="46.0643" lon="3.6658">
        <ele>546.93542480469</ele>
        <time>2020-09-04T02:53:41.465Z</time>
      </trkpt>
      <trkpt lat="46.06453" lon="3.66475">
        <ele>547.56475830078</ele>
        <time>2020-09-04T02:54:02.699Z</time>
      </trkpt>
      <trkpt lat="46.06464" lon="3.6638">
        <ele>546.0791015625</ele>
        <time>2020-09-04T02:54:23.944Z</time>
      </trkpt>
      <trkpt lat="46.06464" lon="3.6638">
        <ele>546.07879638672</ele>
        <time>2020-09-04T02:54:45.189Z</time>
      </trkpt>
      <trkpt lat="46.06472" lon="3.66339">
        <ele>545.3125</ele>
        <time>2020-09-04T02:55:06.439Z</time>
      </trkpt>
      <trkpt lat="46.06485" lon="3.66314">
        <ele>545.26214599609</ele>
        <time>2020-09-04T02:55:27.692Z</time>
      </trkpt>
      <trkpt lat="46.06571" lon="3.66234">
        <ele>544.55590820312</ele>
        <time>2020-09-04T02:55:48.961Z</time>
      </trkpt>
      <trkpt lat="46.06593" lon="3.66217">
        <ele>545.03228759766</ele>
        <time>2020-09-04T02:56:10.235Z</time>
      </trkpt>
      <trkpt lat="46.06599" lon="3.66208">
        <ele>545.19952392578</ele>
        <time>2020-09-04T02:56:31.510Z</time>
      </trkpt>
      <trkpt lat="46.06638" lon="3.66186">
        <ele>545.95074462891</ele>
        <time>2020-09-04T02:56:52.792Z</time>
      </trkpt>
      <trkpt lat="46.06755" lon="3.66141">
        <ele>546.73663330078</ele>
        <time>2020-09-04T02:57:14.093Z</time>
      </trkpt>
      <trkpt lat="46.06925" lon="3.66021">
        <ele>546.96783447266</ele>
        <time>2020-09-04T02:57:35.424Z</time>
      </trkpt>
      <trkpt lat="46.06904" lon="3.65901">
        <ele>548.42559814453</ele>
        <time>2020-09-04T02:57:56.769Z</time>
      </trkpt>
      <trkpt lat="46.06899" lon="3.65871">
        <ele>548.78607177734</ele>
        <time>2020-09-04T02:58:18.117Z</time>
      </trkpt>
      <trkpt lat="46.06897" lon="3.65858">
        <ele>548.94049072266</ele>
        <time>2020-09-04T02:58:39.467Z</time>
      </trkpt>
      <trkpt lat="46.06897" lon="3.65858">
        <ele>548.94049072266</ele>
        <time>2020-09-04T02:59:00.817Z</time>
      </trkpt>
      <trkpt lat="46.06871" lon="3.65705">
        <ele>549.29266357422</ele>
        <time>2020-09-04T02:59:22.184Z</time>
      </trkpt>
      <trkpt lat="46.06785" lon="3.65195">
        <ele>551.14666748047</ele>
        <time>2020-09-04T02:59:43.610Z</time>
      </trkpt>
      <trkpt lat="46.06753" lon="3.65006">
        <ele>560.16186523438</ele>
        <time>2020-09-04T03:00:05.058Z</time>
      </trkpt>
      <trkpt lat="46.06752" lon="3.64921">
        <ele>561.84716796875</ele>
        <time>2020-09-04T03:00:26.515Z</time>
      </trkpt>
      <trkpt lat="46.06755" lon="3.64898">
        <ele>560.95916748047</ele>
        <time>2020-09-04T03:00:47.975Z</time>
      </trkpt>
      <trkpt lat="46.06755" lon="3.64898">
        <ele>560.958984375</ele>
        <time>2020-09-04T03:01:09.435Z</time>
      </trkpt>
      <trkpt lat="46.06779" lon="3.64833">
        <ele>560.560546875</ele>
        <time>2020-09-04T03:01:30.903Z</time>
      </trkpt>
      <trkpt lat="46.06834" lon="3.64748">
        <ele>559.82293701172</ele>
        <time>2020-09-04T03:01:52.384Z</time>
      </trkpt>
      <trkpt lat="46.06881" lon="3.6467">
        <ele>559.70745849609</ele>
        <time>2020-09-04T03:02:13.876Z</time>
      </trkpt>
      <trkpt lat="46.06896" lon="3.64588">
        <ele>560.47509765625</ele>
        <time>2020-09-04T03:02:35.378Z</time>
      </trkpt>
      <trkpt lat="46.06909" lon="3.64475">
        <ele>561.78582763672</ele>
        <time>2020-09-04T03:02:56.893Z</time>
      </trkpt>
      <trkpt lat="46.06941" lon="3.64379">
        <ele>561.28491210938</ele>
        <time>2020-09-04T03:03:18.419Z</time>
      </trkpt>
      <trkpt lat="46.06965" lon="3.64332">
        <ele>560.61956787109</ele>
        <time>2020-09-04T03:03:39.952Z</time>
      </trkpt>
      <trkpt lat="46.07079" lon="3.64129">
        <ele>564.06622314453</ele>
        <time>2020-09-04T03:04:01.514Z</time>
      </trkpt>
      <trkpt lat="46.07165" lon="3.63793">
        <ele>566.26495361328</ele>
        <time>2020-09-04T03:04:23.116Z</time>
      </trkpt>
      <trkpt lat="46.07194" lon="3.63754">
        <ele>566.55358886719</ele>
        <time>2020-09-04T03:04:44.724Z</time>
      </trkpt>
      <trkpt lat="46.07258" lon="3.63722">
        <ele>568.83062744141</ele>
        <time>2020-09-04T03:05:06.343Z</time>
      </trkpt>
      <trkpt lat="46.07258" lon="3.63722">
        <ele>568.83099365234</ele>
        <time>2020-09-04T03:05:27.962Z</time>
      </trkpt>
      <trkpt lat="46.07282" lon="3.63674">
        <ele>576.16827392578</ele>
        <time>2020-09-04T03:05:49.588Z</time>
      </trkpt>
      <trkpt lat="46.07282" lon="3.63674">
        <ele>576.16967773438</ele>
        <time>2020-09-04T03:06:11.214Z</time>
      </trkpt>
      <trkpt lat="46.0728" lon="3.63628">
        <ele>578.13360595703</ele>
        <time>2020-09-04T03:06:32.845Z</time>
      </trkpt>
      <trkpt lat="46.07269" lon="3.63602">
        <ele>577.64447021484</ele>
        <time>2020-09-04T03:06:54.479Z</time>
      </trkpt>
      <trkpt lat="46.07212" lon="3.63518">
        <ele>576.13250732422</ele>
        <time>2020-09-04T03:07:16.126Z</time>
      </trkpt>
      <trkpt lat="46.07198" lon="3.63459">
        <ele>572.90032958984</ele>
        <time>2020-09-04T03:07:37.780Z</time>
      </trkpt>
      <trkpt lat="46.07207" lon="3.63413">
        <ele>573.81927490234</ele>
        <time>2020-09-04T03:07:59.439Z</time>
      </trkpt>
      <trkpt lat="46.07271" lon="3.6331">
        <ele>574.33166503906</ele>
        <time>2020-09-04T03:08:21.114Z</time>
      </trkpt>
      <trkpt lat="46.07271" lon="3.6331">
        <ele>574.33135986328</ele>
        <time>2020-09-04T03:08:42.789Z</time>
      </trkpt>
      <trkpt lat="46.07331" lon="3.63212">
        <ele>571.32733154297</ele>
        <time>2020-09-04T03:09:04.478Z</time>
      </trkpt>
      <trkpt lat="46.07331" lon="3.63212">
        <ele>571.32696533203</ele>
        <time>2020-09-04T03:09:26.167Z</time>
      </trkpt>
      <trkpt lat="46.0735" lon="3.6315">
        <ele>568.35522460938</ele>
        <time>2020-09-04T03:09:47.864Z</time>
      </trkpt>
      <trkpt lat="46.07353" lon="3.62718">
        <ele>553.7900390625</ele>
        <time>2020-09-04T03:10:09.609Z</time>
      </trkpt>
      <trkpt lat="46.07347" lon="3.62642">
        <ele>549.36193847656</ele>
        <time>2020-09-04T03:10:31.362Z</time>
      </trkpt>
      <trkpt lat="46.07325" lon="3.62551">
        <ele>538.62060546875</ele>
        <time>2020-09-04T03:10:53.126Z</time>
      </trkpt>
      <trkpt lat="46.07228" lon="3.6229">
        <ele>525.56591796875</ele>
        <time>2020-09-04T03:11:14.923Z</time>
      </trkpt>
      <trkpt lat="46.07175" lon="3.62078">
        <ele>520.42510986328</ele>
        <time>2020-09-04T03:11:36.745Z</time>
      </trkpt>
      <trkpt lat="46.07175" lon="3.62009">
        <ele>520.93298339844</ele>
        <time>2020-09-04T03:11:58.575Z</time>
      </trkpt>
      <trkpt lat="46.0718" lon="3.61976">
        <ele>522.27166748047</ele>
        <time>2020-09-04T03:12:20.409Z</time>
      </trkpt>
      <trkpt lat="46.07191" lon="3.61946">
        <ele>522.75115966797</ele>
        <time>2020-09-04T03:12:42.247Z</time>
      </trkpt>
      <trkpt lat="46.07226" lon="3.61891">
        <ele>523.65264892578</ele>
        <time>2020-09-04T03:13:04.093Z</time>
      </trkpt>
      <trkpt lat="46.07227" lon="3.61872">
        <ele>524.77362060547</ele>
        <time>2020-09-04T03:13:25.941Z</time>
      </trkpt>
      <trkpt lat="46.07227" lon="3.61872">
        <ele>524.77392578125</ele>
        <time>2020-09-04T03:13:47.789Z</time>
      </trkpt>
      <trkpt lat="46.07244" lon="3.61829">
        <ele>526.73052978516</ele>
        <time>2020-09-04T03:14:09.643Z</time>
      </trkpt>
      <trkpt lat="46.07268" lon="3.61713">
        <ele>534.6650390625</ele>
        <time>2020-09-04T03:14:31.510Z</time>
      </trkpt>
      <trkpt lat="46.07264" lon="3.61677">
        <ele>538.35260009766</ele>
        <time>2020-09-04T03:14:53.381Z</time>
      </trkpt>
      <trkpt lat="46.07228" lon="3.61613">
        <ele>548.40594482422</ele>
        <time>2020-09-04T03:15:15.261Z</time>
      </trkpt>
      <trkpt lat="46.07173" lon="3.61541">
        <ele>556.78247070312</ele>
        <time>2020-09-04T03:15:37.153Z</time>
      </trkpt>
      <trkpt lat="46.07164" lon="3.61502">
        <ele>559.14807128906</ele>
        <time>2020-09-04T03:15:59.050Z</time>
      </trkpt>
      <trkpt lat="46.07179" lon="3.61482">
        <ele>558.99389648438</ele>
        <time>2020-09-04T03:16:20.950Z</time>
      </trkpt>
      <trkpt lat="46.07233" lon="3.61426">
        <ele>568.96850585938</ele>
        <time>2020-09-04T03:16:42.861Z</time>
      </trkpt>
      <trkpt lat="46.07262" lon="3.61372">
        <ele>574.71997070312</ele>
        <time>2020-09-04T03:17:04.779Z</time>
      </trkpt>
      <trkpt lat="46.07268" lon="3.61344">
        <ele>578.07318115234</ele>
        <time>2020-09-04T03:17:26.701Z</time>
      </trkpt>
      <trkpt lat="46.07253" lon="3.61272">
        <ele>583.73620605469</ele>
        <time>2020-09-04T03:17:48.631Z</time>
      </trkpt>
      <trkpt lat="46.07252" lon="3.61212">
        <ele>583.39776611328</ele>
        <time>2020-09-04T03:18:10.568Z</time>
      </trkpt>
      <trkpt lat="46.07277" lon="3.61092">
        <ele>582.01837158203</ele>
        <time>2020-09-04T03:18:32.519Z</time>
      </trkpt>
      <trkpt lat="46.07273" lon="3.61047">
        <ele>580.92254638672</ele>
        <time>2020-09-04T03:18:54.475Z</time>
      </trkpt>
      <trkpt lat="46.07265" lon="3.61038">
        <ele>580.40777587891</ele>
        <time>2020-09-04T03:19:16.432Z</time>
      </trkpt>
      <trkpt lat="46.07252" lon="3.61004">
        <ele>578.95654296875</ele>
        <time>2020-09-04T03:19:38.394Z</time>
      </trkpt>
      <trkpt lat="46.07224" lon="3.60867">
        <ele>575.38067626953</ele>
        <time>2020-09-04T03:20:00.372Z</time>
      </trkpt>
      <trkpt lat="46.07221" lon="3.6083">
        <ele>574.15173339844</ele>
        <time>2020-09-04T03:20:22.354Z</time>
      </trkpt>
      <trkpt lat="46.07234" lon="3.60724">
        <ele>569.77032470703</ele>
        <time>2020-09-04T03:20:44.348Z</time>
      </trkpt>
      <trkpt lat="46.07242" lon="3.60693">
        <ele>568.37469482422</ele>
        <time>2020-09-04T03:21:06.345Z</time>
      </trkpt>
      <trkpt lat="46.07294" lon="3.60591">
        <ele>563.88970947266</ele>
        <time>2020-09-04T03:21:28.356Z</time>
      </trkpt>
      <trkpt lat="46.0731" lon="3.60581">
        <ele>563.513671875</ele>
        <time>2020-09-04T03:21:50.370Z</time>
      </trkpt>
      <trkpt lat="46.07374" lon="3.60488">
        <ele>558.77508544922</ele>
        <time>2020-09-04T03:22:12.399Z</time>
      </trkpt>
      <trkpt lat="46.07399" lon="3.60434">
        <ele>558.77581787109</ele>
        <time>2020-09-04T03:22:34.435Z</time>
      </trkpt>
      <trkpt lat="46.07397" lon="3.60355">
        <ele>557.89172363281</ele>
        <time>2020-09-04T03:22:56.480Z</time>
      </trkpt>
      <trkpt lat="46.07379" lon="3.60309">
        <ele>556.27941894531</ele>
        <time>2020-09-04T03:23:18.531Z</time>
      </trkpt>
      <trkpt lat="46.07345" lon="3.60176">
        <ele>551.49133300781</ele>
        <time>2020-09-04T03:23:40.597Z</time>
      </trkpt>
      <trkpt lat="46.07352" lon="3.59929">
        <ele>544.93579101562</ele>
        <time>2020-09-04T03:24:02.691Z</time>
      </trkpt>
      <trkpt lat="46.07339" lon="3.59827">
        <ele>542.46057128906</ele>
        <time>2020-09-04T03:24:24.797Z</time>
      </trkpt>
      <trkpt lat="46.07339" lon="3.59827">
        <ele>542.46044921875</ele>
        <time>2020-09-04T03:24:46.903Z</time>
      </trkpt>
      <trkpt lat="46.07328" lon="3.5979">
        <ele>541.01873779297</ele>
        <time>2020-09-04T03:25:09.013Z</time>
      </trkpt>
      <trkpt lat="46.07293" lon="3.59712">
        <ele>540.41705322266</ele>
        <time>2020-09-04T03:25:31.133Z</time>
      </trkpt>
      <trkpt lat="46.07199" lon="3.59592">
        <ele>534.63580322266</ele>
        <time>2020-09-04T03:25:53.273Z</time>
      </trkpt>
      <trkpt lat="46.07137" lon="3.59471">
        <ele>522.73077392578</ele>
        <time>2020-09-04T03:26:15.430Z</time>
      </trkpt>
      <trkpt lat="46.07137" lon="3.59471">
        <ele>522.73016357422</ele>
        <time>2020-09-04T03:26:37.587Z</time>
      </trkpt>
      <trkpt lat="46.07126" lon="3.59433">
        <ele>519.70513916016</ele>
        <time>2020-09-04T03:26:59.749Z</time>
      </trkpt>
      <trkpt lat="46.07101" lon="3.59387">
        <ele>514.61566162109</ele>
        <time>2020-09-04T03:27:21.917Z</time>
      </trkpt>
      <trkpt lat="46.07088" lon="3.59348">
        <ele>509.66189575195</ele>
        <time>2020-09-04T03:27:44.090Z</time>
      </trkpt>
      <trkpt lat="46.07078" lon="3.59276">
        <ele>509.10055541992</ele>
        <time>2020-09-04T03:28:06.271Z</time>
      </trkpt>
      <trkpt lat="46.07078" lon="3.59276">
        <ele>509.10116577148</ele>
        <time>2020-09-04T03:28:28.452Z</time>
      </trkpt>
      <trkpt lat="46.06959" lon="3.59115">
        <ele>507.60446166992</ele>
        <time>2020-09-04T03:28:50.660Z</time>
      </trkpt>
      <trkpt lat="46.06934" lon="3.59095">
        <ele>505.83288574219</ele>
        <time>2020-09-04T03:29:12.872Z</time>
      </trkpt>
      <trkpt lat="46.06914" lon="3.59054">
        <ele>503.38711547852</ele>
        <time>2020-09-04T03:29:35.090Z</time>
      </trkpt>
      <trkpt lat="46.06877" lon="3.5906">
        <ele>504.2177734375</ele>
        <time>2020-09-04T03:29:57.313Z</time>
      </trkpt>
      <trkpt lat="46.06869" lon="3.59053">
        <ele>505.2978515625</ele>
        <time>2020-09-04T03:30:19.538Z</time>
      </trkpt>
      <trkpt lat="46.0686" lon="3.59031">
        <ele>505.99417114258</ele>
        <time>2020-09-04T03:30:41.766Z</time>
      </trkpt>
      <trkpt lat="46.06853" lon="3.58923">
        <ele>504.365234375</ele>
        <time>2020-09-04T03:31:04.006Z</time>
      </trkpt>
      <trkpt lat="46.06824" lon="3.58851">
        <ele>505.79956054688</ele>
        <time>2020-09-04T03:31:26.255Z</time>
      </trkpt>
      <trkpt lat="46.06817" lon="3.58809">
        <ele>506.34017944336</ele>
        <time>2020-09-04T03:31:48.509Z</time>
      </trkpt>
      <trkpt lat="46.06777" lon="3.58738">
        <ele>513.02166748047</ele>
        <time>2020-09-04T03:32:10.773Z</time>
      </trkpt>
      <trkpt lat="46.06763" lon="3.58652">
        <ele>517.62237548828</ele>
        <time>2020-09-04T03:32:33.047Z</time>
      </trkpt>
      <trkpt lat="46.06751" lon="3.58618">
        <ele>519.53851318359</ele>
        <time>2020-09-04T03:32:55.325Z</time>
      </trkpt>
      <trkpt lat="46.06721" lon="3.5858">
        <ele>519.71038818359</ele>
        <time>2020-09-04T03:33:17.610Z</time>
      </trkpt>
      <trkpt lat="46.06708" lon="3.58566">
        <ele>518.20428466797</ele>
        <time>2020-09-04T03:33:39.897Z</time>
      </trkpt>
      <trkpt lat="46.06685" lon="3.58561">
        <ele>517.63391113281</ele>
        <time>2020-09-04T03:34:02.188Z</time>
      </trkpt>
      <trkpt lat="46.06667" lon="3.58546">
        <ele>516.12780761719</ele>
        <time>2020-09-04T03:34:24.482Z</time>
      </trkpt>
      <trkpt lat="46.066" lon="3.58474">
        <ele>510.27673339844</ele>
        <time>2020-09-04T03:34:46.790Z</time>
      </trkpt>
      <trkpt lat="46.06557" lon="3.58406">
        <ele>505.82431030273</ele>
        <time>2020-09-04T03:35:09.108Z</time>
      </trkpt>
      <trkpt lat="46.06508" lon="3.58396">
        <ele>508.25427246094</ele>
        <time>2020-09-04T03:35:31.434Z</time>
      </trkpt>
      <trkpt lat="46.06473" lon="3.58361">
        <ele>507.90618896484</ele>
        <time>2020-09-04T03:35:53.767Z</time>
      </trkpt>
      <trkpt lat="46.06442" lon="3.58327">
        <ele>509.63961791992</ele>
        <time>2020-09-04T03:36:16.106Z</time>
      </trkpt>
      <trkpt lat="46.06439" lon="3.58324">
        <ele>509.9104309082</ele>
        <time>2020-09-04T03:36:38.446Z</time>
      </trkpt>
      <trkpt lat="46.06402" lon="3.58273">
        <ele>513.06604003906</ele>
        <time>2020-09-04T03:37:00.794Z</time>
      </trkpt>
      <trkpt lat="46.06399" lon="3.58252">
        <ele>514.42022705078</ele>
        <time>2020-09-04T03:37:23.144Z</time>
      </trkpt>
      <trkpt lat="46.06409" lon="3.58197">
        <ele>517.16101074219</ele>
        <time>2020-09-04T03:37:45.500Z</time>
      </trkpt>
      <trkpt lat="46.06417" lon="3.58183">
        <ele>516.81219482422</ele>
        <time>2020-09-04T03:38:07.858Z</time>
      </trkpt>
      <trkpt lat="46.06437" lon="3.58168">
        <ele>514.62493896484</ele>
        <time>2020-09-04T03:38:30.220Z</time>
      </trkpt>
      <trkpt lat="46.06466" lon="3.58133">
        <ele>512.64001464844</ele>
        <time>2020-09-04T03:38:52.588Z</time>
      </trkpt>
      <trkpt lat="46.06504" lon="3.58103">
        <ele>506.46929931641</ele>
        <time>2020-09-04T03:39:14.963Z</time>
      </trkpt>
      <trkpt lat="46.06555" lon="3.5801">
        <ele>501.52526855469</ele>
        <time>2020-09-04T03:39:37.351Z</time>
      </trkpt>
      <trkpt lat="46.0656" lon="3.57992">
        <ele>499.97222900391</ele>
        <time>2020-09-04T03:39:59.741Z</time>
      </trkpt>
      <trkpt lat="46.06558" lon="3.57946">
        <ele>498.70620727539</ele>
        <time>2020-09-04T03:40:22.137Z</time>
      </trkpt>
      <trkpt lat="46.06551" lon="3.57925">
        <ele>499.47561645508</ele>
        <time>2020-09-04T03:40:44.535Z</time>
      </trkpt>
      <trkpt lat="46.06527" lon="3.57901">
        <ele>504.62460327148</ele>
        <time>2020-09-04T03:41:06.938Z</time>
      </trkpt>
      <trkpt lat="46.06527" lon="3.57901">
        <ele>504.62200927734</ele>
        <time>2020-09-04T03:41:29.341Z</time>
      </trkpt>
      <trkpt lat="46.06519" lon="3.57878">
        <ele>504.41864013672</ele>
        <time>2020-09-04T03:41:51.747Z</time>
      </trkpt>
      <trkpt lat="46.06525" lon="3.57854">
        <ele>500.19650268555</ele>
        <time>2020-09-04T03:42:14.156Z</time>
      </trkpt>
      <trkpt lat="46.06525" lon="3.57854">
        <ele>500.19387817383</ele>
        <time>2020-09-04T03:42:36.565Z</time>
      </trkpt>
      <trkpt lat="46.06547" lon="3.57763">
        <ele>490.23431396484</ele>
        <time>2020-09-04T03:42:58.984Z</time>
      </trkpt>
      <trkpt lat="46.06573" lon="3.57708">
        <ele>488.44479370117</ele>
        <time>2020-09-04T03:43:21.411Z</time>
      </trkpt>
      <trkpt lat="46.06573" lon="3.57708">
        <ele>488.44390869141</ele>
        <time>2020-09-04T03:43:43.838Z</time>
      </trkpt>
      <trkpt lat="46.06635" lon="3.57608">
        <ele>486.33673095703</ele>
        <time>2020-09-04T03:44:06.280Z</time>
      </trkpt>
      <trkpt lat="46.06652" lon="3.57592">
        <ele>484.54531860352</ele>
        <time>2020-09-04T03:44:28.725Z</time>
      </trkpt>
      <trkpt lat="46.06702" lon="3.57571">
        <ele>476.34765625</ele>
        <time>2020-09-04T03:44:51.178Z</time>
      </trkpt>
      <trkpt lat="46.06732" lon="3.57544">
        <ele>467.53100585938</ele>
        <time>2020-09-04T03:45:13.637Z</time>
      </trkpt>
      <trkpt lat="46.0675" lon="3.57492">
        <ele>461.91497802734</ele>
        <time>2020-09-04T03:45:36.102Z</time>
      </trkpt>
      <trkpt lat="46.0675" lon="3.57492">
        <ele>461.91409301758</ele>
        <time>2020-09-04T03:45:58.567Z</time>
      </trkpt>
      <trkpt lat="46.06777" lon="3.5738">
        <ele>449.45101928711</ele>
        <time>2020-09-04T03:46:21.046Z</time>
      </trkpt>
      <trkpt lat="46.06808" lon="3.57331">
        <ele>445.17276000977</ele>
        <time>2020-09-04T03:46:43.532Z</time>
      </trkpt>
      <trkpt lat="46.06824" lon="3.57292">
        <ele>443.45657348633</ele>
        <time>2020-09-04T03:47:06.023Z</time>
      </trkpt>
      <trkpt lat="46.06824" lon="3.57292">
        <ele>443.45565795898</ele>
        <time>2020-09-04T03:47:28.514Z</time>
      </trkpt>
      <trkpt lat="46.06849" lon="3.57206">
        <ele>435.8772277832</ele>
        <time>2020-09-04T03:47:51.015Z</time>
      </trkpt>
      <trkpt lat="46.06837" lon="3.56807">
        <ele>403.13052368164</ele>
        <time>2020-09-04T03:48:13.561Z</time>
      </trkpt>
      <trkpt lat="46.06798" lon="3.5647">
        <ele>378.12738037109</ele>
        <time>2020-09-04T03:48:36.145Z</time>
      </trkpt>
      <trkpt lat="46.06752" lon="3.56337">
        <ele>370.38299560547</ele>
        <time>2020-09-04T03:48:58.745Z</time>
      </trkpt>
      <trkpt lat="46.06733" lon="3.56321">
        <ele>368.49035644531</ele>
        <time>2020-09-04T03:49:21.349Z</time>
      </trkpt>
      <trkpt lat="46.06708" lon="3.56285">
        <ele>364.5266418457</ele>
        <time>2020-09-04T03:49:43.959Z</time>
      </trkpt>
      <trkpt lat="46.06673" lon="3.56352">
        <ele>366.19647216797</ele>
        <time>2020-09-04T03:50:06.578Z</time>
      </trkpt>
      <trkpt lat="46.06668" lon="3.5636">
        <ele>366.50540161133</ele>
        <time>2020-09-04T03:50:29.198Z</time>
      </trkpt>
      <trkpt lat="46.06656" lon="3.56391">
        <ele>368.12783813477</ele>
        <time>2020-09-04T03:50:51.822Z</time>
      </trkpt>
      <trkpt lat="46.06639" lon="3.56437">
        <ele>370.79156494141</ele>
        <time>2020-09-04T03:51:14.452Z</time>
      </trkpt>
      <trkpt lat="46.06614" lon="3.56477">
        <ele>370.76663208008</ele>
        <time>2020-09-04T03:51:37.088Z</time>
      </trkpt>
      <trkpt lat="46.06614" lon="3.56477">
        <ele>370.76583862305</ele>
        <time>2020-09-04T03:51:59.724Z</time>
      </trkpt>
      <trkpt lat="46.06464" lon="3.56587">
        <ele>371.51895141602</ele>
        <time>2020-09-04T03:52:22.387Z</time>
      </trkpt>
      <trkpt lat="46.06614" lon="3.56477">
        <ele>370.76583862305</ele>
        <time>2020-09-04T03:52:45.077Z</time>
      </trkpt>
      <trkpt lat="46.06614" lon="3.56477">
        <ele>370.76663208008</ele>
        <time>2020-09-04T03:53:07.767Z</time>
      </trkpt>
      <trkpt lat="46.06639" lon="3.56437">
        <ele>370.79156494141</ele>
        <time>2020-09-04T03:53:30.463Z</time>
      </trkpt>
      <trkpt lat="46.06656" lon="3.56391">
        <ele>368.12783813477</ele>
        <time>2020-09-04T03:53:53.165Z</time>
      </trkpt>
      <trkpt lat="46.06668" lon="3.5636">
        <ele>366.50540161133</ele>
        <time>2020-09-04T03:54:15.871Z</time>
      </trkpt>
      <trkpt lat="46.06673" lon="3.56352">
        <ele>366.19647216797</ele>
        <time>2020-09-04T03:54:38.578Z</time>
      </trkpt>
      <trkpt lat="46.06708" lon="3.56285">
        <ele>364.5266418457</ele>
        <time>2020-09-04T03:55:01.294Z</time>
      </trkpt>
      <trkpt lat="46.06726" lon="3.56257">
        <ele>364.13739013672</ele>
        <time>2020-09-04T03:55:24.014Z</time>
      </trkpt>
      <trkpt lat="46.06748" lon="3.56245">
        <ele>363.82843017578</ele>
        <time>2020-09-04T03:55:46.738Z</time>
      </trkpt>
      <trkpt lat="46.06808" lon="3.5623">
        <ele>362.54769897461</ele>
        <time>2020-09-04T03:56:09.472Z</time>
      </trkpt>
      <trkpt lat="46.06853" lon="3.56203">
        <ele>359.09875488281</ele>
        <time>2020-09-04T03:56:32.214Z</time>
      </trkpt>
      <trkpt lat="46.0713" lon="3.55913">
        <ele>350.47958374023</ele>
        <time>2020-09-04T03:56:55.010Z</time>
      </trkpt>
      <trkpt lat="46.0713" lon="3.55913">
        <ele>350.47927856445</ele>
        <time>2020-09-04T03:57:17.806Z</time>
      </trkpt>
      <trkpt lat="46.07258" lon="3.55778">
        <ele>353.84939575195</ele>
        <time>2020-09-04T03:57:40.628Z</time>
      </trkpt>
      <trkpt lat="46.07303" lon="3.5571">
        <ele>357.09805297852</ele>
        <time>2020-09-04T03:58:03.460Z</time>
      </trkpt>
      <trkpt lat="46.07346" lon="3.55587">
        <ele>362.87750244141</ele>
        <time>2020-09-04T03:58:26.308Z</time>
      </trkpt>
      <trkpt lat="46.07383" lon="3.55415">
        <ele>367.83630371094</ele>
        <time>2020-09-04T03:58:49.176Z</time>
      </trkpt>
      <trkpt lat="46.07377" lon="3.5523">
        <ele>369.60342407227</ele>
        <time>2020-09-04T03:59:12.064Z</time>
      </trkpt>
      <trkpt lat="46.0737" lon="3.5523">
        <ele>367.08041381836</ele>
        <time>2020-09-04T03:59:34.954Z</time>
      </trkpt>
      <trkpt lat="46.0731" lon="3.55225">
        <ele>349.55590820312</ele>
        <time>2020-09-04T03:59:57.853Z</time>
      </trkpt>
      <trkpt lat="46.07305" lon="3.55207">
        <ele>349.76776123047</ele>
        <time>2020-09-04T04:00:20.754Z</time>
      </trkpt>
      <trkpt lat="46.07292" lon="3.55145">
        <ele>351.67294311523</ele>
        <time>2020-09-04T04:00:43.663Z</time>
      </trkpt>
      <trkpt lat="46.07292" lon="3.5506">
        <ele>353.65008544922</ele>
        <time>2020-09-04T04:01:06.581Z</time>
      </trkpt>
      <trkpt lat="46.07295" lon="3.54926">
        <ele>355.14846801758</ele>
        <time>2020-09-04T04:01:29.514Z</time>
      </trkpt>
      <trkpt lat="46.07348" lon="3.54722">
        <ele>350.71734619141</ele>
        <time>2020-09-04T04:01:52.471Z</time>
      </trkpt>
      <trkpt lat="46.07349" lon="3.54722">
        <ele>350.71646118164</ele>
        <time>2020-09-04T04:02:15.428Z</time>
      </trkpt>
      <trkpt lat="46.07344" lon="3.54605">
        <ele>353.41897583008</ele>
        <time>2020-09-04T04:02:38.398Z</time>
      </trkpt>
      <trkpt lat="46.07428" lon="3.54219">
        <ele>367.98797607422</ele>
        <time>2020-09-04T04:03:01.413Z</time>
      </trkpt>
      <trkpt lat="46.07446" lon="3.54179">
        <ele>366.40054321289</ele>
        <time>2020-09-04T04:03:24.434Z</time>
      </trkpt>
      <trkpt lat="46.07482" lon="3.5413">
        <ele>360.58215332031</ele>
        <time>2020-09-04T04:03:47.463Z</time>
      </trkpt>
      <trkpt lat="46.07539" lon="3.54105">
        <ele>356.87899780273</ele>
        <time>2020-09-04T04:04:10.501Z</time>
      </trkpt>
      <trkpt lat="46.07587" lon="3.54104">
        <ele>353.77835083008</ele>
        <time>2020-09-04T04:04:33.547Z</time>
      </trkpt>
      <trkpt lat="46.07592" lon="3.54088">
        <ele>356.10623168945</ele>
        <time>2020-09-04T04:04:56.595Z</time>
      </trkpt>
      <trkpt lat="46.07567" lon="3.54053">
        <ele>363.36630249023</ele>
        <time>2020-09-04T04:05:19.648Z</time>
      </trkpt>
      <trkpt lat="46.07565" lon="3.54012">
        <ele>370.92181396484</ele>
        <time>2020-09-04T04:05:42.706Z</time>
      </trkpt>
      <trkpt lat="46.07559" lon="3.53997">
        <ele>371.67529296875</ele>
        <time>2020-09-04T04:06:05.766Z</time>
      </trkpt>
      <trkpt lat="46.07529" lon="3.53971">
        <ele>372.39614868164</ele>
        <time>2020-09-04T04:06:28.832Z</time>
      </trkpt>
      <trkpt lat="46.07529" lon="3.5395">
        <ele>374.19830322266</ele>
        <time>2020-09-04T04:06:51.900Z</time>
      </trkpt>
      <trkpt lat="46.07537" lon="3.53944">
        <ele>375.06076049805</ele>
        <time>2020-09-04T04:07:14.969Z</time>
      </trkpt>
      <trkpt lat="46.07556" lon="3.53965">
        <ele>374.22406005859</ele>
        <time>2020-09-04T04:07:38.042Z</time>
      </trkpt>
      <trkpt lat="46.07574" lon="3.53969">
        <ele>375.24697875977</ele>
        <time>2020-09-04T04:08:01.118Z</time>
      </trkpt>
      <trkpt lat="46.0767" lon="3.53862">
        <ele>392.22094726562</ele>
        <time>2020-09-04T04:08:24.214Z</time>
      </trkpt>
      <trkpt lat="46.07667" lon="3.53806">
        <ele>393.66909790039</ele>
        <time>2020-09-04T04:08:47.316Z</time>
      </trkpt>
      <trkpt lat="46.07637" lon="3.53766">
        <ele>395.29196166992</ele>
        <time>2020-09-04T04:09:10.424Z</time>
      </trkpt>
      <trkpt lat="46.07571" lon="3.53639">
        <ele>404.98120117188</ele>
        <time>2020-09-04T04:09:33.550Z</time>
      </trkpt>
      <trkpt lat="46.0757" lon="3.53626">
        <ele>405.50848388672</ele>
        <time>2020-09-04T04:09:56.678Z</time>
      </trkpt>
      <trkpt lat="46.0755" lon="3.53619">
        <ele>406.2160949707</ele>
        <time>2020-09-04T04:10:19.809Z</time>
      </trkpt>
      <trkpt lat="46.07498" lon="3.53541">
        <ele>416.28411865234</ele>
        <time>2020-09-04T04:10:42.952Z</time>
      </trkpt>
      <trkpt lat="46.07498" lon="3.53541">
        <ele>416.28421020508</ele>
        <time>2020-09-04T04:11:06.095Z</time>
      </trkpt>
      <trkpt lat="46.07455" lon="3.53499">
        <ele>419.58862304688</ele>
        <time>2020-09-04T04:11:29.246Z</time>
      </trkpt>
      <trkpt lat="46.07438" lon="3.53468">
        <ele>422.02084350586</ele>
        <time>2020-09-04T04:11:52.402Z</time>
      </trkpt>
      <trkpt lat="46.07418" lon="3.53421">
        <ele>425.00341796875</ele>
        <time>2020-09-04T04:12:15.564Z</time>
      </trkpt>
      <trkpt lat="46.07416" lon="3.53392">
        <ele>424.93905639648</ele>
        <time>2020-09-04T04:12:38.729Z</time>
      </trkpt>
      <trkpt lat="46.07463" lon="3.53308">
        <ele>436.04153442383</ele>
        <time>2020-09-04T04:13:01.906Z</time>
      </trkpt>
      <trkpt lat="46.07479" lon="3.53298">
        <ele>437.00491333008</ele>
        <time>2020-09-04T04:13:25.086Z</time>
      </trkpt>
      <trkpt lat="46.0753" lon="3.53297">
        <ele>442.33404541016</ele>
        <time>2020-09-04T04:13:48.274Z</time>
      </trkpt>
      <trkpt lat="46.07541" lon="3.53285">
        <ele>444.05895996094</ele>
        <time>2020-09-04T04:14:11.464Z</time>
      </trkpt>
      <trkpt lat="46.07539" lon="3.53267">
        <ele>444.32928466797</ele>
        <time>2020-09-04T04:14:34.656Z</time>
      </trkpt>
      <trkpt lat="46.07518" lon="3.53217">
        <ele>442.2073059082</ele>
        <time>2020-09-04T04:14:57.855Z</time>
      </trkpt>
      <trkpt lat="46.07514" lon="3.53182">
        <ele>442.46762084961</ele>
        <time>2020-09-04T04:15:21.058Z</time>
      </trkpt>
      <trkpt lat="46.0752" lon="3.53162">
        <ele>444.0895690918</ele>
        <time>2020-09-04T04:15:44.263Z</time>
      </trkpt>
      <trkpt lat="46.07547" lon="3.53131">
        <ele>449.07119750977</ele>
        <time>2020-09-04T04:16:07.473Z</time>
      </trkpt>
      <trkpt lat="46.07536" lon="3.53064">
        <ele>452.69912719727</ele>
        <time>2020-09-04T04:16:30.691Z</time>
      </trkpt>
      <trkpt lat="46.07536" lon="3.53064">
        <ele>452.69982910156</ele>
        <time>2020-09-04T04:16:53.909Z</time>
      </trkpt>
      <trkpt lat="46.07541" lon="3.53046">
        <ele>454.29528808594</ele>
        <time>2020-09-04T04:17:17.129Z</time>
      </trkpt>
      <trkpt lat="46.07566" lon="3.53024">
        <ele>458.15866088867</ele>
        <time>2020-09-04T04:17:40.354Z</time>
      </trkpt>
      <trkpt lat="46.0757" lon="3.53006">
        <ele>459.58895874023</ele>
        <time>2020-09-04T04:18:03.581Z</time>
      </trkpt>
      <trkpt lat="46.07561" lon="3.52991">
        <ele>460.61874389648</ele>
        <time>2020-09-04T04:18:26.810Z</time>
      </trkpt>
      <trkpt lat="46.07536" lon="3.52985">
        <ele>459.10580444336</ele>
        <time>2020-09-04T04:18:50.043Z</time>
      </trkpt>
      <trkpt lat="46.07503" lon="3.52962">
        <ele>458.57803344727</ele>
        <time>2020-09-04T04:19:13.282Z</time>
      </trkpt>
      <trkpt lat="46.07497" lon="3.52937">
        <ele>460.40591430664</ele>
        <time>2020-09-04T04:19:36.524Z</time>
      </trkpt>
      <trkpt lat="46.07498" lon="3.52906">
        <ele>461.46142578125</ele>
        <time>2020-09-04T04:19:59.770Z</time>
      </trkpt>
      <trkpt lat="46.07505" lon="3.52833">
        <ele>464.40051269531</ele>
        <time>2020-09-04T04:20:23.024Z</time>
      </trkpt>
      <trkpt lat="46.07547" lon="3.5278">
        <ele>472.38027954102</ele>
        <time>2020-09-04T04:20:46.287Z</time>
      </trkpt>
      <trkpt lat="46.07551" lon="3.52755">
        <ele>475.10400390625</ele>
        <time>2020-09-04T04:21:09.553Z</time>
      </trkpt>
      <trkpt lat="46.07528" lon="3.52726">
        <ele>474.76931762695</ele>
        <time>2020-09-04T04:21:32.824Z</time>
      </trkpt>
      <trkpt lat="46.07478" lon="3.52589">
        <ele>482.12899780273</ele>
        <time>2020-09-04T04:21:56.112Z</time>
      </trkpt>
      <trkpt lat="46.07459" lon="3.52583">
        <ele>482.48010253906</ele>
        <time>2020-09-04T04:22:19.403Z</time>
      </trkpt>
      <trkpt lat="46.07413" lon="3.52619">
        <ele>480.48706054688</ele>
        <time>2020-09-04T04:22:42.702Z</time>
      </trkpt>
      <trkpt lat="46.07376" lon="3.52633">
        <ele>479.25872802734</ele>
        <time>2020-09-04T04:23:06.007Z</time>
      </trkpt>
      <trkpt lat="46.07316" lon="3.52633">
        <ele>480.73257446289</ele>
        <time>2020-09-04T04:23:29.322Z</time>
      </trkpt>
      <trkpt lat="46.07219" lon="3.5263">
        <ele>479.97338867188</ele>
        <time>2020-09-04T04:23:52.653Z</time>
      </trkpt>
      <trkpt lat="46.07197" lon="3.5262">
        <ele>479.36837768555</ele>
        <time>2020-09-04T04:24:15.987Z</time>
      </trkpt>
      <trkpt lat="46.07167" lon="3.52579">
        <ele>476.1872253418</ele>
        <time>2020-09-04T04:24:39.328Z</time>
      </trkpt>
      <trkpt lat="46.07149" lon="3.52569">
        <ele>475.04156494141</ele>
        <time>2020-09-04T04:25:02.672Z</time>
      </trkpt>
      <trkpt lat="46.07095" lon="3.52568">
        <ele>477.333984375</ele>
        <time>2020-09-04T04:25:26.025Z</time>
      </trkpt>
      <trkpt lat="46.07017" lon="3.52507">
        <ele>476.46170043945</ele>
        <time>2020-09-04T04:25:49.392Z</time>
      </trkpt>
      <trkpt lat="46.0699" lon="3.52477">
        <ele>474.35061645508</ele>
        <time>2020-09-04T04:26:12.764Z</time>
      </trkpt>
      <trkpt lat="46.0693" lon="3.52375">
        <ele>472.90524291992</ele>
        <time>2020-09-04T04:26:36.151Z</time>
      </trkpt>
      <trkpt lat="46.06915" lon="3.52337">
        <ele>472.1572265625</ele>
        <time>2020-09-04T04:26:59.543Z</time>
      </trkpt>
      <trkpt lat="46.06895" lon="3.52251">
        <ele>466.67614746094</ele>
        <time>2020-09-04T04:27:22.945Z</time>
      </trkpt>
      <trkpt lat="46.06857" lon="3.52197">
        <ele>471.94552612305</ele>
        <time>2020-09-04T04:27:46.356Z</time>
      </trkpt>
      <trkpt lat="46.06831" lon="3.52097">
        <ele>471.5602722168</ele>
        <time>2020-09-04T04:28:09.779Z</time>
      </trkpt>
      <trkpt lat="46.06794" lon="3.52017">
        <ele>468.50866699219</ele>
        <time>2020-09-04T04:28:33.212Z</time>
      </trkpt>
      <trkpt lat="46.06771" lon="3.51994">
        <ele>466.68035888672</ele>
        <time>2020-09-04T04:28:56.650Z</time>
      </trkpt>
      <trkpt lat="46.06637" lon="3.51956">
        <ele>468.13397216797</ele>
        <time>2020-09-04T04:29:20.110Z</time>
      </trkpt>
      <trkpt lat="46.06608" lon="3.51968">
        <ele>470.60546875</ele>
        <time>2020-09-04T04:29:43.574Z</time>
      </trkpt>
      <trkpt lat="46.06573" lon="3.52034">
        <ele>480.05020141602</ele>
        <time>2020-09-04T04:30:07.048Z</time>
      </trkpt>
      <trkpt lat="46.06553" lon="3.52036">
        <ele>481.35418701172</ele>
        <time>2020-09-04T04:30:30.525Z</time>
      </trkpt>
      <trkpt lat="46.06544" lon="3.52027">
        <ele>482.33248901367</ele>
        <time>2020-09-04T04:30:54.004Z</time>
      </trkpt>
      <trkpt lat="46.06536" lon="3.51999">
        <ele>480.42593383789</ele>
        <time>2020-09-04T04:31:17.486Z</time>
      </trkpt>
      <trkpt lat="46.06534" lon="3.51894">
        <ele>465.41360473633</ele>
        <time>2020-09-04T04:31:40.980Z</time>
      </trkpt>
      <trkpt lat="46.06523" lon="3.5187">
        <ele>464.76998901367</ele>
        <time>2020-09-04T04:32:04.477Z</time>
      </trkpt>
      <trkpt lat="46.06409" lon="3.51792">
        <ele>472.86541748047</ele>
        <time>2020-09-04T04:32:27.994Z</time>
      </trkpt>
      <trkpt lat="46.06384" lon="3.51784">
        <ele>474.93460083008</ele>
        <time>2020-09-04T04:32:51.515Z</time>
      </trkpt>
      <trkpt lat="46.06372" lon="3.51791">
        <ele>477.59045410156</ele>
        <time>2020-09-04T04:33:15.038Z</time>
      </trkpt>
      <trkpt lat="46.06372" lon="3.51791">
        <ele>477.59225463867</ele>
        <time>2020-09-04T04:33:38.561Z</time>
      </trkpt>
      <trkpt lat="46.06367" lon="3.51794">
        <ele>478.71908569336</ele>
        <time>2020-09-04T04:34:02.085Z</time>
      </trkpt>
      <trkpt lat="46.06341" lon="3.51843">
        <ele>483.32867431641</ele>
        <time>2020-09-04T04:34:25.616Z</time>
      </trkpt>
      <trkpt lat="46.06316" lon="3.51851">
        <ele>482.48394775391</ele>
        <time>2020-09-04T04:34:49.151Z</time>
      </trkpt>
      <trkpt lat="46.06316" lon="3.51851">
        <ele>482.48434448242</ele>
        <time>2020-09-04T04:35:12.686Z</time>
      </trkpt>
      <trkpt lat="46.0631" lon="3.51851">
        <ele>482.1591796875</ele>
        <time>2020-09-04T04:35:36.222Z</time>
      </trkpt>
      <trkpt lat="46.06261" lon="3.51847">
        <ele>480.49203491211</ele>
        <time>2020-09-04T04:35:59.766Z</time>
      </trkpt>
      <trkpt lat="46.06261" lon="3.51847">
        <ele>480.49234008789</ele>
        <time>2020-09-04T04:36:23.310Z</time>
      </trkpt>
      <trkpt lat="46.06234" lon="3.51821">
        <ele>481.38024902344</ele>
        <time>2020-09-04T04:36:46.859Z</time>
      </trkpt>
      <trkpt lat="46.06203" lon="3.51772">
        <ele>482.40484619141</ele>
        <time>2020-09-04T04:37:10.416Z</time>
      </trkpt>
      <trkpt lat="46.06191" lon="3.5173">
        <ele>483.39413452148</ele>
        <time>2020-09-04T04:37:33.978Z</time>
      </trkpt>
      <trkpt lat="46.06176" lon="3.51623">
        <ele>490.15939331055</ele>
        <time>2020-09-04T04:37:57.552Z</time>
      </trkpt>
      <trkpt lat="46.06135" lon="3.51574">
        <ele>491.4338684082</ele>
        <time>2020-09-04T04:38:21.134Z</time>
      </trkpt>
      <trkpt lat="46.06129" lon="3.51557">
        <ele>492.97857666016</ele>
        <time>2020-09-04T04:38:44.718Z</time>
      </trkpt>
      <trkpt lat="46.06126" lon="3.51551">
        <ele>493.57070922852</ele>
        <time>2020-09-04T04:39:08.303Z</time>
      </trkpt>
      <trkpt lat="46.06114" lon="3.51519">
        <ele>496.42837524414</ele>
        <time>2020-09-04T04:39:31.892Z</time>
      </trkpt>
      <trkpt lat="46.06105" lon="3.5151">
        <ele>496.60726928711</ele>
        <time>2020-09-04T04:39:55.483Z</time>
      </trkpt>
      <trkpt lat="46.06054" lon="3.51505">
        <ele>494.74130249023</ele>
        <time>2020-09-04T04:40:19.082Z</time>
      </trkpt>
      <trkpt lat="46.06043" lon="3.51465">
        <ele>497.12271118164</ele>
        <time>2020-09-04T04:40:42.686Z</time>
      </trkpt>
      <trkpt lat="46.05939" lon="3.51517">
        <ele>496.84671020508</ele>
        <time>2020-09-04T04:41:06.308Z</time>
      </trkpt>
      <trkpt lat="46.05908" lon="3.51533">
        <ele>496.15951538086</ele>
        <time>2020-09-04T04:41:29.935Z</time>
      </trkpt>
      <trkpt lat="46.05866" lon="3.51505">
        <ele>497.7975769043</ele>
        <time>2020-09-04T04:41:53.569Z</time>
      </trkpt>
      <trkpt lat="46.05865" lon="3.51479">
        <ele>498.81964111328</ele>
        <time>2020-09-04T04:42:17.206Z</time>
      </trkpt>
      <trkpt lat="46.05875" lon="3.51423">
        <ele>501.37701416016</ele>
        <time>2020-09-04T04:42:40.850Z</time>
      </trkpt>
      <trkpt lat="46.0588" lon="3.51392">
        <ele>501.53149414062</ele>
        <time>2020-09-04T04:43:04.497Z</time>
      </trkpt>
      <trkpt lat="46.05879" lon="3.51333">
        <ele>501.07717895508</ele>
        <time>2020-09-04T04:43:28.151Z</time>
      </trkpt>
      <trkpt lat="46.0588" lon="3.513">
        <ele>500.3173828125</ele>
        <time>2020-09-04T04:43:51.809Z</time>
      </trkpt>
      <trkpt lat="46.05878" lon="3.51206">
        <ele>496.54547119141</ele>
        <time>2020-09-04T04:44:15.477Z</time>
      </trkpt>
      <trkpt lat="46.05853" lon="3.5099">
        <ele>478.93054199219</ele>
        <time>2020-09-04T04:44:39.169Z</time>
      </trkpt>
      <trkpt lat="46.05819" lon="3.50977">
        <ele>476.92245483398</ele>
        <time>2020-09-04T04:45:02.867Z</time>
      </trkpt>
      <trkpt lat="46.05786" lon="3.50986">
        <ele>476.34317016602</ele>
        <time>2020-09-04T04:45:26.570Z</time>
      </trkpt>
      <trkpt lat="46.05771" lon="3.51013">
        <ele>477.41159057617</ele>
        <time>2020-09-04T04:45:50.277Z</time>
      </trkpt>
      <trkpt lat="46.05728" lon="3.51048">
        <ele>477.9264831543</ele>
        <time>2020-09-04T04:46:13.992Z</time>
      </trkpt>
      <trkpt lat="46.05708" lon="3.51046">
        <ele>480.79806518555</ele>
        <time>2020-09-04T04:46:37.710Z</time>
      </trkpt>
      <trkpt lat="46.05584" lon="3.50936">
        <ele>485.96591186523</ele>
        <time>2020-09-04T04:47:01.452Z</time>
      </trkpt>
      <trkpt lat="46.05572" lon="3.50911">
        <ele>484.9382019043</ele>
        <time>2020-09-04T04:47:25.197Z</time>
      </trkpt>
      <trkpt lat="46.05403" lon="3.5097">
        <ele>476.93112182617</ele>
        <time>2020-09-04T04:47:48.970Z</time>
      </trkpt>
      <trkpt lat="46.05354" lon="3.50962">
        <ele>471.78323364258</ele>
        <time>2020-09-04T04:48:12.751Z</time>
      </trkpt>
      <trkpt lat="46.05255" lon="3.50987">
        <ele>475.47296142578</ele>
        <time>2020-09-04T04:48:36.548Z</time>
      </trkpt>
      <trkpt lat="46.05186" lon="3.50905">
        <ele>473.19006347656</ele>
        <time>2020-09-04T04:49:00.359Z</time>
      </trkpt>
      <trkpt lat="46.05135" lon="3.50874">
        <ele>476.74496459961</ele>
        <time>2020-09-04T04:49:24.179Z</time>
      </trkpt>
      <trkpt lat="46.05043" lon="3.50832">
        <ele>477.01605224609</ele>
        <time>2020-09-04T04:49:48.015Z</time>
      </trkpt>
      <trkpt lat="46.05043" lon="3.50832">
        <ele>477.01657104492</ele>
        <time>2020-09-04T04:50:11.851Z</time>
      </trkpt>
      <trkpt lat="46.05017" lon="3.50823">
        <ele>476.38864135742</ele>
        <time>2020-09-04T04:50:35.691Z</time>
      </trkpt>
      <trkpt lat="46.04878" lon="3.50717">
        <ele>462.00109863281</ele>
        <time>2020-09-04T04:50:59.556Z</time>
      </trkpt>
      <trkpt lat="46.04832" lon="3.50694">
        <ele>455.88668823242</ele>
        <time>2020-09-04T04:51:23.429Z</time>
      </trkpt>
      <trkpt lat="46.04784" lon="3.50701">
        <ele>453.2756652832</ele>
        <time>2020-09-04T04:51:47.309Z</time>
      </trkpt>
      <trkpt lat="46.04767" lon="3.50618">
        <ele>446.38809204102</ele>
        <time>2020-09-04T04:52:11.199Z</time>
      </trkpt>
      <trkpt lat="46.04767" lon="3.50618">
        <ele>446.38909912109</ele>
        <time>2020-09-04T04:52:35.089Z</time>
      </trkpt>
      <trkpt lat="46.04745" lon="3.50585">
        <ele>442.88677978516</ele>
        <time>2020-09-04T04:52:58.984Z</time>
      </trkpt>
      <trkpt lat="46.04686" lon="3.5037">
        <ele>431.04928588867</ele>
        <time>2020-09-04T04:53:22.905Z</time>
      </trkpt>
      <trkpt lat="46.04653" lon="3.50323">
        <ele>426.40667724609</ele>
        <time>2020-09-04T04:53:46.833Z</time>
      </trkpt>
      <trkpt lat="46.04622" lon="3.50259">
        <ele>418.01397705078</ele>
        <time>2020-09-04T04:54:10.770Z</time>
      </trkpt>
      <trkpt lat="46.04546" lon="3.50077">
        <ele>398.12103271484</ele>
        <time>2020-09-04T04:54:34.731Z</time>
      </trkpt>
      <trkpt lat="46.04417" lon="3.49863">
        <ele>368.93511962891</ele>
        <time>2020-09-04T04:54:58.723Z</time>
      </trkpt>
      <trkpt lat="46.04406" lon="3.49833">
        <ele>364.6389465332</ele>
        <time>2020-09-04T04:55:22.719Z</time>
      </trkpt>
      <trkpt lat="46.04373" lon="3.49793">
        <ele>358.73550415039</ele>
        <time>2020-09-04T04:55:46.722Z</time>
      </trkpt>
      <trkpt lat="46.04336" lon="3.4979">
        <ele>356.13525390625</ele>
        <time>2020-09-04T04:56:10.731Z</time>
      </trkpt>
      <trkpt lat="46.04291" lon="3.49804">
        <ele>349.82873535156</ele>
        <time>2020-09-04T04:56:34.747Z</time>
      </trkpt>
      <trkpt lat="46.04274" lon="3.49772">
        <ele>344.57675170898</ele>
        <time>2020-09-04T04:56:58.768Z</time>
      </trkpt>
      <trkpt lat="46.04248" lon="3.4969">
        <ele>333.84045410156</ele>
        <time>2020-09-04T04:57:22.799Z</time>
      </trkpt>
      <trkpt lat="46.04225" lon="3.49665">
        <ele>328.37231445312</ele>
        <time>2020-09-04T04:57:46.834Z</time>
      </trkpt>
      <trkpt lat="46.04225" lon="3.49665">
        <ele>328.3733215332</ele>
        <time>2020-09-04T04:58:10.869Z</time>
      </trkpt>
      <trkpt lat="46.04201" lon="3.49637">
        <ele>323.06884765625</ele>
        <time>2020-09-04T04:58:34.909Z</time>
      </trkpt>
      <trkpt lat="46.04115" lon="3.49587">
        <ele>311.09753417969</ele>
        <time>2020-09-04T04:58:58.964Z</time>
      </trkpt>
      <trkpt lat="46.04057" lon="3.49542">
        <ele>305.84808349609</ele>
        <time>2020-09-04T04:59:23.030Z</time>
      </trkpt>
      <trkpt lat="46.04033" lon="3.49515">
        <ele>303.95861816406</ele>
        <time>2020-09-04T04:59:47.101Z</time>
      </trkpt>
      <trkpt lat="46.04035" lon="3.49499">
        <ele>303.37933349609</ele>
        <time>2020-09-04T05:00:11.173Z</time>
      </trkpt>
      <trkpt lat="46.04014" lon="3.49515">
        <ele>303.95861816406</ele>
        <time>2020-09-04T05:00:35.249Z</time>
      </trkpt>
      <trkpt lat="46.03892" lon="3.49549">
        <ele>305.86141967773</ele>
        <time>2020-09-04T05:00:59.345Z</time>
      </trkpt>
      <trkpt lat="46.03779" lon="3.49465">
        <ele>300.52478027344</ele>
        <time>2020-09-04T05:01:23.462Z</time>
      </trkpt>
      <trkpt lat="46.03755" lon="3.49455">
        <ele>300.06137084961</ele>
        <time>2020-09-04T05:01:47.582Z</time>
      </trkpt>
      <trkpt lat="46.03688" lon="3.49453">
        <ele>301.53759765625</ele>
        <time>2020-09-04T05:02:11.713Z</time>
      </trkpt>
      <trkpt lat="46.03688" lon="3.49453">
        <ele>301.53720092773</ele>
        <time>2020-09-04T05:02:35.844Z</time>
      </trkpt>
      <trkpt lat="46.03662" lon="3.4945">
        <ele>302.6575012207</ele>
        <time>2020-09-04T05:02:59.979Z</time>
      </trkpt>
      <trkpt lat="46.03577" lon="3.49481">
        <ele>308.99368286133</ele>
        <time>2020-09-04T05:03:24.128Z</time>
      </trkpt>
      <trkpt lat="46.03517" lon="3.49514">
        <ele>312.78945922852</ele>
        <time>2020-09-04T05:03:48.288Z</time>
      </trkpt>
      <trkpt lat="46.03517" lon="3.49514">
        <ele>312.78927612305</ele>
        <time>2020-09-04T05:04:12.448Z</time>
      </trkpt>
      <trkpt lat="46.03487" lon="3.49522">
        <ele>313.78692626953</ele>
        <time>2020-09-04T05:04:36.613Z</time>
      </trkpt>
      <trkpt lat="46.03378" lon="3.49537">
        <ele>315.51889038086</ele>
        <time>2020-09-04T05:05:00.795Z</time>
      </trkpt>
      <trkpt lat="46.03332" lon="3.49578">
        <ele>316.67291259766</ele>
        <time>2020-09-04T05:05:24.986Z</time>
      </trkpt>
      <trkpt lat="46.03198" lon="3.4958">
        <ele>308.43084716797</ele>
        <time>2020-09-04T05:05:49.198Z</time>
      </trkpt>
      <trkpt lat="46.03157" lon="3.49594">
        <ele>305.84417724609</ele>
        <time>2020-09-04T05:06:13.417Z</time>
      </trkpt>
      <trkpt lat="46.03131" lon="3.49603">
        <ele>305.07321166992</ele>
        <time>2020-09-04T05:06:37.640Z</time>
      </trkpt>
      <trkpt lat="46.03131" lon="3.49603">
        <ele>305.07330322266</ele>
        <time>2020-09-04T05:07:01.863Z</time>
      </trkpt>
      <trkpt lat="46.03057" lon="3.49628">
        <ele>304.79415893555</ele>
        <time>2020-09-04T05:07:26.099Z</time>
      </trkpt>
      <trkpt lat="46.03037" lon="3.49627">
        <ele>305.99130249023</ele>
        <time>2020-09-04T05:07:50.338Z</time>
      </trkpt>
      <trkpt lat="46.03022" lon="3.49612">
        <ele>306.53192138672</ele>
        <time>2020-09-04T05:08:14.580Z</time>
      </trkpt>
      <trkpt lat="46.03" lon="3.49565">
        <ele>304.15640258789</ele>
        <time>2020-09-04T05:08:38.828Z</time>
      </trkpt>
      <trkpt lat="46.02982" lon="3.4954">
        <ele>302.88204956055</ele>
        <time>2020-09-04T05:09:03.080Z</time>
      </trkpt>
      <trkpt lat="46.02919" lon="3.49491">
        <ele>300.19946289062</ele>
        <time>2020-09-04T05:09:27.344Z</time>
      </trkpt>
      <trkpt lat="46.02774" lon="3.49397">
        <ele>297.40591430664</ele>
        <time>2020-09-04T05:09:51.633Z</time>
      </trkpt>
      <trkpt lat="46.02716" lon="3.49387">
        <ele>298.32501220703</ele>
        <time>2020-09-04T05:10:15.931Z</time>
      </trkpt>
      <trkpt lat="46.02716" lon="3.49387">
        <ele>298.32470703125</ele>
        <time>2020-09-04T05:10:40.229Z</time>
      </trkpt>
      <trkpt lat="46.0269" lon="3.49384">
        <ele>298.90426635742</ele>
        <time>2020-09-04T05:11:04.531Z</time>
      </trkpt>
      <trkpt lat="46.02646" lon="3.49353">
        <ele>297.24371337891</ele>
        <time>2020-09-04T05:11:28.841Z</time>
      </trkpt>
      <trkpt lat="46.02646" lon="3.49353">
        <ele>297.24340820312</ele>
        <time>2020-09-04T05:11:53.151Z</time>
      </trkpt>
      <trkpt lat="46.02613" lon="3.49321">
        <ele>296.34893798828</ele>
        <time>2020-09-04T05:12:17.468Z</time>
      </trkpt>
      <trkpt lat="46.02555" lon="3.49277">
        <ele>295.72308349609</ele>
        <time>2020-09-04T05:12:41.795Z</time>
      </trkpt>
      <trkpt lat="46.02512" lon="3.49273">
        <ele>294.89923095703</ele>
        <time>2020-09-04T05:13:06.129Z</time>
      </trkpt>
      <trkpt lat="46.02451" lon="3.49281">
        <ele>294.87338256836</ele>
        <time>2020-09-04T05:13:30.473Z</time>
      </trkpt>
      <trkpt lat="46.02324" lon="3.49305">
        <ele>298.85278320312</ele>
        <time>2020-09-04T05:13:54.837Z</time>
      </trkpt>
      <trkpt lat="46.02275" lon="3.49323">
        <ele>299.14086914062</ele>
        <time>2020-09-04T05:14:19.209Z</time>
      </trkpt>
      <trkpt lat="46.02275" lon="3.49323">
        <ele>299.14117431641</ele>
        <time>2020-09-04T05:14:43.581Z</time>
      </trkpt>
      <trkpt lat="46.02275" lon="3.49323">
        <ele>299.14086914062</ele>
        <time>2020-09-04T05:15:07.953Z</time>
      </trkpt>
      <trkpt lat="46.02275" lon="3.49323">
        <ele>299.14117431641</ele>
        <time>2020-09-04T05:15:32.325Z</time>
      </trkpt>
      <trkpt lat="46.02199" lon="3.49345">
        <ele>296.65319824219</ele>
        <time>2020-09-04T05:15:56.710Z</time>
      </trkpt>
      <trkpt lat="46.0217" lon="3.49344">
        <ele>295.24969482422</ele>
        <time>2020-09-04T05:16:21.100Z</time>
      </trkpt>
      <trkpt lat="46.02162" lon="3.49285">
        <ele>294.15924072266</ele>
        <time>2020-09-04T05:16:45.496Z</time>
      </trkpt>
      <trkpt lat="46.0215" lon="3.49289">
        <ele>293.66677856445</ele>
        <time>2020-09-04T05:17:09.894Z</time>
      </trkpt>
      <trkpt lat="46.02133" lon="3.49294">
        <ele>293.22769165039</ele>
        <time>2020-09-04T05:17:34.295Z</time>
      </trkpt>
      <trkpt lat="46.02133" lon="3.49294">
        <ele>293.22756958008</ele>
        <time>2020-09-04T05:17:58.696Z</time>
      </trkpt>
      <trkpt lat="46.02092" lon="3.49307">
        <ele>292.89300537109</ele>
        <time>2020-09-04T05:18:23.104Z</time>
      </trkpt>
      <trkpt lat="46.02069" lon="3.49314">
        <ele>292.68704223633</ele>
        <time>2020-09-04T05:18:47.515Z</time>
      </trkpt>
      <trkpt lat="46.02056" lon="3.49318">
        <ele>292.61767578125</ele>
        <time>2020-09-04T05:19:11.929Z</time>
      </trkpt>
      <trkpt lat="46.02009" lon="3.49333">
        <ele>293.19577026367</ele>
        <time>2020-09-04T05:19:36.350Z</time>
      </trkpt>
      <trkpt lat="46.01974" lon="3.49343">
        <ele>293.82748413086</ele>
        <time>2020-09-04T05:20:00.777Z</time>
      </trkpt>
      <trkpt lat="46.01932" lon="3.49226">
        <ele>291.51065063477</ele>
        <time>2020-09-04T05:20:25.219Z</time>
      </trkpt>
      <trkpt lat="46.01865" lon="3.49139">
        <ele>290.46795654297</ele>
        <time>2020-09-04T05:20:49.675Z</time>
      </trkpt>
      <trkpt lat="46.01823" lon="3.49099">
        <ele>289.98336791992</ele>
        <time>2020-09-04T05:21:14.139Z</time>
      </trkpt>
      <trkpt lat="46.01765" lon="3.49076">
        <ele>288.4338684082</ele>
        <time>2020-09-04T05:21:38.613Z</time>
      </trkpt>
      <trkpt lat="46.01765" lon="3.49076">
        <ele>288.43356323242</ele>
        <time>2020-09-04T05:22:03.087Z</time>
      </trkpt>
      <trkpt lat="46.01538" lon="3.48946">
        <ele>280.89981079102</ele>
        <time>2020-09-04T05:22:27.600Z</time>
      </trkpt>
      <trkpt lat="46.01531" lon="3.48925">
        <ele>280.39071655273</ele>
        <time>2020-09-04T05:22:52.115Z</time>
      </trkpt>
      <trkpt lat="46.01523" lon="3.48926">
        <ele>280.32635498047</ele>
        <time>2020-09-04T05:23:16.632Z</time>
      </trkpt>
      <trkpt lat="46.01521" lon="3.48926">
        <ele>280.30068969727</ele>
        <time>2020-09-04T05:23:41.149Z</time>
      </trkpt>
      <trkpt lat="46.01485" lon="3.48921">
        <ele>279.68283081055</ele>
        <time>2020-09-04T05:24:05.672Z</time>
      </trkpt>
      <trkpt lat="46.01135" lon="3.48835">
        <ele>284.59051513672</ele>
        <time>2020-09-04T05:24:30.252Z</time>
      </trkpt>
      <trkpt lat="46.00868" lon="3.48753">
        <ele>278.66775512695</ele>
        <time>2020-09-04T05:24:54.875Z</time>
      </trkpt>
      <trkpt lat="46.00859" lon="3.48744">
        <ele>278.46182250977</ele>
        <time>2020-09-04T05:25:19.500Z</time>
      </trkpt>
      <trkpt lat="46.00848" lon="3.48716">
        <ele>277.64108276367</ele>
        <time>2020-09-04T05:25:44.129Z</time>
      </trkpt>
      <trkpt lat="46.00726" lon="3.48696">
        <ele>278.8528137207</ele>
        <time>2020-09-04T05:26:08.777Z</time>
      </trkpt>
      <trkpt lat="46.00652" lon="3.48673">
        <ele>277.99765014648</ele>
        <time>2020-09-04T05:26:33.438Z</time>
      </trkpt>
      <trkpt lat="46.00674" lon="3.48605">
        <ele>277.44415283203</ele>
        <time>2020-09-04T05:26:58.107Z</time>
      </trkpt>
      <trkpt lat="46.00689" lon="3.48561">
        <ele>276.5891418457</ele>
        <time>2020-09-04T05:27:22.782Z</time>
      </trkpt>
      <trkpt lat="46.00765" lon="3.48328">
        <ele>272.91494750977</ele>
        <time>2020-09-04T05:27:47.485Z</time>
      </trkpt>
      <trkpt lat="46.00765" lon="3.48328">
        <ele>272.91525268555</ele>
        <time>2020-09-04T05:28:12.188Z</time>
      </trkpt>
      <trkpt lat="46.00833" lon="3.4806">
        <ele>268.81005859375</ele>
        <time>2020-09-04T05:28:36.923Z</time>
      </trkpt>
      <trkpt lat="46.00911" lon="3.47733">
        <ele>265.23147583008</ele>
        <time>2020-09-04T05:29:01.696Z</time>
      </trkpt>
      <trkpt lat="46.00949" lon="3.47583">
        <ele>266.43908691406</ele>
        <time>2020-09-04T05:29:26.487Z</time>
      </trkpt>
      <trkpt lat="46.00949" lon="3.47583">
        <ele>266.43887329102</ele>
        <time>2020-09-04T05:29:51.278Z</time>
      </trkpt>
      <trkpt lat="46.00999" lon="3.47388">
        <ele>266.17318725586</ele>
        <time>2020-09-04T05:30:16.093Z</time>
      </trkpt>
      <trkpt lat="46.00999" lon="3.47388">
        <ele>266.17309570312</ele>
        <time>2020-09-04T05:30:40.908Z</time>
      </trkpt>
      <trkpt lat="46.01031" lon="3.47195">
        <ele>266.53002929688</ele>
        <time>2020-09-04T05:31:05.745Z</time>
      </trkpt>
      <trkpt lat="46.01035" lon="3.4718">
        <ele>266.67456054688</ele>
        <time>2020-09-04T05:31:30.583Z</time>
      </trkpt>
      <trkpt lat="46.01035" lon="3.4718">
        <ele>266.67468261719</ele>
        <time>2020-09-04T05:31:55.421Z</time>
      </trkpt>
      <trkpt lat="46.01039" lon="3.47111">
        <ele>266.52639770508</ele>
        <time>2020-09-04T05:32:20.267Z</time>
      </trkpt>
      <trkpt lat="46.01029" lon="3.47063">
        <ele>266.47216796875</ele>
        <time>2020-09-04T05:32:45.119Z</time>
      </trkpt>
      <trkpt lat="46.00976" lon="3.46905">
        <ele>264.66751098633</ele>
        <time>2020-09-04T05:33:09.990Z</time>
      </trkpt>
      <trkpt lat="46.00976" lon="3.46905">
        <ele>264.66751098633</ele>
        <time>2020-09-04T05:33:34.861Z</time>
      </trkpt>
      <trkpt lat="46.0097" lon="3.46823">
        <ele>264</ele>
        <time>2020-09-04T05:33:59.742Z</time>
      </trkpt>
      <trkpt lat="46.0097" lon="3.46823">
        <ele>264</ele>
        <time>2020-09-04T05:34:24.623Z</time>
      </trkpt>
      <trkpt lat="46.00967" lon="3.46313">
        <ele>264.66116333008</ele>
        <time>2020-09-04T05:34:49.560Z</time>
      </trkpt>
      <trkpt lat="46.00893" lon="3.46223">
        <ele>264.98745727539</ele>
        <time>2020-09-04T05:35:14.513Z</time>
      </trkpt>
      <trkpt lat="46.00835" lon="3.46038">
        <ele>265.63171386719</ele>
        <time>2020-09-04T05:35:39.488Z</time>
      </trkpt>
      <trkpt lat="46.00814" lon="3.45995">
        <ele>265.63171386719</ele>
        <time>2020-09-04T05:36:04.469Z</time>
      </trkpt>
      <trkpt lat="46.00729" lon="3.45919">
        <ele>264.52990722656</ele>
        <time>2020-09-04T05:36:29.466Z</time>
      </trkpt>
      <trkpt lat="46.00687" lon="3.45902">
        <ele>265.28616333008</ele>
        <time>2020-09-04T05:36:54.470Z</time>
      </trkpt>
      <trkpt lat="46.00667" lon="3.45908">
        <ele>265.69808959961</ele>
        <time>2020-09-04T05:37:19.478Z</time>
      </trkpt>
      <trkpt lat="46.00557" lon="3.45978">
        <ele>266.03308105469</ele>
        <time>2020-09-04T05:37:44.505Z</time>
      </trkpt>
      <trkpt lat="46.00485" lon="3.45981">
        <ele>266.83135986328</ele>
        <time>2020-09-04T05:38:09.543Z</time>
      </trkpt>
      <trkpt lat="46.00453" lon="3.45987">
        <ele>266.43746948242</ele>
        <time>2020-09-04T05:38:34.587Z</time>
      </trkpt>
      <trkpt lat="46.00334" lon="3.46059">
        <ele>265.48886108398</ele>
        <time>2020-09-04T05:38:59.651Z</time>
      </trkpt>
      <trkpt lat="46.00172" lon="3.4606">
        <ele>266.47598266602</ele>
        <time>2020-09-04T05:39:24.741Z</time>
      </trkpt>
      <trkpt lat="46.00172" lon="3.4606">
        <ele>266.47598266602</ele>
        <time>2020-09-04T05:39:49.831Z</time>
      </trkpt>
      <trkpt lat="46.00096" lon="3.4607">
        <ele>267.25958251953</ele>
        <time>2020-09-04T05:40:14.933Z</time>
      </trkpt>
      <trkpt lat="46.00096" lon="3.4607">
        <ele>267.25967407227</ele>
        <time>2020-09-04T05:40:40.035Z</time>
      </trkpt>
      <trkpt lat="46.00025" lon="3.46079">
        <ele>267.88983154297</ele>
        <time>2020-09-04T05:41:05.149Z</time>
      </trkpt>
      <trkpt lat="45.99892" lon="3.46119">
        <ele>267.53854370117</ele>
        <time>2020-09-04T05:41:30.285Z</time>
      </trkpt>
      <trkpt lat="45.99857" lon="3.46128">
        <ele>268.57104492188</ele>
        <time>2020-09-04T05:41:55.426Z</time>
      </trkpt>
      <trkpt lat="45.99848" lon="3.46068">
        <ele>269.94869995117</ele>
        <time>2020-09-04T05:42:20.574Z</time>
      </trkpt>
      <trkpt lat="45.9985" lon="3.46035">
        <ele>270.54287719727</ele>
        <time>2020-09-04T05:42:45.726Z</time>
      </trkpt>
      <trkpt lat="45.99832" lon="3.45944">
        <ele>272.15463256836</ele>
        <time>2020-09-04T05:43:10.888Z</time>
      </trkpt>
      <trkpt lat="45.99728" lon="3.45908">
        <ele>273</ele>
        <time>2020-09-04T05:43:36.068Z</time>
      </trkpt>
      <trkpt lat="45.99728" lon="3.45908">
        <ele>273</ele>
        <time>2020-09-04T05:44:01.248Z</time>
      </trkpt>
      <trkpt lat="45.99689" lon="3.45881">
        <ele>272.56964111328</ele>
        <time>2020-09-04T05:44:26.434Z</time>
      </trkpt>
      <trkpt lat="45.99658" lon="3.45837">
        <ele>272.34991455078</ele>
        <time>2020-09-04T05:44:51.627Z</time>
      </trkpt>
      <trkpt lat="45.99658" lon="3.45837">
        <ele>272.34979248047</ele>
        <time>2020-09-04T05:45:16.820Z</time>
      </trkpt>
      <trkpt lat="45.99647" lon="3.4583">
        <ele>272.29840087891</ele>
        <time>2020-09-04T05:45:42.015Z</time>
      </trkpt>
      <trkpt lat="45.99654" lon="3.45775">
        <ele>272.96786499023</ele>
        <time>2020-09-04T05:46:07.217Z</time>
      </trkpt>
      <trkpt lat="45.99657" lon="3.45752">
        <ele>272.81652832031</ele>
        <time>2020-09-04T05:46:32.421Z</time>
      </trkpt>
      <trkpt lat="45.99657" lon="3.45752">
        <ele>272.81643676758</ele>
        <time>2020-09-04T05:46:57.625Z</time>
      </trkpt>
      <trkpt lat="45.99667" lon="3.45668">
        <ele>272.75021362305</ele>
        <time>2020-09-04T05:47:22.839Z</time>
      </trkpt>
      <trkpt lat="45.99661" lon="3.45623">
        <ele>273.9602355957</ele>
        <time>2020-09-04T05:47:48.058Z</time>
      </trkpt>
      <trkpt lat="45.99653" lon="3.4554">
        <ele>274.73602294922</ele>
        <time>2020-09-04T05:48:13.286Z</time>
      </trkpt>
      <trkpt lat="45.99666" lon="3.45479">
        <ele>274.27346801758</ele>
        <time>2020-09-04T05:48:38.521Z</time>
      </trkpt>
      <trkpt lat="45.99683" lon="3.45425">
        <ele>275.47723388672</ele>
        <time>2020-09-04T05:49:03.763Z</time>
      </trkpt>
      <trkpt lat="45.99689" lon="3.45378">
        <ele>275.70895385742</ele>
        <time>2020-09-04T05:49:29.010Z</time>
      </trkpt>
      <trkpt lat="45.99689" lon="3.45378">
        <ele>275.7092590332</ele>
        <time>2020-09-04T05:49:54.257Z</time>
      </trkpt>
      <trkpt lat="45.99686" lon="3.45354">
        <ele>275.59307861328</ele>
        <time>2020-09-04T05:50:19.507Z</time>
      </trkpt>
      <trkpt lat="45.9961" lon="3.4517">
        <ele>277.44177246094</ele>
        <time>2020-09-04T05:50:44.781Z</time>
      </trkpt>
      <trkpt lat="45.99574" lon="3.4512">
        <ele>279.25677490234</ele>
        <time>2020-09-04T05:51:10.063Z</time>
      </trkpt>
      <trkpt lat="45.99438" lon="3.45039">
        <ele>286.35848999023</ele>
        <time>2020-09-04T05:51:35.368Z</time>
      </trkpt>
      <trkpt lat="45.99405" lon="3.44976">
        <ele>288.88903808594</ele>
        <time>2020-09-04T05:52:00.682Z</time>
      </trkpt>
      <trkpt lat="45.99261" lon="3.44744">
        <ele>290.30883789062</ele>
        <time>2020-09-04T05:52:26.031Z</time>
      </trkpt>
      <trkpt lat="45.99233" lon="3.44721">
        <ele>290.36022949219</ele>
        <time>2020-09-04T05:52:51.385Z</time>
      </trkpt>
      <trkpt lat="45.99198" lon="3.44724">
        <ele>290.171875</ele>
        <time>2020-09-04T05:53:16.745Z</time>
      </trkpt>
      <trkpt lat="45.99166" lon="3.44747">
        <ele>290.53625488281</ele>
        <time>2020-09-04T05:53:42.110Z</time>
      </trkpt>
      <trkpt lat="45.991" lon="3.44807">
        <ele>291.4889831543</ele>
        <time>2020-09-04T05:54:07.488Z</time>
      </trkpt>
      <trkpt lat="45.9905" lon="3.44806">
        <ele>291.10223388672</ele>
        <time>2020-09-04T05:54:32.874Z</time>
      </trkpt>
      <trkpt lat="45.98991" lon="3.44799">
        <ele>291.81033325195</ele>
        <time>2020-09-04T05:54:58.269Z</time>
      </trkpt>
      <trkpt lat="45.98854" lon="3.44765">
        <ele>291.0260925293</ele>
        <time>2020-09-04T05:55:23.687Z</time>
      </trkpt>
      <trkpt lat="45.98793" lon="3.44779">
        <ele>290.82113647461</ele>
        <time>2020-09-04T05:55:49.114Z</time>
      </trkpt>
      <trkpt lat="45.98701" lon="3.44742">
        <ele>290.28588867188</ele>
        <time>2020-09-04T05:56:14.557Z</time>
      </trkpt>
      <trkpt lat="45.98701" lon="3.44742">
        <ele>290.28579711914</ele>
        <time>2020-09-04T05:56:40.000Z</time>
      </trkpt>
      <trkpt lat="45.98606" lon="3.44774">
        <ele>290.8971862793</ele>
        <time>2020-09-04T05:57:05.458Z</time>
      </trkpt>
      <trkpt lat="45.98485" lon="3.44797">
        <ele>290.76544189453</ele>
        <time>2020-09-04T05:57:30.936Z</time>
      </trkpt>
      <trkpt lat="45.98485" lon="3.44797">
        <ele>290.76544189453</ele>
        <time>2020-09-04T05:57:56.414Z</time>
      </trkpt>
      <trkpt lat="45.98474" lon="3.44799">
        <ele>290.65127563477</ele>
        <time>2020-09-04T05:58:21.894Z</time>
      </trkpt>
      <trkpt lat="45.98419" lon="3.44803">
        <ele>292.19012451172</ele>
        <time>2020-09-04T05:58:47.383Z</time>
      </trkpt>
      <trkpt lat="45.98361" lon="3.44789">
        <ele>294.38528442383</ele>
        <time>2020-09-04T05:59:12.881Z</time>
      </trkpt>
      <trkpt lat="45.98361" lon="3.44789">
        <ele>294.38519287109</ele>
        <time>2020-09-04T05:59:38.379Z</time>
      </trkpt>
      <trkpt lat="45.98248" lon="3.44777">
        <ele>296.68963623047</ele>
        <time>2020-09-04T06:00:03.895Z</time>
      </trkpt>
      <trkpt lat="45.98168" lon="3.448">
        <ele>293.78726196289</ele>
        <time>2020-09-04T06:00:29.424Z</time>
      </trkpt>
      <trkpt lat="45.98071" lon="3.44816">
        <ele>293.47738647461</ele>
        <time>2020-09-04T06:00:54.969Z</time>
      </trkpt>
      <trkpt lat="45.98027" lon="3.44823">
        <ele>292.59530639648</ele>
        <time>2020-09-04T06:01:20.521Z</time>
      </trkpt>
      <trkpt lat="45.97981" lon="3.44824">
        <ele>293.05871582031</ele>
        <time>2020-09-04T06:01:46.080Z</time>
      </trkpt>
      <trkpt lat="45.97895" lon="3.44856">
        <ele>293.9538269043</ele>
        <time>2020-09-04T06:02:11.653Z</time>
      </trkpt>
      <trkpt lat="45.97835" lon="3.44859">
        <ele>294.47662353516</ele>
        <time>2020-09-04T06:02:37.236Z</time>
      </trkpt>
      <trkpt lat="45.97768" lon="3.44828">
        <ele>296.02221679688</ele>
        <time>2020-09-04T06:03:02.830Z</time>
      </trkpt>
      <trkpt lat="45.97746" lon="3.44827">
        <ele>295.79061889648</ele>
        <time>2020-09-04T06:03:28.428Z</time>
      </trkpt>
      <trkpt lat="45.97684" lon="3.4483">
        <ele>294.73886108398</ele>
        <time>2020-09-04T06:03:54.036Z</time>
      </trkpt>
      <trkpt lat="45.97594" lon="3.44802">
        <ele>294.55474853516</ele>
        <time>2020-09-04T06:04:19.659Z</time>
      </trkpt>
      <trkpt lat="45.97528" lon="3.44764">
        <ele>294.94818115234</ele>
        <time>2020-09-04T06:04:45.293Z</time>
      </trkpt>
      <trkpt lat="45.97469" lon="3.44708">
        <ele>293.73635864258</ele>
        <time>2020-09-04T06:05:10.938Z</time>
      </trkpt>
      <trkpt lat="45.97379" lon="3.44655">
        <ele>295.6520690918</ele>
        <time>2020-09-04T06:05:36.599Z</time>
      </trkpt>
      <trkpt lat="45.97348" lon="3.44629">
        <ele>296.29568481445</ele>
        <time>2020-09-04T06:06:02.266Z</time>
      </trkpt>
      <trkpt lat="45.97329" lon="3.44596">
        <ele>297</ele>
        <time>2020-09-04T06:06:27.937Z</time>
      </trkpt>
      <trkpt lat="45.97297" lon="3.44547">
        <ele>296.32083129883</ele>
        <time>2020-09-04T06:06:53.616Z</time>
      </trkpt>
      <trkpt lat="45.97167" lon="3.44405">
        <ele>288.85830688477</ele>
        <time>2020-09-04T06:07:19.321Z</time>
      </trkpt>
      <trkpt lat="45.97152" lon="3.44389">
        <ele>288.14984130859</ele>
        <time>2020-09-04T06:07:45.029Z</time>
      </trkpt>
      <trkpt lat="45.97131" lon="3.44375">
        <ele>287.44915771484</ele>
        <time>2020-09-04T06:08:10.741Z</time>
      </trkpt>
      <trkpt lat="45.97126" lon="3.44373">
        <ele>287.34619140625</ele>
        <time>2020-09-04T06:08:36.453Z</time>
      </trkpt>
      <trkpt lat="45.97119" lon="3.4438">
        <ele>287.08874511719</ele>
        <time>2020-09-04T06:09:02.167Z</time>
      </trkpt>
      <trkpt lat="45.97119" lon="3.44396">
        <ele>286.89566040039</ele>
        <time>2020-09-04T06:09:27.883Z</time>
      </trkpt>
      <trkpt lat="45.97107" lon="3.44445">
        <ele>286.7366027832</ele>
        <time>2020-09-04T06:09:53.604Z</time>
      </trkpt>
      <trkpt lat="45.97079" lon="3.44512">
        <ele>285.10610961914</ele>
        <time>2020-09-04T06:10:19.334Z</time>
      </trkpt>
      <trkpt lat="45.9707" lon="3.44533">
        <ele>284.2961730957</ele>
        <time>2020-09-04T06:10:45.067Z</time>
      </trkpt>
      <trkpt lat="45.97027" lon="3.44621">
        <ele>283.84283447266</ele>
        <time>2020-09-04T06:11:10.812Z</time>
      </trkpt>
      <trkpt lat="45.9694" lon="3.44774">
        <ele>273.8971862793</ele>
        <time>2020-09-04T06:11:36.579Z</time>
      </trkpt>
      <trkpt lat="45.96784" lon="3.45044">
        <ele>273.53421020508</ele>
        <time>2020-09-04T06:12:02.385Z</time>
      </trkpt>
      <trkpt lat="45.96784" lon="3.45044">
        <ele>273.53448486328</ele>
        <time>2020-09-04T06:12:28.191Z</time>
      </trkpt>
      <trkpt lat="45.96493" lon="3.45498">
        <ele>270.77883911133</ele>
        <time>2020-09-04T06:12:54.066Z</time>
      </trkpt>
      <trkpt lat="45.96445" lon="3.45563">
        <ele>271</ele>
        <time>2020-09-04T06:13:19.951Z</time>
      </trkpt>
      <trkpt lat="45.96427" lon="3.45594">
        <ele>271.50109863281</ele>
        <time>2020-09-04T06:13:45.841Z</time>
      </trkpt>
      <trkpt lat="45.96427" lon="3.45594">
        <ele>271.50100708008</ele>
        <time>2020-09-04T06:14:11.731Z</time>
      </trkpt>
      <trkpt lat="45.96398" lon="3.45645">
        <ele>272.31121826172</ele>
        <time>2020-09-04T06:14:37.628Z</time>
      </trkpt>
      <trkpt lat="45.96394" lon="3.4565">
        <ele>272.49145507812</ele>
        <time>2020-09-04T06:15:03.526Z</time>
      </trkpt>
      <trkpt lat="45.96394" lon="3.4565">
        <ele>272.49176025391</ele>
        <time>2020-09-04T06:15:29.424Z</time>
      </trkpt>
      <trkpt lat="45.96391" lon="3.4566">
        <ele>272.72277832031</ele>
        <time>2020-09-04T06:15:55.323Z</time>
      </trkpt>
      <trkpt lat="45.96391" lon="3.4566">
        <ele>272.72286987305</ele>
        <time>2020-09-04T06:16:21.222Z</time>
      </trkpt>
      <trkpt lat="45.96364" lon="3.45728">
        <ele>272.22924804688</ele>
        <time>2020-09-04T06:16:47.130Z</time>
      </trkpt>
      <trkpt lat="45.96348" lon="3.45819">
        <ele>271.90496826172</ele>
        <time>2020-09-04T06:17:13.049Z</time>
      </trkpt>
      <trkpt lat="45.96344" lon="3.45898">
        <ele>271.40612792969</ele>
        <time>2020-09-04T06:17:38.976Z</time>
      </trkpt>
      <trkpt lat="45.96353" lon="3.46097">
        <ele>270.02545166016</ele>
        <time>2020-09-04T06:18:04.926Z</time>
      </trkpt>
      <trkpt lat="45.96348" lon="3.46178">
        <ele>270</ele>
        <time>2020-09-04T06:18:30.885Z</time>
      </trkpt>
      <trkpt lat="45.96335" lon="3.46245">
        <ele>270.09027099609</ele>
        <time>2020-09-04T06:18:56.852Z</time>
      </trkpt>
      <trkpt lat="45.96304" lon="3.46326">
        <ele>272.43276977539</ele>
        <time>2020-09-04T06:19:22.829Z</time>
      </trkpt>
      <trkpt lat="45.96209" lon="3.46249">
        <ele>271</ele>
        <time>2020-09-04T06:19:48.823Z</time>
      </trkpt>
      <trkpt lat="45.96103" lon="3.46169">
        <ele>273.0149230957</ele>
        <time>2020-09-04T06:20:14.837Z</time>
      </trkpt>
      <trkpt lat="45.96103" lon="3.46169">
        <ele>273.01449584961</ele>
        <time>2020-09-04T06:20:40.851Z</time>
      </trkpt>
      <trkpt lat="45.95926" lon="3.46057">
        <ele>272.97079467773</ele>
        <time>2020-09-04T06:21:06.896Z</time>
      </trkpt>
      <trkpt lat="45.95696" lon="3.45846">
        <ele>272.34164428711</ele>
        <time>2020-09-04T06:21:32.984Z</time>
      </trkpt>
      <trkpt lat="45.95676" lon="3.45814">
        <ele>272.5862121582</ele>
        <time>2020-09-04T06:21:59.077Z</time>
      </trkpt>
      <trkpt lat="45.95647" lon="3.45746">
        <ele>272.93377685547</ele>
        <time>2020-09-04T06:22:25.179Z</time>
      </trkpt>
      <trkpt lat="45.95583" lon="3.45507">
        <ele>273.21060180664</ele>
        <time>2020-09-04T06:22:51.309Z</time>
      </trkpt>
      <trkpt lat="45.95547" lon="3.45427">
        <ele>274.92926025391</ele>
        <time>2020-09-04T06:23:17.450Z</time>
      </trkpt>
      <trkpt lat="45.95489" lon="3.4536">
        <ele>274.08837890625</ele>
        <time>2020-09-04T06:23:43.603Z</time>
      </trkpt>
      <trkpt lat="45.95261" lon="3.45248">
        <ele>272.66909790039</ele>
        <time>2020-09-04T06:24:09.794Z</time>
      </trkpt>
      <trkpt lat="45.95202" lon="3.45202">
        <ele>274.0556640625</ele>
        <time>2020-09-04T06:24:35.996Z</time>
      </trkpt>
      <trkpt lat="45.95174" lon="3.45157">
        <ele>274.07730102539</ele>
        <time>2020-09-04T06:25:02.205Z</time>
      </trkpt>
      <trkpt lat="45.95124" lon="3.45045">
        <ele>273.40533447266</ele>
        <time>2020-09-04T06:25:28.429Z</time>
      </trkpt>
      <trkpt lat="45.95104" lon="3.45013">
        <ele>273.77597045898</ele>
        <time>2020-09-04T06:25:54.658Z</time>
      </trkpt>
      <trkpt lat="45.95064" lon="3.44974">
        <ele>273.33828735352</ele>
        <time>2020-09-04T06:26:20.894Z</time>
      </trkpt>
      <trkpt lat="45.9499" lon="3.44929">
        <ele>275.1162109375</ele>
        <time>2020-09-04T06:26:47.143Z</time>
      </trkpt>
      <trkpt lat="45.94946" lon="3.44862">
        <ele>274.1540222168</ele>
        <time>2020-09-04T06:27:13.403Z</time>
      </trkpt>
      <trkpt lat="45.94946" lon="3.44862">
        <ele>274.15383911133</ele>
        <time>2020-09-04T06:27:39.663Z</time>
      </trkpt>
      <trkpt lat="45.94848" lon="3.44666">
        <ele>273.31356811523</ele>
        <time>2020-09-04T06:28:05.949Z</time>
      </trkpt>
      <trkpt lat="45.94814" lon="3.44578">
        <ele>273</ele>
        <time>2020-09-04T06:28:32.247Z</time>
      </trkpt>
      <trkpt lat="45.94746" lon="3.44326">
        <ele>274.45590209961</ele>
        <time>2020-09-04T06:28:58.575Z</time>
      </trkpt>
      <trkpt lat="45.94732" lon="3.44247">
        <ele>273.76956176758</ele>
        <time>2020-09-04T06:29:24.912Z</time>
      </trkpt>
      <trkpt lat="45.94727" lon="3.44142">
        <ele>273.51361083984</ele>
        <time>2020-09-04T06:29:51.261Z</time>
      </trkpt>
      <trkpt lat="45.94737" lon="3.44044">
        <ele>274.66333007812</ele>
        <time>2020-09-04T06:30:17.621Z</time>
      </trkpt>
      <trkpt lat="45.94751" lon="3.43927">
        <ele>274</ele>
        <time>2020-09-04T06:30:43.994Z</time>
      </trkpt>
      <trkpt lat="45.94744" lon="3.43882">
        <ele>274</ele>
        <time>2020-09-04T06:31:10.372Z</time>
      </trkpt>
      <trkpt lat="45.94728" lon="3.43823">
        <ele>274</ele>
        <time>2020-09-04T06:31:36.757Z</time>
      </trkpt>
      <trkpt lat="45.94728" lon="3.43823">
        <ele>274</ele>
        <time>2020-09-04T06:32:03.142Z</time>
      </trkpt>
      <trkpt lat="45.94711" lon="3.43762">
        <ele>273.95120239258</ele>
        <time>2020-09-04T06:32:29.535Z</time>
      </trkpt>
      <trkpt lat="45.94723" lon="3.43602">
        <ele>273.01696777344</ele>
        <time>2020-09-04T06:32:55.946Z</time>
      </trkpt>
      <trkpt lat="45.94717" lon="3.43474">
        <ele>274.91589355469</ele>
        <time>2020-09-04T06:33:22.371Z</time>
      </trkpt>
      <trkpt lat="45.94691" lon="3.43337">
        <ele>276.09884643555</ele>
        <time>2020-09-04T06:33:48.812Z</time>
      </trkpt>
      <trkpt lat="45.9467" lon="3.43303">
        <ele>277.38607788086</ele>
        <time>2020-09-04T06:34:15.258Z</time>
      </trkpt>
      <trkpt lat="45.94628" lon="3.43277">
        <ele>278.88403320312</ele>
        <time>2020-09-04T06:34:41.711Z</time>
      </trkpt>
      <trkpt lat="45.94624" lon="3.43276">
        <ele>278.96115112305</ele>
        <time>2020-09-04T06:35:08.165Z</time>
      </trkpt>
      <trkpt lat="45.94576" lon="3.43253">
        <ele>279.32946777344</ele>
        <time>2020-09-04T06:35:34.627Z</time>
      </trkpt>
      <trkpt lat="45.94576" lon="3.43253">
        <ele>279.3293762207</ele>
        <time>2020-09-04T06:36:01.089Z</time>
      </trkpt>
      <trkpt lat="45.94522" lon="3.43228">
        <ele>281.20483398438</ele>
        <time>2020-09-04T06:36:27.560Z</time>
      </trkpt>
      <trkpt lat="45.9452" lon="3.43226">
        <ele>281.28207397461</ele>
        <time>2020-09-04T06:36:54.031Z</time>
      </trkpt>
      <trkpt lat="45.94466" lon="3.4312">
        <ele>280.94720458984</ele>
        <time>2020-09-04T06:37:20.517Z</time>
      </trkpt>
      <trkpt lat="45.94384" lon="3.42952">
        <ele>280.9729309082</ele>
        <time>2020-09-04T06:37:47.026Z</time>
      </trkpt>
      <trkpt lat="45.94251" lon="3.4265">
        <ele>281.63439941406</ele>
        <time>2020-09-04T06:38:13.575Z</time>
      </trkpt>
      <trkpt lat="45.94195" lon="3.42592">
        <ele>284.02087402344</ele>
        <time>2020-09-04T06:38:40.135Z</time>
      </trkpt>
      <trkpt lat="45.94182" lon="3.42572">
        <ele>284.703125</ele>
        <time>2020-09-04T06:39:06.698Z</time>
      </trkpt>
      <trkpt lat="45.94175" lon="3.42559">
        <ele>285.08929443359</ele>
        <time>2020-09-04T06:39:33.263Z</time>
      </trkpt>
      <trkpt lat="45.94158" lon="3.42524">
        <ele>285.70788574219</ele>
        <time>2020-09-04T06:39:59.832Z</time>
      </trkpt>
      <trkpt lat="45.94145" lon="3.42455">
        <ele>288.14068603516</ele>
        <time>2020-09-04T06:40:26.409Z</time>
      </trkpt>
      <trkpt lat="45.94136" lon="3.42392">
        <ele>289.58193969727</ele>
        <time>2020-09-04T06:40:52.994Z</time>
      </trkpt>
      <trkpt lat="45.94106" lon="3.42253">
        <ele>287.33200073242</ele>
        <time>2020-09-04T06:41:19.595Z</time>
      </trkpt>
      <trkpt lat="45.94107" lon="3.42143">
        <ele>279.20300292969</ele>
        <time>2020-09-04T06:41:46.208Z</time>
      </trkpt>
      <trkpt lat="45.94101" lon="3.42069">
        <ele>277.57040405273</ele>
        <time>2020-09-04T06:42:12.829Z</time>
      </trkpt>
      <trkpt lat="45.94043" lon="3.4182">
        <ele>277.53430175781</ele>
        <time>2020-09-04T06:42:39.480Z</time>
      </trkpt>
      <trkpt lat="45.94009" lon="3.41728">
        <ele>277.84692382812</ele>
        <time>2020-09-04T06:43:06.142Z</time>
      </trkpt>
      <trkpt lat="45.93922" lon="3.41632">
        <ele>278.61981201172</ele>
        <time>2020-09-04T06:43:32.822Z</time>
      </trkpt>
      <trkpt lat="45.93892" lon="3.4155">
        <ele>279.55917358398</ele>
        <time>2020-09-04T06:43:59.512Z</time>
      </trkpt>
      <trkpt lat="45.93824" lon="3.41498">
        <ele>280</ele>
        <time>2020-09-04T06:44:26.215Z</time>
      </trkpt>
      <trkpt lat="45.93824" lon="3.41498">
        <ele>280</ele>
        <time>2020-09-04T06:44:52.918Z</time>
      </trkpt>
      <trkpt lat="45.93706" lon="3.41417">
        <ele>279.64978027344</ele>
        <time>2020-09-04T06:45:19.642Z</time>
      </trkpt>
      <trkpt lat="45.93652" lon="3.41365">
        <ele>278.38827514648</ele>
        <time>2020-09-04T06:45:46.376Z</time>
      </trkpt>
      <trkpt lat="45.93519" lon="3.41273">
        <ele>280.45986938477</ele>
        <time>2020-09-04T06:46:13.134Z</time>
      </trkpt>
      <trkpt lat="45.93484" lon="3.41201">
        <ele>280.10931396484</ele>
        <time>2020-09-04T06:46:39.901Z</time>
      </trkpt>
      <trkpt lat="45.93422" lon="3.41126">
        <ele>279.32357788086</ele>
        <time>2020-09-04T06:47:06.681Z</time>
      </trkpt>
      <trkpt lat="45.93378" lon="3.41113">
        <ele>279.46139526367</ele>
        <time>2020-09-04T06:47:33.469Z</time>
      </trkpt>
      <trkpt lat="45.93297" lon="3.41115">
        <ele>281.24890136719</ele>
        <time>2020-09-04T06:48:00.270Z</time>
      </trkpt>
      <trkpt lat="45.93269" lon="3.41101">
        <ele>281.91827392578</ele>
        <time>2020-09-04T06:48:27.075Z</time>
      </trkpt>
      <trkpt lat="45.93213" lon="3.41021">
        <ele>282.46047973633</ele>
        <time>2020-09-04T06:48:53.893Z</time>
      </trkpt>
      <trkpt lat="45.93213" lon="3.41021">
        <ele>282.46017456055</ele>
        <time>2020-09-04T06:49:20.711Z</time>
      </trkpt>
      <trkpt lat="45.93175" lon="3.40924">
        <ele>282.17477416992</ele>
        <time>2020-09-04T06:49:47.541Z</time>
      </trkpt>
      <trkpt lat="45.93147" lon="3.40817">
        <ele>281.39581298828</ele>
        <time>2020-09-04T06:50:14.384Z</time>
      </trkpt>
      <trkpt lat="45.9312" lon="3.40714">
        <ele>282.24154663086</ele>
        <time>2020-09-04T06:50:41.239Z</time>
      </trkpt>
      <trkpt lat="45.93106" lon="3.40659">
        <ele>282.52639770508</ele>
        <time>2020-09-04T06:51:08.101Z</time>
      </trkpt>
      <trkpt lat="45.93085" lon="3.40599">
        <ele>283.34298706055</ele>
        <time>2020-09-04T06:51:34.971Z</time>
      </trkpt>
      <trkpt lat="45.93054" lon="3.40523">
        <ele>283.25741577148</ele>
        <time>2020-09-04T06:52:01.850Z</time>
      </trkpt>
      <trkpt lat="45.93041" lon="3.40474">
        <ele>283.22583007812</ele>
        <time>2020-09-04T06:52:28.735Z</time>
      </trkpt>
      <trkpt lat="45.93016" lon="3.40338">
        <ele>281.36038208008</ele>
        <time>2020-09-04T06:52:55.636Z</time>
      </trkpt>
      <trkpt lat="45.92977" lon="3.40238">
        <ele>282.19790649414</ele>
        <time>2020-09-04T06:53:22.550Z</time>
      </trkpt>
      <trkpt lat="45.92947" lon="3.40049">
        <ele>281.28350830078</ele>
        <time>2020-09-04T06:53:49.485Z</time>
      </trkpt>
      <trkpt lat="45.92927" lon="3.4">
        <ele>282.08218383789</ele>
        <time>2020-09-04T06:54:16.427Z</time>
      </trkpt>
      <trkpt lat="45.92927" lon="3.4">
        <ele>282.08178710938</ele>
        <time>2020-09-04T06:54:43.369Z</time>
      </trkpt>
      <trkpt lat="45.92889" lon="3.39927">
        <ele>282.90606689453</ele>
        <time>2020-09-04T06:55:10.321Z</time>
      </trkpt>
      <trkpt lat="45.92862" lon="3.39905">
        <ele>282.69976806641</ele>
        <time>2020-09-04T06:55:37.278Z</time>
      </trkpt>
      <trkpt lat="45.92831" lon="3.39891">
        <ele>282.94415283203</ele>
        <time>2020-09-04T06:56:04.240Z</time>
      </trkpt>
      <trkpt lat="45.92776" lon="3.39848">
        <ele>282.36544799805</ele>
        <time>2020-09-04T06:56:31.212Z</time>
      </trkpt>
      <trkpt lat="45.92699" lon="3.39812">
        <ele>282.42980957031</ele>
        <time>2020-09-04T06:56:58.197Z</time>
      </trkpt>
      <trkpt lat="45.92622" lon="3.39755">
        <ele>282.77822875977</ele>
        <time>2020-09-04T06:57:25.196Z</time>
      </trkpt>
      <trkpt lat="45.92622" lon="3.39755">
        <ele>282.77795410156</ele>
        <time>2020-09-04T06:57:52.195Z</time>
      </trkpt>
      <trkpt lat="45.92579" lon="3.39747">
        <ele>284.42562866211</ele>
        <time>2020-09-04T06:58:19.201Z</time>
      </trkpt>
      <trkpt lat="45.92565" lon="3.39737">
        <ele>285.04379272461</ele>
        <time>2020-09-04T06:58:46.209Z</time>
      </trkpt>
      <trkpt lat="45.92555" lon="3.39715">
        <ele>285.86126708984</ele>
        <time>2020-09-04T06:59:13.220Z</time>
      </trkpt>
      <trkpt lat="45.92555" lon="3.39621">
        <ele>286.12838745117</ele>
        <time>2020-09-04T06:59:40.242Z</time>
      </trkpt>
      <trkpt lat="45.92493" lon="3.39534">
        <ele>285.23373413086</ele>
        <time>2020-09-04T07:00:07.277Z</time>
      </trkpt>
      <trkpt lat="45.92448" lon="3.39455">
        <ele>285.20086669922</ele>
        <time>2020-09-04T07:00:34.324Z</time>
      </trkpt>
      <trkpt lat="45.92405" lon="3.39278">
        <ele>281.15719604492</ele>
        <time>2020-09-04T07:01:01.392Z</time>
      </trkpt>
      <trkpt lat="45.92342" lon="3.39178">
        <ele>281.541015625</ele>
        <time>2020-09-04T07:01:28.475Z</time>
      </trkpt>
      <trkpt lat="45.92286" lon="3.39122">
        <ele>281.79132080078</ele>
        <time>2020-09-04T07:01:55.569Z</time>
      </trkpt>
      <trkpt lat="45.92215" lon="3.38973">
        <ele>282.50143432617</ele>
        <time>2020-09-04T07:02:22.683Z</time>
      </trkpt>
      <trkpt lat="45.92096" lon="3.38834">
        <ele>284.92987060547</ele>
        <time>2020-09-04T07:02:49.822Z</time>
      </trkpt>
      <trkpt lat="45.92087" lon="3.38811">
        <ele>285.81838989258</ele>
        <time>2020-09-04T07:03:16.964Z</time>
      </trkpt>
      <trkpt lat="45.92085" lon="3.38777">
        <ele>286.16717529297</ele>
        <time>2020-09-04T07:03:44.109Z</time>
      </trkpt>
      <trkpt lat="45.92208" lon="3.38382">
        <ele>282.40139770508</ele>
        <time>2020-09-04T07:04:11.303Z</time>
      </trkpt>
      <trkpt lat="45.92209" lon="3.38354">
        <ele>282.74884033203</ele>
        <time>2020-09-04T07:04:38.500Z</time>
      </trkpt>
      <trkpt lat="45.92203" lon="3.38326">
        <ele>282.99371337891</ele>
        <time>2020-09-04T07:05:05.700Z</time>
      </trkpt>
      <trkpt lat="45.92041" lon="3.37936">
        <ele>281.44998168945</ele>
        <time>2020-09-04T07:05:32.951Z</time>
      </trkpt>
      <trkpt lat="45.92007" lon="3.37782">
        <ele>283.36099243164</ele>
        <time>2020-09-04T07:06:00.220Z</time>
      </trkpt>
      <trkpt lat="45.91948" lon="3.376">
        <ele>283.55035400391</ele>
        <time>2020-09-04T07:06:27.511Z</time>
      </trkpt>
      <trkpt lat="45.91931" lon="3.37565">
        <ele>283.75524902344</ele>
        <time>2020-09-04T07:06:54.807Z</time>
      </trkpt>
      <trkpt lat="45.91895" lon="3.37512">
        <ele>284.8154296875</ele>
        <time>2020-09-04T07:07:22.111Z</time>
      </trkpt>
      <trkpt lat="45.91855" lon="3.37393">
        <ele>286.12469482422</ele>
        <time>2020-09-04T07:07:49.430Z</time>
      </trkpt>
      <trkpt lat="45.91794" lon="3.37351">
        <ele>289.27905273438</ele>
        <time>2020-09-04T07:08:16.760Z</time>
      </trkpt>
      <trkpt lat="45.9177" lon="3.37307">
        <ele>288.85708618164</ele>
        <time>2020-09-04T07:08:44.096Z</time>
      </trkpt>
      <trkpt lat="45.91754" lon="3.37294">
        <ele>288.97326660156</ele>
        <time>2020-09-04T07:09:11.435Z</time>
      </trkpt>
      <trkpt lat="45.91716" lon="3.37287">
        <ele>289.63021850586</ele>
        <time>2020-09-04T07:09:38.780Z</time>
      </trkpt>
      <trkpt lat="45.91681" lon="3.37276">
        <ele>289.78479003906</ele>
        <time>2020-09-04T07:10:06.131Z</time>
      </trkpt>
      <trkpt lat="45.91618" lon="3.37236">
        <ele>289.93078613281</ele>
        <time>2020-09-04T07:10:33.493Z</time>
      </trkpt>
      <trkpt lat="45.91531" lon="3.37183">
        <ele>290.65963745117</ele>
        <time>2020-09-04T07:11:00.870Z</time>
      </trkpt>
      <trkpt lat="45.91531" lon="3.37183">
        <ele>290.65942382812</ele>
        <time>2020-09-04T07:11:28.247Z</time>
      </trkpt>
      <trkpt lat="45.91428" lon="3.37111">
        <ele>291.109375</ele>
        <time>2020-09-04T07:11:55.642Z</time>
      </trkpt>
      <trkpt lat="45.91353" lon="3.37031">
        <ele>290.85391235352</ele>
        <time>2020-09-04T07:12:23.052Z</time>
      </trkpt>
      <trkpt lat="45.9132" lon="3.36961">
        <ele>289.55380249023</ele>
        <time>2020-09-04T07:12:50.472Z</time>
      </trkpt>
      <trkpt lat="45.9129" lon="3.36928">
        <ele>289.14178466797</ele>
        <time>2020-09-04T07:13:17.898Z</time>
      </trkpt>
      <trkpt lat="45.9128" lon="3.36921">
        <ele>289.07751464844</ele>
        <time>2020-09-04T07:13:45.326Z</time>
      </trkpt>
      <trkpt lat="45.91252" lon="3.36893">
        <ele>288.74273681641</ele>
        <time>2020-09-04T07:14:12.759Z</time>
      </trkpt>
      <trkpt lat="45.91229" lon="3.36857">
        <ele>288.13781738281</ele>
        <time>2020-09-04T07:14:40.198Z</time>
      </trkpt>
      <trkpt lat="45.91202" lon="3.36837">
        <ele>288.27325439453</ele>
        <time>2020-09-04T07:15:07.642Z</time>
      </trkpt>
      <trkpt lat="45.91028" lon="3.36777">
        <ele>288.3030090332</ele>
        <time>2020-09-04T07:15:35.114Z</time>
      </trkpt>
      <trkpt lat="45.90983" lon="3.36763">
        <ele>287.98416137695</ele>
        <time>2020-09-04T07:16:02.594Z</time>
      </trkpt>
      <trkpt lat="45.90942" lon="3.36766">
        <ele>289.18408203125</ele>
        <time>2020-09-04T07:16:30.080Z</time>
      </trkpt>
      <trkpt lat="45.90897" lon="3.36789">
        <ele>290.70690917969</ele>
        <time>2020-09-04T07:16:57.574Z</time>
      </trkpt>
      <trkpt lat="45.90854" lon="3.3682">
        <ele>290.33358764648</ele>
        <time>2020-09-04T07:17:25.075Z</time>
      </trkpt>
      <trkpt lat="45.90829" lon="3.36821">
        <ele>290.32070922852</ele>
        <time>2020-09-04T07:17:52.580Z</time>
      </trkpt>
      <trkpt lat="45.90687" lon="3.3679">
        <ele>290.44314575195</ele>
        <time>2020-09-04T07:18:20.108Z</time>
      </trkpt>
      <trkpt lat="45.90635" lon="3.36736">
        <ele>290.72338867188</ele>
        <time>2020-09-04T07:18:47.647Z</time>
      </trkpt>
      <trkpt lat="45.90635" lon="3.36736">
        <ele>290.72326660156</ele>
        <time>2020-09-04T07:19:15.186Z</time>
      </trkpt>
      <trkpt lat="45.90452" lon="3.36479">
        <ele>293.04916381836</ele>
        <time>2020-09-04T07:19:42.766Z</time>
      </trkpt>
      <trkpt lat="45.90413" lon="3.36368">
        <ele>293.87521362305</ele>
        <time>2020-09-04T07:20:10.360Z</time>
      </trkpt>
      <trkpt lat="45.90409" lon="3.36342">
        <ele>293.36260986328</ele>
        <time>2020-09-04T07:20:37.957Z</time>
      </trkpt>
      <trkpt lat="45.90423" lon="3.36172">
        <ele>286.78045654297</ele>
        <time>2020-09-04T07:21:05.573Z</time>
      </trkpt>
      <trkpt lat="45.90421" lon="3.36116">
        <ele>286.72897338867</ele>
        <time>2020-09-04T07:21:33.195Z</time>
      </trkpt>
      <trkpt lat="45.90393" lon="3.36055">
        <ele>286.05960083008</ele>
        <time>2020-09-04T07:22:00.825Z</time>
      </trkpt>
      <trkpt lat="45.90252" lon="3.35799">
        <ele>285.48013305664</ele>
        <time>2020-09-04T07:22:28.492Z</time>
      </trkpt>
      <trkpt lat="45.90186" lon="3.3573">
        <ele>285.45458984375</ele>
        <time>2020-09-04T07:22:56.172Z</time>
      </trkpt>
      <trkpt lat="45.89874" lon="3.3552">
        <ele>288.26290893555</ele>
        <time>2020-09-04T07:23:23.907Z</time>
      </trkpt>
      <trkpt lat="45.89805" lon="3.35456">
        <ele>288.81802368164</ele>
        <time>2020-09-04T07:23:51.655Z</time>
      </trkpt>
      <trkpt lat="45.89643" lon="3.35257">
        <ele>288.05682373047</ele>
        <time>2020-09-04T07:24:19.437Z</time>
      </trkpt>
      <trkpt lat="45.89544" lon="3.35158">
        <ele>289.75857543945</ele>
        <time>2020-09-04T07:24:47.238Z</time>
      </trkpt>
      <trkpt lat="45.89329" lon="3.35006">
        <ele>292.72680664062</ele>
        <time>2020-09-04T07:25:15.078Z</time>
      </trkpt>
      <trkpt lat="45.89296" lon="3.34988">
        <ele>293</ele>
        <time>2020-09-04T07:25:42.923Z</time>
      </trkpt>
      <trkpt lat="45.89269" lon="3.34985">
        <ele>293.30648803711</ele>
        <time>2020-09-04T07:26:10.773Z</time>
      </trkpt>
      <trkpt lat="45.89254" lon="3.3499">
        <ele>294.00131225586</ele>
        <time>2020-09-04T07:26:38.625Z</time>
      </trkpt>
      <trkpt lat="45.8921" lon="3.3499">
        <ele>295.27362060547</ele>
        <time>2020-09-04T07:27:06.484Z</time>
      </trkpt>
      <trkpt lat="45.89104" lon="3.34945">
        <ele>296.54684448242</ele>
        <time>2020-09-04T07:27:34.361Z</time>
      </trkpt>
      <trkpt lat="45.89045" lon="3.34935">
        <ele>298.52331542969</ele>
        <time>2020-09-04T07:28:02.248Z</time>
      </trkpt>
      <trkpt lat="45.88954" lon="3.34886">
        <ele>295.73724365234</ele>
        <time>2020-09-04T07:28:30.150Z</time>
      </trkpt>
      <trkpt lat="45.88923" lon="3.34884">
        <ele>294.73623657227</ele>
        <time>2020-09-04T07:28:58.057Z</time>
      </trkpt>
      <trkpt lat="45.88876" lon="3.34894">
        <ele>293.97357177734</ele>
        <time>2020-09-04T07:29:25.972Z</time>
      </trkpt>
      <trkpt lat="45.888" lon="3.34937">
        <ele>294.38348388672</ele>
        <time>2020-09-04T07:29:53.900Z</time>
      </trkpt>
      <trkpt lat="45.88794" lon="3.34941">
        <ele>294.56338500977</ele>
        <time>2020-09-04T07:30:21.829Z</time>
      </trkpt>
      <trkpt lat="45.88661" lon="3.35">
        <ele>294.8493347168</ele>
        <time>2020-09-04T07:30:49.780Z</time>
      </trkpt>
      <trkpt lat="45.88566" lon="3.3502">
        <ele>292.81381225586</ele>
        <time>2020-09-04T07:31:17.747Z</time>
      </trkpt>
      <trkpt lat="45.88501" lon="3.35033">
        <ele>297.53170776367</ele>
        <time>2020-09-04T07:31:45.724Z</time>
      </trkpt>
      <trkpt lat="45.88408" lon="3.3502">
        <ele>298.19927978516</ele>
        <time>2020-09-04T07:32:13.716Z</time>
      </trkpt>
      <trkpt lat="45.88377" lon="3.35014">
        <ele>298.00411987305</ele>
        <time>2020-09-04T07:32:41.713Z</time>
      </trkpt>
      <trkpt lat="45.88377" lon="3.35014">
        <ele>298.00411987305</ele>
        <time>2020-09-04T07:33:09.710Z</time>
      </trkpt>
      <trkpt lat="45.88302" lon="3.34983">
        <ele>296.63208007812</ele>
        <time>2020-09-04T07:33:37.719Z</time>
      </trkpt>
      <trkpt lat="45.88243" lon="3.34946">
        <ele>296.24591064453</ele>
        <time>2020-09-04T07:34:05.739Z</time>
      </trkpt>
      <trkpt lat="45.88215" lon="3.34918">
        <ele>295.88946533203</ele>
        <time>2020-09-04T07:34:33.764Z</time>
      </trkpt>
      <trkpt lat="45.88161" lon="3.34863">
        <ele>295.86392211914</ele>
        <time>2020-09-04T07:35:01.800Z</time>
      </trkpt>
      <trkpt lat="45.88141" lon="3.34851">
        <ele>296.06967163086</ele>
        <time>2020-09-04T07:35:29.839Z</time>
      </trkpt>
      <trkpt lat="45.88027" lon="3.3483">
        <ele>299.14196777344</ele>
        <time>2020-09-04T07:35:57.897Z</time>
      </trkpt>
      <trkpt lat="45.87971" lon="3.34804">
        <ele>299.50241088867</ele>
        <time>2020-09-04T07:36:25.964Z</time>
      </trkpt>
      <trkpt lat="45.87926" lon="3.34769">
        <ele>299.61825561523</ele>
        <time>2020-09-04T07:36:54.039Z</time>
      </trkpt>
      <trkpt lat="45.87881" lon="3.34717">
        <ele>299.64562988281</ele>
        <time>2020-09-04T07:37:22.124Z</time>
      </trkpt>
      <trkpt lat="45.87819" lon="3.34632">
        <ele>299.54138183594</ele>
        <time>2020-09-04T07:37:50.222Z</time>
      </trkpt>
      <trkpt lat="45.87742" lon="3.34499">
        <ele>296.64657592773</ele>
        <time>2020-09-04T07:38:18.340Z</time>
      </trkpt>
      <trkpt lat="45.87628" lon="3.3439">
        <ele>299.63214111328</ele>
        <time>2020-09-04T07:38:46.480Z</time>
      </trkpt>
      <trkpt lat="45.87555" lon="3.34307">
        <ele>299.52163696289</ele>
        <time>2020-09-04T07:39:14.634Z</time>
      </trkpt>
      <trkpt lat="45.87521" lon="3.34278">
        <ele>297.65512084961</ele>
        <time>2020-09-04T07:39:42.795Z</time>
      </trkpt>
      <trkpt lat="45.87521" lon="3.34278">
        <ele>297.65533447266</ele>
        <time>2020-09-04T07:40:10.956Z</time>
      </trkpt>
      <trkpt lat="45.87429" lon="3.3423">
        <ele>296.87258911133</ele>
        <time>2020-09-04T07:40:39.132Z</time>
      </trkpt>
      <trkpt lat="45.87395" lon="3.34198">
        <ele>297.36175537109</ele>
        <time>2020-09-04T07:41:07.315Z</time>
      </trkpt>
      <trkpt lat="45.87367" lon="3.34159">
        <ele>297.56753540039</ele>
        <time>2020-09-04T07:41:35.504Z</time>
      </trkpt>
      <trkpt lat="45.87344" lon="3.34104">
        <ele>296.61572265625</ele>
        <time>2020-09-04T07:42:03.700Z</time>
      </trkpt>
      <trkpt lat="45.87292" lon="3.3393">
        <ele>292.02960205078</ele>
        <time>2020-09-04T07:42:31.918Z</time>
      </trkpt>
      <trkpt lat="45.87252" lon="3.33837">
        <ele>294.29711914062</ele>
        <time>2020-09-04T07:43:00.148Z</time>
      </trkpt>
      <trkpt lat="45.87252" lon="3.33837">
        <ele>294.29641723633</ele>
        <time>2020-09-04T07:43:28.378Z</time>
      </trkpt>
      <trkpt lat="45.87237" lon="3.33811">
        <ele>294.91430664062</ele>
        <time>2020-09-04T07:43:56.612Z</time>
      </trkpt>
      <trkpt lat="45.87159" lon="3.33727">
        <ele>298.19314575195</ele>
        <time>2020-09-04T07:44:24.861Z</time>
      </trkpt>
      <trkpt lat="45.87159" lon="3.33727">
        <ele>298.19284057617</ele>
        <time>2020-09-04T07:44:53.110Z</time>
      </trkpt>
      <trkpt lat="45.87074" lon="3.33668">
        <ele>300.93759155273</ele>
        <time>2020-09-04T07:45:21.374Z</time>
      </trkpt>
      <trkpt lat="45.87024" lon="3.33644">
        <ele>301.43606567383</ele>
        <time>2020-09-04T07:45:49.647Z</time>
      </trkpt>
      <trkpt lat="45.8686" lon="3.3362">
        <ele>300.7321472168</ele>
        <time>2020-09-04T07:46:17.946Z</time>
      </trkpt>
      <trkpt lat="45.86802" lon="3.33605">
        <ele>301.14196777344</ele>
        <time>2020-09-04T07:46:46.255Z</time>
      </trkpt>
      <trkpt lat="45.86752" lon="3.33579">
        <ele>301.20388793945</ele>
        <time>2020-09-04T07:47:14.572Z</time>
      </trkpt>
      <trkpt lat="45.86752" lon="3.33579">
        <ele>301.20376586914</ele>
        <time>2020-09-04T07:47:42.889Z</time>
      </trkpt>
      <trkpt lat="45.86709" lon="3.3354">
        <ele>300.30810546875</ele>
        <time>2020-09-04T07:48:11.214Z</time>
      </trkpt>
      <trkpt lat="45.86671" lon="3.33508">
        <ele>298.5380859375</ele>
        <time>2020-09-04T07:48:39.546Z</time>
      </trkpt>
      <trkpt lat="45.86644" lon="3.33497">
        <ele>297.50827026367</ele>
        <time>2020-09-04T07:49:07.883Z</time>
      </trkpt>
      <trkpt lat="45.86522" lon="3.33509">
        <ele>298.48007202148</ele>
        <time>2020-09-04T07:49:36.239Z</time>
      </trkpt>
      <trkpt lat="45.86413" lon="3.33487">
        <ele>297.31594848633</ele>
        <time>2020-09-04T07:50:04.613Z</time>
      </trkpt>
      <trkpt lat="45.86354" lon="3.33507">
        <ele>299.00341796875</ele>
        <time>2020-09-04T07:50:32.997Z</time>
      </trkpt>
      <trkpt lat="45.86316" lon="3.33536">
        <ele>300.7565612793</ele>
        <time>2020-09-04T07:51:01.388Z</time>
      </trkpt>
      <trkpt lat="45.86309" lon="3.3355">
        <ele>300.93676757812</ele>
        <time>2020-09-04T07:51:29.780Z</time>
      </trkpt>
      <trkpt lat="45.86299" lon="3.3355">
        <ele>300.67932128906</ele>
        <time>2020-09-04T07:51:58.174Z</time>
      </trkpt>
      <trkpt lat="45.86282" lon="3.3354">
        <ele>300.06164550781</ele>
        <time>2020-09-04T07:52:26.571Z</time>
      </trkpt>
      <trkpt lat="45.86227" lon="3.33511">
        <ele>297.99554443359</ele>
        <time>2020-09-04T07:52:54.977Z</time>
      </trkpt>
      <trkpt lat="45.86197" lon="3.33484">
        <ele>297.88095092773</ele>
        <time>2020-09-04T07:53:23.389Z</time>
      </trkpt>
      <trkpt lat="45.86185" lon="3.33453">
        <ele>297.18585205078</ele>
        <time>2020-09-04T07:53:51.805Z</time>
      </trkpt>
      <trkpt lat="45.86172" lon="3.33419">
        <ele>296.69204711914</ele>
        <time>2020-09-04T07:54:20.225Z</time>
      </trkpt>
      <trkpt lat="45.86171" lon="3.33416">
        <ele>296.69177246094</ele>
        <time>2020-09-04T07:54:48.646Z</time>
      </trkpt>
      <trkpt lat="45.86155" lon="3.3336">
        <ele>296.60165405273</ele>
        <time>2020-09-04T07:55:17.074Z</time>
      </trkpt>
      <trkpt lat="45.86123" lon="3.33248">
        <ele>299.19891357422</ele>
        <time>2020-09-04T07:55:45.515Z</time>
      </trkpt>
      <trkpt lat="45.8609" lon="3.32905">
        <ele>300.40484619141</ele>
        <time>2020-09-04T07:56:13.995Z</time>
      </trkpt>
      <trkpt lat="45.86098" lon="3.32679">
        <ele>298.05032348633</ele>
        <time>2020-09-04T07:56:42.500Z</time>
      </trkpt>
      <trkpt lat="45.86117" lon="3.3255">
        <ele>298.26748657227</ele>
        <time>2020-09-04T07:57:11.020Z</time>
      </trkpt>
      <trkpt lat="45.86112" lon="3.32459">
        <ele>298.65603637695</ele>
        <time>2020-09-04T07:57:39.550Z</time>
      </trkpt>
      <trkpt lat="45.86053" lon="3.3227">
        <ele>294.49371337891</ele>
        <time>2020-09-04T07:58:08.103Z</time>
      </trkpt>
      <trkpt lat="45.86046" lon="3.32211">
        <ele>293.59939575195</ele>
        <time>2020-09-04T07:58:36.663Z</time>
      </trkpt>
      <trkpt lat="45.8604" lon="3.32044">
        <ele>293</ele>
        <time>2020-09-04T07:59:05.242Z</time>
      </trkpt>
      <trkpt lat="45.86041" lon="3.31846">
        <ele>293.01031494141</ele>
        <time>2020-09-04T07:59:33.843Z</time>
      </trkpt>
      <trkpt lat="45.8604" lon="3.31726">
        <ele>293</ele>
        <time>2020-09-04T08:00:02.457Z</time>
      </trkpt>
      <trkpt lat="45.86041" lon="3.31407">
        <ele>292.63842773438</ele>
        <time>2020-09-04T08:00:31.107Z</time>
      </trkpt>
      <trkpt lat="45.86046" lon="3.3133">
        <ele>293</ele>
        <time>2020-09-04T08:00:59.766Z</time>
      </trkpt>
      <trkpt lat="45.86071" lon="3.31202">
        <ele>294.64721679688</ele>
        <time>2020-09-04T08:01:28.439Z</time>
      </trkpt>
      <trkpt lat="45.8608" lon="3.31161">
        <ele>294.48599243164</ele>
        <time>2020-09-04T08:01:57.117Z</time>
      </trkpt>
      <trkpt lat="45.86207" lon="3.30558">
        <ele>293.8</ele>
      </trkpt>
      <trkpt lat="45.86257" lon="3.30163">
        <ele>315.1</ele>
      </trkpt>
      <trkpt lat="45.86352" lon="3.29547">
        <ele>315.4</ele>
      </trkpt>
      <trkpt lat="45.86016" lon="3.29184">
        <ele>319.9</ele>
      </trkpt>
    </trkseg>
  </trk>
</gpx>